<?xml version="1.0" encoding="UTF-8" standalone="no" ?>
<gpx xmlns="http://www.topografix.com/GPX/1/1" xmlns:xsi="http://www.w3.org/2001/XMLSchema-instance" xsi:schemaLocation="http://www.topografix.com/GPX/1/1 http://www.topografix.com/GPX/1/1/gpx.xsd" version="1.1" creator="VisuGPX - https://www.visugpx.com">
  <metadata>
    <name>Course à pied dans l'après-midi</name>
  </metadata>
  <trk>
    <name><![CDATA[Course à pied dans l'après-midi_1]]></name>
    <trkseg>
      <trkpt lat="43.64743" lon="1.37641">
        <ele>134</ele>
        <time>2023-12-20T15:38:13Z</time>
      </trkpt>
      <trkpt lat="43.64743" lon="1.3764">
        <ele>134</ele>
        <time>2023-12-20T15:38:14Z</time>
      </trkpt>
      <trkpt lat="43.64745" lon="1.37638">
        <ele>133</ele>
        <time>2023-12-20T15:38:15Z</time>
      </trkpt>
      <trkpt lat="43.64747" lon="1.37637">
        <ele>133</ele>
        <time>2023-12-20T15:38:16Z</time>
      </trkpt>
      <trkpt lat="43.64749" lon="1.37635">
        <ele>133</ele>
        <time>2023-12-20T15:38:17Z</time>
      </trkpt>
      <trkpt lat="43.6475" lon="1.37632">
        <ele>133</ele>
        <time>2023-12-20T15:38:18Z</time>
      </trkpt>
      <trkpt lat="43.64752" lon="1.37631">
        <ele>133</ele>
        <time>2023-12-20T15:38:19Z</time>
      </trkpt>
      <trkpt lat="43.64754" lon="1.37629">
        <ele>133</ele>
        <time>2023-12-20T15:38:20Z</time>
      </trkpt>
      <trkpt lat="43.64756" lon="1.37626">
        <ele>133</ele>
        <time>2023-12-20T15:38:21Z</time>
      </trkpt>
      <trkpt lat="43.64758" lon="1.37624">
        <ele>133</ele>
        <time>2023-12-20T15:38:22Z</time>
      </trkpt>
      <trkpt lat="43.64759" lon="1.37622">
        <ele>133</ele>
        <time>2023-12-20T15:38:23Z</time>
      </trkpt>
      <trkpt lat="43.64759" lon="1.37622">
        <ele>133</ele>
        <time>2023-12-20T15:38:24Z</time>
      </trkpt>
      <trkpt lat="43.64761" lon="1.37619">
        <ele>133</ele>
        <time>2023-12-20T15:38:25Z</time>
      </trkpt>
      <trkpt lat="43.64761" lon="1.37619">
        <ele>133</ele>
        <time>2023-12-20T15:38:26Z</time>
      </trkpt>
      <trkpt lat="43.64763" lon="1.37619">
        <ele>133</ele>
        <time>2023-12-20T15:38:27Z</time>
      </trkpt>
      <trkpt lat="43.64763" lon="1.37619">
        <ele>133</ele>
        <time>2023-12-20T15:38:28Z</time>
      </trkpt>
      <trkpt lat="43.64763" lon="1.37619">
        <ele>133</ele>
        <time>2023-12-20T15:38:29Z</time>
      </trkpt>
      <trkpt lat="43.64763" lon="1.37619">
        <ele>134</ele>
        <time>2023-12-20T15:38:30Z</time>
      </trkpt>
      <trkpt lat="43.64763" lon="1.37619">
        <ele>134</ele>
        <time>2023-12-20T15:38:31Z</time>
      </trkpt>
      <trkpt lat="43.64763" lon="1.37619">
        <ele>134</ele>
        <time>2023-12-20T15:38:32Z</time>
      </trkpt>
      <trkpt lat="43.64763" lon="1.37619">
        <ele>134</ele>
        <time>2023-12-20T15:38:33Z</time>
      </trkpt>
      <trkpt lat="43.64763" lon="1.37619">
        <ele>134</ele>
        <time>2023-12-20T15:38:34Z</time>
      </trkpt>
      <trkpt lat="43.64763" lon="1.37619">
        <ele>134</ele>
        <time>2023-12-20T15:38:35Z</time>
      </trkpt>
      <trkpt lat="43.64763" lon="1.37619">
        <ele>134</ele>
        <time>2023-12-20T15:38:36Z</time>
      </trkpt>
      <trkpt lat="43.64764" lon="1.37621">
        <ele>134</ele>
        <time>2023-12-20T15:38:37Z</time>
      </trkpt>
      <trkpt lat="43.64764" lon="1.37621">
        <ele>134</ele>
        <time>2023-12-20T15:38:38Z</time>
      </trkpt>
      <trkpt lat="43.64764" lon="1.37621">
        <ele>134</ele>
        <time>2023-12-20T15:38:39Z</time>
      </trkpt>
      <trkpt lat="43.64765" lon="1.3762">
        <ele>134</ele>
        <time>2023-12-20T15:38:40Z</time>
      </trkpt>
      <trkpt lat="43.64765" lon="1.3762">
        <ele>134</ele>
        <time>2023-12-20T15:38:41Z</time>
      </trkpt>
      <trkpt lat="43.64768" lon="1.37616">
        <ele>134</ele>
        <time>2023-12-20T15:38:42Z</time>
      </trkpt>
      <trkpt lat="43.6477" lon="1.37614">
        <ele>133</ele>
        <time>2023-12-20T15:38:43Z</time>
      </trkpt>
      <trkpt lat="43.64772" lon="1.37612">
        <ele>133</ele>
        <time>2023-12-20T15:38:44Z</time>
      </trkpt>
      <trkpt lat="43.64774" lon="1.3761">
        <ele>133</ele>
        <time>2023-12-20T15:38:45Z</time>
      </trkpt>
      <trkpt lat="43.64776" lon="1.37608">
        <ele>133</ele>
        <time>2023-12-20T15:38:46Z</time>
      </trkpt>
      <trkpt lat="43.64778" lon="1.37606">
        <ele>133</ele>
        <time>2023-12-20T15:38:47Z</time>
      </trkpt>
      <trkpt lat="43.64781" lon="1.37605">
        <ele>133</ele>
        <time>2023-12-20T15:38:48Z</time>
      </trkpt>
      <trkpt lat="43.64783" lon="1.37603">
        <ele>133</ele>
        <time>2023-12-20T15:38:49Z</time>
      </trkpt>
      <trkpt lat="43.64786" lon="1.37603">
        <ele>133</ele>
        <time>2023-12-20T15:38:50Z</time>
      </trkpt>
      <trkpt lat="43.64788" lon="1.37603">
        <ele>133</ele>
        <time>2023-12-20T15:38:51Z</time>
      </trkpt>
      <trkpt lat="43.64791" lon="1.37603">
        <ele>133</ele>
        <time>2023-12-20T15:38:52Z</time>
      </trkpt>
      <trkpt lat="43.64792" lon="1.37602">
        <ele>133</ele>
        <time>2023-12-20T15:38:53Z</time>
      </trkpt>
      <trkpt lat="43.64792" lon="1.37602">
        <ele>133</ele>
        <time>2023-12-20T15:38:54Z</time>
      </trkpt>
      <trkpt lat="43.64798" lon="1.37601">
        <ele>133</ele>
        <time>2023-12-20T15:38:55Z</time>
      </trkpt>
      <trkpt lat="43.64799" lon="1.37601">
        <ele>133</ele>
        <time>2023-12-20T15:38:56Z</time>
      </trkpt>
      <trkpt lat="43.64802" lon="1.376">
        <ele>133</ele>
        <time>2023-12-20T15:38:57Z</time>
      </trkpt>
      <trkpt lat="43.64804" lon="1.37601">
        <ele>134</ele>
        <time>2023-12-20T15:38:58Z</time>
      </trkpt>
      <trkpt lat="43.64807" lon="1.37601">
        <ele>134</ele>
        <time>2023-12-20T15:38:59Z</time>
      </trkpt>
      <trkpt lat="43.64809" lon="1.37602">
        <ele>134</ele>
        <time>2023-12-20T15:39:00Z</time>
      </trkpt>
      <trkpt lat="43.64811" lon="1.37603">
        <ele>134</ele>
        <time>2023-12-20T15:39:01Z</time>
      </trkpt>
      <trkpt lat="43.64813" lon="1.37604">
        <ele>134</ele>
        <time>2023-12-20T15:39:02Z</time>
      </trkpt>
      <trkpt lat="43.64816" lon="1.37605">
        <ele>134</ele>
        <time>2023-12-20T15:39:03Z</time>
      </trkpt>
      <trkpt lat="43.64818" lon="1.37606">
        <ele>134</ele>
        <time>2023-12-20T15:39:04Z</time>
      </trkpt>
      <trkpt lat="43.6482" lon="1.37608">
        <ele>134</ele>
        <time>2023-12-20T15:39:05Z</time>
      </trkpt>
      <trkpt lat="43.64822" lon="1.37609">
        <ele>134</ele>
        <time>2023-12-20T15:39:06Z</time>
      </trkpt>
      <trkpt lat="43.64824" lon="1.3761">
        <ele>134</ele>
        <time>2023-12-20T15:39:07Z</time>
      </trkpt>
      <trkpt lat="43.64826" lon="1.37612">
        <ele>134</ele>
        <time>2023-12-20T15:39:08Z</time>
      </trkpt>
      <trkpt lat="43.64828" lon="1.37614">
        <ele>134</ele>
        <time>2023-12-20T15:39:09Z</time>
      </trkpt>
      <trkpt lat="43.6483" lon="1.37615">
        <ele>134</ele>
        <time>2023-12-20T15:39:10Z</time>
      </trkpt>
      <trkpt lat="43.64832" lon="1.37616">
        <ele>133</ele>
        <time>2023-12-20T15:39:11Z</time>
      </trkpt>
      <trkpt lat="43.64835" lon="1.37617">
        <ele>133</ele>
        <time>2023-12-20T15:39:12Z</time>
      </trkpt>
      <trkpt lat="43.64837" lon="1.37619">
        <ele>133</ele>
        <time>2023-12-20T15:39:13Z</time>
      </trkpt>
      <trkpt lat="43.64837" lon="1.37619">
        <ele>133</ele>
        <time>2023-12-20T15:39:14Z</time>
      </trkpt>
      <trkpt lat="43.64841" lon="1.3762">
        <ele>133</ele>
        <time>2023-12-20T15:39:15Z</time>
      </trkpt>
      <trkpt lat="43.64842" lon="1.37621">
        <ele>133</ele>
        <time>2023-12-20T15:39:16Z</time>
      </trkpt>
      <trkpt lat="43.64845" lon="1.37623">
        <ele>133</ele>
        <time>2023-12-20T15:39:17Z</time>
      </trkpt>
      <trkpt lat="43.64847" lon="1.37624">
        <ele>133</ele>
        <time>2023-12-20T15:39:18Z</time>
      </trkpt>
      <trkpt lat="43.64849" lon="1.37626">
        <ele>133</ele>
        <time>2023-12-20T15:39:19Z</time>
      </trkpt>
      <trkpt lat="43.64852" lon="1.37628">
        <ele>133</ele>
        <time>2023-12-20T15:39:20Z</time>
      </trkpt>
      <trkpt lat="43.64854" lon="1.3763">
        <ele>133</ele>
        <time>2023-12-20T15:39:21Z</time>
      </trkpt>
      <trkpt lat="43.64854" lon="1.3763">
        <ele>133</ele>
        <time>2023-12-20T15:39:22Z</time>
      </trkpt>
      <trkpt lat="43.64856" lon="1.37632">
        <ele>133</ele>
        <time>2023-12-20T15:39:23Z</time>
      </trkpt>
      <trkpt lat="43.64858" lon="1.37635">
        <ele>133</ele>
        <time>2023-12-20T15:39:24Z</time>
      </trkpt>
      <trkpt lat="43.64861" lon="1.37638">
        <ele>133</ele>
        <time>2023-12-20T15:39:25Z</time>
      </trkpt>
      <trkpt lat="43.64863" lon="1.3764">
        <ele>133</ele>
        <time>2023-12-20T15:39:26Z</time>
      </trkpt>
      <trkpt lat="43.64865" lon="1.37642">
        <ele>133</ele>
        <time>2023-12-20T15:39:27Z</time>
      </trkpt>
      <trkpt lat="43.64866" lon="1.37644">
        <ele>133</ele>
        <time>2023-12-20T15:39:28Z</time>
      </trkpt>
      <trkpt lat="43.64868" lon="1.37646">
        <ele>133</ele>
        <time>2023-12-20T15:39:29Z</time>
      </trkpt>
      <trkpt lat="43.64868" lon="1.37646">
        <ele>133</ele>
        <time>2023-12-20T15:39:30Z</time>
      </trkpt>
      <trkpt lat="43.64871" lon="1.37649">
        <ele>133</ele>
        <time>2023-12-20T15:39:31Z</time>
      </trkpt>
      <trkpt lat="43.64871" lon="1.37649">
        <ele>133</ele>
        <time>2023-12-20T15:39:32Z</time>
      </trkpt>
      <trkpt lat="43.64874" lon="1.37651">
        <ele>133</ele>
        <time>2023-12-20T15:39:33Z</time>
      </trkpt>
      <trkpt lat="43.64874" lon="1.37651">
        <ele>133</ele>
        <time>2023-12-20T15:39:34Z</time>
      </trkpt>
      <trkpt lat="43.64877" lon="1.37651">
        <ele>133</ele>
        <time>2023-12-20T15:39:35Z</time>
      </trkpt>
      <trkpt lat="43.64879" lon="1.3765">
        <ele>134</ele>
        <time>2023-12-20T15:39:36Z</time>
      </trkpt>
      <trkpt lat="43.64882" lon="1.3765">
        <ele>134</ele>
        <time>2023-12-20T15:39:37Z</time>
      </trkpt>
      <trkpt lat="43.64885" lon="1.37652">
        <ele>133</ele>
        <time>2023-12-20T15:39:38Z</time>
      </trkpt>
      <trkpt lat="43.64887" lon="1.37654">
        <ele>133</ele>
        <time>2023-12-20T15:39:39Z</time>
      </trkpt>
      <trkpt lat="43.64887" lon="1.37654">
        <ele>133</ele>
        <time>2023-12-20T15:39:40Z</time>
      </trkpt>
      <trkpt lat="43.64888" lon="1.37658">
        <ele>133</ele>
        <time>2023-12-20T15:39:41Z</time>
      </trkpt>
      <trkpt lat="43.64889" lon="1.37661">
        <ele>133</ele>
        <time>2023-12-20T15:39:42Z</time>
      </trkpt>
      <trkpt lat="43.64891" lon="1.37664">
        <ele>133</ele>
        <time>2023-12-20T15:39:43Z</time>
      </trkpt>
      <trkpt lat="43.64892" lon="1.37667">
        <ele>133</ele>
        <time>2023-12-20T15:39:44Z</time>
      </trkpt>
      <trkpt lat="43.64893" lon="1.3767">
        <ele>133</ele>
        <time>2023-12-20T15:39:45Z</time>
      </trkpt>
      <trkpt lat="43.64894" lon="1.37673">
        <ele>133</ele>
        <time>2023-12-20T15:39:46Z</time>
      </trkpt>
      <trkpt lat="43.64895" lon="1.37677">
        <ele>133</ele>
        <time>2023-12-20T15:39:47Z</time>
      </trkpt>
      <trkpt lat="43.64896" lon="1.3768">
        <ele>133</ele>
        <time>2023-12-20T15:39:48Z</time>
      </trkpt>
      <trkpt lat="43.64896" lon="1.37683">
        <ele>133</ele>
        <time>2023-12-20T15:39:49Z</time>
      </trkpt>
      <trkpt lat="43.64897" lon="1.37686">
        <ele>133</ele>
        <time>2023-12-20T15:39:50Z</time>
      </trkpt>
      <trkpt lat="43.64898" lon="1.37689">
        <ele>133</ele>
        <time>2023-12-20T15:39:51Z</time>
      </trkpt>
      <trkpt lat="43.64899" lon="1.37692">
        <ele>133</ele>
        <time>2023-12-20T15:39:52Z</time>
      </trkpt>
      <trkpt lat="43.64899" lon="1.37695">
        <ele>133</ele>
        <time>2023-12-20T15:39:53Z</time>
      </trkpt>
      <trkpt lat="43.649" lon="1.37698">
        <ele>133</ele>
        <time>2023-12-20T15:39:54Z</time>
      </trkpt>
      <trkpt lat="43.649" lon="1.37701">
        <ele>133</ele>
        <time>2023-12-20T15:39:55Z</time>
      </trkpt>
      <trkpt lat="43.64901" lon="1.37704">
        <ele>133</ele>
        <time>2023-12-20T15:39:56Z</time>
      </trkpt>
      <trkpt lat="43.64901" lon="1.37707">
        <ele>133</ele>
        <time>2023-12-20T15:39:57Z</time>
      </trkpt>
      <trkpt lat="43.64902" lon="1.37709">
        <ele>133</ele>
        <time>2023-12-20T15:39:58Z</time>
      </trkpt>
      <trkpt lat="43.64903" lon="1.37712">
        <ele>133</ele>
        <time>2023-12-20T15:39:59Z</time>
      </trkpt>
      <trkpt lat="43.64903" lon="1.37715">
        <ele>133</ele>
        <time>2023-12-20T15:40:00Z</time>
      </trkpt>
      <trkpt lat="43.64904" lon="1.37717">
        <ele>133</ele>
        <time>2023-12-20T15:40:01Z</time>
      </trkpt>
      <trkpt lat="43.64905" lon="1.3772">
        <ele>132</ele>
        <time>2023-12-20T15:40:02Z</time>
      </trkpt>
      <trkpt lat="43.64906" lon="1.37724">
        <ele>132</ele>
        <time>2023-12-20T15:40:03Z</time>
      </trkpt>
      <trkpt lat="43.64907" lon="1.37727">
        <ele>132</ele>
        <time>2023-12-20T15:40:04Z</time>
      </trkpt>
      <trkpt lat="43.64908" lon="1.3773">
        <ele>132</ele>
        <time>2023-12-20T15:40:05Z</time>
      </trkpt>
      <trkpt lat="43.64909" lon="1.37733">
        <ele>132</ele>
        <time>2023-12-20T15:40:06Z</time>
      </trkpt>
      <trkpt lat="43.6491" lon="1.37736">
        <ele>132</ele>
        <time>2023-12-20T15:40:07Z</time>
      </trkpt>
      <trkpt lat="43.6491" lon="1.37739">
        <ele>132</ele>
        <time>2023-12-20T15:40:08Z</time>
      </trkpt>
      <trkpt lat="43.64911" lon="1.37743">
        <ele>132</ele>
        <time>2023-12-20T15:40:09Z</time>
      </trkpt>
      <trkpt lat="43.64912" lon="1.37746">
        <ele>132</ele>
        <time>2023-12-20T15:40:10Z</time>
      </trkpt>
      <trkpt lat="43.64912" lon="1.37749">
        <ele>132</ele>
        <time>2023-12-20T15:40:11Z</time>
      </trkpt>
      <trkpt lat="43.64913" lon="1.37752">
        <ele>132</ele>
        <time>2023-12-20T15:40:12Z</time>
      </trkpt>
      <trkpt lat="43.64914" lon="1.37755">
        <ele>132</ele>
        <time>2023-12-20T15:40:13Z</time>
      </trkpt>
      <trkpt lat="43.64914" lon="1.37758">
        <ele>132</ele>
        <time>2023-12-20T15:40:14Z</time>
      </trkpt>
      <trkpt lat="43.64915" lon="1.3776">
        <ele>132</ele>
        <time>2023-12-20T15:40:15Z</time>
      </trkpt>
      <trkpt lat="43.64915" lon="1.37763">
        <ele>132</ele>
        <time>2023-12-20T15:40:16Z</time>
      </trkpt>
      <trkpt lat="43.64916" lon="1.37765">
        <ele>132</ele>
        <time>2023-12-20T15:40:17Z</time>
      </trkpt>
      <trkpt lat="43.64917" lon="1.37768">
        <ele>132</ele>
        <time>2023-12-20T15:40:18Z</time>
      </trkpt>
      <trkpt lat="43.64917" lon="1.3777">
        <ele>132</ele>
        <time>2023-12-20T15:40:19Z</time>
      </trkpt>
      <trkpt lat="43.64917" lon="1.37774">
        <ele>132</ele>
        <time>2023-12-20T15:40:20Z</time>
      </trkpt>
      <trkpt lat="43.64918" lon="1.37777">
        <ele>132</ele>
        <time>2023-12-20T15:40:21Z</time>
      </trkpt>
      <trkpt lat="43.64918" lon="1.3778">
        <ele>132</ele>
        <time>2023-12-20T15:40:22Z</time>
      </trkpt>
      <trkpt lat="43.64918" lon="1.37783">
        <ele>132</ele>
        <time>2023-12-20T15:40:23Z</time>
      </trkpt>
      <trkpt lat="43.64918" lon="1.37786">
        <ele>132</ele>
        <time>2023-12-20T15:40:24Z</time>
      </trkpt>
      <trkpt lat="43.64919" lon="1.37789">
        <ele>132</ele>
        <time>2023-12-20T15:40:25Z</time>
      </trkpt>
      <trkpt lat="43.64919" lon="1.37792">
        <ele>132</ele>
        <time>2023-12-20T15:40:26Z</time>
      </trkpt>
      <trkpt lat="43.6492" lon="1.37794">
        <ele>132</ele>
        <time>2023-12-20T15:40:27Z</time>
      </trkpt>
      <trkpt lat="43.6492" lon="1.37797">
        <ele>132</ele>
        <time>2023-12-20T15:40:28Z</time>
      </trkpt>
      <trkpt lat="43.64921" lon="1.378">
        <ele>132</ele>
        <time>2023-12-20T15:40:29Z</time>
      </trkpt>
      <trkpt lat="43.64921" lon="1.37803">
        <ele>132</ele>
        <time>2023-12-20T15:40:30Z</time>
      </trkpt>
      <trkpt lat="43.64922" lon="1.37805">
        <ele>132</ele>
        <time>2023-12-20T15:40:31Z</time>
      </trkpt>
      <trkpt lat="43.64923" lon="1.37808">
        <ele>132</ele>
        <time>2023-12-20T15:40:32Z</time>
      </trkpt>
      <trkpt lat="43.64924" lon="1.37811">
        <ele>132</ele>
        <time>2023-12-20T15:40:33Z</time>
      </trkpt>
      <trkpt lat="43.64925" lon="1.37814">
        <ele>132</ele>
        <time>2023-12-20T15:40:34Z</time>
      </trkpt>
      <trkpt lat="43.64926" lon="1.37817">
        <ele>132</ele>
        <time>2023-12-20T15:40:35Z</time>
      </trkpt>
      <trkpt lat="43.64927" lon="1.3782">
        <ele>131</ele>
        <time>2023-12-20T15:40:36Z</time>
      </trkpt>
      <trkpt lat="43.64928" lon="1.37823">
        <ele>131</ele>
        <time>2023-12-20T15:40:37Z</time>
      </trkpt>
      <trkpt lat="43.64929" lon="1.37826">
        <ele>131</ele>
        <time>2023-12-20T15:40:38Z</time>
      </trkpt>
      <trkpt lat="43.64929" lon="1.37829">
        <ele>131</ele>
        <time>2023-12-20T15:40:39Z</time>
      </trkpt>
      <trkpt lat="43.6493" lon="1.37832">
        <ele>131</ele>
        <time>2023-12-20T15:40:40Z</time>
      </trkpt>
      <trkpt lat="43.64931" lon="1.37834">
        <ele>131</ele>
        <time>2023-12-20T15:40:41Z</time>
      </trkpt>
      <trkpt lat="43.64932" lon="1.37837">
        <ele>131</ele>
        <time>2023-12-20T15:40:42Z</time>
      </trkpt>
      <trkpt lat="43.64933" lon="1.3784">
        <ele>131</ele>
        <time>2023-12-20T15:40:43Z</time>
      </trkpt>
      <trkpt lat="43.64933" lon="1.37843">
        <ele>131</ele>
        <time>2023-12-20T15:40:44Z</time>
      </trkpt>
      <trkpt lat="43.64934" lon="1.37845">
        <ele>131</ele>
        <time>2023-12-20T15:40:45Z</time>
      </trkpt>
      <trkpt lat="43.64935" lon="1.37848">
        <ele>131</ele>
        <time>2023-12-20T15:40:46Z</time>
      </trkpt>
      <trkpt lat="43.64936" lon="1.3785">
        <ele>131</ele>
        <time>2023-12-20T15:40:47Z</time>
      </trkpt>
      <trkpt lat="43.64937" lon="1.37853">
        <ele>131</ele>
        <time>2023-12-20T15:40:48Z</time>
      </trkpt>
      <trkpt lat="43.64937" lon="1.37856">
        <ele>131</ele>
        <time>2023-12-20T15:40:49Z</time>
      </trkpt>
      <trkpt lat="43.64938" lon="1.37859">
        <ele>131</ele>
        <time>2023-12-20T15:40:50Z</time>
      </trkpt>
      <trkpt lat="43.64939" lon="1.37862">
        <ele>131</ele>
        <time>2023-12-20T15:40:51Z</time>
      </trkpt>
      <trkpt lat="43.64939" lon="1.37865">
        <ele>131</ele>
        <time>2023-12-20T15:40:52Z</time>
      </trkpt>
      <trkpt lat="43.6494" lon="1.37868">
        <ele>131</ele>
        <time>2023-12-20T15:40:53Z</time>
      </trkpt>
      <trkpt lat="43.64941" lon="1.37871">
        <ele>131</ele>
        <time>2023-12-20T15:40:54Z</time>
      </trkpt>
      <trkpt lat="43.64942" lon="1.37874">
        <ele>131</ele>
        <time>2023-12-20T15:40:55Z</time>
      </trkpt>
      <trkpt lat="43.64943" lon="1.37876">
        <ele>131</ele>
        <time>2023-12-20T15:40:56Z</time>
      </trkpt>
      <trkpt lat="43.64945" lon="1.37878">
        <ele>131</ele>
        <time>2023-12-20T15:40:57Z</time>
      </trkpt>
      <trkpt lat="43.64946" lon="1.3788">
        <ele>131</ele>
        <time>2023-12-20T15:40:58Z</time>
      </trkpt>
      <trkpt lat="43.64947" lon="1.37881">
        <ele>131</ele>
        <time>2023-12-20T15:40:59Z</time>
      </trkpt>
      <trkpt lat="43.64949" lon="1.37883">
        <ele>131</ele>
        <time>2023-12-20T15:41:00Z</time>
      </trkpt>
      <trkpt lat="43.6495" lon="1.37886">
        <ele>131</ele>
        <time>2023-12-20T15:41:01Z</time>
      </trkpt>
      <trkpt lat="43.64951" lon="1.37889">
        <ele>131</ele>
        <time>2023-12-20T15:41:02Z</time>
      </trkpt>
      <trkpt lat="43.64952" lon="1.37892">
        <ele>131</ele>
        <time>2023-12-20T15:41:03Z</time>
      </trkpt>
      <trkpt lat="43.64953" lon="1.37895">
        <ele>131</ele>
        <time>2023-12-20T15:41:04Z</time>
      </trkpt>
      <trkpt lat="43.64954" lon="1.37898">
        <ele>131</ele>
        <time>2023-12-20T15:41:05Z</time>
      </trkpt>
      <trkpt lat="43.64955" lon="1.37901">
        <ele>131</ele>
        <time>2023-12-20T15:41:06Z</time>
      </trkpt>
      <trkpt lat="43.64956" lon="1.37905">
        <ele>131</ele>
        <time>2023-12-20T15:41:07Z</time>
      </trkpt>
      <trkpt lat="43.64957" lon="1.37908">
        <ele>131</ele>
        <time>2023-12-20T15:41:08Z</time>
      </trkpt>
      <trkpt lat="43.64957" lon="1.37911">
        <ele>131</ele>
        <time>2023-12-20T15:41:09Z</time>
      </trkpt>
      <trkpt lat="43.64958" lon="1.37913">
        <ele>131</ele>
        <time>2023-12-20T15:41:10Z</time>
      </trkpt>
      <trkpt lat="43.64959" lon="1.37916">
        <ele>131</ele>
        <time>2023-12-20T15:41:11Z</time>
      </trkpt>
      <trkpt lat="43.6496" lon="1.37919">
        <ele>131</ele>
        <time>2023-12-20T15:41:12Z</time>
      </trkpt>
      <trkpt lat="43.64961" lon="1.37922">
        <ele>130</ele>
        <time>2023-12-20T15:41:13Z</time>
      </trkpt>
      <trkpt lat="43.64962" lon="1.37924">
        <ele>130</ele>
        <time>2023-12-20T15:41:14Z</time>
      </trkpt>
      <trkpt lat="43.64964" lon="1.37927">
        <ele>130</ele>
        <time>2023-12-20T15:41:15Z</time>
      </trkpt>
      <trkpt lat="43.64965" lon="1.3793">
        <ele>130</ele>
        <time>2023-12-20T15:41:16Z</time>
      </trkpt>
      <trkpt lat="43.64967" lon="1.37932">
        <ele>130</ele>
        <time>2023-12-20T15:41:17Z</time>
      </trkpt>
      <trkpt lat="43.64968" lon="1.37935">
        <ele>130</ele>
        <time>2023-12-20T15:41:18Z</time>
      </trkpt>
      <trkpt lat="43.6497" lon="1.37937">
        <ele>130</ele>
        <time>2023-12-20T15:41:19Z</time>
      </trkpt>
      <trkpt lat="43.64972" lon="1.37939">
        <ele>129</ele>
        <time>2023-12-20T15:41:20Z</time>
      </trkpt>
      <trkpt lat="43.64974" lon="1.37942">
        <ele>129</ele>
        <time>2023-12-20T15:41:21Z</time>
      </trkpt>
      <trkpt lat="43.64975" lon="1.37944">
        <ele>129</ele>
        <time>2023-12-20T15:41:22Z</time>
      </trkpt>
      <trkpt lat="43.64977" lon="1.37947">
        <ele>129</ele>
        <time>2023-12-20T15:41:23Z</time>
      </trkpt>
      <trkpt lat="43.64978" lon="1.37949">
        <ele>129</ele>
        <time>2023-12-20T15:41:24Z</time>
      </trkpt>
      <trkpt lat="43.64979" lon="1.37951">
        <ele>129</ele>
        <time>2023-12-20T15:41:25Z</time>
      </trkpt>
      <trkpt lat="43.64981" lon="1.37954">
        <ele>129</ele>
        <time>2023-12-20T15:41:26Z</time>
      </trkpt>
      <trkpt lat="43.64983" lon="1.37958">
        <ele>129</ele>
        <time>2023-12-20T15:41:27Z</time>
      </trkpt>
      <trkpt lat="43.64985" lon="1.37961">
        <ele>129</ele>
        <time>2023-12-20T15:41:28Z</time>
      </trkpt>
      <trkpt lat="43.64985" lon="1.37961">
        <ele>129</ele>
        <time>2023-12-20T15:41:29Z</time>
      </trkpt>
      <trkpt lat="43.64988" lon="1.37967">
        <ele>129</ele>
        <time>2023-12-20T15:41:30Z</time>
      </trkpt>
      <trkpt lat="43.64989" lon="1.37968">
        <ele>129</ele>
        <time>2023-12-20T15:41:31Z</time>
      </trkpt>
      <trkpt lat="43.6499" lon="1.37971">
        <ele>129</ele>
        <time>2023-12-20T15:41:32Z</time>
      </trkpt>
      <trkpt lat="43.64992" lon="1.37973">
        <ele>129</ele>
        <time>2023-12-20T15:41:33Z</time>
      </trkpt>
      <trkpt lat="43.64993" lon="1.37976">
        <ele>129</ele>
        <time>2023-12-20T15:41:34Z</time>
      </trkpt>
      <trkpt lat="43.64994" lon="1.37979">
        <ele>129</ele>
        <time>2023-12-20T15:41:35Z</time>
      </trkpt>
      <trkpt lat="43.64995" lon="1.37981">
        <ele>129</ele>
        <time>2023-12-20T15:41:36Z</time>
      </trkpt>
      <trkpt lat="43.64997" lon="1.37984">
        <ele>129</ele>
        <time>2023-12-20T15:41:37Z</time>
      </trkpt>
      <trkpt lat="43.64998" lon="1.37986">
        <ele>128</ele>
        <time>2023-12-20T15:41:38Z</time>
      </trkpt>
      <trkpt lat="43.65" lon="1.37989">
        <ele>128</ele>
        <time>2023-12-20T15:41:39Z</time>
      </trkpt>
      <trkpt lat="43.65002" lon="1.37991">
        <ele>128</ele>
        <time>2023-12-20T15:41:40Z</time>
      </trkpt>
      <trkpt lat="43.65004" lon="1.37993">
        <ele>128</ele>
        <time>2023-12-20T15:41:41Z</time>
      </trkpt>
      <trkpt lat="43.65005" lon="1.37995">
        <ele>128</ele>
        <time>2023-12-20T15:41:42Z</time>
      </trkpt>
      <trkpt lat="43.65007" lon="1.37998">
        <ele>128</ele>
        <time>2023-12-20T15:41:43Z</time>
      </trkpt>
      <trkpt lat="43.65009" lon="1.38">
        <ele>128</ele>
        <time>2023-12-20T15:41:44Z</time>
      </trkpt>
      <trkpt lat="43.6501" lon="1.38002">
        <ele>128</ele>
        <time>2023-12-20T15:41:45Z</time>
      </trkpt>
      <trkpt lat="43.65012" lon="1.38005">
        <ele>128</ele>
        <time>2023-12-20T15:41:46Z</time>
      </trkpt>
      <trkpt lat="43.65013" lon="1.38007">
        <ele>128</ele>
        <time>2023-12-20T15:41:47Z</time>
      </trkpt>
      <trkpt lat="43.65015" lon="1.38009">
        <ele>128</ele>
        <time>2023-12-20T15:41:48Z</time>
      </trkpt>
      <trkpt lat="43.65017" lon="1.38012">
        <ele>128</ele>
        <time>2023-12-20T15:41:49Z</time>
      </trkpt>
      <trkpt lat="43.65019" lon="1.38014">
        <ele>128</ele>
        <time>2023-12-20T15:41:50Z</time>
      </trkpt>
      <trkpt lat="43.6502" lon="1.38016">
        <ele>128</ele>
        <time>2023-12-20T15:41:51Z</time>
      </trkpt>
      <trkpt lat="43.65022" lon="1.38018">
        <ele>128</ele>
        <time>2023-12-20T15:41:52Z</time>
      </trkpt>
      <trkpt lat="43.65023" lon="1.38021">
        <ele>128</ele>
        <time>2023-12-20T15:41:53Z</time>
      </trkpt>
      <trkpt lat="43.65023" lon="1.38021">
        <ele>128</ele>
        <time>2023-12-20T15:41:54Z</time>
      </trkpt>
      <trkpt lat="43.65026" lon="1.38028">
        <ele>128</ele>
        <time>2023-12-20T15:41:55Z</time>
      </trkpt>
      <trkpt lat="43.65027" lon="1.38029">
        <ele>128</ele>
        <time>2023-12-20T15:41:56Z</time>
      </trkpt>
      <trkpt lat="43.65029" lon="1.38032">
        <ele>128</ele>
        <time>2023-12-20T15:41:57Z</time>
      </trkpt>
      <trkpt lat="43.6503" lon="1.38034">
        <ele>128</ele>
        <time>2023-12-20T15:41:58Z</time>
      </trkpt>
      <trkpt lat="43.65031" lon="1.38036">
        <ele>128</ele>
        <time>2023-12-20T15:41:59Z</time>
      </trkpt>
      <trkpt lat="43.65031" lon="1.38036">
        <ele>128</ele>
        <time>2023-12-20T15:42:00Z</time>
      </trkpt>
      <trkpt lat="43.65035" lon="1.38041">
        <ele>128</ele>
        <time>2023-12-20T15:42:01Z</time>
      </trkpt>
      <trkpt lat="43.65036" lon="1.38042">
        <ele>128</ele>
        <time>2023-12-20T15:42:02Z</time>
      </trkpt>
      <trkpt lat="43.65037" lon="1.38045">
        <ele>128</ele>
        <time>2023-12-20T15:42:03Z</time>
      </trkpt>
      <trkpt lat="43.65039" lon="1.38047">
        <ele>128</ele>
        <time>2023-12-20T15:42:04Z</time>
      </trkpt>
      <trkpt lat="43.6504" lon="1.3805">
        <ele>128</ele>
        <time>2023-12-20T15:42:05Z</time>
      </trkpt>
      <trkpt lat="43.65042" lon="1.38053">
        <ele>128</ele>
        <time>2023-12-20T15:42:06Z</time>
      </trkpt>
      <trkpt lat="43.65043" lon="1.38055">
        <ele>128</ele>
        <time>2023-12-20T15:42:07Z</time>
      </trkpt>
      <trkpt lat="43.65045" lon="1.38058">
        <ele>128</ele>
        <time>2023-12-20T15:42:08Z</time>
      </trkpt>
      <trkpt lat="43.65046" lon="1.38061">
        <ele>128</ele>
        <time>2023-12-20T15:42:09Z</time>
      </trkpt>
      <trkpt lat="43.65048" lon="1.38064">
        <ele>128</ele>
        <time>2023-12-20T15:42:10Z</time>
      </trkpt>
      <trkpt lat="43.65049" lon="1.38066">
        <ele>128</ele>
        <time>2023-12-20T15:42:11Z</time>
      </trkpt>
      <trkpt lat="43.6505" lon="1.38069">
        <ele>128</ele>
        <time>2023-12-20T15:42:12Z</time>
      </trkpt>
      <trkpt lat="43.65051" lon="1.38072">
        <ele>128</ele>
        <time>2023-12-20T15:42:13Z</time>
      </trkpt>
      <trkpt lat="43.65052" lon="1.38075">
        <ele>128</ele>
        <time>2023-12-20T15:42:14Z</time>
      </trkpt>
      <trkpt lat="43.65052" lon="1.38075">
        <ele>128</ele>
        <time>2023-12-20T15:42:15Z</time>
      </trkpt>
      <trkpt lat="43.65056" lon="1.38081">
        <ele>128</ele>
        <time>2023-12-20T15:42:16Z</time>
      </trkpt>
      <trkpt lat="43.65056" lon="1.38082">
        <ele>128</ele>
        <time>2023-12-20T15:42:17Z</time>
      </trkpt>
      <trkpt lat="43.65057" lon="1.38085">
        <ele>128</ele>
        <time>2023-12-20T15:42:18Z</time>
      </trkpt>
      <trkpt lat="43.65059" lon="1.38087">
        <ele>128</ele>
        <time>2023-12-20T15:42:19Z</time>
      </trkpt>
      <trkpt lat="43.6506" lon="1.3809">
        <ele>128</ele>
        <time>2023-12-20T15:42:20Z</time>
      </trkpt>
      <trkpt lat="43.65061" lon="1.38093">
        <ele>128</ele>
        <time>2023-12-20T15:42:21Z</time>
      </trkpt>
      <trkpt lat="43.65061" lon="1.38093">
        <ele>128</ele>
        <time>2023-12-20T15:42:22Z</time>
      </trkpt>
      <trkpt lat="43.65063" lon="1.38098">
        <ele>129</ele>
        <time>2023-12-20T15:42:23Z</time>
      </trkpt>
      <trkpt lat="43.65064" lon="1.381">
        <ele>129</ele>
        <time>2023-12-20T15:42:24Z</time>
      </trkpt>
      <trkpt lat="43.65064" lon="1.381">
        <ele>129</ele>
        <time>2023-12-20T15:42:25Z</time>
      </trkpt>
      <trkpt lat="43.65065" lon="1.38105">
        <ele>129</ele>
        <time>2023-12-20T15:42:26Z</time>
      </trkpt>
      <trkpt lat="43.65065" lon="1.38105">
        <ele>129</ele>
        <time>2023-12-20T15:42:27Z</time>
      </trkpt>
      <trkpt lat="43.65065" lon="1.38109">
        <ele>129</ele>
        <time>2023-12-20T15:42:28Z</time>
      </trkpt>
      <trkpt lat="43.65065" lon="1.38109">
        <ele>129</ele>
        <time>2023-12-20T15:42:29Z</time>
      </trkpt>
      <trkpt lat="43.65065" lon="1.38112">
        <ele>129</ele>
        <time>2023-12-20T15:42:30Z</time>
      </trkpt>
      <trkpt lat="43.65065" lon="1.38112">
        <ele>129</ele>
        <time>2023-12-20T15:42:31Z</time>
      </trkpt>
      <trkpt lat="43.65066" lon="1.38116">
        <ele>129</ele>
        <time>2023-12-20T15:42:32Z</time>
      </trkpt>
      <trkpt lat="43.65066" lon="1.38116">
        <ele>129</ele>
        <time>2023-12-20T15:42:33Z</time>
      </trkpt>
      <trkpt lat="43.65067" lon="1.38119">
        <ele>129</ele>
        <time>2023-12-20T15:42:34Z</time>
      </trkpt>
      <trkpt lat="43.65067" lon="1.38119">
        <ele>129</ele>
        <time>2023-12-20T15:42:35Z</time>
      </trkpt>
      <trkpt lat="43.65068" lon="1.38121">
        <ele>130</ele>
        <time>2023-12-20T15:42:36Z</time>
      </trkpt>
      <trkpt lat="43.65068" lon="1.38121">
        <ele>130</ele>
        <time>2023-12-20T15:42:37Z</time>
      </trkpt>
      <trkpt lat="43.65072" lon="1.3812">
        <ele>130</ele>
        <time>2023-12-20T15:42:38Z</time>
      </trkpt>
      <trkpt lat="43.65074" lon="1.38118">
        <ele>130</ele>
        <time>2023-12-20T15:42:39Z</time>
      </trkpt>
      <trkpt lat="43.65076" lon="1.38117">
        <ele>130</ele>
        <time>2023-12-20T15:42:40Z</time>
      </trkpt>
      <trkpt lat="43.65078" lon="1.38116">
        <ele>130</ele>
        <time>2023-12-20T15:42:41Z</time>
      </trkpt>
      <trkpt lat="43.6508" lon="1.38114">
        <ele>130</ele>
        <time>2023-12-20T15:42:42Z</time>
      </trkpt>
      <trkpt lat="43.65083" lon="1.38113">
        <ele>130</ele>
        <time>2023-12-20T15:42:43Z</time>
      </trkpt>
      <trkpt lat="43.65084" lon="1.38112">
        <ele>131</ele>
        <time>2023-12-20T15:42:44Z</time>
      </trkpt>
      <trkpt lat="43.65086" lon="1.38111">
        <ele>131</ele>
        <time>2023-12-20T15:42:45Z</time>
      </trkpt>
      <trkpt lat="43.65089" lon="1.38109">
        <ele>131</ele>
        <time>2023-12-20T15:42:46Z</time>
      </trkpt>
      <trkpt lat="43.65091" lon="1.38108">
        <ele>131</ele>
        <time>2023-12-20T15:42:47Z</time>
      </trkpt>
      <trkpt lat="43.65093" lon="1.38107">
        <ele>131</ele>
        <time>2023-12-20T15:42:48Z</time>
      </trkpt>
      <trkpt lat="43.65095" lon="1.38105">
        <ele>131</ele>
        <time>2023-12-20T15:42:49Z</time>
      </trkpt>
      <trkpt lat="43.65097" lon="1.38104">
        <ele>131</ele>
        <time>2023-12-20T15:42:50Z</time>
      </trkpt>
      <trkpt lat="43.65099" lon="1.38102">
        <ele>131</ele>
        <time>2023-12-20T15:42:51Z</time>
      </trkpt>
      <trkpt lat="43.65102" lon="1.381">
        <ele>131</ele>
        <time>2023-12-20T15:42:52Z</time>
      </trkpt>
      <trkpt lat="43.65103" lon="1.38099">
        <ele>132</ele>
        <time>2023-12-20T15:42:53Z</time>
      </trkpt>
      <trkpt lat="43.65105" lon="1.38097">
        <ele>132</ele>
        <time>2023-12-20T15:42:54Z</time>
      </trkpt>
      <trkpt lat="43.65107" lon="1.38096">
        <ele>132</ele>
        <time>2023-12-20T15:42:55Z</time>
      </trkpt>
      <trkpt lat="43.6511" lon="1.38094">
        <ele>132</ele>
        <time>2023-12-20T15:42:56Z</time>
      </trkpt>
      <trkpt lat="43.65111" lon="1.38093">
        <ele>132</ele>
        <time>2023-12-20T15:42:57Z</time>
      </trkpt>
      <trkpt lat="43.65113" lon="1.38091">
        <ele>132</ele>
        <time>2023-12-20T15:42:58Z</time>
      </trkpt>
      <trkpt lat="43.65116" lon="1.3809">
        <ele>132</ele>
        <time>2023-12-20T15:42:59Z</time>
      </trkpt>
      <trkpt lat="43.65118" lon="1.38088">
        <ele>132</ele>
        <time>2023-12-20T15:43:00Z</time>
      </trkpt>
      <trkpt lat="43.6512" lon="1.38087">
        <ele>132</ele>
        <time>2023-12-20T15:43:01Z</time>
      </trkpt>
      <trkpt lat="43.65121" lon="1.38086">
        <ele>132</ele>
        <time>2023-12-20T15:43:02Z</time>
      </trkpt>
      <trkpt lat="43.65123" lon="1.38085">
        <ele>132</ele>
        <time>2023-12-20T15:43:03Z</time>
      </trkpt>
      <trkpt lat="43.65126" lon="1.38083">
        <ele>132</ele>
        <time>2023-12-20T15:43:04Z</time>
      </trkpt>
      <trkpt lat="43.65128" lon="1.38082">
        <ele>132</ele>
        <time>2023-12-20T15:43:05Z</time>
      </trkpt>
      <trkpt lat="43.65131" lon="1.38078">
        <ele>132</ele>
        <time>2023-12-20T15:43:07Z</time>
      </trkpt>
      <trkpt lat="43.65134" lon="1.38077">
        <ele>132</ele>
        <time>2023-12-20T15:43:08Z</time>
      </trkpt>
      <trkpt lat="43.65136" lon="1.38075">
        <ele>132</ele>
        <time>2023-12-20T15:43:09Z</time>
      </trkpt>
      <trkpt lat="43.65138" lon="1.38074">
        <ele>132</ele>
        <time>2023-12-20T15:43:10Z</time>
      </trkpt>
      <trkpt lat="43.6514" lon="1.38072">
        <ele>132</ele>
        <time>2023-12-20T15:43:11Z</time>
      </trkpt>
      <trkpt lat="43.65142" lon="1.38071">
        <ele>132</ele>
        <time>2023-12-20T15:43:12Z</time>
      </trkpt>
      <trkpt lat="43.65144" lon="1.38069">
        <ele>132</ele>
        <time>2023-12-20T15:43:13Z</time>
      </trkpt>
      <trkpt lat="43.65146" lon="1.38068">
        <ele>132</ele>
        <time>2023-12-20T15:43:14Z</time>
      </trkpt>
      <trkpt lat="43.65148" lon="1.38066">
        <ele>132</ele>
        <time>2023-12-20T15:43:15Z</time>
      </trkpt>
      <trkpt lat="43.6515" lon="1.38065">
        <ele>132</ele>
        <time>2023-12-20T15:43:16Z</time>
      </trkpt>
      <trkpt lat="43.6515" lon="1.38065">
        <ele>132</ele>
        <time>2023-12-20T15:43:17Z</time>
      </trkpt>
      <trkpt lat="43.65154" lon="1.38063">
        <ele>132</ele>
        <time>2023-12-20T15:43:18Z</time>
      </trkpt>
      <trkpt lat="43.65156" lon="1.38061">
        <ele>132</ele>
        <time>2023-12-20T15:43:19Z</time>
      </trkpt>
      <trkpt lat="43.65158" lon="1.38059">
        <ele>132</ele>
        <time>2023-12-20T15:43:20Z</time>
      </trkpt>
      <trkpt lat="43.6516" lon="1.38058">
        <ele>132</ele>
        <time>2023-12-20T15:43:21Z</time>
      </trkpt>
      <trkpt lat="43.65162" lon="1.38057">
        <ele>132</ele>
        <time>2023-12-20T15:43:22Z</time>
      </trkpt>
      <trkpt lat="43.65164" lon="1.38055">
        <ele>132</ele>
        <time>2023-12-20T15:43:23Z</time>
      </trkpt>
      <trkpt lat="43.65167" lon="1.38054">
        <ele>132</ele>
        <time>2023-12-20T15:43:24Z</time>
      </trkpt>
      <trkpt lat="43.65169" lon="1.38053">
        <ele>132</ele>
        <time>2023-12-20T15:43:25Z</time>
      </trkpt>
      <trkpt lat="43.65171" lon="1.38051">
        <ele>132</ele>
        <time>2023-12-20T15:43:26Z</time>
      </trkpt>
      <trkpt lat="43.65173" lon="1.3805">
        <ele>132</ele>
        <time>2023-12-20T15:43:27Z</time>
      </trkpt>
      <trkpt lat="43.65175" lon="1.38048">
        <ele>132</ele>
        <time>2023-12-20T15:43:28Z</time>
      </trkpt>
      <trkpt lat="43.65177" lon="1.38047">
        <ele>132</ele>
        <time>2023-12-20T15:43:29Z</time>
      </trkpt>
      <trkpt lat="43.6518" lon="1.38045">
        <ele>132</ele>
        <time>2023-12-20T15:43:30Z</time>
      </trkpt>
      <trkpt lat="43.65182" lon="1.38044">
        <ele>132</ele>
        <time>2023-12-20T15:43:31Z</time>
      </trkpt>
      <trkpt lat="43.65184" lon="1.38042">
        <ele>132</ele>
        <time>2023-12-20T15:43:32Z</time>
      </trkpt>
      <trkpt lat="43.65186" lon="1.3804">
        <ele>131</ele>
        <time>2023-12-20T15:43:33Z</time>
      </trkpt>
      <trkpt lat="43.65189" lon="1.38039">
        <ele>131</ele>
        <time>2023-12-20T15:43:34Z</time>
      </trkpt>
      <trkpt lat="43.65191" lon="1.38038">
        <ele>131</ele>
        <time>2023-12-20T15:43:35Z</time>
      </trkpt>
      <trkpt lat="43.65193" lon="1.38036">
        <ele>131</ele>
        <time>2023-12-20T15:43:36Z</time>
      </trkpt>
      <trkpt lat="43.65195" lon="1.38035">
        <ele>131</ele>
        <time>2023-12-20T15:43:37Z</time>
      </trkpt>
      <trkpt lat="43.65197" lon="1.38034">
        <ele>131</ele>
        <time>2023-12-20T15:43:38Z</time>
      </trkpt>
      <trkpt lat="43.65199" lon="1.38032">
        <ele>131</ele>
        <time>2023-12-20T15:43:39Z</time>
      </trkpt>
      <trkpt lat="43.65202" lon="1.38031">
        <ele>132</ele>
        <time>2023-12-20T15:43:40Z</time>
      </trkpt>
      <trkpt lat="43.65204" lon="1.3803">
        <ele>132</ele>
        <time>2023-12-20T15:43:41Z</time>
      </trkpt>
      <trkpt lat="43.65206" lon="1.38029">
        <ele>132</ele>
        <time>2023-12-20T15:43:42Z</time>
      </trkpt>
      <trkpt lat="43.65208" lon="1.38028">
        <ele>132</ele>
        <time>2023-12-20T15:43:43Z</time>
      </trkpt>
      <trkpt lat="43.6521" lon="1.38026">
        <ele>132</ele>
        <time>2023-12-20T15:43:44Z</time>
      </trkpt>
      <trkpt lat="43.65213" lon="1.38025">
        <ele>132</ele>
        <time>2023-12-20T15:43:45Z</time>
      </trkpt>
      <trkpt lat="43.65215" lon="1.38023">
        <ele>132</ele>
        <time>2023-12-20T15:43:46Z</time>
      </trkpt>
      <trkpt lat="43.65217" lon="1.38022">
        <ele>132</ele>
        <time>2023-12-20T15:43:47Z</time>
      </trkpt>
      <trkpt lat="43.65219" lon="1.38021">
        <ele>132</ele>
        <time>2023-12-20T15:43:48Z</time>
      </trkpt>
      <trkpt lat="43.65221" lon="1.38019">
        <ele>132</ele>
        <time>2023-12-20T15:43:49Z</time>
      </trkpt>
      <trkpt lat="43.65223" lon="1.38018">
        <ele>132</ele>
        <time>2023-12-20T15:43:50Z</time>
      </trkpt>
      <trkpt lat="43.65225" lon="1.38016">
        <ele>132</ele>
        <time>2023-12-20T15:43:51Z</time>
      </trkpt>
      <trkpt lat="43.65226" lon="1.38015">
        <ele>132</ele>
        <time>2023-12-20T15:43:52Z</time>
      </trkpt>
      <trkpt lat="43.65228" lon="1.38013">
        <ele>132</ele>
        <time>2023-12-20T15:43:53Z</time>
      </trkpt>
      <trkpt lat="43.65231" lon="1.38012">
        <ele>132</ele>
        <time>2023-12-20T15:43:54Z</time>
      </trkpt>
      <trkpt lat="43.65233" lon="1.3801">
        <ele>132</ele>
        <time>2023-12-20T15:43:55Z</time>
      </trkpt>
      <trkpt lat="43.65235" lon="1.38008">
        <ele>132</ele>
        <time>2023-12-20T15:43:56Z</time>
      </trkpt>
      <trkpt lat="43.65237" lon="1.38007">
        <ele>132</ele>
        <time>2023-12-20T15:43:57Z</time>
      </trkpt>
      <trkpt lat="43.65239" lon="1.38006">
        <ele>132</ele>
        <time>2023-12-20T15:43:58Z</time>
      </trkpt>
      <trkpt lat="43.65241" lon="1.38004">
        <ele>132</ele>
        <time>2023-12-20T15:43:59Z</time>
      </trkpt>
      <trkpt lat="43.65243" lon="1.38002">
        <ele>132</ele>
        <time>2023-12-20T15:44:00Z</time>
      </trkpt>
      <trkpt lat="43.65245" lon="1.38001">
        <ele>132</ele>
        <time>2023-12-20T15:44:01Z</time>
      </trkpt>
      <trkpt lat="43.65247" lon="1.38">
        <ele>132</ele>
        <time>2023-12-20T15:44:02Z</time>
      </trkpt>
      <trkpt lat="43.65249" lon="1.37998">
        <ele>132</ele>
        <time>2023-12-20T15:44:03Z</time>
      </trkpt>
      <trkpt lat="43.65251" lon="1.37997">
        <ele>132</ele>
        <time>2023-12-20T15:44:04Z</time>
      </trkpt>
      <trkpt lat="43.65253" lon="1.37994">
        <ele>132</ele>
        <time>2023-12-20T15:44:05Z</time>
      </trkpt>
      <trkpt lat="43.65255" lon="1.37992">
        <ele>132</ele>
        <time>2023-12-20T15:44:06Z</time>
      </trkpt>
      <trkpt lat="43.65258" lon="1.37991">
        <ele>132</ele>
        <time>2023-12-20T15:44:07Z</time>
      </trkpt>
      <trkpt lat="43.6526" lon="1.37989">
        <ele>132</ele>
        <time>2023-12-20T15:44:08Z</time>
      </trkpt>
      <trkpt lat="43.65262" lon="1.37987">
        <ele>132</ele>
        <time>2023-12-20T15:44:09Z</time>
      </trkpt>
      <trkpt lat="43.65265" lon="1.37985">
        <ele>132</ele>
        <time>2023-12-20T15:44:10Z</time>
      </trkpt>
      <trkpt lat="43.65267" lon="1.37984">
        <ele>132</ele>
        <time>2023-12-20T15:44:11Z</time>
      </trkpt>
      <trkpt lat="43.65269" lon="1.37982">
        <ele>132</ele>
        <time>2023-12-20T15:44:12Z</time>
      </trkpt>
      <trkpt lat="43.65271" lon="1.3798">
        <ele>132</ele>
        <time>2023-12-20T15:44:13Z</time>
      </trkpt>
      <trkpt lat="43.65273" lon="1.37978">
        <ele>132</ele>
        <time>2023-12-20T15:44:14Z</time>
      </trkpt>
      <trkpt lat="43.65275" lon="1.37976">
        <ele>132</ele>
        <time>2023-12-20T15:44:15Z</time>
      </trkpt>
      <trkpt lat="43.65277" lon="1.37974">
        <ele>132</ele>
        <time>2023-12-20T15:44:16Z</time>
      </trkpt>
      <trkpt lat="43.65279" lon="1.37972">
        <ele>131</ele>
        <time>2023-12-20T15:44:17Z</time>
      </trkpt>
      <trkpt lat="43.65281" lon="1.3797">
        <ele>131</ele>
        <time>2023-12-20T15:44:18Z</time>
      </trkpt>
      <trkpt lat="43.65282" lon="1.37968">
        <ele>131</ele>
        <time>2023-12-20T15:44:19Z</time>
      </trkpt>
      <trkpt lat="43.65284" lon="1.37965">
        <ele>131</ele>
        <time>2023-12-20T15:44:20Z</time>
      </trkpt>
      <trkpt lat="43.65286" lon="1.37963">
        <ele>131</ele>
        <time>2023-12-20T15:44:21Z</time>
      </trkpt>
      <trkpt lat="43.65288" lon="1.37961">
        <ele>131</ele>
        <time>2023-12-20T15:44:22Z</time>
      </trkpt>
      <trkpt lat="43.6529" lon="1.3796">
        <ele>131</ele>
        <time>2023-12-20T15:44:23Z</time>
      </trkpt>
      <trkpt lat="43.65292" lon="1.3796">
        <ele>131</ele>
        <time>2023-12-20T15:44:24Z</time>
      </trkpt>
      <trkpt lat="43.65294" lon="1.37959">
        <ele>131</ele>
        <time>2023-12-20T15:44:25Z</time>
      </trkpt>
      <trkpt lat="43.65296" lon="1.37958">
        <ele>131</ele>
        <time>2023-12-20T15:44:26Z</time>
      </trkpt>
      <trkpt lat="43.65297" lon="1.37957">
        <ele>131</ele>
        <time>2023-12-20T15:44:27Z</time>
      </trkpt>
      <trkpt lat="43.65299" lon="1.37955">
        <ele>131</ele>
        <time>2023-12-20T15:44:28Z</time>
      </trkpt>
      <trkpt lat="43.65299" lon="1.37955">
        <ele>131</ele>
        <time>2023-12-20T15:44:29Z</time>
      </trkpt>
      <trkpt lat="43.65304" lon="1.37952">
        <ele>131</ele>
        <time>2023-12-20T15:44:30Z</time>
      </trkpt>
      <trkpt lat="43.65305" lon="1.37951">
        <ele>131</ele>
        <time>2023-12-20T15:44:31Z</time>
      </trkpt>
      <trkpt lat="43.65307" lon="1.37949">
        <ele>131</ele>
        <time>2023-12-20T15:44:32Z</time>
      </trkpt>
      <trkpt lat="43.65309" lon="1.37948">
        <ele>131</ele>
        <time>2023-12-20T15:44:33Z</time>
      </trkpt>
      <trkpt lat="43.6531" lon="1.37946">
        <ele>131</ele>
        <time>2023-12-20T15:44:34Z</time>
      </trkpt>
      <trkpt lat="43.65312" lon="1.37945">
        <ele>131</ele>
        <time>2023-12-20T15:44:35Z</time>
      </trkpt>
      <trkpt lat="43.65315" lon="1.37944">
        <ele>131</ele>
        <time>2023-12-20T15:44:36Z</time>
      </trkpt>
      <trkpt lat="43.65317" lon="1.37943">
        <ele>131</ele>
        <time>2023-12-20T15:44:37Z</time>
      </trkpt>
      <trkpt lat="43.65319" lon="1.37942">
        <ele>131</ele>
        <time>2023-12-20T15:44:38Z</time>
      </trkpt>
      <trkpt lat="43.65319" lon="1.37942">
        <ele>131</ele>
        <time>2023-12-20T15:44:39Z</time>
      </trkpt>
      <trkpt lat="43.65321" lon="1.37941">
        <ele>131</ele>
        <time>2023-12-20T15:44:40Z</time>
      </trkpt>
      <trkpt lat="43.65323" lon="1.3794">
        <ele>131</ele>
        <time>2023-12-20T15:44:41Z</time>
      </trkpt>
      <trkpt lat="43.65326" lon="1.37939">
        <ele>131</ele>
        <time>2023-12-20T15:44:42Z</time>
      </trkpt>
      <trkpt lat="43.65328" lon="1.37938">
        <ele>131</ele>
        <time>2023-12-20T15:44:43Z</time>
      </trkpt>
      <trkpt lat="43.65331" lon="1.37935">
        <ele>131</ele>
        <time>2023-12-20T15:44:44Z</time>
      </trkpt>
      <trkpt lat="43.65333" lon="1.37933">
        <ele>131</ele>
        <time>2023-12-20T15:44:45Z</time>
      </trkpt>
      <trkpt lat="43.65336" lon="1.37931">
        <ele>131</ele>
        <time>2023-12-20T15:44:46Z</time>
      </trkpt>
      <trkpt lat="43.65339" lon="1.37929">
        <ele>131</ele>
        <time>2023-12-20T15:44:47Z</time>
      </trkpt>
      <trkpt lat="43.65341" lon="1.37927">
        <ele>131</ele>
        <time>2023-12-20T15:44:48Z</time>
      </trkpt>
      <trkpt lat="43.65343" lon="1.37925">
        <ele>131</ele>
        <time>2023-12-20T15:44:49Z</time>
      </trkpt>
      <trkpt lat="43.65345" lon="1.37923">
        <ele>131</ele>
        <time>2023-12-20T15:44:50Z</time>
      </trkpt>
      <trkpt lat="43.65348" lon="1.37921">
        <ele>131</ele>
        <time>2023-12-20T15:44:51Z</time>
      </trkpt>
      <trkpt lat="43.65349" lon="1.3792">
        <ele>131</ele>
        <time>2023-12-20T15:44:52Z</time>
      </trkpt>
      <trkpt lat="43.65351" lon="1.37918">
        <ele>131</ele>
        <time>2023-12-20T15:44:53Z</time>
      </trkpt>
      <trkpt lat="43.65353" lon="1.37917">
        <ele>131</ele>
        <time>2023-12-20T15:44:54Z</time>
      </trkpt>
      <trkpt lat="43.65355" lon="1.37916">
        <ele>131</ele>
        <time>2023-12-20T15:44:55Z</time>
      </trkpt>
      <trkpt lat="43.65357" lon="1.37914">
        <ele>131</ele>
        <time>2023-12-20T15:44:56Z</time>
      </trkpt>
      <trkpt lat="43.65357" lon="1.37914">
        <ele>131</ele>
        <time>2023-12-20T15:44:57Z</time>
      </trkpt>
      <trkpt lat="43.6536" lon="1.37912">
        <ele>131</ele>
        <time>2023-12-20T15:44:58Z</time>
      </trkpt>
      <trkpt lat="43.65362" lon="1.3791">
        <ele>131</ele>
        <time>2023-12-20T15:44:59Z</time>
      </trkpt>
      <trkpt lat="43.65365" lon="1.37908">
        <ele>131</ele>
        <time>2023-12-20T15:45:00Z</time>
      </trkpt>
      <trkpt lat="43.65365" lon="1.37908">
        <ele>131</ele>
        <time>2023-12-20T15:45:01Z</time>
      </trkpt>
      <trkpt lat="43.65367" lon="1.37906">
        <ele>131</ele>
        <time>2023-12-20T15:45:02Z</time>
      </trkpt>
      <trkpt lat="43.65369" lon="1.37903">
        <ele>131</ele>
        <time>2023-12-20T15:45:03Z</time>
      </trkpt>
      <trkpt lat="43.65371" lon="1.379">
        <ele>131</ele>
        <time>2023-12-20T15:45:04Z</time>
      </trkpt>
      <trkpt lat="43.65373" lon="1.37898">
        <ele>131</ele>
        <time>2023-12-20T15:45:05Z</time>
      </trkpt>
      <trkpt lat="43.65375" lon="1.37896">
        <ele>131</ele>
        <time>2023-12-20T15:45:06Z</time>
      </trkpt>
      <trkpt lat="43.65375" lon="1.37896">
        <ele>131</ele>
        <time>2023-12-20T15:45:07Z</time>
      </trkpt>
      <trkpt lat="43.65377" lon="1.37894">
        <ele>131</ele>
        <time>2023-12-20T15:45:08Z</time>
      </trkpt>
      <trkpt lat="43.6538" lon="1.37893">
        <ele>131</ele>
        <time>2023-12-20T15:45:09Z</time>
      </trkpt>
      <trkpt lat="43.65382" lon="1.37892">
        <ele>131</ele>
        <time>2023-12-20T15:45:10Z</time>
      </trkpt>
      <trkpt lat="43.65384" lon="1.37891">
        <ele>131</ele>
        <time>2023-12-20T15:45:11Z</time>
      </trkpt>
      <trkpt lat="43.65387" lon="1.37889">
        <ele>131</ele>
        <time>2023-12-20T15:45:12Z</time>
      </trkpt>
      <trkpt lat="43.65389" lon="1.37887">
        <ele>131</ele>
        <time>2023-12-20T15:45:13Z</time>
      </trkpt>
      <trkpt lat="43.65392" lon="1.37885">
        <ele>131</ele>
        <time>2023-12-20T15:45:14Z</time>
      </trkpt>
      <trkpt lat="43.65394" lon="1.37884">
        <ele>131</ele>
        <time>2023-12-20T15:45:15Z</time>
      </trkpt>
      <trkpt lat="43.65397" lon="1.37882">
        <ele>131</ele>
        <time>2023-12-20T15:45:16Z</time>
      </trkpt>
      <trkpt lat="43.654" lon="1.37879">
        <ele>131</ele>
        <time>2023-12-20T15:45:17Z</time>
      </trkpt>
      <trkpt lat="43.65402" lon="1.37877">
        <ele>131</ele>
        <time>2023-12-20T15:45:18Z</time>
      </trkpt>
      <trkpt lat="43.65402" lon="1.37877">
        <ele>131</ele>
        <time>2023-12-20T15:45:19Z</time>
      </trkpt>
      <trkpt lat="43.65404" lon="1.37874">
        <ele>131</ele>
        <time>2023-12-20T15:45:20Z</time>
      </trkpt>
      <trkpt lat="43.65406" lon="1.37872">
        <ele>131</ele>
        <time>2023-12-20T15:45:21Z</time>
      </trkpt>
      <trkpt lat="43.65407" lon="1.3787">
        <ele>131</ele>
        <time>2023-12-20T15:45:22Z</time>
      </trkpt>
      <trkpt lat="43.6541" lon="1.37869">
        <ele>130</ele>
        <time>2023-12-20T15:45:23Z</time>
      </trkpt>
      <trkpt lat="43.65412" lon="1.3787">
        <ele>130</ele>
        <time>2023-12-20T15:45:24Z</time>
      </trkpt>
      <trkpt lat="43.65412" lon="1.3787">
        <ele>130</ele>
        <time>2023-12-20T15:45:25Z</time>
      </trkpt>
      <trkpt lat="43.65415" lon="1.3787">
        <ele>131</ele>
        <time>2023-12-20T15:45:26Z</time>
      </trkpt>
      <trkpt lat="43.65415" lon="1.3787">
        <ele>131</ele>
        <time>2023-12-20T15:45:27Z</time>
      </trkpt>
      <trkpt lat="43.65419" lon="1.37869">
        <ele>131</ele>
        <time>2023-12-20T15:45:28Z</time>
      </trkpt>
      <trkpt lat="43.65421" lon="1.37868">
        <ele>131</ele>
        <time>2023-12-20T15:45:29Z</time>
      </trkpt>
      <trkpt lat="43.65421" lon="1.37868">
        <ele>131</ele>
        <time>2023-12-20T15:45:30Z</time>
      </trkpt>
      <trkpt lat="43.65423" lon="1.37867">
        <ele>131</ele>
        <time>2023-12-20T15:45:31Z</time>
      </trkpt>
      <trkpt lat="43.65425" lon="1.37865">
        <ele>131</ele>
        <time>2023-12-20T15:45:32Z</time>
      </trkpt>
      <trkpt lat="43.65428" lon="1.37863">
        <ele>131</ele>
        <time>2023-12-20T15:45:33Z</time>
      </trkpt>
      <trkpt lat="43.6543" lon="1.37862">
        <ele>131</ele>
        <time>2023-12-20T15:45:34Z</time>
      </trkpt>
      <trkpt lat="43.65433" lon="1.37859">
        <ele>131</ele>
        <time>2023-12-20T15:45:35Z</time>
      </trkpt>
      <trkpt lat="43.65436" lon="1.37857">
        <ele>131</ele>
        <time>2023-12-20T15:45:36Z</time>
      </trkpt>
      <trkpt lat="43.65439" lon="1.37854">
        <ele>131</ele>
        <time>2023-12-20T15:45:37Z</time>
      </trkpt>
      <trkpt lat="43.65443" lon="1.37851">
        <ele>131</ele>
        <time>2023-12-20T15:45:38Z</time>
      </trkpt>
      <trkpt lat="43.65448" lon="1.37848">
        <ele>132</ele>
        <time>2023-12-20T15:45:39Z</time>
      </trkpt>
      <trkpt lat="43.65452" lon="1.37845">
        <ele>132</ele>
        <time>2023-12-20T15:45:40Z</time>
      </trkpt>
      <trkpt lat="43.65456" lon="1.37843">
        <ele>131</ele>
        <time>2023-12-20T15:45:41Z</time>
      </trkpt>
      <trkpt lat="43.65459" lon="1.37843">
        <ele>131</ele>
        <time>2023-12-20T15:45:42Z</time>
      </trkpt>
      <trkpt lat="43.65461" lon="1.37841">
        <ele>131</ele>
        <time>2023-12-20T15:45:43Z</time>
      </trkpt>
      <trkpt lat="43.65464" lon="1.37839">
        <ele>131</ele>
        <time>2023-12-20T15:45:44Z</time>
      </trkpt>
      <trkpt lat="43.65466" lon="1.37837">
        <ele>131</ele>
        <time>2023-12-20T15:45:45Z</time>
      </trkpt>
      <trkpt lat="43.65468" lon="1.37835">
        <ele>130</ele>
        <time>2023-12-20T15:45:46Z</time>
      </trkpt>
      <trkpt lat="43.65469" lon="1.37832">
        <ele>130</ele>
        <time>2023-12-20T15:45:47Z</time>
      </trkpt>
      <trkpt lat="43.6547" lon="1.37829">
        <ele>131</ele>
        <time>2023-12-20T15:45:48Z</time>
      </trkpt>
      <trkpt lat="43.65472" lon="1.37825">
        <ele>131</ele>
        <time>2023-12-20T15:45:49Z</time>
      </trkpt>
      <trkpt lat="43.65473" lon="1.37821">
        <ele>131</ele>
        <time>2023-12-20T15:45:50Z</time>
      </trkpt>
      <trkpt lat="43.65474" lon="1.37819">
        <ele>131</ele>
        <time>2023-12-20T15:45:51Z</time>
      </trkpt>
      <trkpt lat="43.65474" lon="1.37819">
        <ele>131</ele>
        <time>2023-12-20T15:45:52Z</time>
      </trkpt>
      <trkpt lat="43.65476" lon="1.37815">
        <ele>131</ele>
        <time>2023-12-20T15:45:53Z</time>
      </trkpt>
      <trkpt lat="43.65476" lon="1.37815">
        <ele>130</ele>
        <time>2023-12-20T15:45:54Z</time>
      </trkpt>
      <trkpt lat="43.65478" lon="1.37812">
        <ele>130</ele>
        <time>2023-12-20T15:45:55Z</time>
      </trkpt>
      <trkpt lat="43.65479" lon="1.3781">
        <ele>130</ele>
        <time>2023-12-20T15:45:56Z</time>
      </trkpt>
      <trkpt lat="43.65481" lon="1.37808">
        <ele>130</ele>
        <time>2023-12-20T15:45:57Z</time>
      </trkpt>
      <trkpt lat="43.65482" lon="1.37806">
        <ele>130</ele>
        <time>2023-12-20T15:45:58Z</time>
      </trkpt>
      <trkpt lat="43.65484" lon="1.37804">
        <ele>130</ele>
        <time>2023-12-20T15:45:59Z</time>
      </trkpt>
      <trkpt lat="43.65484" lon="1.37804">
        <ele>130</ele>
        <time>2023-12-20T15:46:00Z</time>
      </trkpt>
      <trkpt lat="43.65488" lon="1.378">
        <ele>130</ele>
        <time>2023-12-20T15:46:01Z</time>
      </trkpt>
      <trkpt lat="43.65489" lon="1.37799">
        <ele>130</ele>
        <time>2023-12-20T15:46:02Z</time>
      </trkpt>
      <trkpt lat="43.65491" lon="1.37797">
        <ele>131</ele>
        <time>2023-12-20T15:46:03Z</time>
      </trkpt>
      <trkpt lat="43.65492" lon="1.37796">
        <ele>131</ele>
        <time>2023-12-20T15:46:04Z</time>
      </trkpt>
      <trkpt lat="43.65495" lon="1.37794">
        <ele>131</ele>
        <time>2023-12-20T15:46:05Z</time>
      </trkpt>
      <trkpt lat="43.65497" lon="1.37793">
        <ele>131</ele>
        <time>2023-12-20T15:46:06Z</time>
      </trkpt>
      <trkpt lat="43.65499" lon="1.37791">
        <ele>130</ele>
        <time>2023-12-20T15:46:07Z</time>
      </trkpt>
      <trkpt lat="43.65501" lon="1.37789">
        <ele>130</ele>
        <time>2023-12-20T15:46:08Z</time>
      </trkpt>
      <trkpt lat="43.65504" lon="1.37788">
        <ele>130</ele>
        <time>2023-12-20T15:46:09Z</time>
      </trkpt>
      <trkpt lat="43.65506" lon="1.37786">
        <ele>130</ele>
        <time>2023-12-20T15:46:10Z</time>
      </trkpt>
      <trkpt lat="43.65508" lon="1.37785">
        <ele>130</ele>
        <time>2023-12-20T15:46:11Z</time>
      </trkpt>
      <trkpt lat="43.6551" lon="1.37783">
        <ele>130</ele>
        <time>2023-12-20T15:46:12Z</time>
      </trkpt>
      <trkpt lat="43.65512" lon="1.37781">
        <ele>130</ele>
        <time>2023-12-20T15:46:13Z</time>
      </trkpt>
      <trkpt lat="43.65515" lon="1.3778">
        <ele>130</ele>
        <time>2023-12-20T15:46:14Z</time>
      </trkpt>
      <trkpt lat="43.65517" lon="1.37778">
        <ele>130</ele>
        <time>2023-12-20T15:46:15Z</time>
      </trkpt>
      <trkpt lat="43.65519" lon="1.37776">
        <ele>129</ele>
        <time>2023-12-20T15:46:16Z</time>
      </trkpt>
      <trkpt lat="43.65521" lon="1.37774">
        <ele>129</ele>
        <time>2023-12-20T15:46:17Z</time>
      </trkpt>
      <trkpt lat="43.65524" lon="1.37773">
        <ele>130</ele>
        <time>2023-12-20T15:46:18Z</time>
      </trkpt>
      <trkpt lat="43.65526" lon="1.37771">
        <ele>130</ele>
        <time>2023-12-20T15:46:19Z</time>
      </trkpt>
      <trkpt lat="43.65528" lon="1.37769">
        <ele>130</ele>
        <time>2023-12-20T15:46:20Z</time>
      </trkpt>
      <trkpt lat="43.6553" lon="1.37768">
        <ele>130</ele>
        <time>2023-12-20T15:46:21Z</time>
      </trkpt>
      <trkpt lat="43.65533" lon="1.37766">
        <ele>130</ele>
        <time>2023-12-20T15:46:22Z</time>
      </trkpt>
      <trkpt lat="43.65535" lon="1.37765">
        <ele>130</ele>
        <time>2023-12-20T15:46:23Z</time>
      </trkpt>
      <trkpt lat="43.65537" lon="1.37763">
        <ele>130</ele>
        <time>2023-12-20T15:46:24Z</time>
      </trkpt>
      <trkpt lat="43.6554" lon="1.37762">
        <ele>130</ele>
        <time>2023-12-20T15:46:25Z</time>
      </trkpt>
      <trkpt lat="43.65542" lon="1.3776">
        <ele>130</ele>
        <time>2023-12-20T15:46:26Z</time>
      </trkpt>
      <trkpt lat="43.65544" lon="1.37759">
        <ele>130</ele>
        <time>2023-12-20T15:46:27Z</time>
      </trkpt>
      <trkpt lat="43.65546" lon="1.37757">
        <ele>130</ele>
        <time>2023-12-20T15:46:28Z</time>
      </trkpt>
      <trkpt lat="43.65548" lon="1.37755">
        <ele>130</ele>
        <time>2023-12-20T15:46:29Z</time>
      </trkpt>
      <trkpt lat="43.65551" lon="1.37754">
        <ele>130</ele>
        <time>2023-12-20T15:46:30Z</time>
      </trkpt>
      <trkpt lat="43.65553" lon="1.37752">
        <ele>130</ele>
        <time>2023-12-20T15:46:31Z</time>
      </trkpt>
      <trkpt lat="43.65555" lon="1.3775">
        <ele>130</ele>
        <time>2023-12-20T15:46:32Z</time>
      </trkpt>
      <trkpt lat="43.65557" lon="1.37749">
        <ele>129</ele>
        <time>2023-12-20T15:46:33Z</time>
      </trkpt>
      <trkpt lat="43.65559" lon="1.37747">
        <ele>129</ele>
        <time>2023-12-20T15:46:34Z</time>
      </trkpt>
      <trkpt lat="43.65562" lon="1.37745">
        <ele>129</ele>
        <time>2023-12-20T15:46:35Z</time>
      </trkpt>
      <trkpt lat="43.65564" lon="1.37744">
        <ele>130</ele>
        <time>2023-12-20T15:46:36Z</time>
      </trkpt>
      <trkpt lat="43.65566" lon="1.37742">
        <ele>130</ele>
        <time>2023-12-20T15:46:37Z</time>
      </trkpt>
      <trkpt lat="43.65568" lon="1.37741">
        <ele>130</ele>
        <time>2023-12-20T15:46:38Z</time>
      </trkpt>
      <trkpt lat="43.6557" lon="1.37739">
        <ele>130</ele>
        <time>2023-12-20T15:46:39Z</time>
      </trkpt>
      <trkpt lat="43.65573" lon="1.37738">
        <ele>130</ele>
        <time>2023-12-20T15:46:40Z</time>
      </trkpt>
      <trkpt lat="43.65575" lon="1.37737">
        <ele>130</ele>
        <time>2023-12-20T15:46:41Z</time>
      </trkpt>
      <trkpt lat="43.65577" lon="1.37736">
        <ele>130</ele>
        <time>2023-12-20T15:46:42Z</time>
      </trkpt>
      <trkpt lat="43.65579" lon="1.37735">
        <ele>130</ele>
        <time>2023-12-20T15:46:43Z</time>
      </trkpt>
      <trkpt lat="43.65582" lon="1.37734">
        <ele>130</ele>
        <time>2023-12-20T15:46:44Z</time>
      </trkpt>
      <trkpt lat="43.65583" lon="1.37734">
        <ele>129</ele>
        <time>2023-12-20T15:46:45Z</time>
      </trkpt>
      <trkpt lat="43.65585" lon="1.37733">
        <ele>129</ele>
        <time>2023-12-20T15:46:46Z</time>
      </trkpt>
      <trkpt lat="43.65587" lon="1.37733">
        <ele>129</ele>
        <time>2023-12-20T15:46:47Z</time>
      </trkpt>
      <trkpt lat="43.6559" lon="1.37734">
        <ele>129</ele>
        <time>2023-12-20T15:46:48Z</time>
      </trkpt>
      <trkpt lat="43.65592" lon="1.37735">
        <ele>129</ele>
        <time>2023-12-20T15:46:49Z</time>
      </trkpt>
      <trkpt lat="43.65593" lon="1.37736">
        <ele>129</ele>
        <time>2023-12-20T15:46:50Z</time>
      </trkpt>
      <trkpt lat="43.65596" lon="1.37737">
        <ele>129</ele>
        <time>2023-12-20T15:46:51Z</time>
      </trkpt>
      <trkpt lat="43.65598" lon="1.3774">
        <ele>129</ele>
        <time>2023-12-20T15:46:52Z</time>
      </trkpt>
      <trkpt lat="43.65601" lon="1.37742">
        <ele>129</ele>
        <time>2023-12-20T15:46:53Z</time>
      </trkpt>
      <trkpt lat="43.65603" lon="1.37744">
        <ele>129</ele>
        <time>2023-12-20T15:46:54Z</time>
      </trkpt>
      <trkpt lat="43.65606" lon="1.37743">
        <ele>129</ele>
        <time>2023-12-20T15:46:55Z</time>
      </trkpt>
      <trkpt lat="43.65608" lon="1.37742">
        <ele>129</ele>
        <time>2023-12-20T15:46:56Z</time>
      </trkpt>
      <trkpt lat="43.65611" lon="1.3774">
        <ele>130</ele>
        <time>2023-12-20T15:46:57Z</time>
      </trkpt>
      <trkpt lat="43.65613" lon="1.37738">
        <ele>130</ele>
        <time>2023-12-20T15:46:58Z</time>
      </trkpt>
      <trkpt lat="43.65615" lon="1.37736">
        <ele>129</ele>
        <time>2023-12-20T15:46:59Z</time>
      </trkpt>
      <trkpt lat="43.65618" lon="1.37734">
        <ele>129</ele>
        <time>2023-12-20T15:47:00Z</time>
      </trkpt>
      <trkpt lat="43.6562" lon="1.37732">
        <ele>129</ele>
        <time>2023-12-20T15:47:01Z</time>
      </trkpt>
      <trkpt lat="43.65622" lon="1.37731">
        <ele>129</ele>
        <time>2023-12-20T15:47:02Z</time>
      </trkpt>
      <trkpt lat="43.65624" lon="1.3773">
        <ele>129</ele>
        <time>2023-12-20T15:47:03Z</time>
      </trkpt>
      <trkpt lat="43.65627" lon="1.37728">
        <ele>129</ele>
        <time>2023-12-20T15:47:04Z</time>
      </trkpt>
      <trkpt lat="43.65629" lon="1.37727">
        <ele>129</ele>
        <time>2023-12-20T15:47:05Z</time>
      </trkpt>
      <trkpt lat="43.65631" lon="1.37726">
        <ele>129</ele>
        <time>2023-12-20T15:47:06Z</time>
      </trkpt>
      <trkpt lat="43.65634" lon="1.37724">
        <ele>129</ele>
        <time>2023-12-20T15:47:07Z</time>
      </trkpt>
      <trkpt lat="43.65636" lon="1.37723">
        <ele>129</ele>
        <time>2023-12-20T15:47:08Z</time>
      </trkpt>
      <trkpt lat="43.65638" lon="1.37721">
        <ele>129</ele>
        <time>2023-12-20T15:47:09Z</time>
      </trkpt>
      <trkpt lat="43.6564" lon="1.3772">
        <ele>129</ele>
        <time>2023-12-20T15:47:10Z</time>
      </trkpt>
      <trkpt lat="43.65642" lon="1.37719">
        <ele>129</ele>
        <time>2023-12-20T15:47:11Z</time>
      </trkpt>
      <trkpt lat="43.65644" lon="1.37717">
        <ele>129</ele>
        <time>2023-12-20T15:47:12Z</time>
      </trkpt>
      <trkpt lat="43.65646" lon="1.37715">
        <ele>129</ele>
        <time>2023-12-20T15:47:13Z</time>
      </trkpt>
      <trkpt lat="43.65649" lon="1.37714">
        <ele>129</ele>
        <time>2023-12-20T15:47:14Z</time>
      </trkpt>
      <trkpt lat="43.65651" lon="1.37712">
        <ele>129</ele>
        <time>2023-12-20T15:47:15Z</time>
      </trkpt>
      <trkpt lat="43.65653" lon="1.37711">
        <ele>129</ele>
        <time>2023-12-20T15:47:16Z</time>
      </trkpt>
      <trkpt lat="43.65656" lon="1.37709">
        <ele>129</ele>
        <time>2023-12-20T15:47:17Z</time>
      </trkpt>
      <trkpt lat="43.65658" lon="1.37708">
        <ele>129</ele>
        <time>2023-12-20T15:47:18Z</time>
      </trkpt>
      <trkpt lat="43.65659" lon="1.37706">
        <ele>129</ele>
        <time>2023-12-20T15:47:19Z</time>
      </trkpt>
      <trkpt lat="43.65662" lon="1.37705">
        <ele>129</ele>
        <time>2023-12-20T15:47:20Z</time>
      </trkpt>
      <trkpt lat="43.65664" lon="1.37703">
        <ele>129</ele>
        <time>2023-12-20T15:47:21Z</time>
      </trkpt>
      <trkpt lat="43.65666" lon="1.37701">
        <ele>129</ele>
        <time>2023-12-20T15:47:22Z</time>
      </trkpt>
      <trkpt lat="43.65668" lon="1.377">
        <ele>129</ele>
        <time>2023-12-20T15:47:23Z</time>
      </trkpt>
      <trkpt lat="43.6567" lon="1.37698">
        <ele>129</ele>
        <time>2023-12-20T15:47:24Z</time>
      </trkpt>
      <trkpt lat="43.65672" lon="1.37697">
        <ele>129</ele>
        <time>2023-12-20T15:47:25Z</time>
      </trkpt>
      <trkpt lat="43.65674" lon="1.37695">
        <ele>129</ele>
        <time>2023-12-20T15:47:26Z</time>
      </trkpt>
      <trkpt lat="43.65676" lon="1.37694">
        <ele>129</ele>
        <time>2023-12-20T15:47:27Z</time>
      </trkpt>
      <trkpt lat="43.65679" lon="1.37693">
        <ele>129</ele>
        <time>2023-12-20T15:47:28Z</time>
      </trkpt>
      <trkpt lat="43.65681" lon="1.37691">
        <ele>129</ele>
        <time>2023-12-20T15:47:29Z</time>
      </trkpt>
      <trkpt lat="43.65683" lon="1.3769">
        <ele>129</ele>
        <time>2023-12-20T15:47:30Z</time>
      </trkpt>
      <trkpt lat="43.65685" lon="1.37689">
        <ele>129</ele>
        <time>2023-12-20T15:47:31Z</time>
      </trkpt>
      <trkpt lat="43.65687" lon="1.37687">
        <ele>129</ele>
        <time>2023-12-20T15:47:32Z</time>
      </trkpt>
      <trkpt lat="43.65689" lon="1.37686">
        <ele>129</ele>
        <time>2023-12-20T15:47:33Z</time>
      </trkpt>
      <trkpt lat="43.65692" lon="1.37684">
        <ele>129</ele>
        <time>2023-12-20T15:47:34Z</time>
      </trkpt>
      <trkpt lat="43.65694" lon="1.37683">
        <ele>129</ele>
        <time>2023-12-20T15:47:35Z</time>
      </trkpt>
      <trkpt lat="43.65696" lon="1.37681">
        <ele>129</ele>
        <time>2023-12-20T15:47:36Z</time>
      </trkpt>
      <trkpt lat="43.65698" lon="1.3768">
        <ele>129</ele>
        <time>2023-12-20T15:47:37Z</time>
      </trkpt>
      <trkpt lat="43.657" lon="1.37679">
        <ele>129</ele>
        <time>2023-12-20T15:47:38Z</time>
      </trkpt>
      <trkpt lat="43.65702" lon="1.37677">
        <ele>129</ele>
        <time>2023-12-20T15:47:39Z</time>
      </trkpt>
      <trkpt lat="43.65704" lon="1.37676">
        <ele>129</ele>
        <time>2023-12-20T15:47:40Z</time>
      </trkpt>
      <trkpt lat="43.65706" lon="1.37674">
        <ele>129</ele>
        <time>2023-12-20T15:47:41Z</time>
      </trkpt>
      <trkpt lat="43.65708" lon="1.37673">
        <ele>129</ele>
        <time>2023-12-20T15:47:42Z</time>
      </trkpt>
      <trkpt lat="43.65711" lon="1.37672">
        <ele>129</ele>
        <time>2023-12-20T15:47:43Z</time>
      </trkpt>
      <trkpt lat="43.65713" lon="1.37671">
        <ele>129</ele>
        <time>2023-12-20T15:47:44Z</time>
      </trkpt>
      <trkpt lat="43.65715" lon="1.37669">
        <ele>129</ele>
        <time>2023-12-20T15:47:45Z</time>
      </trkpt>
      <trkpt lat="43.65717" lon="1.37668">
        <ele>129</ele>
        <time>2023-12-20T15:47:46Z</time>
      </trkpt>
      <trkpt lat="43.65719" lon="1.37666">
        <ele>129</ele>
        <time>2023-12-20T15:47:47Z</time>
      </trkpt>
      <trkpt lat="43.65721" lon="1.37665">
        <ele>129</ele>
        <time>2023-12-20T15:47:48Z</time>
      </trkpt>
      <trkpt lat="43.65723" lon="1.37663">
        <ele>129</ele>
        <time>2023-12-20T15:47:49Z</time>
      </trkpt>
      <trkpt lat="43.65726" lon="1.37662">
        <ele>129</ele>
        <time>2023-12-20T15:47:50Z</time>
      </trkpt>
      <trkpt lat="43.65728" lon="1.3766">
        <ele>129</ele>
        <time>2023-12-20T15:47:51Z</time>
      </trkpt>
      <trkpt lat="43.6573" lon="1.37659">
        <ele>129</ele>
        <time>2023-12-20T15:47:52Z</time>
      </trkpt>
      <trkpt lat="43.65732" lon="1.37657">
        <ele>129</ele>
        <time>2023-12-20T15:47:53Z</time>
      </trkpt>
      <trkpt lat="43.65734" lon="1.37656">
        <ele>129</ele>
        <time>2023-12-20T15:47:54Z</time>
      </trkpt>
      <trkpt lat="43.65736" lon="1.37654">
        <ele>129</ele>
        <time>2023-12-20T15:47:55Z</time>
      </trkpt>
      <trkpt lat="43.65738" lon="1.37653">
        <ele>129</ele>
        <time>2023-12-20T15:47:56Z</time>
      </trkpt>
      <trkpt lat="43.65741" lon="1.37652">
        <ele>129</ele>
        <time>2023-12-20T15:47:57Z</time>
      </trkpt>
      <trkpt lat="43.65743" lon="1.37651">
        <ele>129</ele>
        <time>2023-12-20T15:47:58Z</time>
      </trkpt>
      <trkpt lat="43.65745" lon="1.37649">
        <ele>129</ele>
        <time>2023-12-20T15:47:59Z</time>
      </trkpt>
      <trkpt lat="43.65747" lon="1.37648">
        <ele>129</ele>
        <time>2023-12-20T15:48:00Z</time>
      </trkpt>
      <trkpt lat="43.6575" lon="1.37646">
        <ele>129</ele>
        <time>2023-12-20T15:48:01Z</time>
      </trkpt>
      <trkpt lat="43.65752" lon="1.37645">
        <ele>129</ele>
        <time>2023-12-20T15:48:02Z</time>
      </trkpt>
      <trkpt lat="43.65754" lon="1.37643">
        <ele>129</ele>
        <time>2023-12-20T15:48:03Z</time>
      </trkpt>
      <trkpt lat="43.65756" lon="1.37641">
        <ele>129</ele>
        <time>2023-12-20T15:48:04Z</time>
      </trkpt>
      <trkpt lat="43.65758" lon="1.3764">
        <ele>129</ele>
        <time>2023-12-20T15:48:05Z</time>
      </trkpt>
      <trkpt lat="43.6576" lon="1.37639">
        <ele>129</ele>
        <time>2023-12-20T15:48:06Z</time>
      </trkpt>
      <trkpt lat="43.65762" lon="1.37637">
        <ele>129</ele>
        <time>2023-12-20T15:48:07Z</time>
      </trkpt>
      <trkpt lat="43.65764" lon="1.37635">
        <ele>129</ele>
        <time>2023-12-20T15:48:08Z</time>
      </trkpt>
      <trkpt lat="43.65767" lon="1.37634">
        <ele>129</ele>
        <time>2023-12-20T15:48:09Z</time>
      </trkpt>
      <trkpt lat="43.65769" lon="1.37633">
        <ele>129</ele>
        <time>2023-12-20T15:48:10Z</time>
      </trkpt>
      <trkpt lat="43.65771" lon="1.37631">
        <ele>129</ele>
        <time>2023-12-20T15:48:11Z</time>
      </trkpt>
      <trkpt lat="43.65773" lon="1.3763">
        <ele>128</ele>
        <time>2023-12-20T15:48:12Z</time>
      </trkpt>
      <trkpt lat="43.65775" lon="1.37628">
        <ele>128</ele>
        <time>2023-12-20T15:48:13Z</time>
      </trkpt>
      <trkpt lat="43.65777" lon="1.37626">
        <ele>129</ele>
        <time>2023-12-20T15:48:14Z</time>
      </trkpt>
      <trkpt lat="43.65779" lon="1.37625">
        <ele>129</ele>
        <time>2023-12-20T15:48:15Z</time>
      </trkpt>
      <trkpt lat="43.65781" lon="1.37624">
        <ele>129</ele>
        <time>2023-12-20T15:48:16Z</time>
      </trkpt>
      <trkpt lat="43.65783" lon="1.37622">
        <ele>129</ele>
        <time>2023-12-20T15:48:17Z</time>
      </trkpt>
      <trkpt lat="43.65785" lon="1.37621">
        <ele>129</ele>
        <time>2023-12-20T15:48:18Z</time>
      </trkpt>
      <trkpt lat="43.65788" lon="1.37619">
        <ele>129</ele>
        <time>2023-12-20T15:48:19Z</time>
      </trkpt>
      <trkpt lat="43.6579" lon="1.37618">
        <ele>129</ele>
        <time>2023-12-20T15:48:20Z</time>
      </trkpt>
      <trkpt lat="43.65792" lon="1.37616">
        <ele>129</ele>
        <time>2023-12-20T15:48:21Z</time>
      </trkpt>
      <trkpt lat="43.65794" lon="1.37615">
        <ele>129</ele>
        <time>2023-12-20T15:48:22Z</time>
      </trkpt>
      <trkpt lat="43.65796" lon="1.37613">
        <ele>129</ele>
        <time>2023-12-20T15:48:23Z</time>
      </trkpt>
      <trkpt lat="43.65798" lon="1.37612">
        <ele>129</ele>
        <time>2023-12-20T15:48:24Z</time>
      </trkpt>
      <trkpt lat="43.658" lon="1.3761">
        <ele>129</ele>
        <time>2023-12-20T15:48:25Z</time>
      </trkpt>
      <trkpt lat="43.65802" lon="1.37608">
        <ele>129</ele>
        <time>2023-12-20T15:48:26Z</time>
      </trkpt>
      <trkpt lat="43.65804" lon="1.37606">
        <ele>129</ele>
        <time>2023-12-20T15:48:27Z</time>
      </trkpt>
      <trkpt lat="43.65806" lon="1.37604">
        <ele>129</ele>
        <time>2023-12-20T15:48:28Z</time>
      </trkpt>
      <trkpt lat="43.65807" lon="1.37601">
        <ele>129</ele>
        <time>2023-12-20T15:48:29Z</time>
      </trkpt>
      <trkpt lat="43.65809" lon="1.37598">
        <ele>129</ele>
        <time>2023-12-20T15:48:30Z</time>
      </trkpt>
      <trkpt lat="43.65811" lon="1.37596">
        <ele>129</ele>
        <time>2023-12-20T15:48:31Z</time>
      </trkpt>
      <trkpt lat="43.65813" lon="1.37593">
        <ele>129</ele>
        <time>2023-12-20T15:48:32Z</time>
      </trkpt>
      <trkpt lat="43.65815" lon="1.37591">
        <ele>129</ele>
        <time>2023-12-20T15:48:33Z</time>
      </trkpt>
      <trkpt lat="43.65817" lon="1.37589">
        <ele>129</ele>
        <time>2023-12-20T15:48:34Z</time>
      </trkpt>
      <trkpt lat="43.65819" lon="1.37587">
        <ele>129</ele>
        <time>2023-12-20T15:48:35Z</time>
      </trkpt>
      <trkpt lat="43.65821" lon="1.37585">
        <ele>129</ele>
        <time>2023-12-20T15:48:36Z</time>
      </trkpt>
      <trkpt lat="43.65824" lon="1.37584">
        <ele>129</ele>
        <time>2023-12-20T15:48:37Z</time>
      </trkpt>
      <trkpt lat="43.65826" lon="1.37583">
        <ele>129</ele>
        <time>2023-12-20T15:48:38Z</time>
      </trkpt>
      <trkpt lat="43.65828" lon="1.37582">
        <ele>129</ele>
        <time>2023-12-20T15:48:39Z</time>
      </trkpt>
      <trkpt lat="43.6583" lon="1.37581">
        <ele>129</ele>
        <time>2023-12-20T15:48:40Z</time>
      </trkpt>
      <trkpt lat="43.65832" lon="1.37579">
        <ele>129</ele>
        <time>2023-12-20T15:48:41Z</time>
      </trkpt>
      <trkpt lat="43.65834" lon="1.37578">
        <ele>129</ele>
        <time>2023-12-20T15:48:42Z</time>
      </trkpt>
      <trkpt lat="43.65836" lon="1.37577">
        <ele>129</ele>
        <time>2023-12-20T15:48:43Z</time>
      </trkpt>
      <trkpt lat="43.65838" lon="1.37575">
        <ele>129</ele>
        <time>2023-12-20T15:48:44Z</time>
      </trkpt>
      <trkpt lat="43.65841" lon="1.37573">
        <ele>129</ele>
        <time>2023-12-20T15:48:45Z</time>
      </trkpt>
      <trkpt lat="43.65843" lon="1.37572">
        <ele>129</ele>
        <time>2023-12-20T15:48:46Z</time>
      </trkpt>
      <trkpt lat="43.65846" lon="1.3757">
        <ele>129</ele>
        <time>2023-12-20T15:48:47Z</time>
      </trkpt>
      <trkpt lat="43.65848" lon="1.37569">
        <ele>129</ele>
        <time>2023-12-20T15:48:48Z</time>
      </trkpt>
      <trkpt lat="43.6585" lon="1.37568">
        <ele>129</ele>
        <time>2023-12-20T15:48:49Z</time>
      </trkpt>
      <trkpt lat="43.65852" lon="1.37567">
        <ele>129</ele>
        <time>2023-12-20T15:48:50Z</time>
      </trkpt>
      <trkpt lat="43.65854" lon="1.37566">
        <ele>129</ele>
        <time>2023-12-20T15:48:51Z</time>
      </trkpt>
      <trkpt lat="43.65856" lon="1.37565">
        <ele>128</ele>
        <time>2023-12-20T15:48:52Z</time>
      </trkpt>
      <trkpt lat="43.65858" lon="1.37563">
        <ele>128</ele>
        <time>2023-12-20T15:48:53Z</time>
      </trkpt>
      <trkpt lat="43.6586" lon="1.37562">
        <ele>128</ele>
        <time>2023-12-20T15:48:54Z</time>
      </trkpt>
      <trkpt lat="43.65863" lon="1.3756">
        <ele>128</ele>
        <time>2023-12-20T15:48:55Z</time>
      </trkpt>
      <trkpt lat="43.65865" lon="1.37559">
        <ele>128</ele>
        <time>2023-12-20T15:48:56Z</time>
      </trkpt>
      <trkpt lat="43.65867" lon="1.37558">
        <ele>128</ele>
        <time>2023-12-20T15:48:57Z</time>
      </trkpt>
      <trkpt lat="43.65869" lon="1.37556">
        <ele>128</ele>
        <time>2023-12-20T15:48:58Z</time>
      </trkpt>
      <trkpt lat="43.6587" lon="1.37555">
        <ele>128</ele>
        <time>2023-12-20T15:48:59Z</time>
      </trkpt>
      <trkpt lat="43.6587" lon="1.37555">
        <ele>128</ele>
        <time>2023-12-20T15:49:00Z</time>
      </trkpt>
      <trkpt lat="43.65873" lon="1.37553">
        <ele>128</ele>
        <time>2023-12-20T15:49:01Z</time>
      </trkpt>
      <trkpt lat="43.65875" lon="1.37551">
        <ele>128</ele>
        <time>2023-12-20T15:49:02Z</time>
      </trkpt>
      <trkpt lat="43.65877" lon="1.3755">
        <ele>128</ele>
        <time>2023-12-20T15:49:03Z</time>
      </trkpt>
      <trkpt lat="43.65878" lon="1.37548">
        <ele>128</ele>
        <time>2023-12-20T15:49:04Z</time>
      </trkpt>
      <trkpt lat="43.6588" lon="1.37547">
        <ele>128</ele>
        <time>2023-12-20T15:49:05Z</time>
      </trkpt>
      <trkpt lat="43.6588" lon="1.37547">
        <ele>128</ele>
        <time>2023-12-20T15:49:06Z</time>
      </trkpt>
      <trkpt lat="43.65884" lon="1.37545">
        <ele>129</ele>
        <time>2023-12-20T15:49:07Z</time>
      </trkpt>
      <trkpt lat="43.65886" lon="1.37544">
        <ele>129</ele>
        <time>2023-12-20T15:49:08Z</time>
      </trkpt>
      <trkpt lat="43.65887" lon="1.37543">
        <ele>129</ele>
        <time>2023-12-20T15:49:09Z</time>
      </trkpt>
      <trkpt lat="43.6589" lon="1.37541">
        <ele>128</ele>
        <time>2023-12-20T15:49:10Z</time>
      </trkpt>
      <trkpt lat="43.65892" lon="1.3754">
        <ele>128</ele>
        <time>2023-12-20T15:49:11Z</time>
      </trkpt>
      <trkpt lat="43.65894" lon="1.37539">
        <ele>128</ele>
        <time>2023-12-20T15:49:12Z</time>
      </trkpt>
      <trkpt lat="43.65896" lon="1.37538">
        <ele>128</ele>
        <time>2023-12-20T15:49:13Z</time>
      </trkpt>
      <trkpt lat="43.65898" lon="1.37536">
        <ele>128</ele>
        <time>2023-12-20T15:49:14Z</time>
      </trkpt>
      <trkpt lat="43.659" lon="1.37534">
        <ele>128</ele>
        <time>2023-12-20T15:49:15Z</time>
      </trkpt>
      <trkpt lat="43.65903" lon="1.37532">
        <ele>128</ele>
        <time>2023-12-20T15:49:16Z</time>
      </trkpt>
      <trkpt lat="43.65905" lon="1.3753">
        <ele>128</ele>
        <time>2023-12-20T15:49:17Z</time>
      </trkpt>
      <trkpt lat="43.65907" lon="1.37528">
        <ele>128</ele>
        <time>2023-12-20T15:49:18Z</time>
      </trkpt>
      <trkpt lat="43.65909" lon="1.37526">
        <ele>128</ele>
        <time>2023-12-20T15:49:19Z</time>
      </trkpt>
      <trkpt lat="43.65911" lon="1.37524">
        <ele>128</ele>
        <time>2023-12-20T15:49:20Z</time>
      </trkpt>
      <trkpt lat="43.65914" lon="1.37522">
        <ele>128</ele>
        <time>2023-12-20T15:49:21Z</time>
      </trkpt>
      <trkpt lat="43.65916" lon="1.3752">
        <ele>128</ele>
        <time>2023-12-20T15:49:22Z</time>
      </trkpt>
      <trkpt lat="43.65918" lon="1.37518">
        <ele>128</ele>
        <time>2023-12-20T15:49:23Z</time>
      </trkpt>
      <trkpt lat="43.65921" lon="1.37517">
        <ele>128</ele>
        <time>2023-12-20T15:49:24Z</time>
      </trkpt>
      <trkpt lat="43.65923" lon="1.37516">
        <ele>128</ele>
        <time>2023-12-20T15:49:25Z</time>
      </trkpt>
      <trkpt lat="43.65926" lon="1.37515">
        <ele>128</ele>
        <time>2023-12-20T15:49:26Z</time>
      </trkpt>
      <trkpt lat="43.65928" lon="1.37514">
        <ele>128</ele>
        <time>2023-12-20T15:49:27Z</time>
      </trkpt>
      <trkpt lat="43.6593" lon="1.37513">
        <ele>128</ele>
        <time>2023-12-20T15:49:28Z</time>
      </trkpt>
      <trkpt lat="43.65932" lon="1.37511">
        <ele>128</ele>
        <time>2023-12-20T15:49:29Z</time>
      </trkpt>
      <trkpt lat="43.65934" lon="1.3751">
        <ele>128</ele>
        <time>2023-12-20T15:49:30Z</time>
      </trkpt>
      <trkpt lat="43.65936" lon="1.37509">
        <ele>128</ele>
        <time>2023-12-20T15:49:31Z</time>
      </trkpt>
      <trkpt lat="43.65939" lon="1.37507">
        <ele>128</ele>
        <time>2023-12-20T15:49:32Z</time>
      </trkpt>
      <trkpt lat="43.65941" lon="1.37505">
        <ele>128</ele>
        <time>2023-12-20T15:49:33Z</time>
      </trkpt>
      <trkpt lat="43.65943" lon="1.37503">
        <ele>128</ele>
        <time>2023-12-20T15:49:34Z</time>
      </trkpt>
      <trkpt lat="43.65945" lon="1.37501">
        <ele>128</ele>
        <time>2023-12-20T15:49:35Z</time>
      </trkpt>
      <trkpt lat="43.65947" lon="1.375">
        <ele>129</ele>
        <time>2023-12-20T15:49:36Z</time>
      </trkpt>
      <trkpt lat="43.6595" lon="1.37498">
        <ele>129</ele>
        <time>2023-12-20T15:49:37Z</time>
      </trkpt>
      <trkpt lat="43.65952" lon="1.37496">
        <ele>128</ele>
        <time>2023-12-20T15:49:38Z</time>
      </trkpt>
      <trkpt lat="43.65954" lon="1.37495">
        <ele>128</ele>
        <time>2023-12-20T15:49:39Z</time>
      </trkpt>
      <trkpt lat="43.65956" lon="1.37494">
        <ele>128</ele>
        <time>2023-12-20T15:49:40Z</time>
      </trkpt>
      <trkpt lat="43.65959" lon="1.37492">
        <ele>128</ele>
        <time>2023-12-20T15:49:41Z</time>
      </trkpt>
      <trkpt lat="43.65961" lon="1.37491">
        <ele>128</ele>
        <time>2023-12-20T15:49:42Z</time>
      </trkpt>
      <trkpt lat="43.65963" lon="1.3749">
        <ele>128</ele>
        <time>2023-12-20T15:49:43Z</time>
      </trkpt>
      <trkpt lat="43.65965" lon="1.37488">
        <ele>128</ele>
        <time>2023-12-20T15:49:44Z</time>
      </trkpt>
      <trkpt lat="43.65967" lon="1.37486">
        <ele>128</ele>
        <time>2023-12-20T15:49:45Z</time>
      </trkpt>
      <trkpt lat="43.65969" lon="1.37485">
        <ele>128</ele>
        <time>2023-12-20T15:49:46Z</time>
      </trkpt>
      <trkpt lat="43.65971" lon="1.37483">
        <ele>128</ele>
        <time>2023-12-20T15:49:47Z</time>
      </trkpt>
      <trkpt lat="43.65973" lon="1.37481">
        <ele>128</ele>
        <time>2023-12-20T15:49:48Z</time>
      </trkpt>
      <trkpt lat="43.65975" lon="1.3748">
        <ele>128</ele>
        <time>2023-12-20T15:49:49Z</time>
      </trkpt>
      <trkpt lat="43.65977" lon="1.37477">
        <ele>128</ele>
        <time>2023-12-20T15:49:50Z</time>
      </trkpt>
      <trkpt lat="43.6598" lon="1.37475">
        <ele>128</ele>
        <time>2023-12-20T15:49:51Z</time>
      </trkpt>
      <trkpt lat="43.65982" lon="1.37473">
        <ele>128</ele>
        <time>2023-12-20T15:49:52Z</time>
      </trkpt>
      <trkpt lat="43.65984" lon="1.37472">
        <ele>128</ele>
        <time>2023-12-20T15:49:53Z</time>
      </trkpt>
      <trkpt lat="43.65986" lon="1.3747">
        <ele>128</ele>
        <time>2023-12-20T15:49:54Z</time>
      </trkpt>
      <trkpt lat="43.65989" lon="1.37469">
        <ele>128</ele>
        <time>2023-12-20T15:49:55Z</time>
      </trkpt>
      <trkpt lat="43.65991" lon="1.37468">
        <ele>128</ele>
        <time>2023-12-20T15:49:56Z</time>
      </trkpt>
      <trkpt lat="43.65993" lon="1.37466">
        <ele>128</ele>
        <time>2023-12-20T15:49:57Z</time>
      </trkpt>
      <trkpt lat="43.65996" lon="1.37464">
        <ele>128</ele>
        <time>2023-12-20T15:49:58Z</time>
      </trkpt>
      <trkpt lat="43.65998" lon="1.37463">
        <ele>128</ele>
        <time>2023-12-20T15:49:59Z</time>
      </trkpt>
      <trkpt lat="43.66" lon="1.37461">
        <ele>128</ele>
        <time>2023-12-20T15:50:00Z</time>
      </trkpt>
      <trkpt lat="43.66002" lon="1.3746">
        <ele>128</ele>
        <time>2023-12-20T15:50:01Z</time>
      </trkpt>
      <trkpt lat="43.66004" lon="1.37459">
        <ele>128</ele>
        <time>2023-12-20T15:50:02Z</time>
      </trkpt>
      <trkpt lat="43.66007" lon="1.37457">
        <ele>128</ele>
        <time>2023-12-20T15:50:03Z</time>
      </trkpt>
      <trkpt lat="43.66009" lon="1.37456">
        <ele>128</ele>
        <time>2023-12-20T15:50:04Z</time>
      </trkpt>
      <trkpt lat="43.66011" lon="1.37454">
        <ele>128</ele>
        <time>2023-12-20T15:50:05Z</time>
      </trkpt>
      <trkpt lat="43.66013" lon="1.37453">
        <ele>128</ele>
        <time>2023-12-20T15:50:06Z</time>
      </trkpt>
      <trkpt lat="43.66015" lon="1.37451">
        <ele>128</ele>
        <time>2023-12-20T15:50:07Z</time>
      </trkpt>
      <trkpt lat="43.66017" lon="1.3745">
        <ele>128</ele>
        <time>2023-12-20T15:50:08Z</time>
      </trkpt>
      <trkpt lat="43.66019" lon="1.37448">
        <ele>128</ele>
        <time>2023-12-20T15:50:09Z</time>
      </trkpt>
      <trkpt lat="43.66021" lon="1.37446">
        <ele>128</ele>
        <time>2023-12-20T15:50:10Z</time>
      </trkpt>
      <trkpt lat="43.66023" lon="1.37445">
        <ele>129</ele>
        <time>2023-12-20T15:50:11Z</time>
      </trkpt>
      <trkpt lat="43.66026" lon="1.37443">
        <ele>129</ele>
        <time>2023-12-20T15:50:12Z</time>
      </trkpt>
      <trkpt lat="43.66028" lon="1.37441">
        <ele>128</ele>
        <time>2023-12-20T15:50:13Z</time>
      </trkpt>
      <trkpt lat="43.6603" lon="1.37439">
        <ele>128</ele>
        <time>2023-12-20T15:50:14Z</time>
      </trkpt>
      <trkpt lat="43.66032" lon="1.37438">
        <ele>129</ele>
        <time>2023-12-20T15:50:15Z</time>
      </trkpt>
      <trkpt lat="43.66035" lon="1.37436">
        <ele>129</ele>
        <time>2023-12-20T15:50:16Z</time>
      </trkpt>
      <trkpt lat="43.66037" lon="1.37434">
        <ele>129</ele>
        <time>2023-12-20T15:50:17Z</time>
      </trkpt>
      <trkpt lat="43.66038" lon="1.37432">
        <ele>129</ele>
        <time>2023-12-20T15:50:18Z</time>
      </trkpt>
      <trkpt lat="43.6604" lon="1.3743">
        <ele>129</ele>
        <time>2023-12-20T15:50:19Z</time>
      </trkpt>
      <trkpt lat="43.66042" lon="1.37428">
        <ele>128</ele>
        <time>2023-12-20T15:50:20Z</time>
      </trkpt>
      <trkpt lat="43.66043" lon="1.37426">
        <ele>128</ele>
        <time>2023-12-20T15:50:21Z</time>
      </trkpt>
      <trkpt lat="43.66045" lon="1.37424">
        <ele>128</ele>
        <time>2023-12-20T15:50:22Z</time>
      </trkpt>
      <trkpt lat="43.66048" lon="1.37422">
        <ele>129</ele>
        <time>2023-12-20T15:50:23Z</time>
      </trkpt>
      <trkpt lat="43.6605" lon="1.37421">
        <ele>129</ele>
        <time>2023-12-20T15:50:24Z</time>
      </trkpt>
      <trkpt lat="43.66053" lon="1.3742">
        <ele>128</ele>
        <time>2023-12-20T15:50:25Z</time>
      </trkpt>
      <trkpt lat="43.66055" lon="1.37419">
        <ele>128</ele>
        <time>2023-12-20T15:50:26Z</time>
      </trkpt>
      <trkpt lat="43.66057" lon="1.37419">
        <ele>128</ele>
        <time>2023-12-20T15:50:27Z</time>
      </trkpt>
      <trkpt lat="43.6606" lon="1.37418">
        <ele>128</ele>
        <time>2023-12-20T15:50:28Z</time>
      </trkpt>
      <trkpt lat="43.66062" lon="1.37417">
        <ele>128</ele>
        <time>2023-12-20T15:50:29Z</time>
      </trkpt>
      <trkpt lat="43.66064" lon="1.37417">
        <ele>128</ele>
        <time>2023-12-20T15:50:30Z</time>
      </trkpt>
      <trkpt lat="43.66066" lon="1.37416">
        <ele>128</ele>
        <time>2023-12-20T15:50:31Z</time>
      </trkpt>
      <trkpt lat="43.66068" lon="1.37415">
        <ele>128</ele>
        <time>2023-12-20T15:50:32Z</time>
      </trkpt>
      <trkpt lat="43.6607" lon="1.37413">
        <ele>128</ele>
        <time>2023-12-20T15:50:33Z</time>
      </trkpt>
      <trkpt lat="43.66072" lon="1.37412">
        <ele>128</ele>
        <time>2023-12-20T15:50:34Z</time>
      </trkpt>
      <trkpt lat="43.66074" lon="1.3741">
        <ele>128</ele>
        <time>2023-12-20T15:50:35Z</time>
      </trkpt>
      <trkpt lat="43.66076" lon="1.37409">
        <ele>128</ele>
        <time>2023-12-20T15:50:36Z</time>
      </trkpt>
      <trkpt lat="43.66079" lon="1.37407">
        <ele>128</ele>
        <time>2023-12-20T15:50:37Z</time>
      </trkpt>
      <trkpt lat="43.66081" lon="1.37406">
        <ele>128</ele>
        <time>2023-12-20T15:50:38Z</time>
      </trkpt>
      <trkpt lat="43.66084" lon="1.37405">
        <ele>128</ele>
        <time>2023-12-20T15:50:39Z</time>
      </trkpt>
      <trkpt lat="43.66086" lon="1.37405">
        <ele>128</ele>
        <time>2023-12-20T15:50:40Z</time>
      </trkpt>
      <trkpt lat="43.66089" lon="1.37405">
        <ele>128</ele>
        <time>2023-12-20T15:50:41Z</time>
      </trkpt>
      <trkpt lat="43.66092" lon="1.37404">
        <ele>128</ele>
        <time>2023-12-20T15:50:42Z</time>
      </trkpt>
      <trkpt lat="43.66094" lon="1.37404">
        <ele>128</ele>
        <time>2023-12-20T15:50:43Z</time>
      </trkpt>
      <trkpt lat="43.66097" lon="1.37404">
        <ele>128</ele>
        <time>2023-12-20T15:50:44Z</time>
      </trkpt>
      <trkpt lat="43.66099" lon="1.37403">
        <ele>128</ele>
        <time>2023-12-20T15:50:45Z</time>
      </trkpt>
      <trkpt lat="43.66102" lon="1.37403">
        <ele>128</ele>
        <time>2023-12-20T15:50:46Z</time>
      </trkpt>
      <trkpt lat="43.66104" lon="1.37402">
        <ele>128</ele>
        <time>2023-12-20T15:50:47Z</time>
      </trkpt>
      <trkpt lat="43.66107" lon="1.374">
        <ele>128</ele>
        <time>2023-12-20T15:50:48Z</time>
      </trkpt>
      <trkpt lat="43.66109" lon="1.37399">
        <ele>128</ele>
        <time>2023-12-20T15:50:49Z</time>
      </trkpt>
      <trkpt lat="43.66112" lon="1.37398">
        <ele>128</ele>
        <time>2023-12-20T15:50:50Z</time>
      </trkpt>
      <trkpt lat="43.66114" lon="1.37397">
        <ele>128</ele>
        <time>2023-12-20T15:50:51Z</time>
      </trkpt>
      <trkpt lat="43.66116" lon="1.37395">
        <ele>128</ele>
        <time>2023-12-20T15:50:52Z</time>
      </trkpt>
      <trkpt lat="43.66119" lon="1.37394">
        <ele>128</ele>
        <time>2023-12-20T15:50:53Z</time>
      </trkpt>
      <trkpt lat="43.66121" lon="1.37393">
        <ele>128</ele>
        <time>2023-12-20T15:50:54Z</time>
      </trkpt>
      <trkpt lat="43.66123" lon="1.37391">
        <ele>128</ele>
        <time>2023-12-20T15:50:55Z</time>
      </trkpt>
      <trkpt lat="43.66125" lon="1.3739">
        <ele>129</ele>
        <time>2023-12-20T15:50:56Z</time>
      </trkpt>
      <trkpt lat="43.66127" lon="1.37388">
        <ele>129</ele>
        <time>2023-12-20T15:50:57Z</time>
      </trkpt>
      <trkpt lat="43.6613" lon="1.37387">
        <ele>129</ele>
        <time>2023-12-20T15:50:58Z</time>
      </trkpt>
      <trkpt lat="43.66132" lon="1.37386">
        <ele>129</ele>
        <time>2023-12-20T15:50:59Z</time>
      </trkpt>
      <trkpt lat="43.66134" lon="1.37385">
        <ele>128</ele>
        <time>2023-12-20T15:51:00Z</time>
      </trkpt>
      <trkpt lat="43.66136" lon="1.37383">
        <ele>129</ele>
        <time>2023-12-20T15:51:01Z</time>
      </trkpt>
      <trkpt lat="43.66139" lon="1.37382">
        <ele>129</ele>
        <time>2023-12-20T15:51:02Z</time>
      </trkpt>
      <trkpt lat="43.66141" lon="1.37382">
        <ele>129</ele>
        <time>2023-12-20T15:51:03Z</time>
      </trkpt>
      <trkpt lat="43.66143" lon="1.3738">
        <ele>129</ele>
        <time>2023-12-20T15:51:04Z</time>
      </trkpt>
      <trkpt lat="43.66145" lon="1.37379">
        <ele>129</ele>
        <time>2023-12-20T15:51:05Z</time>
      </trkpt>
      <trkpt lat="43.66147" lon="1.37377">
        <ele>128</ele>
        <time>2023-12-20T15:51:06Z</time>
      </trkpt>
      <trkpt lat="43.66149" lon="1.37375">
        <ele>128</ele>
        <time>2023-12-20T15:51:07Z</time>
      </trkpt>
      <trkpt lat="43.66152" lon="1.37374">
        <ele>128</ele>
        <time>2023-12-20T15:51:08Z</time>
      </trkpt>
      <trkpt lat="43.66154" lon="1.37372">
        <ele>128</ele>
        <time>2023-12-20T15:51:09Z</time>
      </trkpt>
      <trkpt lat="43.66156" lon="1.3737">
        <ele>128</ele>
        <time>2023-12-20T15:51:10Z</time>
      </trkpt>
      <trkpt lat="43.66158" lon="1.37369">
        <ele>127</ele>
        <time>2023-12-20T15:51:11Z</time>
      </trkpt>
      <trkpt lat="43.66161" lon="1.37367">
        <ele>127</ele>
        <time>2023-12-20T15:51:12Z</time>
      </trkpt>
      <trkpt lat="43.66163" lon="1.37365">
        <ele>127</ele>
        <time>2023-12-20T15:51:13Z</time>
      </trkpt>
      <trkpt lat="43.66165" lon="1.37364">
        <ele>127</ele>
        <time>2023-12-20T15:51:14Z</time>
      </trkpt>
      <trkpt lat="43.66168" lon="1.37362">
        <ele>127</ele>
        <time>2023-12-20T15:51:15Z</time>
      </trkpt>
      <trkpt lat="43.6617" lon="1.37361">
        <ele>127</ele>
        <time>2023-12-20T15:51:16Z</time>
      </trkpt>
      <trkpt lat="43.66172" lon="1.37359">
        <ele>127</ele>
        <time>2023-12-20T15:51:17Z</time>
      </trkpt>
      <trkpt lat="43.66174" lon="1.37358">
        <ele>127</ele>
        <time>2023-12-20T15:51:18Z</time>
      </trkpt>
      <trkpt lat="43.66177" lon="1.37357">
        <ele>127</ele>
        <time>2023-12-20T15:51:19Z</time>
      </trkpt>
      <trkpt lat="43.66179" lon="1.37355">
        <ele>127</ele>
        <time>2023-12-20T15:51:20Z</time>
      </trkpt>
      <trkpt lat="43.66181" lon="1.37353">
        <ele>127</ele>
        <time>2023-12-20T15:51:21Z</time>
      </trkpt>
      <trkpt lat="43.66183" lon="1.37352">
        <ele>127</ele>
        <time>2023-12-20T15:51:22Z</time>
      </trkpt>
      <trkpt lat="43.66185" lon="1.3735">
        <ele>127</ele>
        <time>2023-12-20T15:51:23Z</time>
      </trkpt>
      <trkpt lat="43.66187" lon="1.37349">
        <ele>127</ele>
        <time>2023-12-20T15:51:24Z</time>
      </trkpt>
      <trkpt lat="43.6619" lon="1.37347">
        <ele>127</ele>
        <time>2023-12-20T15:51:25Z</time>
      </trkpt>
      <trkpt lat="43.66192" lon="1.37346">
        <ele>127</ele>
        <time>2023-12-20T15:51:26Z</time>
      </trkpt>
      <trkpt lat="43.66194" lon="1.37344">
        <ele>127</ele>
        <time>2023-12-20T15:51:27Z</time>
      </trkpt>
      <trkpt lat="43.66196" lon="1.37342">
        <ele>127</ele>
        <time>2023-12-20T15:51:28Z</time>
      </trkpt>
      <trkpt lat="43.66199" lon="1.37341">
        <ele>127</ele>
        <time>2023-12-20T15:51:29Z</time>
      </trkpt>
      <trkpt lat="43.66201" lon="1.3734">
        <ele>127</ele>
        <time>2023-12-20T15:51:30Z</time>
      </trkpt>
      <trkpt lat="43.66204" lon="1.37338">
        <ele>126</ele>
        <time>2023-12-20T15:51:31Z</time>
      </trkpt>
      <trkpt lat="43.66206" lon="1.37336">
        <ele>126</ele>
        <time>2023-12-20T15:51:32Z</time>
      </trkpt>
      <trkpt lat="43.66208" lon="1.37335">
        <ele>126</ele>
        <time>2023-12-20T15:51:33Z</time>
      </trkpt>
      <trkpt lat="43.6621" lon="1.37334">
        <ele>126</ele>
        <time>2023-12-20T15:51:34Z</time>
      </trkpt>
      <trkpt lat="43.66211" lon="1.37333">
        <ele>125</ele>
        <time>2023-12-20T15:51:35Z</time>
      </trkpt>
      <trkpt lat="43.66213" lon="1.37331">
        <ele>125</ele>
        <time>2023-12-20T15:51:36Z</time>
      </trkpt>
      <trkpt lat="43.66215" lon="1.3733">
        <ele>126</ele>
        <time>2023-12-20T15:51:37Z</time>
      </trkpt>
      <trkpt lat="43.66218" lon="1.37328">
        <ele>126</ele>
        <time>2023-12-20T15:51:38Z</time>
      </trkpt>
      <trkpt lat="43.6622" lon="1.37327">
        <ele>127</ele>
        <time>2023-12-20T15:51:39Z</time>
      </trkpt>
      <trkpt lat="43.66222" lon="1.37326">
        <ele>127</ele>
        <time>2023-12-20T15:51:40Z</time>
      </trkpt>
      <trkpt lat="43.66224" lon="1.37325">
        <ele>127</ele>
        <time>2023-12-20T15:51:41Z</time>
      </trkpt>
      <trkpt lat="43.66227" lon="1.37323">
        <ele>126</ele>
        <time>2023-12-20T15:51:42Z</time>
      </trkpt>
      <trkpt lat="43.66229" lon="1.37322">
        <ele>126</ele>
        <time>2023-12-20T15:51:43Z</time>
      </trkpt>
      <trkpt lat="43.66231" lon="1.3732">
        <ele>126</ele>
        <time>2023-12-20T15:51:44Z</time>
      </trkpt>
      <trkpt lat="43.66234" lon="1.37318">
        <ele>126</ele>
        <time>2023-12-20T15:51:45Z</time>
      </trkpt>
      <trkpt lat="43.66236" lon="1.37317">
        <ele>126</ele>
        <time>2023-12-20T15:51:46Z</time>
      </trkpt>
      <trkpt lat="43.66238" lon="1.37316">
        <ele>126</ele>
        <time>2023-12-20T15:51:47Z</time>
      </trkpt>
      <trkpt lat="43.6624" lon="1.37314">
        <ele>126</ele>
        <time>2023-12-20T15:51:48Z</time>
      </trkpt>
      <trkpt lat="43.66243" lon="1.37313">
        <ele>126</ele>
        <time>2023-12-20T15:51:49Z</time>
      </trkpt>
      <trkpt lat="43.66245" lon="1.37312">
        <ele>126</ele>
        <time>2023-12-20T15:51:50Z</time>
      </trkpt>
      <trkpt lat="43.66247" lon="1.37311">
        <ele>126</ele>
        <time>2023-12-20T15:51:51Z</time>
      </trkpt>
      <trkpt lat="43.66249" lon="1.3731">
        <ele>126</ele>
        <time>2023-12-20T15:51:52Z</time>
      </trkpt>
      <trkpt lat="43.66252" lon="1.37308">
        <ele>127</ele>
        <time>2023-12-20T15:51:53Z</time>
      </trkpt>
      <trkpt lat="43.66254" lon="1.37307">
        <ele>127</ele>
        <time>2023-12-20T15:51:54Z</time>
      </trkpt>
      <trkpt lat="43.66256" lon="1.37305">
        <ele>127</ele>
        <time>2023-12-20T15:51:55Z</time>
      </trkpt>
      <trkpt lat="43.66258" lon="1.37304">
        <ele>126</ele>
        <time>2023-12-20T15:51:56Z</time>
      </trkpt>
      <trkpt lat="43.6626" lon="1.37303">
        <ele>126</ele>
        <time>2023-12-20T15:51:57Z</time>
      </trkpt>
      <trkpt lat="43.66262" lon="1.37302">
        <ele>126</ele>
        <time>2023-12-20T15:51:58Z</time>
      </trkpt>
      <trkpt lat="43.66264" lon="1.37301">
        <ele>126</ele>
        <time>2023-12-20T15:51:59Z</time>
      </trkpt>
      <trkpt lat="43.66267" lon="1.37299">
        <ele>126</ele>
        <time>2023-12-20T15:52:00Z</time>
      </trkpt>
      <trkpt lat="43.66269" lon="1.37298">
        <ele>126</ele>
        <time>2023-12-20T15:52:01Z</time>
      </trkpt>
      <trkpt lat="43.66271" lon="1.37296">
        <ele>126</ele>
        <time>2023-12-20T15:52:02Z</time>
      </trkpt>
      <trkpt lat="43.66274" lon="1.37295">
        <ele>126</ele>
        <time>2023-12-20T15:52:03Z</time>
      </trkpt>
      <trkpt lat="43.66276" lon="1.37293">
        <ele>126</ele>
        <time>2023-12-20T15:52:04Z</time>
      </trkpt>
      <trkpt lat="43.66278" lon="1.37292">
        <ele>126</ele>
        <time>2023-12-20T15:52:05Z</time>
      </trkpt>
      <trkpt lat="43.66281" lon="1.3729">
        <ele>126</ele>
        <time>2023-12-20T15:52:06Z</time>
      </trkpt>
      <trkpt lat="43.66283" lon="1.37289">
        <ele>126</ele>
        <time>2023-12-20T15:52:07Z</time>
      </trkpt>
      <trkpt lat="43.66285" lon="1.37287">
        <ele>126</ele>
        <time>2023-12-20T15:52:08Z</time>
      </trkpt>
      <trkpt lat="43.66287" lon="1.37286">
        <ele>127</ele>
        <time>2023-12-20T15:52:09Z</time>
      </trkpt>
      <trkpt lat="43.66289" lon="1.37284">
        <ele>127</ele>
        <time>2023-12-20T15:52:10Z</time>
      </trkpt>
      <trkpt lat="43.66291" lon="1.37282">
        <ele>127</ele>
        <time>2023-12-20T15:52:11Z</time>
      </trkpt>
      <trkpt lat="43.66294" lon="1.37281">
        <ele>127</ele>
        <time>2023-12-20T15:52:12Z</time>
      </trkpt>
      <trkpt lat="43.66295" lon="1.37279">
        <ele>127</ele>
        <time>2023-12-20T15:52:13Z</time>
      </trkpt>
      <trkpt lat="43.66297" lon="1.37277">
        <ele>127</ele>
        <time>2023-12-20T15:52:14Z</time>
      </trkpt>
      <trkpt lat="43.66299" lon="1.37275">
        <ele>127</ele>
        <time>2023-12-20T15:52:15Z</time>
      </trkpt>
      <trkpt lat="43.66301" lon="1.37274">
        <ele>127</ele>
        <time>2023-12-20T15:52:16Z</time>
      </trkpt>
      <trkpt lat="43.66303" lon="1.37272">
        <ele>127</ele>
        <time>2023-12-20T15:52:17Z</time>
      </trkpt>
      <trkpt lat="43.66305" lon="1.37271">
        <ele>127</ele>
        <time>2023-12-20T15:52:18Z</time>
      </trkpt>
      <trkpt lat="43.66308" lon="1.37269">
        <ele>127</ele>
        <time>2023-12-20T15:52:19Z</time>
      </trkpt>
      <trkpt lat="43.6631" lon="1.37267">
        <ele>127</ele>
        <time>2023-12-20T15:52:20Z</time>
      </trkpt>
      <trkpt lat="43.66312" lon="1.37266">
        <ele>127</ele>
        <time>2023-12-20T15:52:21Z</time>
      </trkpt>
      <trkpt lat="43.66314" lon="1.37264">
        <ele>127</ele>
        <time>2023-12-20T15:52:22Z</time>
      </trkpt>
      <trkpt lat="43.66316" lon="1.37262">
        <ele>127</ele>
        <time>2023-12-20T15:52:23Z</time>
      </trkpt>
      <trkpt lat="43.66318" lon="1.3726">
        <ele>127</ele>
        <time>2023-12-20T15:52:24Z</time>
      </trkpt>
      <trkpt lat="43.6632" lon="1.37259">
        <ele>127</ele>
        <time>2023-12-20T15:52:25Z</time>
      </trkpt>
      <trkpt lat="43.66322" lon="1.37256">
        <ele>127</ele>
        <time>2023-12-20T15:52:26Z</time>
      </trkpt>
      <trkpt lat="43.66324" lon="1.37254">
        <ele>127</ele>
        <time>2023-12-20T15:52:27Z</time>
      </trkpt>
      <trkpt lat="43.66326" lon="1.37252">
        <ele>126</ele>
        <time>2023-12-20T15:52:28Z</time>
      </trkpt>
      <trkpt lat="43.66328" lon="1.37251">
        <ele>127</ele>
        <time>2023-12-20T15:52:29Z</time>
      </trkpt>
      <trkpt lat="43.66331" lon="1.3725">
        <ele>127</ele>
        <time>2023-12-20T15:52:30Z</time>
      </trkpt>
      <trkpt lat="43.66333" lon="1.37248">
        <ele>127</ele>
        <time>2023-12-20T15:52:31Z</time>
      </trkpt>
      <trkpt lat="43.66336" lon="1.37247">
        <ele>127</ele>
        <time>2023-12-20T15:52:32Z</time>
      </trkpt>
      <trkpt lat="43.66338" lon="1.37245">
        <ele>127</ele>
        <time>2023-12-20T15:52:33Z</time>
      </trkpt>
      <trkpt lat="43.66341" lon="1.37244">
        <ele>127</ele>
        <time>2023-12-20T15:52:34Z</time>
      </trkpt>
      <trkpt lat="43.66343" lon="1.37243">
        <ele>127</ele>
        <time>2023-12-20T15:52:35Z</time>
      </trkpt>
      <trkpt lat="43.66345" lon="1.37241">
        <ele>127</ele>
        <time>2023-12-20T15:52:36Z</time>
      </trkpt>
      <trkpt lat="43.66347" lon="1.3724">
        <ele>126</ele>
        <time>2023-12-20T15:52:37Z</time>
      </trkpt>
      <trkpt lat="43.6635" lon="1.37238">
        <ele>126</ele>
        <time>2023-12-20T15:52:38Z</time>
      </trkpt>
      <trkpt lat="43.66352" lon="1.37237">
        <ele>126</ele>
        <time>2023-12-20T15:52:39Z</time>
      </trkpt>
      <trkpt lat="43.66354" lon="1.37236">
        <ele>127</ele>
        <time>2023-12-20T15:52:40Z</time>
      </trkpt>
      <trkpt lat="43.66357" lon="1.37235">
        <ele>127</ele>
        <time>2023-12-20T15:52:41Z</time>
      </trkpt>
      <trkpt lat="43.66359" lon="1.37234">
        <ele>127</ele>
        <time>2023-12-20T15:52:42Z</time>
      </trkpt>
      <trkpt lat="43.66361" lon="1.37232">
        <ele>127</ele>
        <time>2023-12-20T15:52:43Z</time>
      </trkpt>
      <trkpt lat="43.66364" lon="1.37232">
        <ele>127</ele>
        <time>2023-12-20T15:52:44Z</time>
      </trkpt>
      <trkpt lat="43.66366" lon="1.37231">
        <ele>127</ele>
        <time>2023-12-20T15:52:45Z</time>
      </trkpt>
      <trkpt lat="43.66369" lon="1.37231">
        <ele>127</ele>
        <time>2023-12-20T15:52:46Z</time>
      </trkpt>
      <trkpt lat="43.66371" lon="1.37232">
        <ele>127</ele>
        <time>2023-12-20T15:52:47Z</time>
      </trkpt>
      <trkpt lat="43.66373" lon="1.37233">
        <ele>127</ele>
        <time>2023-12-20T15:52:48Z</time>
      </trkpt>
      <trkpt lat="43.66375" lon="1.37235">
        <ele>127</ele>
        <time>2023-12-20T15:52:49Z</time>
      </trkpt>
      <trkpt lat="43.66377" lon="1.37238">
        <ele>127</ele>
        <time>2023-12-20T15:52:50Z</time>
      </trkpt>
      <trkpt lat="43.6638" lon="1.3724">
        <ele>127</ele>
        <time>2023-12-20T15:52:51Z</time>
      </trkpt>
      <trkpt lat="43.66382" lon="1.37243">
        <ele>127</ele>
        <time>2023-12-20T15:52:52Z</time>
      </trkpt>
      <trkpt lat="43.66384" lon="1.37246">
        <ele>127</ele>
        <time>2023-12-20T15:52:53Z</time>
      </trkpt>
      <trkpt lat="43.66385" lon="1.37249">
        <ele>127</ele>
        <time>2023-12-20T15:52:54Z</time>
      </trkpt>
      <trkpt lat="43.66386" lon="1.37252">
        <ele>126</ele>
        <time>2023-12-20T15:52:55Z</time>
      </trkpt>
      <trkpt lat="43.66387" lon="1.37255">
        <ele>126</ele>
        <time>2023-12-20T15:52:56Z</time>
      </trkpt>
      <trkpt lat="43.66389" lon="1.37257">
        <ele>126</ele>
        <time>2023-12-20T15:52:57Z</time>
      </trkpt>
      <trkpt lat="43.66391" lon="1.37258">
        <ele>126</ele>
        <time>2023-12-20T15:52:58Z</time>
      </trkpt>
      <trkpt lat="43.66394" lon="1.37257">
        <ele>126</ele>
        <time>2023-12-20T15:52:59Z</time>
      </trkpt>
      <trkpt lat="43.66396" lon="1.37256">
        <ele>126</ele>
        <time>2023-12-20T15:53:00Z</time>
      </trkpt>
      <trkpt lat="43.66398" lon="1.37255">
        <ele>126</ele>
        <time>2023-12-20T15:53:01Z</time>
      </trkpt>
      <trkpt lat="43.66401" lon="1.37253">
        <ele>127</ele>
        <time>2023-12-20T15:53:02Z</time>
      </trkpt>
      <trkpt lat="43.66403" lon="1.37251">
        <ele>127</ele>
        <time>2023-12-20T15:53:03Z</time>
      </trkpt>
      <trkpt lat="43.66404" lon="1.37248">
        <ele>128</ele>
        <time>2023-12-20T15:53:04Z</time>
      </trkpt>
      <trkpt lat="43.66406" lon="1.37246">
        <ele>128</ele>
        <time>2023-12-20T15:53:05Z</time>
      </trkpt>
      <trkpt lat="43.66407" lon="1.37243">
        <ele>127</ele>
        <time>2023-12-20T15:53:06Z</time>
      </trkpt>
      <trkpt lat="43.66408" lon="1.37239">
        <ele>126</ele>
        <time>2023-12-20T15:53:07Z</time>
      </trkpt>
      <trkpt lat="43.66408" lon="1.37236">
        <ele>126</ele>
        <time>2023-12-20T15:53:08Z</time>
      </trkpt>
      <trkpt lat="43.66408" lon="1.37233">
        <ele>127</ele>
        <time>2023-12-20T15:53:09Z</time>
      </trkpt>
      <trkpt lat="43.66408" lon="1.37229">
        <ele>128</ele>
        <time>2023-12-20T15:53:10Z</time>
      </trkpt>
      <trkpt lat="43.66409" lon="1.37226">
        <ele>128</ele>
        <time>2023-12-20T15:53:11Z</time>
      </trkpt>
      <trkpt lat="43.6641" lon="1.37223">
        <ele>129</ele>
        <time>2023-12-20T15:53:12Z</time>
      </trkpt>
      <trkpt lat="43.66411" lon="1.3722">
        <ele>129</ele>
        <time>2023-12-20T15:53:13Z</time>
      </trkpt>
      <trkpt lat="43.66414" lon="1.37218">
        <ele>128</ele>
        <time>2023-12-20T15:53:14Z</time>
      </trkpt>
      <trkpt lat="43.66416" lon="1.37216">
        <ele>128</ele>
        <time>2023-12-20T15:53:15Z</time>
      </trkpt>
      <trkpt lat="43.66418" lon="1.37215">
        <ele>128</ele>
        <time>2023-12-20T15:53:16Z</time>
      </trkpt>
      <trkpt lat="43.6642" lon="1.37213">
        <ele>128</ele>
        <time>2023-12-20T15:53:17Z</time>
      </trkpt>
      <trkpt lat="43.66422" lon="1.37211">
        <ele>128</ele>
        <time>2023-12-20T15:53:18Z</time>
      </trkpt>
      <trkpt lat="43.66424" lon="1.37209">
        <ele>128</ele>
        <time>2023-12-20T15:53:19Z</time>
      </trkpt>
      <trkpt lat="43.66426" lon="1.37207">
        <ele>128</ele>
        <time>2023-12-20T15:53:20Z</time>
      </trkpt>
      <trkpt lat="43.66428" lon="1.37205">
        <ele>128</ele>
        <time>2023-12-20T15:53:21Z</time>
      </trkpt>
      <trkpt lat="43.66431" lon="1.37203">
        <ele>127</ele>
        <time>2023-12-20T15:53:22Z</time>
      </trkpt>
      <trkpt lat="43.66433" lon="1.37201">
        <ele>127</ele>
        <time>2023-12-20T15:53:23Z</time>
      </trkpt>
      <trkpt lat="43.66435" lon="1.37199">
        <ele>127</ele>
        <time>2023-12-20T15:53:24Z</time>
      </trkpt>
      <trkpt lat="43.66437" lon="1.37197">
        <ele>127</ele>
        <time>2023-12-20T15:53:25Z</time>
      </trkpt>
      <trkpt lat="43.6644" lon="1.37195">
        <ele>127</ele>
        <time>2023-12-20T15:53:26Z</time>
      </trkpt>
      <trkpt lat="43.66442" lon="1.37193">
        <ele>127</ele>
        <time>2023-12-20T15:53:27Z</time>
      </trkpt>
      <trkpt lat="43.66444" lon="1.37192">
        <ele>127</ele>
        <time>2023-12-20T15:53:28Z</time>
      </trkpt>
      <trkpt lat="43.66446" lon="1.3719">
        <ele>128</ele>
        <time>2023-12-20T15:53:29Z</time>
      </trkpt>
      <trkpt lat="43.66448" lon="1.37189">
        <ele>128</ele>
        <time>2023-12-20T15:53:30Z</time>
      </trkpt>
      <trkpt lat="43.6645" lon="1.37187">
        <ele>128</ele>
        <time>2023-12-20T15:53:31Z</time>
      </trkpt>
      <trkpt lat="43.66452" lon="1.37185">
        <ele>127</ele>
        <time>2023-12-20T15:53:32Z</time>
      </trkpt>
      <trkpt lat="43.66454" lon="1.37183">
        <ele>127</ele>
        <time>2023-12-20T15:53:33Z</time>
      </trkpt>
      <trkpt lat="43.66456" lon="1.37182">
        <ele>127</ele>
        <time>2023-12-20T15:53:34Z</time>
      </trkpt>
      <trkpt lat="43.66458" lon="1.3718">
        <ele>127</ele>
        <time>2023-12-20T15:53:35Z</time>
      </trkpt>
      <trkpt lat="43.66461" lon="1.37178">
        <ele>127</ele>
        <time>2023-12-20T15:53:36Z</time>
      </trkpt>
      <trkpt lat="43.66463" lon="1.37177">
        <ele>127</ele>
        <time>2023-12-20T15:53:37Z</time>
      </trkpt>
      <trkpt lat="43.66465" lon="1.37175">
        <ele>127</ele>
        <time>2023-12-20T15:53:38Z</time>
      </trkpt>
      <trkpt lat="43.66467" lon="1.37173">
        <ele>128</ele>
        <time>2023-12-20T15:53:39Z</time>
      </trkpt>
      <trkpt lat="43.66469" lon="1.37171">
        <ele>128</ele>
        <time>2023-12-20T15:53:40Z</time>
      </trkpt>
      <trkpt lat="43.66471" lon="1.37169">
        <ele>127</ele>
        <time>2023-12-20T15:53:41Z</time>
      </trkpt>
      <trkpt lat="43.66473" lon="1.37167">
        <ele>127</ele>
        <time>2023-12-20T15:53:42Z</time>
      </trkpt>
      <trkpt lat="43.66475" lon="1.37165">
        <ele>127</ele>
        <time>2023-12-20T15:53:43Z</time>
      </trkpt>
      <trkpt lat="43.66478" lon="1.37164">
        <ele>126</ele>
        <time>2023-12-20T15:53:44Z</time>
      </trkpt>
      <trkpt lat="43.6648" lon="1.37162">
        <ele>126</ele>
        <time>2023-12-20T15:53:45Z</time>
      </trkpt>
      <trkpt lat="43.66482" lon="1.3716">
        <ele>126</ele>
        <time>2023-12-20T15:53:46Z</time>
      </trkpt>
      <trkpt lat="43.66484" lon="1.37159">
        <ele>126</ele>
        <time>2023-12-20T15:53:47Z</time>
      </trkpt>
      <trkpt lat="43.66487" lon="1.37157">
        <ele>126</ele>
        <time>2023-12-20T15:53:48Z</time>
      </trkpt>
      <trkpt lat="43.66489" lon="1.37155">
        <ele>126</ele>
        <time>2023-12-20T15:53:49Z</time>
      </trkpt>
      <trkpt lat="43.66491" lon="1.37153">
        <ele>126</ele>
        <time>2023-12-20T15:53:50Z</time>
      </trkpt>
      <trkpt lat="43.66493" lon="1.37152">
        <ele>126</ele>
        <time>2023-12-20T15:53:51Z</time>
      </trkpt>
      <trkpt lat="43.66496" lon="1.37151">
        <ele>126</ele>
        <time>2023-12-20T15:53:52Z</time>
      </trkpt>
      <trkpt lat="43.66498" lon="1.37149">
        <ele>126</ele>
        <time>2023-12-20T15:53:53Z</time>
      </trkpt>
      <trkpt lat="43.665" lon="1.37148">
        <ele>127</ele>
        <time>2023-12-20T15:53:54Z</time>
      </trkpt>
      <trkpt lat="43.66503" lon="1.37146">
        <ele>127</ele>
        <time>2023-12-20T15:53:55Z</time>
      </trkpt>
      <trkpt lat="43.66505" lon="1.37145">
        <ele>127</ele>
        <time>2023-12-20T15:53:56Z</time>
      </trkpt>
      <trkpt lat="43.66507" lon="1.37144">
        <ele>127</ele>
        <time>2023-12-20T15:53:57Z</time>
      </trkpt>
      <trkpt lat="43.6651" lon="1.37143">
        <ele>127</ele>
        <time>2023-12-20T15:53:58Z</time>
      </trkpt>
      <trkpt lat="43.66512" lon="1.37141">
        <ele>127</ele>
        <time>2023-12-20T15:53:59Z</time>
      </trkpt>
      <trkpt lat="43.66514" lon="1.3714">
        <ele>127</ele>
        <time>2023-12-20T15:54:00Z</time>
      </trkpt>
      <trkpt lat="43.66516" lon="1.37138">
        <ele>127</ele>
        <time>2023-12-20T15:54:01Z</time>
      </trkpt>
      <trkpt lat="43.66519" lon="1.37137">
        <ele>127</ele>
        <time>2023-12-20T15:54:02Z</time>
      </trkpt>
      <trkpt lat="43.66521" lon="1.37136">
        <ele>127</ele>
        <time>2023-12-20T15:54:03Z</time>
      </trkpt>
      <trkpt lat="43.66523" lon="1.37134">
        <ele>127</ele>
        <time>2023-12-20T15:54:04Z</time>
      </trkpt>
      <trkpt lat="43.66525" lon="1.37133">
        <ele>127</ele>
        <time>2023-12-20T15:54:05Z</time>
      </trkpt>
      <trkpt lat="43.66527" lon="1.37132">
        <ele>127</ele>
        <time>2023-12-20T15:54:06Z</time>
      </trkpt>
      <trkpt lat="43.6653" lon="1.37131">
        <ele>127</ele>
        <time>2023-12-20T15:54:07Z</time>
      </trkpt>
      <trkpt lat="43.66532" lon="1.37129">
        <ele>127</ele>
        <time>2023-12-20T15:54:08Z</time>
      </trkpt>
      <trkpt lat="43.66534" lon="1.37128">
        <ele>127</ele>
        <time>2023-12-20T15:54:09Z</time>
      </trkpt>
      <trkpt lat="43.66536" lon="1.37126">
        <ele>127</ele>
        <time>2023-12-20T15:54:10Z</time>
      </trkpt>
      <trkpt lat="43.66538" lon="1.37124">
        <ele>127</ele>
        <time>2023-12-20T15:54:11Z</time>
      </trkpt>
      <trkpt lat="43.66541" lon="1.37123">
        <ele>127</ele>
        <time>2023-12-20T15:54:12Z</time>
      </trkpt>
      <trkpt lat="43.66543" lon="1.37121">
        <ele>127</ele>
        <time>2023-12-20T15:54:13Z</time>
      </trkpt>
      <trkpt lat="43.66545" lon="1.3712">
        <ele>126</ele>
        <time>2023-12-20T15:54:14Z</time>
      </trkpt>
      <trkpt lat="43.66547" lon="1.37118">
        <ele>126</ele>
        <time>2023-12-20T15:54:15Z</time>
      </trkpt>
      <trkpt lat="43.66549" lon="1.37117">
        <ele>126</ele>
        <time>2023-12-20T15:54:16Z</time>
      </trkpt>
      <trkpt lat="43.66552" lon="1.37116">
        <ele>126</ele>
        <time>2023-12-20T15:54:17Z</time>
      </trkpt>
      <trkpt lat="43.66554" lon="1.37114">
        <ele>126</ele>
        <time>2023-12-20T15:54:18Z</time>
      </trkpt>
      <trkpt lat="43.66556" lon="1.37112">
        <ele>127</ele>
        <time>2023-12-20T15:54:19Z</time>
      </trkpt>
      <trkpt lat="43.66558" lon="1.37111">
        <ele>127</ele>
        <time>2023-12-20T15:54:20Z</time>
      </trkpt>
      <trkpt lat="43.6656" lon="1.37109">
        <ele>127</ele>
        <time>2023-12-20T15:54:21Z</time>
      </trkpt>
      <trkpt lat="43.66562" lon="1.37107">
        <ele>127</ele>
        <time>2023-12-20T15:54:22Z</time>
      </trkpt>
      <trkpt lat="43.66564" lon="1.37106">
        <ele>127</ele>
        <time>2023-12-20T15:54:23Z</time>
      </trkpt>
      <trkpt lat="43.66566" lon="1.37104">
        <ele>127</ele>
        <time>2023-12-20T15:54:24Z</time>
      </trkpt>
      <trkpt lat="43.66568" lon="1.37103">
        <ele>127</ele>
        <time>2023-12-20T15:54:25Z</time>
      </trkpt>
      <trkpt lat="43.66571" lon="1.37101">
        <ele>127</ele>
        <time>2023-12-20T15:54:26Z</time>
      </trkpt>
      <trkpt lat="43.66573" lon="1.37099">
        <ele>127</ele>
        <time>2023-12-20T15:54:27Z</time>
      </trkpt>
      <trkpt lat="43.66575" lon="1.37098">
        <ele>127</ele>
        <time>2023-12-20T15:54:28Z</time>
      </trkpt>
      <trkpt lat="43.66578" lon="1.37096">
        <ele>127</ele>
        <time>2023-12-20T15:54:29Z</time>
      </trkpt>
      <trkpt lat="43.6658" lon="1.37094">
        <ele>127</ele>
        <time>2023-12-20T15:54:30Z</time>
      </trkpt>
      <trkpt lat="43.66582" lon="1.37093">
        <ele>127</ele>
        <time>2023-12-20T15:54:31Z</time>
      </trkpt>
      <trkpt lat="43.66584" lon="1.37091">
        <ele>127</ele>
        <time>2023-12-20T15:54:32Z</time>
      </trkpt>
      <trkpt lat="43.66586" lon="1.3709">
        <ele>127</ele>
        <time>2023-12-20T15:54:33Z</time>
      </trkpt>
      <trkpt lat="43.66588" lon="1.37089">
        <ele>127</ele>
        <time>2023-12-20T15:54:34Z</time>
      </trkpt>
      <trkpt lat="43.6659" lon="1.37087">
        <ele>127</ele>
        <time>2023-12-20T15:54:35Z</time>
      </trkpt>
      <trkpt lat="43.66592" lon="1.37086">
        <ele>126</ele>
        <time>2023-12-20T15:54:36Z</time>
      </trkpt>
      <trkpt lat="43.66594" lon="1.37084">
        <ele>126</ele>
        <time>2023-12-20T15:54:37Z</time>
      </trkpt>
      <trkpt lat="43.66596" lon="1.37083">
        <ele>126</ele>
        <time>2023-12-20T15:54:38Z</time>
      </trkpt>
      <trkpt lat="43.66598" lon="1.37081">
        <ele>126</ele>
        <time>2023-12-20T15:54:39Z</time>
      </trkpt>
      <trkpt lat="43.666" lon="1.3708">
        <ele>126</ele>
        <time>2023-12-20T15:54:40Z</time>
      </trkpt>
      <trkpt lat="43.66602" lon="1.37078">
        <ele>126</ele>
        <time>2023-12-20T15:54:41Z</time>
      </trkpt>
      <trkpt lat="43.66605" lon="1.37077">
        <ele>126</ele>
        <time>2023-12-20T15:54:42Z</time>
      </trkpt>
      <trkpt lat="43.66607" lon="1.37075">
        <ele>126</ele>
        <time>2023-12-20T15:54:43Z</time>
      </trkpt>
      <trkpt lat="43.66609" lon="1.37074">
        <ele>126</ele>
        <time>2023-12-20T15:54:44Z</time>
      </trkpt>
      <trkpt lat="43.66611" lon="1.37072">
        <ele>126</ele>
        <time>2023-12-20T15:54:45Z</time>
      </trkpt>
      <trkpt lat="43.66614" lon="1.3707">
        <ele>126</ele>
        <time>2023-12-20T15:54:46Z</time>
      </trkpt>
      <trkpt lat="43.66616" lon="1.37069">
        <ele>126</ele>
        <time>2023-12-20T15:54:47Z</time>
      </trkpt>
      <trkpt lat="43.66618" lon="1.37067">
        <ele>126</ele>
        <time>2023-12-20T15:54:48Z</time>
      </trkpt>
      <trkpt lat="43.6662" lon="1.37066">
        <ele>126</ele>
        <time>2023-12-20T15:54:49Z</time>
      </trkpt>
      <trkpt lat="43.66622" lon="1.37064">
        <ele>126</ele>
        <time>2023-12-20T15:54:50Z</time>
      </trkpt>
      <trkpt lat="43.66625" lon="1.37062">
        <ele>127</ele>
        <time>2023-12-20T15:54:51Z</time>
      </trkpt>
      <trkpt lat="43.66627" lon="1.37061">
        <ele>127</ele>
        <time>2023-12-20T15:54:52Z</time>
      </trkpt>
      <trkpt lat="43.66629" lon="1.37059">
        <ele>127</ele>
        <time>2023-12-20T15:54:53Z</time>
      </trkpt>
      <trkpt lat="43.66631" lon="1.37058">
        <ele>127</ele>
        <time>2023-12-20T15:54:54Z</time>
      </trkpt>
      <trkpt lat="43.66634" lon="1.37056">
        <ele>127</ele>
        <time>2023-12-20T15:54:55Z</time>
      </trkpt>
      <trkpt lat="43.66636" lon="1.37055">
        <ele>127</ele>
        <time>2023-12-20T15:54:56Z</time>
      </trkpt>
      <trkpt lat="43.66639" lon="1.37053">
        <ele>127</ele>
        <time>2023-12-20T15:54:57Z</time>
      </trkpt>
      <trkpt lat="43.66641" lon="1.37052">
        <ele>127</ele>
        <time>2023-12-20T15:54:58Z</time>
      </trkpt>
      <trkpt lat="43.66643" lon="1.3705">
        <ele>127</ele>
        <time>2023-12-20T15:54:59Z</time>
      </trkpt>
      <trkpt lat="43.66646" lon="1.37048">
        <ele>126</ele>
        <time>2023-12-20T15:55:00Z</time>
      </trkpt>
      <trkpt lat="43.66648" lon="1.37046">
        <ele>127</ele>
        <time>2023-12-20T15:55:01Z</time>
      </trkpt>
      <trkpt lat="43.6665" lon="1.37044">
        <ele>127</ele>
        <time>2023-12-20T15:55:02Z</time>
      </trkpt>
      <trkpt lat="43.66653" lon="1.37043">
        <ele>127</ele>
        <time>2023-12-20T15:55:03Z</time>
      </trkpt>
      <trkpt lat="43.66655" lon="1.37041">
        <ele>128</ele>
        <time>2023-12-20T15:55:04Z</time>
      </trkpt>
      <trkpt lat="43.66657" lon="1.3704">
        <ele>128</ele>
        <time>2023-12-20T15:55:05Z</time>
      </trkpt>
      <trkpt lat="43.66659" lon="1.37038">
        <ele>127</ele>
        <time>2023-12-20T15:55:06Z</time>
      </trkpt>
      <trkpt lat="43.66661" lon="1.37036">
        <ele>127</ele>
        <time>2023-12-20T15:55:07Z</time>
      </trkpt>
      <trkpt lat="43.66664" lon="1.37034">
        <ele>126</ele>
        <time>2023-12-20T15:55:08Z</time>
      </trkpt>
      <trkpt lat="43.66666" lon="1.37032">
        <ele>126</ele>
        <time>2023-12-20T15:55:09Z</time>
      </trkpt>
      <trkpt lat="43.66668" lon="1.37031">
        <ele>126</ele>
        <time>2023-12-20T15:55:10Z</time>
      </trkpt>
      <trkpt lat="43.66671" lon="1.37029">
        <ele>126</ele>
        <time>2023-12-20T15:55:11Z</time>
      </trkpt>
      <trkpt lat="43.66673" lon="1.37027">
        <ele>126</ele>
        <time>2023-12-20T15:55:12Z</time>
      </trkpt>
      <trkpt lat="43.66675" lon="1.37026">
        <ele>126</ele>
        <time>2023-12-20T15:55:13Z</time>
      </trkpt>
      <trkpt lat="43.66677" lon="1.37024">
        <ele>127</ele>
        <time>2023-12-20T15:55:14Z</time>
      </trkpt>
      <trkpt lat="43.66679" lon="1.37022">
        <ele>127</ele>
        <time>2023-12-20T15:55:15Z</time>
      </trkpt>
      <trkpt lat="43.66681" lon="1.37021">
        <ele>126</ele>
        <time>2023-12-20T15:55:16Z</time>
      </trkpt>
      <trkpt lat="43.66683" lon="1.37019">
        <ele>126</ele>
        <time>2023-12-20T15:55:17Z</time>
      </trkpt>
      <trkpt lat="43.66685" lon="1.37017">
        <ele>126</ele>
        <time>2023-12-20T15:55:18Z</time>
      </trkpt>
      <trkpt lat="43.66688" lon="1.37016">
        <ele>127</ele>
        <time>2023-12-20T15:55:19Z</time>
      </trkpt>
      <trkpt lat="43.6669" lon="1.37015">
        <ele>127</ele>
        <time>2023-12-20T15:55:20Z</time>
      </trkpt>
      <trkpt lat="43.66692" lon="1.37014">
        <ele>127</ele>
        <time>2023-12-20T15:55:21Z</time>
      </trkpt>
      <trkpt lat="43.66695" lon="1.37013">
        <ele>127</ele>
        <time>2023-12-20T15:55:22Z</time>
      </trkpt>
      <trkpt lat="43.66697" lon="1.37011">
        <ele>127</ele>
        <time>2023-12-20T15:55:23Z</time>
      </trkpt>
      <trkpt lat="43.66699" lon="1.3701">
        <ele>127</ele>
        <time>2023-12-20T15:55:24Z</time>
      </trkpt>
      <trkpt lat="43.66701" lon="1.37008">
        <ele>127</ele>
        <time>2023-12-20T15:55:25Z</time>
      </trkpt>
      <trkpt lat="43.66703" lon="1.37007">
        <ele>126</ele>
        <time>2023-12-20T15:55:26Z</time>
      </trkpt>
      <trkpt lat="43.66705" lon="1.37005">
        <ele>126</ele>
        <time>2023-12-20T15:55:27Z</time>
      </trkpt>
      <trkpt lat="43.66707" lon="1.37003">
        <ele>126</ele>
        <time>2023-12-20T15:55:28Z</time>
      </trkpt>
      <trkpt lat="43.6671" lon="1.37002">
        <ele>126</ele>
        <time>2023-12-20T15:55:29Z</time>
      </trkpt>
      <trkpt lat="43.66712" lon="1.37001">
        <ele>126</ele>
        <time>2023-12-20T15:55:30Z</time>
      </trkpt>
      <trkpt lat="43.66714" lon="1.36999">
        <ele>126</ele>
        <time>2023-12-20T15:55:31Z</time>
      </trkpt>
      <trkpt lat="43.66716" lon="1.36997">
        <ele>126</ele>
        <time>2023-12-20T15:55:32Z</time>
      </trkpt>
      <trkpt lat="43.66719" lon="1.36995">
        <ele>126</ele>
        <time>2023-12-20T15:55:33Z</time>
      </trkpt>
      <trkpt lat="43.66721" lon="1.36994">
        <ele>126</ele>
        <time>2023-12-20T15:55:34Z</time>
      </trkpt>
      <trkpt lat="43.66723" lon="1.36993">
        <ele>126</ele>
        <time>2023-12-20T15:55:35Z</time>
      </trkpt>
      <trkpt lat="43.66725" lon="1.36991">
        <ele>126</ele>
        <time>2023-12-20T15:55:36Z</time>
      </trkpt>
      <trkpt lat="43.66728" lon="1.3699">
        <ele>126</ele>
        <time>2023-12-20T15:55:37Z</time>
      </trkpt>
      <trkpt lat="43.6673" lon="1.36988">
        <ele>127</ele>
        <time>2023-12-20T15:55:38Z</time>
      </trkpt>
      <trkpt lat="43.66732" lon="1.36985">
        <ele>127</ele>
        <time>2023-12-20T15:55:39Z</time>
      </trkpt>
      <trkpt lat="43.66734" lon="1.36984">
        <ele>127</ele>
        <time>2023-12-20T15:55:40Z</time>
      </trkpt>
      <trkpt lat="43.66736" lon="1.36982">
        <ele>127</ele>
        <time>2023-12-20T15:55:41Z</time>
      </trkpt>
      <trkpt lat="43.66739" lon="1.3698">
        <ele>127</ele>
        <time>2023-12-20T15:55:42Z</time>
      </trkpt>
      <trkpt lat="43.66741" lon="1.36978">
        <ele>127</ele>
        <time>2023-12-20T15:55:43Z</time>
      </trkpt>
      <trkpt lat="43.66743" lon="1.36977">
        <ele>127</ele>
        <time>2023-12-20T15:55:44Z</time>
      </trkpt>
      <trkpt lat="43.66745" lon="1.36975">
        <ele>127</ele>
        <time>2023-12-20T15:55:45Z</time>
      </trkpt>
      <trkpt lat="43.66748" lon="1.36974">
        <ele>127</ele>
        <time>2023-12-20T15:55:46Z</time>
      </trkpt>
      <trkpt lat="43.6675" lon="1.36973">
        <ele>127</ele>
        <time>2023-12-20T15:55:47Z</time>
      </trkpt>
      <trkpt lat="43.66753" lon="1.36972">
        <ele>127</ele>
        <time>2023-12-20T15:55:48Z</time>
      </trkpt>
      <trkpt lat="43.66755" lon="1.3697">
        <ele>127</ele>
        <time>2023-12-20T15:55:49Z</time>
      </trkpt>
      <trkpt lat="43.66757" lon="1.36969">
        <ele>127</ele>
        <time>2023-12-20T15:55:50Z</time>
      </trkpt>
      <trkpt lat="43.6676" lon="1.36968">
        <ele>127</ele>
        <time>2023-12-20T15:55:51Z</time>
      </trkpt>
      <trkpt lat="43.66762" lon="1.36966">
        <ele>127</ele>
        <time>2023-12-20T15:55:52Z</time>
      </trkpt>
      <trkpt lat="43.66764" lon="1.36965">
        <ele>127</ele>
        <time>2023-12-20T15:55:53Z</time>
      </trkpt>
      <trkpt lat="43.66766" lon="1.36963">
        <ele>127</ele>
        <time>2023-12-20T15:55:54Z</time>
      </trkpt>
      <trkpt lat="43.66768" lon="1.36962">
        <ele>127</ele>
        <time>2023-12-20T15:55:55Z</time>
      </trkpt>
      <trkpt lat="43.6677" lon="1.36961">
        <ele>127</ele>
        <time>2023-12-20T15:55:56Z</time>
      </trkpt>
      <trkpt lat="43.66772" lon="1.3696">
        <ele>127</ele>
        <time>2023-12-20T15:55:57Z</time>
      </trkpt>
      <trkpt lat="43.66774" lon="1.36958">
        <ele>128</ele>
        <time>2023-12-20T15:55:58Z</time>
      </trkpt>
      <trkpt lat="43.66777" lon="1.36957">
        <ele>128</ele>
        <time>2023-12-20T15:55:59Z</time>
      </trkpt>
      <trkpt lat="43.66779" lon="1.36955">
        <ele>128</ele>
        <time>2023-12-20T15:56:00Z</time>
      </trkpt>
      <trkpt lat="43.66781" lon="1.36954">
        <ele>128</ele>
        <time>2023-12-20T15:56:01Z</time>
      </trkpt>
      <trkpt lat="43.66784" lon="1.36952">
        <ele>128</ele>
        <time>2023-12-20T15:56:02Z</time>
      </trkpt>
      <trkpt lat="43.66786" lon="1.36951">
        <ele>128</ele>
        <time>2023-12-20T15:56:03Z</time>
      </trkpt>
      <trkpt lat="43.66788" lon="1.36949">
        <ele>128</ele>
        <time>2023-12-20T15:56:04Z</time>
      </trkpt>
      <trkpt lat="43.6679" lon="1.36947">
        <ele>128</ele>
        <time>2023-12-20T15:56:05Z</time>
      </trkpt>
      <trkpt lat="43.66793" lon="1.36946">
        <ele>128</ele>
        <time>2023-12-20T15:56:06Z</time>
      </trkpt>
      <trkpt lat="43.66795" lon="1.36944">
        <ele>128</ele>
        <time>2023-12-20T15:56:07Z</time>
      </trkpt>
      <trkpt lat="43.66797" lon="1.36943">
        <ele>128</ele>
        <time>2023-12-20T15:56:08Z</time>
      </trkpt>
      <trkpt lat="43.66799" lon="1.36941">
        <ele>128</ele>
        <time>2023-12-20T15:56:09Z</time>
      </trkpt>
      <trkpt lat="43.66802" lon="1.36939">
        <ele>128</ele>
        <time>2023-12-20T15:56:10Z</time>
      </trkpt>
      <trkpt lat="43.66804" lon="1.36938">
        <ele>128</ele>
        <time>2023-12-20T15:56:11Z</time>
      </trkpt>
      <trkpt lat="43.66806" lon="1.36937">
        <ele>128</ele>
        <time>2023-12-20T15:56:12Z</time>
      </trkpt>
      <trkpt lat="43.66809" lon="1.36935">
        <ele>128</ele>
        <time>2023-12-20T15:56:13Z</time>
      </trkpt>
      <trkpt lat="43.66811" lon="1.36933">
        <ele>128</ele>
        <time>2023-12-20T15:56:14Z</time>
      </trkpt>
      <trkpt lat="43.66813" lon="1.36931">
        <ele>127</ele>
        <time>2023-12-20T15:56:15Z</time>
      </trkpt>
      <trkpt lat="43.66815" lon="1.3693">
        <ele>127</ele>
        <time>2023-12-20T15:56:16Z</time>
      </trkpt>
      <trkpt lat="43.66818" lon="1.36928">
        <ele>127</ele>
        <time>2023-12-20T15:56:17Z</time>
      </trkpt>
      <trkpt lat="43.6682" lon="1.36927">
        <ele>127</ele>
        <time>2023-12-20T15:56:18Z</time>
      </trkpt>
      <trkpt lat="43.66822" lon="1.36926">
        <ele>127</ele>
        <time>2023-12-20T15:56:19Z</time>
      </trkpt>
      <trkpt lat="43.66825" lon="1.36924">
        <ele>127</ele>
        <time>2023-12-20T15:56:20Z</time>
      </trkpt>
      <trkpt lat="43.66827" lon="1.36923">
        <ele>128</ele>
        <time>2023-12-20T15:56:21Z</time>
      </trkpt>
      <trkpt lat="43.66829" lon="1.36922">
        <ele>128</ele>
        <time>2023-12-20T15:56:22Z</time>
      </trkpt>
      <trkpt lat="43.66832" lon="1.36921">
        <ele>128</ele>
        <time>2023-12-20T15:56:23Z</time>
      </trkpt>
      <trkpt lat="43.66834" lon="1.3692">
        <ele>128</ele>
        <time>2023-12-20T15:56:24Z</time>
      </trkpt>
      <trkpt lat="43.66836" lon="1.36918">
        <ele>127</ele>
        <time>2023-12-20T15:56:25Z</time>
      </trkpt>
      <trkpt lat="43.66838" lon="1.36917">
        <ele>128</ele>
        <time>2023-12-20T15:56:26Z</time>
      </trkpt>
      <trkpt lat="43.66841" lon="1.36915">
        <ele>128</ele>
        <time>2023-12-20T15:56:27Z</time>
      </trkpt>
      <trkpt lat="43.66843" lon="1.36914">
        <ele>128</ele>
        <time>2023-12-20T15:56:28Z</time>
      </trkpt>
      <trkpt lat="43.66845" lon="1.36912">
        <ele>128</ele>
        <time>2023-12-20T15:56:29Z</time>
      </trkpt>
      <trkpt lat="43.66847" lon="1.36911">
        <ele>128</ele>
        <time>2023-12-20T15:56:30Z</time>
      </trkpt>
      <trkpt lat="43.66849" lon="1.36909">
        <ele>128</ele>
        <time>2023-12-20T15:56:31Z</time>
      </trkpt>
      <trkpt lat="43.66851" lon="1.36907">
        <ele>128</ele>
        <time>2023-12-20T15:56:32Z</time>
      </trkpt>
      <trkpt lat="43.66854" lon="1.36905">
        <ele>128</ele>
        <time>2023-12-20T15:56:33Z</time>
      </trkpt>
      <trkpt lat="43.66856" lon="1.36904">
        <ele>128</ele>
        <time>2023-12-20T15:56:34Z</time>
      </trkpt>
      <trkpt lat="43.66859" lon="1.36902">
        <ele>127</ele>
        <time>2023-12-20T15:56:35Z</time>
      </trkpt>
      <trkpt lat="43.66861" lon="1.36901">
        <ele>127</ele>
        <time>2023-12-20T15:56:36Z</time>
      </trkpt>
      <trkpt lat="43.66863" lon="1.36899">
        <ele>127</ele>
        <time>2023-12-20T15:56:37Z</time>
      </trkpt>
      <trkpt lat="43.66865" lon="1.36898">
        <ele>128</ele>
        <time>2023-12-20T15:56:38Z</time>
      </trkpt>
      <trkpt lat="43.66868" lon="1.36896">
        <ele>128</ele>
        <time>2023-12-20T15:56:39Z</time>
      </trkpt>
      <trkpt lat="43.6687" lon="1.36895">
        <ele>128</ele>
        <time>2023-12-20T15:56:40Z</time>
      </trkpt>
      <trkpt lat="43.66871" lon="1.36893">
        <ele>128</ele>
        <time>2023-12-20T15:56:41Z</time>
      </trkpt>
      <trkpt lat="43.66874" lon="1.36891">
        <ele>128</ele>
        <time>2023-12-20T15:56:42Z</time>
      </trkpt>
      <trkpt lat="43.66876" lon="1.36889">
        <ele>128</ele>
        <time>2023-12-20T15:56:43Z</time>
      </trkpt>
      <trkpt lat="43.66878" lon="1.36887">
        <ele>128</ele>
        <time>2023-12-20T15:56:44Z</time>
      </trkpt>
      <trkpt lat="43.6688" lon="1.36886">
        <ele>128</ele>
        <time>2023-12-20T15:56:45Z</time>
      </trkpt>
      <trkpt lat="43.66882" lon="1.36884">
        <ele>128</ele>
        <time>2023-12-20T15:56:46Z</time>
      </trkpt>
      <trkpt lat="43.66885" lon="1.36883">
        <ele>128</ele>
        <time>2023-12-20T15:56:47Z</time>
      </trkpt>
      <trkpt lat="43.66887" lon="1.36881">
        <ele>128</ele>
        <time>2023-12-20T15:56:48Z</time>
      </trkpt>
      <trkpt lat="43.66889" lon="1.3688">
        <ele>128</ele>
        <time>2023-12-20T15:56:49Z</time>
      </trkpt>
      <trkpt lat="43.66891" lon="1.36878">
        <ele>128</ele>
        <time>2023-12-20T15:56:50Z</time>
      </trkpt>
      <trkpt lat="43.66893" lon="1.36877">
        <ele>127</ele>
        <time>2023-12-20T15:56:51Z</time>
      </trkpt>
      <trkpt lat="43.66895" lon="1.36875">
        <ele>128</ele>
        <time>2023-12-20T15:56:52Z</time>
      </trkpt>
      <trkpt lat="43.66897" lon="1.36874">
        <ele>128</ele>
        <time>2023-12-20T15:56:53Z</time>
      </trkpt>
      <trkpt lat="43.669" lon="1.36872">
        <ele>128</ele>
        <time>2023-12-20T15:56:54Z</time>
      </trkpt>
      <trkpt lat="43.66902" lon="1.36871">
        <ele>128</ele>
        <time>2023-12-20T15:56:55Z</time>
      </trkpt>
      <trkpt lat="43.66904" lon="1.36869">
        <ele>128</ele>
        <time>2023-12-20T15:56:56Z</time>
      </trkpt>
      <trkpt lat="43.66907" lon="1.36867">
        <ele>128</ele>
        <time>2023-12-20T15:56:57Z</time>
      </trkpt>
      <trkpt lat="43.66909" lon="1.36865">
        <ele>128</ele>
        <time>2023-12-20T15:56:58Z</time>
      </trkpt>
      <trkpt lat="43.66911" lon="1.36863">
        <ele>128</ele>
        <time>2023-12-20T15:56:59Z</time>
      </trkpt>
      <trkpt lat="43.66913" lon="1.36862">
        <ele>128</ele>
        <time>2023-12-20T15:57:00Z</time>
      </trkpt>
      <trkpt lat="43.66916" lon="1.36861">
        <ele>129</ele>
        <time>2023-12-20T15:57:01Z</time>
      </trkpt>
      <trkpt lat="43.66918" lon="1.36859">
        <ele>129</ele>
        <time>2023-12-20T15:57:02Z</time>
      </trkpt>
      <trkpt lat="43.6692" lon="1.36857">
        <ele>129</ele>
        <time>2023-12-20T15:57:03Z</time>
      </trkpt>
      <trkpt lat="43.66923" lon="1.36855">
        <ele>129</ele>
        <time>2023-12-20T15:57:04Z</time>
      </trkpt>
      <trkpt lat="43.66925" lon="1.36853">
        <ele>129</ele>
        <time>2023-12-20T15:57:05Z</time>
      </trkpt>
      <trkpt lat="43.66927" lon="1.36851">
        <ele>129</ele>
        <time>2023-12-20T15:57:06Z</time>
      </trkpt>
      <trkpt lat="43.66929" lon="1.3685">
        <ele>129</ele>
        <time>2023-12-20T15:57:07Z</time>
      </trkpt>
      <trkpt lat="43.66931" lon="1.36848">
        <ele>129</ele>
        <time>2023-12-20T15:57:08Z</time>
      </trkpt>
      <trkpt lat="43.66934" lon="1.36846">
        <ele>129</ele>
        <time>2023-12-20T15:57:09Z</time>
      </trkpt>
      <trkpt lat="43.66936" lon="1.36845">
        <ele>129</ele>
        <time>2023-12-20T15:57:10Z</time>
      </trkpt>
      <trkpt lat="43.66938" lon="1.36843">
        <ele>129</ele>
        <time>2023-12-20T15:57:11Z</time>
      </trkpt>
      <trkpt lat="43.66941" lon="1.36842">
        <ele>129</ele>
        <time>2023-12-20T15:57:12Z</time>
      </trkpt>
      <trkpt lat="43.66943" lon="1.36841">
        <ele>129</ele>
        <time>2023-12-20T15:57:13Z</time>
      </trkpt>
      <trkpt lat="43.66945" lon="1.36839">
        <ele>129</ele>
        <time>2023-12-20T15:57:14Z</time>
      </trkpt>
      <trkpt lat="43.66948" lon="1.36837">
        <ele>129</ele>
        <time>2023-12-20T15:57:15Z</time>
      </trkpt>
      <trkpt lat="43.6695" lon="1.36836">
        <ele>128</ele>
        <time>2023-12-20T15:57:16Z</time>
      </trkpt>
      <trkpt lat="43.66952" lon="1.36835">
        <ele>127</ele>
        <time>2023-12-20T15:57:17Z</time>
      </trkpt>
      <trkpt lat="43.66954" lon="1.36833">
        <ele>128</ele>
        <time>2023-12-20T15:57:18Z</time>
      </trkpt>
      <trkpt lat="43.66957" lon="1.36831">
        <ele>128</ele>
        <time>2023-12-20T15:57:19Z</time>
      </trkpt>
      <trkpt lat="43.66959" lon="1.36829">
        <ele>128</ele>
        <time>2023-12-20T15:57:20Z</time>
      </trkpt>
      <trkpt lat="43.66961" lon="1.36828">
        <ele>128</ele>
        <time>2023-12-20T15:57:21Z</time>
      </trkpt>
      <trkpt lat="43.66963" lon="1.36826">
        <ele>128</ele>
        <time>2023-12-20T15:57:22Z</time>
      </trkpt>
      <trkpt lat="43.66965" lon="1.36825">
        <ele>128</ele>
        <time>2023-12-20T15:57:23Z</time>
      </trkpt>
      <trkpt lat="43.66968" lon="1.36824">
        <ele>128</ele>
        <time>2023-12-20T15:57:24Z</time>
      </trkpt>
      <trkpt lat="43.6697" lon="1.36822">
        <ele>128</ele>
        <time>2023-12-20T15:57:25Z</time>
      </trkpt>
      <trkpt lat="43.66972" lon="1.36821">
        <ele>128</ele>
        <time>2023-12-20T15:57:26Z</time>
      </trkpt>
      <trkpt lat="43.66974" lon="1.36819">
        <ele>128</ele>
        <time>2023-12-20T15:57:27Z</time>
      </trkpt>
      <trkpt lat="43.66976" lon="1.36818">
        <ele>128</ele>
        <time>2023-12-20T15:57:28Z</time>
      </trkpt>
      <trkpt lat="43.66979" lon="1.36817">
        <ele>128</ele>
        <time>2023-12-20T15:57:29Z</time>
      </trkpt>
      <trkpt lat="43.66981" lon="1.36816">
        <ele>127</ele>
        <time>2023-12-20T15:57:30Z</time>
      </trkpt>
      <trkpt lat="43.66983" lon="1.36817">
        <ele>127</ele>
        <time>2023-12-20T15:57:31Z</time>
      </trkpt>
      <trkpt lat="43.66985" lon="1.36818">
        <ele>127</ele>
        <time>2023-12-20T15:57:32Z</time>
      </trkpt>
      <trkpt lat="43.66987" lon="1.3682">
        <ele>127</ele>
        <time>2023-12-20T15:57:33Z</time>
      </trkpt>
      <trkpt lat="43.66989" lon="1.36821">
        <ele>127</ele>
        <time>2023-12-20T15:57:34Z</time>
      </trkpt>
      <trkpt lat="43.66992" lon="1.36821">
        <ele>127</ele>
        <time>2023-12-20T15:57:35Z</time>
      </trkpt>
      <trkpt lat="43.66994" lon="1.36821">
        <ele>127</ele>
        <time>2023-12-20T15:57:36Z</time>
      </trkpt>
      <trkpt lat="43.66996" lon="1.36819">
        <ele>127</ele>
        <time>2023-12-20T15:57:37Z</time>
      </trkpt>
      <trkpt lat="43.66999" lon="1.36817">
        <ele>127</ele>
        <time>2023-12-20T15:57:38Z</time>
      </trkpt>
      <trkpt lat="43.67001" lon="1.36814">
        <ele>127</ele>
        <time>2023-12-20T15:57:39Z</time>
      </trkpt>
      <trkpt lat="43.67002" lon="1.36811">
        <ele>127</ele>
        <time>2023-12-20T15:57:40Z</time>
      </trkpt>
      <trkpt lat="43.67004" lon="1.36809">
        <ele>127</ele>
        <time>2023-12-20T15:57:41Z</time>
      </trkpt>
      <trkpt lat="43.67005" lon="1.36806">
        <ele>127</ele>
        <time>2023-12-20T15:57:42Z</time>
      </trkpt>
      <trkpt lat="43.67006" lon="1.36803">
        <ele>127</ele>
        <time>2023-12-20T15:57:43Z</time>
      </trkpt>
      <trkpt lat="43.67008" lon="1.368">
        <ele>127</ele>
        <time>2023-12-20T15:57:44Z</time>
      </trkpt>
      <trkpt lat="43.67009" lon="1.36797">
        <ele>127</ele>
        <time>2023-12-20T15:57:45Z</time>
      </trkpt>
      <trkpt lat="43.67011" lon="1.36794">
        <ele>127</ele>
        <time>2023-12-20T15:57:46Z</time>
      </trkpt>
      <trkpt lat="43.67012" lon="1.36791">
        <ele>127</ele>
        <time>2023-12-20T15:57:47Z</time>
      </trkpt>
      <trkpt lat="43.67014" lon="1.36789">
        <ele>127</ele>
        <time>2023-12-20T15:57:48Z</time>
      </trkpt>
      <trkpt lat="43.67017" lon="1.36787">
        <ele>127</ele>
        <time>2023-12-20T15:57:49Z</time>
      </trkpt>
      <trkpt lat="43.67019" lon="1.36785">
        <ele>127</ele>
        <time>2023-12-20T15:57:50Z</time>
      </trkpt>
      <trkpt lat="43.67021" lon="1.36783">
        <ele>127</ele>
        <time>2023-12-20T15:57:51Z</time>
      </trkpt>
      <trkpt lat="43.67024" lon="1.36782">
        <ele>127</ele>
        <time>2023-12-20T15:57:52Z</time>
      </trkpt>
      <trkpt lat="43.67026" lon="1.3678">
        <ele>127</ele>
        <time>2023-12-20T15:57:53Z</time>
      </trkpt>
      <trkpt lat="43.67028" lon="1.36778">
        <ele>127</ele>
        <time>2023-12-20T15:57:54Z</time>
      </trkpt>
      <trkpt lat="43.67031" lon="1.36777">
        <ele>127</ele>
        <time>2023-12-20T15:57:55Z</time>
      </trkpt>
      <trkpt lat="43.67033" lon="1.36775">
        <ele>127</ele>
        <time>2023-12-20T15:57:56Z</time>
      </trkpt>
      <trkpt lat="43.67035" lon="1.36774">
        <ele>127</ele>
        <time>2023-12-20T15:57:57Z</time>
      </trkpt>
      <trkpt lat="43.67038" lon="1.36772">
        <ele>127</ele>
        <time>2023-12-20T15:57:58Z</time>
      </trkpt>
      <trkpt lat="43.6704" lon="1.3677">
        <ele>127</ele>
        <time>2023-12-20T15:57:59Z</time>
      </trkpt>
      <trkpt lat="43.67042" lon="1.36769">
        <ele>127</ele>
        <time>2023-12-20T15:58:00Z</time>
      </trkpt>
      <trkpt lat="43.67045" lon="1.36767">
        <ele>127</ele>
        <time>2023-12-20T15:58:01Z</time>
      </trkpt>
      <trkpt lat="43.67047" lon="1.36765">
        <ele>127</ele>
        <time>2023-12-20T15:58:02Z</time>
      </trkpt>
      <trkpt lat="43.67049" lon="1.36764">
        <ele>127</ele>
        <time>2023-12-20T15:58:03Z</time>
      </trkpt>
      <trkpt lat="43.67051" lon="1.36762">
        <ele>128</ele>
        <time>2023-12-20T15:58:04Z</time>
      </trkpt>
      <trkpt lat="43.67054" lon="1.36761">
        <ele>128</ele>
        <time>2023-12-20T15:58:05Z</time>
      </trkpt>
      <trkpt lat="43.67056" lon="1.36759">
        <ele>128</ele>
        <time>2023-12-20T15:58:06Z</time>
      </trkpt>
      <trkpt lat="43.67058" lon="1.36758">
        <ele>128</ele>
        <time>2023-12-20T15:58:07Z</time>
      </trkpt>
      <trkpt lat="43.67061" lon="1.36756">
        <ele>128</ele>
        <time>2023-12-20T15:58:08Z</time>
      </trkpt>
      <trkpt lat="43.67063" lon="1.36755">
        <ele>127</ele>
        <time>2023-12-20T15:58:09Z</time>
      </trkpt>
      <trkpt lat="43.67065" lon="1.36753">
        <ele>127</ele>
        <time>2023-12-20T15:58:10Z</time>
      </trkpt>
      <trkpt lat="43.67067" lon="1.36752">
        <ele>127</ele>
        <time>2023-12-20T15:58:11Z</time>
      </trkpt>
      <trkpt lat="43.6707" lon="1.3675">
        <ele>127</ele>
        <time>2023-12-20T15:58:12Z</time>
      </trkpt>
      <trkpt lat="43.67072" lon="1.36749">
        <ele>127</ele>
        <time>2023-12-20T15:58:13Z</time>
      </trkpt>
      <trkpt lat="43.67075" lon="1.36747">
        <ele>127</ele>
        <time>2023-12-20T15:58:14Z</time>
      </trkpt>
      <trkpt lat="43.67077" lon="1.36746">
        <ele>127</ele>
        <time>2023-12-20T15:58:15Z</time>
      </trkpt>
      <trkpt lat="43.67079" lon="1.36745">
        <ele>127</ele>
        <time>2023-12-20T15:58:16Z</time>
      </trkpt>
      <trkpt lat="43.67081" lon="1.36743">
        <ele>127</ele>
        <time>2023-12-20T15:58:17Z</time>
      </trkpt>
      <trkpt lat="43.67083" lon="1.36742">
        <ele>127</ele>
        <time>2023-12-20T15:58:18Z</time>
      </trkpt>
      <trkpt lat="43.67085" lon="1.3674">
        <ele>127</ele>
        <time>2023-12-20T15:58:19Z</time>
      </trkpt>
      <trkpt lat="43.67088" lon="1.36738">
        <ele>127</ele>
        <time>2023-12-20T15:58:20Z</time>
      </trkpt>
      <trkpt lat="43.6709" lon="1.36736">
        <ele>127</ele>
        <time>2023-12-20T15:58:21Z</time>
      </trkpt>
      <trkpt lat="43.67092" lon="1.36734">
        <ele>127</ele>
        <time>2023-12-20T15:58:22Z</time>
      </trkpt>
      <trkpt lat="43.67094" lon="1.36733">
        <ele>127</ele>
        <time>2023-12-20T15:58:23Z</time>
      </trkpt>
      <trkpt lat="43.67096" lon="1.36731">
        <ele>127</ele>
        <time>2023-12-20T15:58:24Z</time>
      </trkpt>
      <trkpt lat="43.67098" lon="1.36729">
        <ele>127</ele>
        <time>2023-12-20T15:58:25Z</time>
      </trkpt>
      <trkpt lat="43.671" lon="1.36727">
        <ele>127</ele>
        <time>2023-12-20T15:58:26Z</time>
      </trkpt>
      <trkpt lat="43.67103" lon="1.36726">
        <ele>127</ele>
        <time>2023-12-20T15:58:27Z</time>
      </trkpt>
      <trkpt lat="43.67105" lon="1.36724">
        <ele>127</ele>
        <time>2023-12-20T15:58:28Z</time>
      </trkpt>
      <trkpt lat="43.67107" lon="1.36722">
        <ele>127</ele>
        <time>2023-12-20T15:58:29Z</time>
      </trkpt>
      <trkpt lat="43.67109" lon="1.36721">
        <ele>127</ele>
        <time>2023-12-20T15:58:30Z</time>
      </trkpt>
      <trkpt lat="43.67112" lon="1.36719">
        <ele>127</ele>
        <time>2023-12-20T15:58:31Z</time>
      </trkpt>
      <trkpt lat="43.67114" lon="1.36718">
        <ele>127</ele>
        <time>2023-12-20T15:58:32Z</time>
      </trkpt>
      <trkpt lat="43.67117" lon="1.36717">
        <ele>126</ele>
        <time>2023-12-20T15:58:33Z</time>
      </trkpt>
      <trkpt lat="43.67119" lon="1.36715">
        <ele>126</ele>
        <time>2023-12-20T15:58:34Z</time>
      </trkpt>
      <trkpt lat="43.67121" lon="1.36714">
        <ele>127</ele>
        <time>2023-12-20T15:58:35Z</time>
      </trkpt>
      <trkpt lat="43.67124" lon="1.36712">
        <ele>127</ele>
        <time>2023-12-20T15:58:36Z</time>
      </trkpt>
      <trkpt lat="43.67126" lon="1.36711">
        <ele>127</ele>
        <time>2023-12-20T15:58:37Z</time>
      </trkpt>
      <trkpt lat="43.67129" lon="1.36709">
        <ele>127</ele>
        <time>2023-12-20T15:58:38Z</time>
      </trkpt>
      <trkpt lat="43.67131" lon="1.36707">
        <ele>127</ele>
        <time>2023-12-20T15:58:39Z</time>
      </trkpt>
      <trkpt lat="43.67134" lon="1.36706">
        <ele>127</ele>
        <time>2023-12-20T15:58:40Z</time>
      </trkpt>
      <trkpt lat="43.67136" lon="1.36704">
        <ele>127</ele>
        <time>2023-12-20T15:58:41Z</time>
      </trkpt>
      <trkpt lat="43.67139" lon="1.36703">
        <ele>127</ele>
        <time>2023-12-20T15:58:42Z</time>
      </trkpt>
      <trkpt lat="43.67141" lon="1.36701">
        <ele>127</ele>
        <time>2023-12-20T15:58:43Z</time>
      </trkpt>
      <trkpt lat="43.67144" lon="1.367">
        <ele>127</ele>
        <time>2023-12-20T15:58:44Z</time>
      </trkpt>
      <trkpt lat="43.67146" lon="1.36698">
        <ele>127</ele>
        <time>2023-12-20T15:58:45Z</time>
      </trkpt>
      <trkpt lat="43.67148" lon="1.36697">
        <ele>127</ele>
        <time>2023-12-20T15:58:46Z</time>
      </trkpt>
      <trkpt lat="43.67151" lon="1.36696">
        <ele>127</ele>
        <time>2023-12-20T15:58:47Z</time>
      </trkpt>
      <trkpt lat="43.67153" lon="1.36694">
        <ele>127</ele>
        <time>2023-12-20T15:58:48Z</time>
      </trkpt>
      <trkpt lat="43.67155" lon="1.36693">
        <ele>127</ele>
        <time>2023-12-20T15:58:49Z</time>
      </trkpt>
      <trkpt lat="43.67158" lon="1.36692">
        <ele>127</ele>
        <time>2023-12-20T15:58:50Z</time>
      </trkpt>
      <trkpt lat="43.6716" lon="1.36691">
        <ele>127</ele>
        <time>2023-12-20T15:58:51Z</time>
      </trkpt>
      <trkpt lat="43.67163" lon="1.3669">
        <ele>127</ele>
        <time>2023-12-20T15:58:52Z</time>
      </trkpt>
      <trkpt lat="43.67165" lon="1.36688">
        <ele>127</ele>
        <time>2023-12-20T15:58:53Z</time>
      </trkpt>
      <trkpt lat="43.67167" lon="1.36687">
        <ele>127</ele>
        <time>2023-12-20T15:58:54Z</time>
      </trkpt>
      <trkpt lat="43.6717" lon="1.36686">
        <ele>127</ele>
        <time>2023-12-20T15:58:55Z</time>
      </trkpt>
      <trkpt lat="43.67172" lon="1.36685">
        <ele>127</ele>
        <time>2023-12-20T15:58:56Z</time>
      </trkpt>
      <trkpt lat="43.67175" lon="1.36684">
        <ele>127</ele>
        <time>2023-12-20T15:58:57Z</time>
      </trkpt>
      <trkpt lat="43.67177" lon="1.36683">
        <ele>127</ele>
        <time>2023-12-20T15:58:58Z</time>
      </trkpt>
      <trkpt lat="43.67179" lon="1.36683">
        <ele>127</ele>
        <time>2023-12-20T15:58:59Z</time>
      </trkpt>
      <trkpt lat="43.67182" lon="1.36682">
        <ele>127</ele>
        <time>2023-12-20T15:59:00Z</time>
      </trkpt>
      <trkpt lat="43.67184" lon="1.36681">
        <ele>127</ele>
        <time>2023-12-20T15:59:01Z</time>
      </trkpt>
      <trkpt lat="43.67187" lon="1.3668">
        <ele>127</ele>
        <time>2023-12-20T15:59:02Z</time>
      </trkpt>
      <trkpt lat="43.67189" lon="1.36679">
        <ele>127</ele>
        <time>2023-12-20T15:59:03Z</time>
      </trkpt>
      <trkpt lat="43.67192" lon="1.36678">
        <ele>127</ele>
        <time>2023-12-20T15:59:04Z</time>
      </trkpt>
      <trkpt lat="43.67194" lon="1.36677">
        <ele>127</ele>
        <time>2023-12-20T15:59:05Z</time>
      </trkpt>
      <trkpt lat="43.67197" lon="1.36676">
        <ele>127</ele>
        <time>2023-12-20T15:59:06Z</time>
      </trkpt>
      <trkpt lat="43.67199" lon="1.36675">
        <ele>127</ele>
        <time>2023-12-20T15:59:07Z</time>
      </trkpt>
      <trkpt lat="43.67202" lon="1.36674">
        <ele>127</ele>
        <time>2023-12-20T15:59:08Z</time>
      </trkpt>
      <trkpt lat="43.67204" lon="1.36674">
        <ele>127</ele>
        <time>2023-12-20T15:59:09Z</time>
      </trkpt>
      <trkpt lat="43.67206" lon="1.36673">
        <ele>127</ele>
        <time>2023-12-20T15:59:10Z</time>
      </trkpt>
      <trkpt lat="43.67209" lon="1.36672">
        <ele>127</ele>
        <time>2023-12-20T15:59:11Z</time>
      </trkpt>
      <trkpt lat="43.67211" lon="1.36672">
        <ele>127</ele>
        <time>2023-12-20T15:59:12Z</time>
      </trkpt>
      <trkpt lat="43.67214" lon="1.36671">
        <ele>127</ele>
        <time>2023-12-20T15:59:13Z</time>
      </trkpt>
      <trkpt lat="43.67216" lon="1.3667">
        <ele>127</ele>
        <time>2023-12-20T15:59:14Z</time>
      </trkpt>
      <trkpt lat="43.67219" lon="1.3667">
        <ele>127</ele>
        <time>2023-12-20T15:59:15Z</time>
      </trkpt>
      <trkpt lat="43.67221" lon="1.3667">
        <ele>127</ele>
        <time>2023-12-20T15:59:16Z</time>
      </trkpt>
      <trkpt lat="43.67224" lon="1.3667">
        <ele>127</ele>
        <time>2023-12-20T15:59:17Z</time>
      </trkpt>
      <trkpt lat="43.67226" lon="1.3667">
        <ele>127</ele>
        <time>2023-12-20T15:59:18Z</time>
      </trkpt>
      <trkpt lat="43.67229" lon="1.3667">
        <ele>127</ele>
        <time>2023-12-20T15:59:19Z</time>
      </trkpt>
      <trkpt lat="43.67231" lon="1.36671">
        <ele>127</ele>
        <time>2023-12-20T15:59:20Z</time>
      </trkpt>
      <trkpt lat="43.67234" lon="1.36672">
        <ele>127</ele>
        <time>2023-12-20T15:59:21Z</time>
      </trkpt>
      <trkpt lat="43.67236" lon="1.36674">
        <ele>127</ele>
        <time>2023-12-20T15:59:22Z</time>
      </trkpt>
      <trkpt lat="43.67238" lon="1.36677">
        <ele>127</ele>
        <time>2023-12-20T15:59:23Z</time>
      </trkpt>
      <trkpt lat="43.67241" lon="1.36679">
        <ele>127</ele>
        <time>2023-12-20T15:59:24Z</time>
      </trkpt>
      <trkpt lat="43.67243" lon="1.36681">
        <ele>127</ele>
        <time>2023-12-20T15:59:25Z</time>
      </trkpt>
      <trkpt lat="43.67245" lon="1.36683">
        <ele>127</ele>
        <time>2023-12-20T15:59:26Z</time>
      </trkpt>
      <trkpt lat="43.67247" lon="1.36685">
        <ele>127</ele>
        <time>2023-12-20T15:59:27Z</time>
      </trkpt>
      <trkpt lat="43.67249" lon="1.36686">
        <ele>127</ele>
        <time>2023-12-20T15:59:28Z</time>
      </trkpt>
      <trkpt lat="43.67252" lon="1.36687">
        <ele>127</ele>
        <time>2023-12-20T15:59:29Z</time>
      </trkpt>
      <trkpt lat="43.67255" lon="1.36687">
        <ele>128</ele>
        <time>2023-12-20T15:59:30Z</time>
      </trkpt>
      <trkpt lat="43.67257" lon="1.36688">
        <ele>128</ele>
        <time>2023-12-20T15:59:31Z</time>
      </trkpt>
      <trkpt lat="43.6726" lon="1.36688">
        <ele>128</ele>
        <time>2023-12-20T15:59:32Z</time>
      </trkpt>
      <trkpt lat="43.67262" lon="1.36688">
        <ele>128</ele>
        <time>2023-12-20T15:59:33Z</time>
      </trkpt>
      <trkpt lat="43.67265" lon="1.36688">
        <ele>128</ele>
        <time>2023-12-20T15:59:34Z</time>
      </trkpt>
      <trkpt lat="43.67267" lon="1.36688">
        <ele>128</ele>
        <time>2023-12-20T15:59:35Z</time>
      </trkpt>
      <trkpt lat="43.67269" lon="1.36688">
        <ele>128</ele>
        <time>2023-12-20T15:59:36Z</time>
      </trkpt>
      <trkpt lat="43.67272" lon="1.36689">
        <ele>128</ele>
        <time>2023-12-20T15:59:37Z</time>
      </trkpt>
      <trkpt lat="43.67274" lon="1.3669">
        <ele>128</ele>
        <time>2023-12-20T15:59:38Z</time>
      </trkpt>
      <trkpt lat="43.67276" lon="1.36691">
        <ele>128</ele>
        <time>2023-12-20T15:59:39Z</time>
      </trkpt>
      <trkpt lat="43.67278" lon="1.36692">
        <ele>128</ele>
        <time>2023-12-20T15:59:40Z</time>
      </trkpt>
      <trkpt lat="43.6728" lon="1.36693">
        <ele>128</ele>
        <time>2023-12-20T15:59:41Z</time>
      </trkpt>
      <trkpt lat="43.67282" lon="1.36693">
        <ele>128</ele>
        <time>2023-12-20T15:59:42Z</time>
      </trkpt>
      <trkpt lat="43.67284" lon="1.36691">
        <ele>128</ele>
        <time>2023-12-20T15:59:43Z</time>
      </trkpt>
      <trkpt lat="43.67284" lon="1.36687">
        <ele>129</ele>
        <time>2023-12-20T15:59:44Z</time>
      </trkpt>
      <trkpt lat="43.67284" lon="1.36684">
        <ele>129</ele>
        <time>2023-12-20T15:59:45Z</time>
      </trkpt>
      <trkpt lat="43.67284" lon="1.36681">
        <ele>128</ele>
        <time>2023-12-20T15:59:46Z</time>
      </trkpt>
      <trkpt lat="43.67285" lon="1.36677">
        <ele>128</ele>
        <time>2023-12-20T15:59:47Z</time>
      </trkpt>
      <trkpt lat="43.67285" lon="1.36674">
        <ele>129</ele>
        <time>2023-12-20T15:59:48Z</time>
      </trkpt>
      <trkpt lat="43.67286" lon="1.3667">
        <ele>129</ele>
        <time>2023-12-20T15:59:49Z</time>
      </trkpt>
      <trkpt lat="43.67287" lon="1.36667">
        <ele>129</ele>
        <time>2023-12-20T15:59:50Z</time>
      </trkpt>
      <trkpt lat="43.67289" lon="1.36664">
        <ele>129</ele>
        <time>2023-12-20T15:59:51Z</time>
      </trkpt>
      <trkpt lat="43.67291" lon="1.36662">
        <ele>129</ele>
        <time>2023-12-20T15:59:52Z</time>
      </trkpt>
      <trkpt lat="43.67293" lon="1.3666">
        <ele>129</ele>
        <time>2023-12-20T15:59:53Z</time>
      </trkpt>
      <trkpt lat="43.67295" lon="1.36658">
        <ele>129</ele>
        <time>2023-12-20T15:59:54Z</time>
      </trkpt>
      <trkpt lat="43.67297" lon="1.36656">
        <ele>129</ele>
        <time>2023-12-20T15:59:55Z</time>
      </trkpt>
      <trkpt lat="43.67299" lon="1.36654">
        <ele>129</ele>
        <time>2023-12-20T15:59:56Z</time>
      </trkpt>
      <trkpt lat="43.67302" lon="1.36653">
        <ele>129</ele>
        <time>2023-12-20T15:59:57Z</time>
      </trkpt>
      <trkpt lat="43.67304" lon="1.36651">
        <ele>129</ele>
        <time>2023-12-20T15:59:58Z</time>
      </trkpt>
      <trkpt lat="43.67306" lon="1.3665">
        <ele>129</ele>
        <time>2023-12-20T15:59:59Z</time>
      </trkpt>
      <trkpt lat="43.67309" lon="1.36648">
        <ele>129</ele>
        <time>2023-12-20T16:00:00Z</time>
      </trkpt>
      <trkpt lat="43.67311" lon="1.36647">
        <ele>129</ele>
        <time>2023-12-20T16:00:01Z</time>
      </trkpt>
      <trkpt lat="43.67313" lon="1.36645">
        <ele>129</ele>
        <time>2023-12-20T16:00:02Z</time>
      </trkpt>
      <trkpt lat="43.67315" lon="1.36643">
        <ele>130</ele>
        <time>2023-12-20T16:00:03Z</time>
      </trkpt>
      <trkpt lat="43.67317" lon="1.36641">
        <ele>130</ele>
        <time>2023-12-20T16:00:04Z</time>
      </trkpt>
      <trkpt lat="43.6732" lon="1.3664">
        <ele>129</ele>
        <time>2023-12-20T16:00:05Z</time>
      </trkpt>
      <trkpt lat="43.67322" lon="1.36638">
        <ele>129</ele>
        <time>2023-12-20T16:00:06Z</time>
      </trkpt>
      <trkpt lat="43.67324" lon="1.36636">
        <ele>130</ele>
        <time>2023-12-20T16:00:07Z</time>
      </trkpt>
      <trkpt lat="43.67326" lon="1.36634">
        <ele>130</ele>
        <time>2023-12-20T16:00:08Z</time>
      </trkpt>
      <trkpt lat="43.67328" lon="1.36632">
        <ele>130</ele>
        <time>2023-12-20T16:00:09Z</time>
      </trkpt>
      <trkpt lat="43.6733" lon="1.3663">
        <ele>130</ele>
        <time>2023-12-20T16:00:10Z</time>
      </trkpt>
      <trkpt lat="43.67332" lon="1.36628">
        <ele>130</ele>
        <time>2023-12-20T16:00:11Z</time>
      </trkpt>
      <trkpt lat="43.67334" lon="1.36627">
        <ele>130</ele>
        <time>2023-12-20T16:00:12Z</time>
      </trkpt>
      <trkpt lat="43.67337" lon="1.36625">
        <ele>130</ele>
        <time>2023-12-20T16:00:13Z</time>
      </trkpt>
      <trkpt lat="43.67339" lon="1.36623">
        <ele>130</ele>
        <time>2023-12-20T16:00:14Z</time>
      </trkpt>
      <trkpt lat="43.67341" lon="1.36621">
        <ele>130</ele>
        <time>2023-12-20T16:00:15Z</time>
      </trkpt>
      <trkpt lat="43.67343" lon="1.3662">
        <ele>130</ele>
        <time>2023-12-20T16:00:16Z</time>
      </trkpt>
      <trkpt lat="43.67345" lon="1.36618">
        <ele>130</ele>
        <time>2023-12-20T16:00:17Z</time>
      </trkpt>
      <trkpt lat="43.67348" lon="1.36617">
        <ele>131</ele>
        <time>2023-12-20T16:00:18Z</time>
      </trkpt>
      <trkpt lat="43.6735" lon="1.36615">
        <ele>131</ele>
        <time>2023-12-20T16:00:19Z</time>
      </trkpt>
      <trkpt lat="43.67352" lon="1.36614">
        <ele>130</ele>
        <time>2023-12-20T16:00:20Z</time>
      </trkpt>
      <trkpt lat="43.67354" lon="1.36612">
        <ele>130</ele>
        <time>2023-12-20T16:00:21Z</time>
      </trkpt>
      <trkpt lat="43.67356" lon="1.3661">
        <ele>130</ele>
        <time>2023-12-20T16:00:22Z</time>
      </trkpt>
      <trkpt lat="43.67358" lon="1.36608">
        <ele>130</ele>
        <time>2023-12-20T16:00:23Z</time>
      </trkpt>
      <trkpt lat="43.67361" lon="1.36607">
        <ele>130</ele>
        <time>2023-12-20T16:00:24Z</time>
      </trkpt>
      <trkpt lat="43.67363" lon="1.36605">
        <ele>130</ele>
        <time>2023-12-20T16:00:25Z</time>
      </trkpt>
      <trkpt lat="43.67365" lon="1.36603">
        <ele>129</ele>
        <time>2023-12-20T16:00:26Z</time>
      </trkpt>
      <trkpt lat="43.67367" lon="1.36602">
        <ele>129</ele>
        <time>2023-12-20T16:00:27Z</time>
      </trkpt>
      <trkpt lat="43.67369" lon="1.366">
        <ele>129</ele>
        <time>2023-12-20T16:00:28Z</time>
      </trkpt>
      <trkpt lat="43.67369" lon="1.366">
        <ele>129</ele>
        <time>2023-12-20T16:00:29Z</time>
      </trkpt>
      <trkpt lat="43.67369" lon="1.366">
        <ele>129</ele>
        <time>2023-12-20T16:00:30Z</time>
      </trkpt>
      <trkpt lat="43.67368" lon="1.36604">
        <ele>129</ele>
        <time>2023-12-20T16:00:31Z</time>
      </trkpt>
      <trkpt lat="43.67366" lon="1.36605">
        <ele>129</ele>
        <time>2023-12-20T16:00:32Z</time>
      </trkpt>
      <trkpt lat="43.67363" lon="1.36607">
        <ele>129</ele>
        <time>2023-12-20T16:00:33Z</time>
      </trkpt>
      <trkpt lat="43.67361" lon="1.36609">
        <ele>129</ele>
        <time>2023-12-20T16:00:34Z</time>
      </trkpt>
      <trkpt lat="43.67359" lon="1.36611">
        <ele>129</ele>
        <time>2023-12-20T16:00:35Z</time>
      </trkpt>
      <trkpt lat="43.67357" lon="1.36613">
        <ele>129</ele>
        <time>2023-12-20T16:00:36Z</time>
      </trkpt>
      <trkpt lat="43.67355" lon="1.36614">
        <ele>129</ele>
        <time>2023-12-20T16:00:37Z</time>
      </trkpt>
      <trkpt lat="43.67352" lon="1.36616">
        <ele>130</ele>
        <time>2023-12-20T16:00:38Z</time>
      </trkpt>
      <trkpt lat="43.6735" lon="1.36618">
        <ele>130</ele>
        <time>2023-12-20T16:00:39Z</time>
      </trkpt>
      <trkpt lat="43.67348" lon="1.3662">
        <ele>130</ele>
        <time>2023-12-20T16:00:40Z</time>
      </trkpt>
      <trkpt lat="43.67346" lon="1.36622">
        <ele>129</ele>
        <time>2023-12-20T16:00:41Z</time>
      </trkpt>
      <trkpt lat="43.67344" lon="1.36624">
        <ele>129</ele>
        <time>2023-12-20T16:00:42Z</time>
      </trkpt>
      <trkpt lat="43.67341" lon="1.36626">
        <ele>129</ele>
        <time>2023-12-20T16:00:43Z</time>
      </trkpt>
      <trkpt lat="43.67339" lon="1.36628">
        <ele>129</ele>
        <time>2023-12-20T16:00:44Z</time>
      </trkpt>
      <trkpt lat="43.67337" lon="1.3663">
        <ele>129</ele>
        <time>2023-12-20T16:00:45Z</time>
      </trkpt>
      <trkpt lat="43.67335" lon="1.36632">
        <ele>129</ele>
        <time>2023-12-20T16:00:46Z</time>
      </trkpt>
      <trkpt lat="43.67333" lon="1.36634">
        <ele>129</ele>
        <time>2023-12-20T16:00:47Z</time>
      </trkpt>
      <trkpt lat="43.67331" lon="1.36636">
        <ele>129</ele>
        <time>2023-12-20T16:00:48Z</time>
      </trkpt>
      <trkpt lat="43.67329" lon="1.36638">
        <ele>129</ele>
        <time>2023-12-20T16:00:49Z</time>
      </trkpt>
      <trkpt lat="43.67327" lon="1.3664">
        <ele>129</ele>
        <time>2023-12-20T16:00:50Z</time>
      </trkpt>
      <trkpt lat="43.67325" lon="1.36642">
        <ele>129</ele>
        <time>2023-12-20T16:00:51Z</time>
      </trkpt>
      <trkpt lat="43.67323" lon="1.36644">
        <ele>130</ele>
        <time>2023-12-20T16:00:52Z</time>
      </trkpt>
      <trkpt lat="43.67321" lon="1.36646">
        <ele>130</ele>
        <time>2023-12-20T16:00:53Z</time>
      </trkpt>
      <trkpt lat="43.67319" lon="1.36648">
        <ele>130</ele>
        <time>2023-12-20T16:00:54Z</time>
      </trkpt>
      <trkpt lat="43.67316" lon="1.36649">
        <ele>130</ele>
        <time>2023-12-20T16:00:55Z</time>
      </trkpt>
      <trkpt lat="43.67314" lon="1.36651">
        <ele>130</ele>
        <time>2023-12-20T16:00:56Z</time>
      </trkpt>
      <trkpt lat="43.67312" lon="1.36653">
        <ele>130</ele>
        <time>2023-12-20T16:00:57Z</time>
      </trkpt>
      <trkpt lat="43.67309" lon="1.36655">
        <ele>130</ele>
        <time>2023-12-20T16:00:58Z</time>
      </trkpt>
      <trkpt lat="43.67307" lon="1.36656">
        <ele>130</ele>
        <time>2023-12-20T16:00:59Z</time>
      </trkpt>
      <trkpt lat="43.67305" lon="1.36658">
        <ele>130</ele>
        <time>2023-12-20T16:01:00Z</time>
      </trkpt>
      <trkpt lat="43.67302" lon="1.36659">
        <ele>130</ele>
        <time>2023-12-20T16:01:01Z</time>
      </trkpt>
      <trkpt lat="43.673" lon="1.36661">
        <ele>130</ele>
        <time>2023-12-20T16:01:02Z</time>
      </trkpt>
      <trkpt lat="43.67298" lon="1.36663">
        <ele>130</ele>
        <time>2023-12-20T16:01:03Z</time>
      </trkpt>
      <trkpt lat="43.67296" lon="1.36664">
        <ele>130</ele>
        <time>2023-12-20T16:01:04Z</time>
      </trkpt>
      <trkpt lat="43.67293" lon="1.36666">
        <ele>130</ele>
        <time>2023-12-20T16:01:05Z</time>
      </trkpt>
      <trkpt lat="43.67291" lon="1.36668">
        <ele>130</ele>
        <time>2023-12-20T16:01:06Z</time>
      </trkpt>
      <trkpt lat="43.6729" lon="1.36671">
        <ele>130</ele>
        <time>2023-12-20T16:01:07Z</time>
      </trkpt>
      <trkpt lat="43.67288" lon="1.36674">
        <ele>130</ele>
        <time>2023-12-20T16:01:08Z</time>
      </trkpt>
      <trkpt lat="43.67287" lon="1.36677">
        <ele>130</ele>
        <time>2023-12-20T16:01:09Z</time>
      </trkpt>
      <trkpt lat="43.67286" lon="1.3668">
        <ele>130</ele>
        <time>2023-12-20T16:01:10Z</time>
      </trkpt>
      <trkpt lat="43.67285" lon="1.36684">
        <ele>130</ele>
        <time>2023-12-20T16:01:11Z</time>
      </trkpt>
      <trkpt lat="43.67284" lon="1.36687">
        <ele>129</ele>
        <time>2023-12-20T16:01:12Z</time>
      </trkpt>
      <trkpt lat="43.67283" lon="1.36689">
        <ele>129</ele>
        <time>2023-12-20T16:01:13Z</time>
      </trkpt>
      <trkpt lat="43.67282" lon="1.36692">
        <ele>129</ele>
        <time>2023-12-20T16:01:14Z</time>
      </trkpt>
      <trkpt lat="43.67282" lon="1.36695">
        <ele>129</ele>
        <time>2023-12-20T16:01:15Z</time>
      </trkpt>
      <trkpt lat="43.6728" lon="1.36698">
        <ele>129</ele>
        <time>2023-12-20T16:01:16Z</time>
      </trkpt>
      <trkpt lat="43.67277" lon="1.367">
        <ele>129</ele>
        <time>2023-12-20T16:01:17Z</time>
      </trkpt>
      <trkpt lat="43.67274" lon="1.36698">
        <ele>130</ele>
        <time>2023-12-20T16:01:18Z</time>
      </trkpt>
      <trkpt lat="43.67272" lon="1.36697">
        <ele>130</ele>
        <time>2023-12-20T16:01:19Z</time>
      </trkpt>
      <trkpt lat="43.6727" lon="1.36696">
        <ele>130</ele>
        <time>2023-12-20T16:01:20Z</time>
      </trkpt>
      <trkpt lat="43.67267" lon="1.36696">
        <ele>130</ele>
        <time>2023-12-20T16:01:21Z</time>
      </trkpt>
      <trkpt lat="43.67265" lon="1.36695">
        <ele>130</ele>
        <time>2023-12-20T16:01:22Z</time>
      </trkpt>
      <trkpt lat="43.67262" lon="1.36695">
        <ele>130</ele>
        <time>2023-12-20T16:01:23Z</time>
      </trkpt>
      <trkpt lat="43.67259" lon="1.36695">
        <ele>130</ele>
        <time>2023-12-20T16:01:24Z</time>
      </trkpt>
      <trkpt lat="43.67257" lon="1.36694">
        <ele>130</ele>
        <time>2023-12-20T16:01:25Z</time>
      </trkpt>
      <trkpt lat="43.67255" lon="1.36694">
        <ele>130</ele>
        <time>2023-12-20T16:01:26Z</time>
      </trkpt>
      <trkpt lat="43.67252" lon="1.36693">
        <ele>130</ele>
        <time>2023-12-20T16:01:27Z</time>
      </trkpt>
      <trkpt lat="43.67249" lon="1.36691">
        <ele>131</ele>
        <time>2023-12-20T16:01:28Z</time>
      </trkpt>
      <trkpt lat="43.67247" lon="1.3669">
        <ele>131</ele>
        <time>2023-12-20T16:01:29Z</time>
      </trkpt>
      <trkpt lat="43.67244" lon="1.36689">
        <ele>130</ele>
        <time>2023-12-20T16:01:30Z</time>
      </trkpt>
      <trkpt lat="43.67242" lon="1.36687">
        <ele>131</ele>
        <time>2023-12-20T16:01:31Z</time>
      </trkpt>
      <trkpt lat="43.67239" lon="1.36685">
        <ele>131</ele>
        <time>2023-12-20T16:01:32Z</time>
      </trkpt>
      <trkpt lat="43.67237" lon="1.36683">
        <ele>131</ele>
        <time>2023-12-20T16:01:33Z</time>
      </trkpt>
      <trkpt lat="43.67235" lon="1.36681">
        <ele>131</ele>
        <time>2023-12-20T16:01:34Z</time>
      </trkpt>
      <trkpt lat="43.67232" lon="1.36679">
        <ele>131</ele>
        <time>2023-12-20T16:01:35Z</time>
      </trkpt>
      <trkpt lat="43.6723" lon="1.36677">
        <ele>131</ele>
        <time>2023-12-20T16:01:36Z</time>
      </trkpt>
      <trkpt lat="43.67228" lon="1.36675">
        <ele>131</ele>
        <time>2023-12-20T16:01:37Z</time>
      </trkpt>
      <trkpt lat="43.67226" lon="1.36676">
        <ele>131</ele>
        <time>2023-12-20T16:01:38Z</time>
      </trkpt>
      <trkpt lat="43.67223" lon="1.36676">
        <ele>131</ele>
        <time>2023-12-20T16:01:39Z</time>
      </trkpt>
      <trkpt lat="43.6722" lon="1.36677">
        <ele>131</ele>
        <time>2023-12-20T16:01:40Z</time>
      </trkpt>
      <trkpt lat="43.67218" lon="1.36677">
        <ele>131</ele>
        <time>2023-12-20T16:01:41Z</time>
      </trkpt>
      <trkpt lat="43.67215" lon="1.36678">
        <ele>131</ele>
        <time>2023-12-20T16:01:42Z</time>
      </trkpt>
      <trkpt lat="43.67213" lon="1.36678">
        <ele>130</ele>
        <time>2023-12-20T16:01:43Z</time>
      </trkpt>
      <trkpt lat="43.67211" lon="1.36679">
        <ele>130</ele>
        <time>2023-12-20T16:01:44Z</time>
      </trkpt>
      <trkpt lat="43.67208" lon="1.3668">
        <ele>130</ele>
        <time>2023-12-20T16:01:45Z</time>
      </trkpt>
      <trkpt lat="43.67206" lon="1.36681">
        <ele>130</ele>
        <time>2023-12-20T16:01:46Z</time>
      </trkpt>
      <trkpt lat="43.67203" lon="1.36682">
        <ele>130</ele>
        <time>2023-12-20T16:01:47Z</time>
      </trkpt>
      <trkpt lat="43.67201" lon="1.36682">
        <ele>130</ele>
        <time>2023-12-20T16:01:48Z</time>
      </trkpt>
      <trkpt lat="43.67198" lon="1.36684">
        <ele>130</ele>
        <time>2023-12-20T16:01:49Z</time>
      </trkpt>
      <trkpt lat="43.67196" lon="1.36685">
        <ele>130</ele>
        <time>2023-12-20T16:01:50Z</time>
      </trkpt>
      <trkpt lat="43.67193" lon="1.36686">
        <ele>130</ele>
        <time>2023-12-20T16:01:51Z</time>
      </trkpt>
      <trkpt lat="43.67191" lon="1.36687">
        <ele>130</ele>
        <time>2023-12-20T16:01:52Z</time>
      </trkpt>
      <trkpt lat="43.67188" lon="1.36688">
        <ele>130</ele>
        <time>2023-12-20T16:01:53Z</time>
      </trkpt>
      <trkpt lat="43.67186" lon="1.36689">
        <ele>130</ele>
        <time>2023-12-20T16:01:54Z</time>
      </trkpt>
      <trkpt lat="43.67183" lon="1.3669">
        <ele>130</ele>
        <time>2023-12-20T16:01:55Z</time>
      </trkpt>
      <trkpt lat="43.67181" lon="1.3669">
        <ele>130</ele>
        <time>2023-12-20T16:01:56Z</time>
      </trkpt>
      <trkpt lat="43.67178" lon="1.36692">
        <ele>130</ele>
        <time>2023-12-20T16:01:57Z</time>
      </trkpt>
      <trkpt lat="43.67176" lon="1.36693">
        <ele>130</ele>
        <time>2023-12-20T16:01:58Z</time>
      </trkpt>
      <trkpt lat="43.67173" lon="1.36694">
        <ele>130</ele>
        <time>2023-12-20T16:01:59Z</time>
      </trkpt>
      <trkpt lat="43.67171" lon="1.36695">
        <ele>130</ele>
        <time>2023-12-20T16:02:00Z</time>
      </trkpt>
      <trkpt lat="43.67169" lon="1.36696">
        <ele>130</ele>
        <time>2023-12-20T16:02:01Z</time>
      </trkpt>
      <trkpt lat="43.67167" lon="1.36697">
        <ele>130</ele>
        <time>2023-12-20T16:02:02Z</time>
      </trkpt>
      <trkpt lat="43.67165" lon="1.36698">
        <ele>130</ele>
        <time>2023-12-20T16:02:03Z</time>
      </trkpt>
      <trkpt lat="43.67163" lon="1.36699">
        <ele>130</ele>
        <time>2023-12-20T16:02:04Z</time>
      </trkpt>
      <trkpt lat="43.67161" lon="1.367">
        <ele>130</ele>
        <time>2023-12-20T16:02:05Z</time>
      </trkpt>
      <trkpt lat="43.67158" lon="1.36701">
        <ele>130</ele>
        <time>2023-12-20T16:02:06Z</time>
      </trkpt>
      <trkpt lat="43.67156" lon="1.36702">
        <ele>130</ele>
        <time>2023-12-20T16:02:07Z</time>
      </trkpt>
      <trkpt lat="43.67154" lon="1.36703">
        <ele>130</ele>
        <time>2023-12-20T16:02:08Z</time>
      </trkpt>
      <trkpt lat="43.67152" lon="1.36704">
        <ele>130</ele>
        <time>2023-12-20T16:02:09Z</time>
      </trkpt>
      <trkpt lat="43.6715" lon="1.36705">
        <ele>130</ele>
        <time>2023-12-20T16:02:10Z</time>
      </trkpt>
      <trkpt lat="43.67148" lon="1.36706">
        <ele>130</ele>
        <time>2023-12-20T16:02:11Z</time>
      </trkpt>
      <trkpt lat="43.67145" lon="1.36707">
        <ele>130</ele>
        <time>2023-12-20T16:02:12Z</time>
      </trkpt>
      <trkpt lat="43.67143" lon="1.36709">
        <ele>130</ele>
        <time>2023-12-20T16:02:13Z</time>
      </trkpt>
      <trkpt lat="43.67141" lon="1.3671">
        <ele>130</ele>
        <time>2023-12-20T16:02:14Z</time>
      </trkpt>
      <trkpt lat="43.67139" lon="1.36711">
        <ele>130</ele>
        <time>2023-12-20T16:02:15Z</time>
      </trkpt>
      <trkpt lat="43.67137" lon="1.36713">
        <ele>130</ele>
        <time>2023-12-20T16:02:16Z</time>
      </trkpt>
      <trkpt lat="43.67135" lon="1.36714">
        <ele>130</ele>
        <time>2023-12-20T16:02:17Z</time>
      </trkpt>
      <trkpt lat="43.67133" lon="1.36716">
        <ele>129</ele>
        <time>2023-12-20T16:02:18Z</time>
      </trkpt>
      <trkpt lat="43.67131" lon="1.36717">
        <ele>129</ele>
        <time>2023-12-20T16:02:19Z</time>
      </trkpt>
      <trkpt lat="43.67128" lon="1.36718">
        <ele>129</ele>
        <time>2023-12-20T16:02:20Z</time>
      </trkpt>
      <trkpt lat="43.67126" lon="1.3672">
        <ele>129</ele>
        <time>2023-12-20T16:02:21Z</time>
      </trkpt>
      <trkpt lat="43.67123" lon="1.36721">
        <ele>129</ele>
        <time>2023-12-20T16:02:22Z</time>
      </trkpt>
      <trkpt lat="43.67121" lon="1.36723">
        <ele>129</ele>
        <time>2023-12-20T16:02:23Z</time>
      </trkpt>
      <trkpt lat="43.67119" lon="1.36724">
        <ele>129</ele>
        <time>2023-12-20T16:02:24Z</time>
      </trkpt>
      <trkpt lat="43.67117" lon="1.36725">
        <ele>129</ele>
        <time>2023-12-20T16:02:25Z</time>
      </trkpt>
      <trkpt lat="43.67114" lon="1.36726">
        <ele>129</ele>
        <time>2023-12-20T16:02:26Z</time>
      </trkpt>
      <trkpt lat="43.67112" lon="1.36727">
        <ele>129</ele>
        <time>2023-12-20T16:02:27Z</time>
      </trkpt>
      <trkpt lat="43.6711" lon="1.36729">
        <ele>129</ele>
        <time>2023-12-20T16:02:28Z</time>
      </trkpt>
      <trkpt lat="43.67108" lon="1.3673">
        <ele>129</ele>
        <time>2023-12-20T16:02:29Z</time>
      </trkpt>
      <trkpt lat="43.67105" lon="1.36732">
        <ele>129</ele>
        <time>2023-12-20T16:02:30Z</time>
      </trkpt>
      <trkpt lat="43.67103" lon="1.36734">
        <ele>129</ele>
        <time>2023-12-20T16:02:31Z</time>
      </trkpt>
      <trkpt lat="43.67101" lon="1.36736">
        <ele>129</ele>
        <time>2023-12-20T16:02:32Z</time>
      </trkpt>
      <trkpt lat="43.67098" lon="1.36737">
        <ele>129</ele>
        <time>2023-12-20T16:02:33Z</time>
      </trkpt>
      <trkpt lat="43.67096" lon="1.36739">
        <ele>129</ele>
        <time>2023-12-20T16:02:34Z</time>
      </trkpt>
      <trkpt lat="43.67094" lon="1.36741">
        <ele>129</ele>
        <time>2023-12-20T16:02:35Z</time>
      </trkpt>
      <trkpt lat="43.67091" lon="1.36743">
        <ele>130</ele>
        <time>2023-12-20T16:02:36Z</time>
      </trkpt>
      <trkpt lat="43.67089" lon="1.36744">
        <ele>130</ele>
        <time>2023-12-20T16:02:37Z</time>
      </trkpt>
      <trkpt lat="43.67087" lon="1.36746">
        <ele>130</ele>
        <time>2023-12-20T16:02:38Z</time>
      </trkpt>
      <trkpt lat="43.67084" lon="1.36747">
        <ele>130</ele>
        <time>2023-12-20T16:02:39Z</time>
      </trkpt>
      <trkpt lat="43.67081" lon="1.36749">
        <ele>130</ele>
        <time>2023-12-20T16:02:40Z</time>
      </trkpt>
      <trkpt lat="43.67079" lon="1.3675">
        <ele>130</ele>
        <time>2023-12-20T16:02:41Z</time>
      </trkpt>
      <trkpt lat="43.67077" lon="1.36751">
        <ele>130</ele>
        <time>2023-12-20T16:02:42Z</time>
      </trkpt>
      <trkpt lat="43.67074" lon="1.36753">
        <ele>130</ele>
        <time>2023-12-20T16:02:43Z</time>
      </trkpt>
      <trkpt lat="43.67072" lon="1.36755">
        <ele>130</ele>
        <time>2023-12-20T16:02:44Z</time>
      </trkpt>
      <trkpt lat="43.6707" lon="1.36756">
        <ele>130</ele>
        <time>2023-12-20T16:02:45Z</time>
      </trkpt>
      <trkpt lat="43.67067" lon="1.36758">
        <ele>130</ele>
        <time>2023-12-20T16:02:46Z</time>
      </trkpt>
      <trkpt lat="43.67065" lon="1.36759">
        <ele>130</ele>
        <time>2023-12-20T16:02:47Z</time>
      </trkpt>
      <trkpt lat="43.67062" lon="1.36761">
        <ele>130</ele>
        <time>2023-12-20T16:02:48Z</time>
      </trkpt>
      <trkpt lat="43.6706" lon="1.36762">
        <ele>130</ele>
        <time>2023-12-20T16:02:49Z</time>
      </trkpt>
      <trkpt lat="43.67058" lon="1.36764">
        <ele>130</ele>
        <time>2023-12-20T16:02:50Z</time>
      </trkpt>
      <trkpt lat="43.67058" lon="1.36764">
        <ele>130</ele>
        <time>2023-12-20T16:02:51Z</time>
      </trkpt>
      <trkpt lat="43.67055" lon="1.36766">
        <ele>130</ele>
        <time>2023-12-20T16:02:52Z</time>
      </trkpt>
      <trkpt lat="43.67053" lon="1.36767">
        <ele>130</ele>
        <time>2023-12-20T16:02:53Z</time>
      </trkpt>
      <trkpt lat="43.6705" lon="1.36769">
        <ele>130</ele>
        <time>2023-12-20T16:02:54Z</time>
      </trkpt>
      <trkpt lat="43.67048" lon="1.3677">
        <ele>131</ele>
        <time>2023-12-20T16:02:55Z</time>
      </trkpt>
      <trkpt lat="43.67045" lon="1.36772">
        <ele>131</ele>
        <time>2023-12-20T16:02:56Z</time>
      </trkpt>
      <trkpt lat="43.67043" lon="1.36774">
        <ele>131</ele>
        <time>2023-12-20T16:02:57Z</time>
      </trkpt>
      <trkpt lat="43.67041" lon="1.36775">
        <ele>131</ele>
        <time>2023-12-20T16:02:58Z</time>
      </trkpt>
      <trkpt lat="43.67038" lon="1.36777">
        <ele>131</ele>
        <time>2023-12-20T16:02:59Z</time>
      </trkpt>
      <trkpt lat="43.67036" lon="1.36779">
        <ele>131</ele>
        <time>2023-12-20T16:03:00Z</time>
      </trkpt>
      <trkpt lat="43.67034" lon="1.3678">
        <ele>131</ele>
        <time>2023-12-20T16:03:01Z</time>
      </trkpt>
      <trkpt lat="43.67031" lon="1.36782">
        <ele>131</ele>
        <time>2023-12-20T16:03:02Z</time>
      </trkpt>
      <trkpt lat="43.67029" lon="1.36784">
        <ele>131</ele>
        <time>2023-12-20T16:03:03Z</time>
      </trkpt>
      <trkpt lat="43.67026" lon="1.36786">
        <ele>130</ele>
        <time>2023-12-20T16:03:04Z</time>
      </trkpt>
      <trkpt lat="43.67024" lon="1.36787">
        <ele>130</ele>
        <time>2023-12-20T16:03:05Z</time>
      </trkpt>
      <trkpt lat="43.67021" lon="1.36789">
        <ele>130</ele>
        <time>2023-12-20T16:03:06Z</time>
      </trkpt>
      <trkpt lat="43.67019" lon="1.36791">
        <ele>130</ele>
        <time>2023-12-20T16:03:07Z</time>
      </trkpt>
      <trkpt lat="43.67017" lon="1.36793">
        <ele>130</ele>
        <time>2023-12-20T16:03:08Z</time>
      </trkpt>
      <trkpt lat="43.67015" lon="1.36795">
        <ele>130</ele>
        <time>2023-12-20T16:03:09Z</time>
      </trkpt>
      <trkpt lat="43.67013" lon="1.36798">
        <ele>130</ele>
        <time>2023-12-20T16:03:10Z</time>
      </trkpt>
      <trkpt lat="43.67011" lon="1.36801">
        <ele>130</ele>
        <time>2023-12-20T16:03:11Z</time>
      </trkpt>
      <trkpt lat="43.67009" lon="1.36804">
        <ele>130</ele>
        <time>2023-12-20T16:03:12Z</time>
      </trkpt>
      <trkpt lat="43.67008" lon="1.36806">
        <ele>130</ele>
        <time>2023-12-20T16:03:13Z</time>
      </trkpt>
      <trkpt lat="43.67006" lon="1.36809">
        <ele>130</ele>
        <time>2023-12-20T16:03:14Z</time>
      </trkpt>
      <trkpt lat="43.67005" lon="1.36812">
        <ele>130</ele>
        <time>2023-12-20T16:03:15Z</time>
      </trkpt>
      <trkpt lat="43.67003" lon="1.36815">
        <ele>130</ele>
        <time>2023-12-20T16:03:16Z</time>
      </trkpt>
      <trkpt lat="43.67001" lon="1.36817">
        <ele>130</ele>
        <time>2023-12-20T16:03:17Z</time>
      </trkpt>
      <trkpt lat="43.66999" lon="1.3682">
        <ele>130</ele>
        <time>2023-12-20T16:03:18Z</time>
      </trkpt>
      <trkpt lat="43.66997" lon="1.36821">
        <ele>130</ele>
        <time>2023-12-20T16:03:19Z</time>
      </trkpt>
      <trkpt lat="43.66994" lon="1.36822">
        <ele>130</ele>
        <time>2023-12-20T16:03:20Z</time>
      </trkpt>
      <trkpt lat="43.66991" lon="1.36822">
        <ele>130</ele>
        <time>2023-12-20T16:03:21Z</time>
      </trkpt>
      <trkpt lat="43.66988" lon="1.36822">
        <ele>130</ele>
        <time>2023-12-20T16:03:22Z</time>
      </trkpt>
      <trkpt lat="43.66986" lon="1.36821">
        <ele>130</ele>
        <time>2023-12-20T16:03:23Z</time>
      </trkpt>
      <trkpt lat="43.66984" lon="1.3682">
        <ele>130</ele>
        <time>2023-12-20T16:03:24Z</time>
      </trkpt>
      <trkpt lat="43.66982" lon="1.3682">
        <ele>130</ele>
        <time>2023-12-20T16:03:25Z</time>
      </trkpt>
      <trkpt lat="43.66979" lon="1.3682">
        <ele>130</ele>
        <time>2023-12-20T16:03:26Z</time>
      </trkpt>
      <trkpt lat="43.66977" lon="1.36821">
        <ele>130</ele>
        <time>2023-12-20T16:03:27Z</time>
      </trkpt>
      <trkpt lat="43.66974" lon="1.36822">
        <ele>130</ele>
        <time>2023-12-20T16:03:28Z</time>
      </trkpt>
      <trkpt lat="43.66972" lon="1.36824">
        <ele>130</ele>
        <time>2023-12-20T16:03:29Z</time>
      </trkpt>
      <trkpt lat="43.6697" lon="1.36825">
        <ele>130</ele>
        <time>2023-12-20T16:03:30Z</time>
      </trkpt>
      <trkpt lat="43.66968" lon="1.36827">
        <ele>130</ele>
        <time>2023-12-20T16:03:31Z</time>
      </trkpt>
      <trkpt lat="43.66966" lon="1.36829">
        <ele>130</ele>
        <time>2023-12-20T16:03:32Z</time>
      </trkpt>
      <trkpt lat="43.66964" lon="1.3683">
        <ele>130</ele>
        <time>2023-12-20T16:03:33Z</time>
      </trkpt>
      <trkpt lat="43.66961" lon="1.36832">
        <ele>130</ele>
        <time>2023-12-20T16:03:34Z</time>
      </trkpt>
      <trkpt lat="43.66959" lon="1.36834">
        <ele>130</ele>
        <time>2023-12-20T16:03:35Z</time>
      </trkpt>
      <trkpt lat="43.66957" lon="1.36836">
        <ele>130</ele>
        <time>2023-12-20T16:03:36Z</time>
      </trkpt>
      <trkpt lat="43.66954" lon="1.36837">
        <ele>130</ele>
        <time>2023-12-20T16:03:37Z</time>
      </trkpt>
      <trkpt lat="43.66952" lon="1.36839">
        <ele>130</ele>
        <time>2023-12-20T16:03:38Z</time>
      </trkpt>
      <trkpt lat="43.66949" lon="1.3684">
        <ele>130</ele>
        <time>2023-12-20T16:03:39Z</time>
      </trkpt>
      <trkpt lat="43.66947" lon="1.36842">
        <ele>130</ele>
        <time>2023-12-20T16:03:40Z</time>
      </trkpt>
      <trkpt lat="43.66945" lon="1.36843">
        <ele>130</ele>
        <time>2023-12-20T16:03:41Z</time>
      </trkpt>
      <trkpt lat="43.66942" lon="1.36845">
        <ele>130</ele>
        <time>2023-12-20T16:03:42Z</time>
      </trkpt>
      <trkpt lat="43.6694" lon="1.36847">
        <ele>130</ele>
        <time>2023-12-20T16:03:43Z</time>
      </trkpt>
      <trkpt lat="43.66937" lon="1.36848">
        <ele>130</ele>
        <time>2023-12-20T16:03:44Z</time>
      </trkpt>
      <trkpt lat="43.66935" lon="1.3685">
        <ele>130</ele>
        <time>2023-12-20T16:03:45Z</time>
      </trkpt>
      <trkpt lat="43.66933" lon="1.36852">
        <ele>130</ele>
        <time>2023-12-20T16:03:46Z</time>
      </trkpt>
      <trkpt lat="43.6693" lon="1.36854">
        <ele>130</ele>
        <time>2023-12-20T16:03:47Z</time>
      </trkpt>
      <trkpt lat="43.66928" lon="1.36855">
        <ele>130</ele>
        <time>2023-12-20T16:03:48Z</time>
      </trkpt>
      <trkpt lat="43.66925" lon="1.36857">
        <ele>130</ele>
        <time>2023-12-20T16:03:49Z</time>
      </trkpt>
      <trkpt lat="43.66923" lon="1.36859">
        <ele>130</ele>
        <time>2023-12-20T16:03:50Z</time>
      </trkpt>
      <trkpt lat="43.6692" lon="1.36861">
        <ele>130</ele>
        <time>2023-12-20T16:03:51Z</time>
      </trkpt>
      <trkpt lat="43.66918" lon="1.36863">
        <ele>130</ele>
        <time>2023-12-20T16:03:52Z</time>
      </trkpt>
      <trkpt lat="43.66916" lon="1.36865">
        <ele>130</ele>
        <time>2023-12-20T16:03:53Z</time>
      </trkpt>
      <trkpt lat="43.66913" lon="1.36866">
        <ele>130</ele>
        <time>2023-12-20T16:03:54Z</time>
      </trkpt>
      <trkpt lat="43.66912" lon="1.36868">
        <ele>130</ele>
        <time>2023-12-20T16:03:55Z</time>
      </trkpt>
      <trkpt lat="43.66909" lon="1.3687">
        <ele>130</ele>
        <time>2023-12-20T16:03:56Z</time>
      </trkpt>
      <trkpt lat="43.66907" lon="1.36872">
        <ele>130</ele>
        <time>2023-12-20T16:03:57Z</time>
      </trkpt>
      <trkpt lat="43.66904" lon="1.36874">
        <ele>130</ele>
        <time>2023-12-20T16:03:58Z</time>
      </trkpt>
      <trkpt lat="43.66902" lon="1.36876">
        <ele>130</ele>
        <time>2023-12-20T16:03:59Z</time>
      </trkpt>
      <trkpt lat="43.669" lon="1.36877">
        <ele>130</ele>
        <time>2023-12-20T16:04:00Z</time>
      </trkpt>
      <trkpt lat="43.66897" lon="1.36879">
        <ele>130</ele>
        <time>2023-12-20T16:04:01Z</time>
      </trkpt>
      <trkpt lat="43.66895" lon="1.36881">
        <ele>130</ele>
        <time>2023-12-20T16:04:02Z</time>
      </trkpt>
      <trkpt lat="43.66893" lon="1.36882">
        <ele>130</ele>
        <time>2023-12-20T16:04:03Z</time>
      </trkpt>
      <trkpt lat="43.66891" lon="1.36882">
        <ele>130</ele>
        <time>2023-12-20T16:04:04Z</time>
      </trkpt>
      <trkpt lat="43.66889" lon="1.36884">
        <ele>129</ele>
        <time>2023-12-20T16:04:05Z</time>
      </trkpt>
      <trkpt lat="43.66887" lon="1.36885">
        <ele>129</ele>
        <time>2023-12-20T16:04:06Z</time>
      </trkpt>
      <trkpt lat="43.66884" lon="1.36886">
        <ele>130</ele>
        <time>2023-12-20T16:04:07Z</time>
      </trkpt>
      <trkpt lat="43.66882" lon="1.36888">
        <ele>130</ele>
        <time>2023-12-20T16:04:08Z</time>
      </trkpt>
      <trkpt lat="43.6688" lon="1.3689">
        <ele>130</ele>
        <time>2023-12-20T16:04:09Z</time>
      </trkpt>
      <trkpt lat="43.66877" lon="1.36892">
        <ele>130</ele>
        <time>2023-12-20T16:04:10Z</time>
      </trkpt>
      <trkpt lat="43.66875" lon="1.36894">
        <ele>130</ele>
        <time>2023-12-20T16:04:11Z</time>
      </trkpt>
      <trkpt lat="43.66873" lon="1.36895">
        <ele>130</ele>
        <time>2023-12-20T16:04:12Z</time>
      </trkpt>
      <trkpt lat="43.6687" lon="1.36897">
        <ele>130</ele>
        <time>2023-12-20T16:04:13Z</time>
      </trkpt>
      <trkpt lat="43.66868" lon="1.36899">
        <ele>130</ele>
        <time>2023-12-20T16:04:14Z</time>
      </trkpt>
      <trkpt lat="43.66865" lon="1.36901">
        <ele>130</ele>
        <time>2023-12-20T16:04:15Z</time>
      </trkpt>
      <trkpt lat="43.66863" lon="1.36902">
        <ele>130</ele>
        <time>2023-12-20T16:04:16Z</time>
      </trkpt>
      <trkpt lat="43.66861" lon="1.36904">
        <ele>130</ele>
        <time>2023-12-20T16:04:17Z</time>
      </trkpt>
      <trkpt lat="43.66859" lon="1.36905">
        <ele>130</ele>
        <time>2023-12-20T16:04:18Z</time>
      </trkpt>
      <trkpt lat="43.66856" lon="1.36907">
        <ele>130</ele>
        <time>2023-12-20T16:04:19Z</time>
      </trkpt>
      <trkpt lat="43.66853" lon="1.36908">
        <ele>130</ele>
        <time>2023-12-20T16:04:20Z</time>
      </trkpt>
      <trkpt lat="43.66851" lon="1.36909">
        <ele>130</ele>
        <time>2023-12-20T16:04:21Z</time>
      </trkpt>
      <trkpt lat="43.66849" lon="1.36911">
        <ele>130</ele>
        <time>2023-12-20T16:04:22Z</time>
      </trkpt>
      <trkpt lat="43.66846" lon="1.36912">
        <ele>130</ele>
        <time>2023-12-20T16:04:23Z</time>
      </trkpt>
      <trkpt lat="43.66844" lon="1.36914">
        <ele>130</ele>
        <time>2023-12-20T16:04:24Z</time>
      </trkpt>
      <trkpt lat="43.66842" lon="1.36916">
        <ele>130</ele>
        <time>2023-12-20T16:04:25Z</time>
      </trkpt>
      <trkpt lat="43.6684" lon="1.36917">
        <ele>130</ele>
        <time>2023-12-20T16:04:26Z</time>
      </trkpt>
      <trkpt lat="43.66838" lon="1.36919">
        <ele>130</ele>
        <time>2023-12-20T16:04:27Z</time>
      </trkpt>
      <trkpt lat="43.66836" lon="1.36921">
        <ele>130</ele>
        <time>2023-12-20T16:04:28Z</time>
      </trkpt>
      <trkpt lat="43.66833" lon="1.36922">
        <ele>130</ele>
        <time>2023-12-20T16:04:29Z</time>
      </trkpt>
      <trkpt lat="43.66831" lon="1.36924">
        <ele>130</ele>
        <time>2023-12-20T16:04:30Z</time>
      </trkpt>
      <trkpt lat="43.66829" lon="1.36925">
        <ele>130</ele>
        <time>2023-12-20T16:04:31Z</time>
      </trkpt>
      <trkpt lat="43.66826" lon="1.36927">
        <ele>130</ele>
        <time>2023-12-20T16:04:32Z</time>
      </trkpt>
      <trkpt lat="43.66824" lon="1.36928">
        <ele>130</ele>
        <time>2023-12-20T16:04:33Z</time>
      </trkpt>
      <trkpt lat="43.66822" lon="1.3693">
        <ele>130</ele>
        <time>2023-12-20T16:04:34Z</time>
      </trkpt>
      <trkpt lat="43.66819" lon="1.36932">
        <ele>130</ele>
        <time>2023-12-20T16:04:35Z</time>
      </trkpt>
      <trkpt lat="43.66817" lon="1.36933">
        <ele>130</ele>
        <time>2023-12-20T16:04:36Z</time>
      </trkpt>
      <trkpt lat="43.66814" lon="1.36935">
        <ele>130</ele>
        <time>2023-12-20T16:04:37Z</time>
      </trkpt>
      <trkpt lat="43.66812" lon="1.36936">
        <ele>130</ele>
        <time>2023-12-20T16:04:38Z</time>
      </trkpt>
      <trkpt lat="43.6681" lon="1.36938">
        <ele>130</ele>
        <time>2023-12-20T16:04:39Z</time>
      </trkpt>
      <trkpt lat="43.66807" lon="1.36939">
        <ele>130</ele>
        <time>2023-12-20T16:04:40Z</time>
      </trkpt>
      <trkpt lat="43.66805" lon="1.36941">
        <ele>130</ele>
        <time>2023-12-20T16:04:41Z</time>
      </trkpt>
      <trkpt lat="43.66802" lon="1.36942">
        <ele>130</ele>
        <time>2023-12-20T16:04:42Z</time>
      </trkpt>
      <trkpt lat="43.668" lon="1.36944">
        <ele>130</ele>
        <time>2023-12-20T16:04:43Z</time>
      </trkpt>
      <trkpt lat="43.66798" lon="1.36945">
        <ele>130</ele>
        <time>2023-12-20T16:04:44Z</time>
      </trkpt>
      <trkpt lat="43.66796" lon="1.36947">
        <ele>130</ele>
        <time>2023-12-20T16:04:45Z</time>
      </trkpt>
      <trkpt lat="43.66793" lon="1.36949">
        <ele>130</ele>
        <time>2023-12-20T16:04:46Z</time>
      </trkpt>
      <trkpt lat="43.66791" lon="1.3695">
        <ele>130</ele>
        <time>2023-12-20T16:04:47Z</time>
      </trkpt>
      <trkpt lat="43.66789" lon="1.36952">
        <ele>130</ele>
        <time>2023-12-20T16:04:48Z</time>
      </trkpt>
      <trkpt lat="43.66787" lon="1.36953">
        <ele>130</ele>
        <time>2023-12-20T16:04:49Z</time>
      </trkpt>
      <trkpt lat="43.66785" lon="1.36955">
        <ele>130</ele>
        <time>2023-12-20T16:04:50Z</time>
      </trkpt>
      <trkpt lat="43.66783" lon="1.36955">
        <ele>130</ele>
        <time>2023-12-20T16:04:51Z</time>
      </trkpt>
      <trkpt lat="43.66781" lon="1.36956">
        <ele>130</ele>
        <time>2023-12-20T16:04:52Z</time>
      </trkpt>
      <trkpt lat="43.66779" lon="1.36958">
        <ele>130</ele>
        <time>2023-12-20T16:04:53Z</time>
      </trkpt>
      <trkpt lat="43.66777" lon="1.36959">
        <ele>130</ele>
        <time>2023-12-20T16:04:54Z</time>
      </trkpt>
      <trkpt lat="43.66774" lon="1.36961">
        <ele>130</ele>
        <time>2023-12-20T16:04:55Z</time>
      </trkpt>
      <trkpt lat="43.66772" lon="1.36962">
        <ele>130</ele>
        <time>2023-12-20T16:04:56Z</time>
      </trkpt>
      <trkpt lat="43.6677" lon="1.36964">
        <ele>131</ele>
        <time>2023-12-20T16:04:57Z</time>
      </trkpt>
      <trkpt lat="43.66768" lon="1.36966">
        <ele>131</ele>
        <time>2023-12-20T16:04:58Z</time>
      </trkpt>
      <trkpt lat="43.66766" lon="1.36967">
        <ele>131</ele>
        <time>2023-12-20T16:04:59Z</time>
      </trkpt>
      <trkpt lat="43.66763" lon="1.36969">
        <ele>130</ele>
        <time>2023-12-20T16:05:00Z</time>
      </trkpt>
      <trkpt lat="43.6676" lon="1.36971">
        <ele>131</ele>
        <time>2023-12-20T16:05:01Z</time>
      </trkpt>
      <trkpt lat="43.66758" lon="1.36973">
        <ele>131</ele>
        <time>2023-12-20T16:05:02Z</time>
      </trkpt>
      <trkpt lat="43.66756" lon="1.36975">
        <ele>130</ele>
        <time>2023-12-20T16:05:03Z</time>
      </trkpt>
      <trkpt lat="43.66753" lon="1.36976">
        <ele>130</ele>
        <time>2023-12-20T16:05:04Z</time>
      </trkpt>
      <trkpt lat="43.66751" lon="1.36978">
        <ele>130</ele>
        <time>2023-12-20T16:05:05Z</time>
      </trkpt>
      <trkpt lat="43.66749" lon="1.3698">
        <ele>130</ele>
        <time>2023-12-20T16:05:06Z</time>
      </trkpt>
      <trkpt lat="43.66746" lon="1.36981">
        <ele>130</ele>
        <time>2023-12-20T16:05:07Z</time>
      </trkpt>
      <trkpt lat="43.66744" lon="1.36983">
        <ele>130</ele>
        <time>2023-12-20T16:05:08Z</time>
      </trkpt>
      <trkpt lat="43.66742" lon="1.36984">
        <ele>130</ele>
        <time>2023-12-20T16:05:09Z</time>
      </trkpt>
      <trkpt lat="43.66739" lon="1.36986">
        <ele>130</ele>
        <time>2023-12-20T16:05:10Z</time>
      </trkpt>
      <trkpt lat="43.66737" lon="1.36987">
        <ele>130</ele>
        <time>2023-12-20T16:05:11Z</time>
      </trkpt>
      <trkpt lat="43.66735" lon="1.36989">
        <ele>130</ele>
        <time>2023-12-20T16:05:12Z</time>
      </trkpt>
      <trkpt lat="43.66733" lon="1.36991">
        <ele>130</ele>
        <time>2023-12-20T16:05:13Z</time>
      </trkpt>
      <trkpt lat="43.6673" lon="1.36993">
        <ele>130</ele>
        <time>2023-12-20T16:05:14Z</time>
      </trkpt>
      <trkpt lat="43.66728" lon="1.36995">
        <ele>130</ele>
        <time>2023-12-20T16:05:15Z</time>
      </trkpt>
      <trkpt lat="43.66725" lon="1.36996">
        <ele>130</ele>
        <time>2023-12-20T16:05:16Z</time>
      </trkpt>
      <trkpt lat="43.66723" lon="1.36998">
        <ele>130</ele>
        <time>2023-12-20T16:05:17Z</time>
      </trkpt>
      <trkpt lat="43.6672" lon="1.37">
        <ele>130</ele>
        <time>2023-12-20T16:05:18Z</time>
      </trkpt>
      <trkpt lat="43.66718" lon="1.37002">
        <ele>130</ele>
        <time>2023-12-20T16:05:19Z</time>
      </trkpt>
      <trkpt lat="43.66715" lon="1.37004">
        <ele>130</ele>
        <time>2023-12-20T16:05:20Z</time>
      </trkpt>
      <trkpt lat="43.66713" lon="1.37005">
        <ele>130</ele>
        <time>2023-12-20T16:05:21Z</time>
      </trkpt>
      <trkpt lat="43.66711" lon="1.37007">
        <ele>130</ele>
        <time>2023-12-20T16:05:22Z</time>
      </trkpt>
      <trkpt lat="43.66709" lon="1.37008">
        <ele>130</ele>
        <time>2023-12-20T16:05:23Z</time>
      </trkpt>
      <trkpt lat="43.66706" lon="1.3701">
        <ele>130</ele>
        <time>2023-12-20T16:05:24Z</time>
      </trkpt>
      <trkpt lat="43.66704" lon="1.37011">
        <ele>130</ele>
        <time>2023-12-20T16:05:25Z</time>
      </trkpt>
      <trkpt lat="43.66702" lon="1.37013">
        <ele>129</ele>
        <time>2023-12-20T16:05:26Z</time>
      </trkpt>
      <trkpt lat="43.66699" lon="1.37015">
        <ele>129</ele>
        <time>2023-12-20T16:05:27Z</time>
      </trkpt>
      <trkpt lat="43.66698" lon="1.37016">
        <ele>129</ele>
        <time>2023-12-20T16:05:28Z</time>
      </trkpt>
      <trkpt lat="43.66695" lon="1.37017">
        <ele>129</ele>
        <time>2023-12-20T16:05:29Z</time>
      </trkpt>
      <trkpt lat="43.66693" lon="1.37019">
        <ele>129</ele>
        <time>2023-12-20T16:05:30Z</time>
      </trkpt>
      <trkpt lat="43.66691" lon="1.3702">
        <ele>129</ele>
        <time>2023-12-20T16:05:31Z</time>
      </trkpt>
      <trkpt lat="43.66689" lon="1.37021">
        <ele>129</ele>
        <time>2023-12-20T16:05:32Z</time>
      </trkpt>
      <trkpt lat="43.66687" lon="1.37022">
        <ele>129</ele>
        <time>2023-12-20T16:05:33Z</time>
      </trkpt>
      <trkpt lat="43.66685" lon="1.37023">
        <ele>130</ele>
        <time>2023-12-20T16:05:34Z</time>
      </trkpt>
      <trkpt lat="43.66683" lon="1.37025">
        <ele>130</ele>
        <time>2023-12-20T16:05:35Z</time>
      </trkpt>
      <trkpt lat="43.6668" lon="1.37027">
        <ele>130</ele>
        <time>2023-12-20T16:05:36Z</time>
      </trkpt>
      <trkpt lat="43.66678" lon="1.37029">
        <ele>130</ele>
        <time>2023-12-20T16:05:37Z</time>
      </trkpt>
      <trkpt lat="43.66676" lon="1.37031">
        <ele>130</ele>
        <time>2023-12-20T16:05:38Z</time>
      </trkpt>
      <trkpt lat="43.66673" lon="1.37032">
        <ele>130</ele>
        <time>2023-12-20T16:05:39Z</time>
      </trkpt>
      <trkpt lat="43.66671" lon="1.37034">
        <ele>130</ele>
        <time>2023-12-20T16:05:40Z</time>
      </trkpt>
      <trkpt lat="43.66669" lon="1.37036">
        <ele>130</ele>
        <time>2023-12-20T16:05:41Z</time>
      </trkpt>
      <trkpt lat="43.66666" lon="1.37037">
        <ele>130</ele>
        <time>2023-12-20T16:05:42Z</time>
      </trkpt>
      <trkpt lat="43.66664" lon="1.37039">
        <ele>131</ele>
        <time>2023-12-20T16:05:43Z</time>
      </trkpt>
      <trkpt lat="43.66661" lon="1.37041">
        <ele>131</ele>
        <time>2023-12-20T16:05:44Z</time>
      </trkpt>
      <trkpt lat="43.66658" lon="1.37043">
        <ele>131</ele>
        <time>2023-12-20T16:05:45Z</time>
      </trkpt>
      <trkpt lat="43.66656" lon="1.37045">
        <ele>131</ele>
        <time>2023-12-20T16:05:46Z</time>
      </trkpt>
      <trkpt lat="43.66654" lon="1.37047">
        <ele>131</ele>
        <time>2023-12-20T16:05:47Z</time>
      </trkpt>
      <trkpt lat="43.66652" lon="1.37049">
        <ele>131</ele>
        <time>2023-12-20T16:05:48Z</time>
      </trkpt>
      <trkpt lat="43.6665" lon="1.37052">
        <ele>130</ele>
        <time>2023-12-20T16:05:49Z</time>
      </trkpt>
      <trkpt lat="43.66647" lon="1.37054">
        <ele>130</ele>
        <time>2023-12-20T16:05:50Z</time>
      </trkpt>
      <trkpt lat="43.66644" lon="1.37056">
        <ele>130</ele>
        <time>2023-12-20T16:05:51Z</time>
      </trkpt>
      <trkpt lat="43.66642" lon="1.37056">
        <ele>130</ele>
        <time>2023-12-20T16:05:52Z</time>
      </trkpt>
      <trkpt lat="43.6664" lon="1.37057">
        <ele>130</ele>
        <time>2023-12-20T16:05:53Z</time>
      </trkpt>
      <trkpt lat="43.66637" lon="1.37058">
        <ele>130</ele>
        <time>2023-12-20T16:05:54Z</time>
      </trkpt>
      <trkpt lat="43.66636" lon="1.3706">
        <ele>130</ele>
        <time>2023-12-20T16:05:55Z</time>
      </trkpt>
      <trkpt lat="43.66634" lon="1.37061">
        <ele>130</ele>
        <time>2023-12-20T16:05:56Z</time>
      </trkpt>
      <trkpt lat="43.66631" lon="1.37062">
        <ele>130</ele>
        <time>2023-12-20T16:05:57Z</time>
      </trkpt>
      <trkpt lat="43.66629" lon="1.37063">
        <ele>130</ele>
        <time>2023-12-20T16:05:58Z</time>
      </trkpt>
      <trkpt lat="43.66627" lon="1.37064">
        <ele>130</ele>
        <time>2023-12-20T16:05:59Z</time>
      </trkpt>
      <trkpt lat="43.66625" lon="1.37066">
        <ele>129</ele>
        <time>2023-12-20T16:06:00Z</time>
      </trkpt>
      <trkpt lat="43.66623" lon="1.37067">
        <ele>130</ele>
        <time>2023-12-20T16:06:01Z</time>
      </trkpt>
      <trkpt lat="43.66621" lon="1.37069">
        <ele>130</ele>
        <time>2023-12-20T16:06:02Z</time>
      </trkpt>
      <trkpt lat="43.66618" lon="1.3707">
        <ele>130</ele>
        <time>2023-12-20T16:06:03Z</time>
      </trkpt>
      <trkpt lat="43.66616" lon="1.37072">
        <ele>130</ele>
        <time>2023-12-20T16:06:04Z</time>
      </trkpt>
      <trkpt lat="43.66616" lon="1.37072">
        <ele>130</ele>
        <time>2023-12-20T16:06:05Z</time>
      </trkpt>
      <trkpt lat="43.66611" lon="1.37075">
        <ele>131</ele>
        <time>2023-12-20T16:06:06Z</time>
      </trkpt>
      <trkpt lat="43.66609" lon="1.37076">
        <ele>131</ele>
        <time>2023-12-20T16:06:07Z</time>
      </trkpt>
      <trkpt lat="43.66607" lon="1.37077">
        <ele>131</ele>
        <time>2023-12-20T16:06:08Z</time>
      </trkpt>
      <trkpt lat="43.66605" lon="1.37078">
        <ele>131</ele>
        <time>2023-12-20T16:06:09Z</time>
      </trkpt>
      <trkpt lat="43.66603" lon="1.3708">
        <ele>131</ele>
        <time>2023-12-20T16:06:10Z</time>
      </trkpt>
      <trkpt lat="43.66601" lon="1.37081">
        <ele>130</ele>
        <time>2023-12-20T16:06:11Z</time>
      </trkpt>
      <trkpt lat="43.66599" lon="1.37083">
        <ele>130</ele>
        <time>2023-12-20T16:06:12Z</time>
      </trkpt>
      <trkpt lat="43.66597" lon="1.37084">
        <ele>130</ele>
        <time>2023-12-20T16:06:13Z</time>
      </trkpt>
      <trkpt lat="43.66595" lon="1.37085">
        <ele>131</ele>
        <time>2023-12-20T16:06:14Z</time>
      </trkpt>
      <trkpt lat="43.66592" lon="1.37087">
        <ele>131</ele>
        <time>2023-12-20T16:06:15Z</time>
      </trkpt>
      <trkpt lat="43.6659" lon="1.37089">
        <ele>131</ele>
        <time>2023-12-20T16:06:16Z</time>
      </trkpt>
      <trkpt lat="43.66587" lon="1.37092">
        <ele>131</ele>
        <time>2023-12-20T16:06:17Z</time>
      </trkpt>
      <trkpt lat="43.66585" lon="1.37093">
        <ele>131</ele>
        <time>2023-12-20T16:06:18Z</time>
      </trkpt>
      <trkpt lat="43.66582" lon="1.37095">
        <ele>131</ele>
        <time>2023-12-20T16:06:19Z</time>
      </trkpt>
      <trkpt lat="43.6658" lon="1.37097">
        <ele>131</ele>
        <time>2023-12-20T16:06:20Z</time>
      </trkpt>
      <trkpt lat="43.66578" lon="1.37099">
        <ele>130</ele>
        <time>2023-12-20T16:06:21Z</time>
      </trkpt>
      <trkpt lat="43.66576" lon="1.37101">
        <ele>130</ele>
        <time>2023-12-20T16:06:22Z</time>
      </trkpt>
      <trkpt lat="43.66573" lon="1.37102">
        <ele>130</ele>
        <time>2023-12-20T16:06:23Z</time>
      </trkpt>
      <trkpt lat="43.66571" lon="1.37104">
        <ele>130</ele>
        <time>2023-12-20T16:06:24Z</time>
      </trkpt>
      <trkpt lat="43.66568" lon="1.37106">
        <ele>130</ele>
        <time>2023-12-20T16:06:25Z</time>
      </trkpt>
      <trkpt lat="43.66566" lon="1.37108">
        <ele>130</ele>
        <time>2023-12-20T16:06:26Z</time>
      </trkpt>
      <trkpt lat="43.66564" lon="1.37109">
        <ele>130</ele>
        <time>2023-12-20T16:06:27Z</time>
      </trkpt>
      <trkpt lat="43.66562" lon="1.37111">
        <ele>130</ele>
        <time>2023-12-20T16:06:28Z</time>
      </trkpt>
      <trkpt lat="43.66559" lon="1.37113">
        <ele>130</ele>
        <time>2023-12-20T16:06:29Z</time>
      </trkpt>
      <trkpt lat="43.66558" lon="1.37114">
        <ele>130</ele>
        <time>2023-12-20T16:06:30Z</time>
      </trkpt>
      <trkpt lat="43.66555" lon="1.37116">
        <ele>130</ele>
        <time>2023-12-20T16:06:31Z</time>
      </trkpt>
      <trkpt lat="43.66553" lon="1.37117">
        <ele>130</ele>
        <time>2023-12-20T16:06:32Z</time>
      </trkpt>
      <trkpt lat="43.66551" lon="1.37119">
        <ele>130</ele>
        <time>2023-12-20T16:06:33Z</time>
      </trkpt>
      <trkpt lat="43.66549" lon="1.3712">
        <ele>130</ele>
        <time>2023-12-20T16:06:34Z</time>
      </trkpt>
      <trkpt lat="43.66547" lon="1.37122">
        <ele>130</ele>
        <time>2023-12-20T16:06:35Z</time>
      </trkpt>
      <trkpt lat="43.66545" lon="1.37124">
        <ele>131</ele>
        <time>2023-12-20T16:06:36Z</time>
      </trkpt>
      <trkpt lat="43.66542" lon="1.37126">
        <ele>131</ele>
        <time>2023-12-20T16:06:37Z</time>
      </trkpt>
      <trkpt lat="43.6654" lon="1.37127">
        <ele>131</ele>
        <time>2023-12-20T16:06:38Z</time>
      </trkpt>
      <trkpt lat="43.66537" lon="1.37129">
        <ele>131</ele>
        <time>2023-12-20T16:06:39Z</time>
      </trkpt>
      <trkpt lat="43.66535" lon="1.3713">
        <ele>130</ele>
        <time>2023-12-20T16:06:40Z</time>
      </trkpt>
      <trkpt lat="43.66533" lon="1.37132">
        <ele>130</ele>
        <time>2023-12-20T16:06:41Z</time>
      </trkpt>
      <trkpt lat="43.6653" lon="1.37133">
        <ele>130</ele>
        <time>2023-12-20T16:06:42Z</time>
      </trkpt>
      <trkpt lat="43.66528" lon="1.37135">
        <ele>130</ele>
        <time>2023-12-20T16:06:43Z</time>
      </trkpt>
      <trkpt lat="43.66526" lon="1.37137">
        <ele>130</ele>
        <time>2023-12-20T16:06:44Z</time>
      </trkpt>
      <trkpt lat="43.66524" lon="1.37138">
        <ele>130</ele>
        <time>2023-12-20T16:06:45Z</time>
      </trkpt>
      <trkpt lat="43.66522" lon="1.3714">
        <ele>130</ele>
        <time>2023-12-20T16:06:46Z</time>
      </trkpt>
      <trkpt lat="43.6652" lon="1.37141">
        <ele>130</ele>
        <time>2023-12-20T16:06:47Z</time>
      </trkpt>
      <trkpt lat="43.66517" lon="1.37143">
        <ele>130</ele>
        <time>2023-12-20T16:06:48Z</time>
      </trkpt>
      <trkpt lat="43.66515" lon="1.37144">
        <ele>130</ele>
        <time>2023-12-20T16:06:49Z</time>
      </trkpt>
      <trkpt lat="43.66513" lon="1.37145">
        <ele>131</ele>
        <time>2023-12-20T16:06:50Z</time>
      </trkpt>
      <trkpt lat="43.6651" lon="1.37147">
        <ele>131</ele>
        <time>2023-12-20T16:06:51Z</time>
      </trkpt>
      <trkpt lat="43.66508" lon="1.37149">
        <ele>131</ele>
        <time>2023-12-20T16:06:52Z</time>
      </trkpt>
      <trkpt lat="43.66505" lon="1.3715">
        <ele>131</ele>
        <time>2023-12-20T16:06:53Z</time>
      </trkpt>
      <trkpt lat="43.66505" lon="1.3715">
        <ele>130</ele>
        <time>2023-12-20T16:06:54Z</time>
      </trkpt>
      <trkpt lat="43.66503" lon="1.37152">
        <ele>131</ele>
        <time>2023-12-20T16:06:55Z</time>
      </trkpt>
      <trkpt lat="43.66503" lon="1.37152">
        <ele>131</ele>
        <time>2023-12-20T16:06:56Z</time>
      </trkpt>
      <trkpt lat="43.665" lon="1.37154">
        <ele>131</ele>
        <time>2023-12-20T16:06:57Z</time>
      </trkpt>
      <trkpt lat="43.66499" lon="1.37156">
        <ele>131</ele>
        <time>2023-12-20T16:06:58Z</time>
      </trkpt>
      <trkpt lat="43.66497" lon="1.37157">
        <ele>131</ele>
        <time>2023-12-20T16:06:59Z</time>
      </trkpt>
      <trkpt lat="43.66494" lon="1.37158">
        <ele>131</ele>
        <time>2023-12-20T16:07:00Z</time>
      </trkpt>
      <trkpt lat="43.66492" lon="1.3716">
        <ele>131</ele>
        <time>2023-12-20T16:07:01Z</time>
      </trkpt>
      <trkpt lat="43.66489" lon="1.37162">
        <ele>131</ele>
        <time>2023-12-20T16:07:02Z</time>
      </trkpt>
      <trkpt lat="43.66486" lon="1.37163">
        <ele>130</ele>
        <time>2023-12-20T16:07:03Z</time>
      </trkpt>
      <trkpt lat="43.66484" lon="1.37165">
        <ele>130</ele>
        <time>2023-12-20T16:07:04Z</time>
      </trkpt>
      <trkpt lat="43.66482" lon="1.37167">
        <ele>130</ele>
        <time>2023-12-20T16:07:05Z</time>
      </trkpt>
      <trkpt lat="43.66479" lon="1.37168">
        <ele>130</ele>
        <time>2023-12-20T16:07:06Z</time>
      </trkpt>
      <trkpt lat="43.66477" lon="1.3717">
        <ele>130</ele>
        <time>2023-12-20T16:07:07Z</time>
      </trkpt>
      <trkpt lat="43.66474" lon="1.37173">
        <ele>130</ele>
        <time>2023-12-20T16:07:08Z</time>
      </trkpt>
      <trkpt lat="43.66472" lon="1.37174">
        <ele>130</ele>
        <time>2023-12-20T16:07:09Z</time>
      </trkpt>
      <trkpt lat="43.6647" lon="1.37176">
        <ele>130</ele>
        <time>2023-12-20T16:07:10Z</time>
      </trkpt>
      <trkpt lat="43.66468" lon="1.37178">
        <ele>131</ele>
        <time>2023-12-20T16:07:11Z</time>
      </trkpt>
      <trkpt lat="43.66465" lon="1.3718">
        <ele>131</ele>
        <time>2023-12-20T16:07:12Z</time>
      </trkpt>
      <trkpt lat="43.66463" lon="1.37182">
        <ele>131</ele>
        <time>2023-12-20T16:07:13Z</time>
      </trkpt>
      <trkpt lat="43.66461" lon="1.37184">
        <ele>130</ele>
        <time>2023-12-20T16:07:14Z</time>
      </trkpt>
      <trkpt lat="43.66459" lon="1.37185">
        <ele>130</ele>
        <time>2023-12-20T16:07:15Z</time>
      </trkpt>
      <trkpt lat="43.66456" lon="1.37187">
        <ele>131</ele>
        <time>2023-12-20T16:07:16Z</time>
      </trkpt>
      <trkpt lat="43.66454" lon="1.37189">
        <ele>131</ele>
        <time>2023-12-20T16:07:17Z</time>
      </trkpt>
      <trkpt lat="43.66452" lon="1.37191">
        <ele>131</ele>
        <time>2023-12-20T16:07:18Z</time>
      </trkpt>
      <trkpt lat="43.6645" lon="1.37193">
        <ele>131</ele>
        <time>2023-12-20T16:07:19Z</time>
      </trkpt>
      <trkpt lat="43.66448" lon="1.37194">
        <ele>131</ele>
        <time>2023-12-20T16:07:20Z</time>
      </trkpt>
      <trkpt lat="43.66446" lon="1.37196">
        <ele>131</ele>
        <time>2023-12-20T16:07:21Z</time>
      </trkpt>
      <trkpt lat="43.66445" lon="1.37197">
        <ele>131</ele>
        <time>2023-12-20T16:07:22Z</time>
      </trkpt>
      <trkpt lat="43.66442" lon="1.37198">
        <ele>131</ele>
        <time>2023-12-20T16:07:23Z</time>
      </trkpt>
      <trkpt lat="43.6644" lon="1.372">
        <ele>131</ele>
        <time>2023-12-20T16:07:24Z</time>
      </trkpt>
      <trkpt lat="43.66438" lon="1.37201">
        <ele>131</ele>
        <time>2023-12-20T16:07:25Z</time>
      </trkpt>
      <trkpt lat="43.66436" lon="1.37203">
        <ele>131</ele>
        <time>2023-12-20T16:07:26Z</time>
      </trkpt>
      <trkpt lat="43.66434" lon="1.37204">
        <ele>131</ele>
        <time>2023-12-20T16:07:27Z</time>
      </trkpt>
      <trkpt lat="43.66431" lon="1.37206">
        <ele>131</ele>
        <time>2023-12-20T16:07:28Z</time>
      </trkpt>
      <trkpt lat="43.66429" lon="1.37208">
        <ele>131</ele>
        <time>2023-12-20T16:07:29Z</time>
      </trkpt>
      <trkpt lat="43.66427" lon="1.3721">
        <ele>131</ele>
        <time>2023-12-20T16:07:30Z</time>
      </trkpt>
      <trkpt lat="43.66424" lon="1.37212">
        <ele>131</ele>
        <time>2023-12-20T16:07:31Z</time>
      </trkpt>
      <trkpt lat="43.66422" lon="1.37214">
        <ele>131</ele>
        <time>2023-12-20T16:07:32Z</time>
      </trkpt>
      <trkpt lat="43.6642" lon="1.37216">
        <ele>131</ele>
        <time>2023-12-20T16:07:33Z</time>
      </trkpt>
      <trkpt lat="43.66417" lon="1.37219">
        <ele>131</ele>
        <time>2023-12-20T16:07:34Z</time>
      </trkpt>
      <trkpt lat="43.66415" lon="1.37221">
        <ele>131</ele>
        <time>2023-12-20T16:07:35Z</time>
      </trkpt>
      <trkpt lat="43.66414" lon="1.37224">
        <ele>131</ele>
        <time>2023-12-20T16:07:36Z</time>
      </trkpt>
      <trkpt lat="43.66413" lon="1.37227">
        <ele>131</ele>
        <time>2023-12-20T16:07:37Z</time>
      </trkpt>
      <trkpt lat="43.66412" lon="1.3723">
        <ele>131</ele>
        <time>2023-12-20T16:07:38Z</time>
      </trkpt>
      <trkpt lat="43.66412" lon="1.37234">
        <ele>131</ele>
        <time>2023-12-20T16:07:39Z</time>
      </trkpt>
      <trkpt lat="43.66412" lon="1.37237">
        <ele>130</ele>
        <time>2023-12-20T16:07:40Z</time>
      </trkpt>
      <trkpt lat="43.66411" lon="1.37241">
        <ele>131</ele>
        <time>2023-12-20T16:07:41Z</time>
      </trkpt>
      <trkpt lat="43.66409" lon="1.37244">
        <ele>131</ele>
        <time>2023-12-20T16:07:42Z</time>
      </trkpt>
      <trkpt lat="43.66407" lon="1.37247">
        <ele>131</ele>
        <time>2023-12-20T16:07:43Z</time>
      </trkpt>
      <trkpt lat="43.66405" lon="1.3725">
        <ele>131</ele>
        <time>2023-12-20T16:07:44Z</time>
      </trkpt>
      <trkpt lat="43.66403" lon="1.37253">
        <ele>131</ele>
        <time>2023-12-20T16:07:45Z</time>
      </trkpt>
      <trkpt lat="43.66401" lon="1.37256">
        <ele>131</ele>
        <time>2023-12-20T16:07:46Z</time>
      </trkpt>
      <trkpt lat="43.66399" lon="1.37258">
        <ele>131</ele>
        <time>2023-12-20T16:07:47Z</time>
      </trkpt>
      <trkpt lat="43.66396" lon="1.37259">
        <ele>131</ele>
        <time>2023-12-20T16:07:48Z</time>
      </trkpt>
      <trkpt lat="43.66394" lon="1.37259">
        <ele>132</ele>
        <time>2023-12-20T16:07:49Z</time>
      </trkpt>
      <trkpt lat="43.66391" lon="1.37258">
        <ele>132</ele>
        <time>2023-12-20T16:07:50Z</time>
      </trkpt>
      <trkpt lat="43.66389" lon="1.37256">
        <ele>132</ele>
        <time>2023-12-20T16:07:51Z</time>
      </trkpt>
      <trkpt lat="43.66388" lon="1.37253">
        <ele>132</ele>
        <time>2023-12-20T16:07:52Z</time>
      </trkpt>
      <trkpt lat="43.66387" lon="1.37249">
        <ele>132</ele>
        <time>2023-12-20T16:07:53Z</time>
      </trkpt>
      <trkpt lat="43.66385" lon="1.37246">
        <ele>132</ele>
        <time>2023-12-20T16:07:54Z</time>
      </trkpt>
      <trkpt lat="43.66383" lon="1.37244">
        <ele>131</ele>
        <time>2023-12-20T16:07:55Z</time>
      </trkpt>
      <trkpt lat="43.66381" lon="1.37243">
        <ele>131</ele>
        <time>2023-12-20T16:07:56Z</time>
      </trkpt>
      <trkpt lat="43.66379" lon="1.37242">
        <ele>131</ele>
        <time>2023-12-20T16:07:57Z</time>
      </trkpt>
      <trkpt lat="43.66376" lon="1.3724">
        <ele>131</ele>
        <time>2023-12-20T16:07:58Z</time>
      </trkpt>
      <trkpt lat="43.66374" lon="1.37237">
        <ele>131</ele>
        <time>2023-12-20T16:07:59Z</time>
      </trkpt>
      <trkpt lat="43.66372" lon="1.37235">
        <ele>131</ele>
        <time>2023-12-20T16:08:00Z</time>
      </trkpt>
      <trkpt lat="43.66369" lon="1.37233">
        <ele>131</ele>
        <time>2023-12-20T16:08:01Z</time>
      </trkpt>
      <trkpt lat="43.66366" lon="1.37232">
        <ele>131</ele>
        <time>2023-12-20T16:08:02Z</time>
      </trkpt>
      <trkpt lat="43.66364" lon="1.37232">
        <ele>131</ele>
        <time>2023-12-20T16:08:03Z</time>
      </trkpt>
      <trkpt lat="43.66361" lon="1.37232">
        <ele>131</ele>
        <time>2023-12-20T16:08:04Z</time>
      </trkpt>
      <trkpt lat="43.66359" lon="1.37234">
        <ele>131</ele>
        <time>2023-12-20T16:08:05Z</time>
      </trkpt>
      <trkpt lat="43.66356" lon="1.37235">
        <ele>131</ele>
        <time>2023-12-20T16:08:06Z</time>
      </trkpt>
      <trkpt lat="43.66354" lon="1.37237">
        <ele>131</ele>
        <time>2023-12-20T16:08:07Z</time>
      </trkpt>
      <trkpt lat="43.66351" lon="1.37238">
        <ele>131</ele>
        <time>2023-12-20T16:08:08Z</time>
      </trkpt>
      <trkpt lat="43.66349" lon="1.3724">
        <ele>131</ele>
        <time>2023-12-20T16:08:09Z</time>
      </trkpt>
      <trkpt lat="43.66347" lon="1.37242">
        <ele>131</ele>
        <time>2023-12-20T16:08:10Z</time>
      </trkpt>
      <trkpt lat="43.66345" lon="1.37244">
        <ele>131</ele>
        <time>2023-12-20T16:08:11Z</time>
      </trkpt>
      <trkpt lat="43.66342" lon="1.37245">
        <ele>131</ele>
        <time>2023-12-20T16:08:12Z</time>
      </trkpt>
      <trkpt lat="43.6634" lon="1.37247">
        <ele>131</ele>
        <time>2023-12-20T16:08:13Z</time>
      </trkpt>
      <trkpt lat="43.66338" lon="1.37248">
        <ele>131</ele>
        <time>2023-12-20T16:08:14Z</time>
      </trkpt>
      <trkpt lat="43.66336" lon="1.3725">
        <ele>130</ele>
        <time>2023-12-20T16:08:15Z</time>
      </trkpt>
      <trkpt lat="43.66333" lon="1.37252">
        <ele>130</ele>
        <time>2023-12-20T16:08:16Z</time>
      </trkpt>
      <trkpt lat="43.66331" lon="1.37254">
        <ele>130</ele>
        <time>2023-12-20T16:08:17Z</time>
      </trkpt>
      <trkpt lat="43.66329" lon="1.37256">
        <ele>130</ele>
        <time>2023-12-20T16:08:18Z</time>
      </trkpt>
      <trkpt lat="43.66327" lon="1.37258">
        <ele>130</ele>
        <time>2023-12-20T16:08:19Z</time>
      </trkpt>
      <trkpt lat="43.66325" lon="1.3726">
        <ele>130</ele>
        <time>2023-12-20T16:08:20Z</time>
      </trkpt>
      <trkpt lat="43.66323" lon="1.37262">
        <ele>130</ele>
        <time>2023-12-20T16:08:21Z</time>
      </trkpt>
      <trkpt lat="43.66321" lon="1.37263">
        <ele>130</ele>
        <time>2023-12-20T16:08:22Z</time>
      </trkpt>
      <trkpt lat="43.66319" lon="1.37265">
        <ele>130</ele>
        <time>2023-12-20T16:08:23Z</time>
      </trkpt>
      <trkpt lat="43.66317" lon="1.37267">
        <ele>130</ele>
        <time>2023-12-20T16:08:24Z</time>
      </trkpt>
      <trkpt lat="43.66315" lon="1.37269">
        <ele>130</ele>
        <time>2023-12-20T16:08:25Z</time>
      </trkpt>
      <trkpt lat="43.66312" lon="1.37271">
        <ele>130</ele>
        <time>2023-12-20T16:08:26Z</time>
      </trkpt>
      <trkpt lat="43.6631" lon="1.37273">
        <ele>130</ele>
        <time>2023-12-20T16:08:27Z</time>
      </trkpt>
      <trkpt lat="43.66308" lon="1.37275">
        <ele>130</ele>
        <time>2023-12-20T16:08:28Z</time>
      </trkpt>
      <trkpt lat="43.66306" lon="1.37277">
        <ele>131</ele>
        <time>2023-12-20T16:08:29Z</time>
      </trkpt>
      <trkpt lat="43.66304" lon="1.37279">
        <ele>131</ele>
        <time>2023-12-20T16:08:30Z</time>
      </trkpt>
      <trkpt lat="43.66302" lon="1.3728">
        <ele>131</ele>
        <time>2023-12-20T16:08:31Z</time>
      </trkpt>
      <trkpt lat="43.663" lon="1.37282">
        <ele>131</ele>
        <time>2023-12-20T16:08:32Z</time>
      </trkpt>
      <trkpt lat="43.66297" lon="1.37284">
        <ele>131</ele>
        <time>2023-12-20T16:08:33Z</time>
      </trkpt>
      <trkpt lat="43.66295" lon="1.37285">
        <ele>131</ele>
        <time>2023-12-20T16:08:34Z</time>
      </trkpt>
      <trkpt lat="43.66293" lon="1.37286">
        <ele>131</ele>
        <time>2023-12-20T16:08:35Z</time>
      </trkpt>
      <trkpt lat="43.66291" lon="1.37288">
        <ele>131</ele>
        <time>2023-12-20T16:08:36Z</time>
      </trkpt>
      <trkpt lat="43.66289" lon="1.37289">
        <ele>131</ele>
        <time>2023-12-20T16:08:37Z</time>
      </trkpt>
      <trkpt lat="43.66286" lon="1.37291">
        <ele>131</ele>
        <time>2023-12-20T16:08:38Z</time>
      </trkpt>
      <trkpt lat="43.66284" lon="1.37292">
        <ele>131</ele>
        <time>2023-12-20T16:08:39Z</time>
      </trkpt>
      <trkpt lat="43.66281" lon="1.37294">
        <ele>131</ele>
        <time>2023-12-20T16:08:40Z</time>
      </trkpt>
      <trkpt lat="43.66279" lon="1.37296">
        <ele>131</ele>
        <time>2023-12-20T16:08:41Z</time>
      </trkpt>
      <trkpt lat="43.66277" lon="1.37297">
        <ele>131</ele>
        <time>2023-12-20T16:08:42Z</time>
      </trkpt>
      <trkpt lat="43.66274" lon="1.37299">
        <ele>131</ele>
        <time>2023-12-20T16:08:43Z</time>
      </trkpt>
      <trkpt lat="43.66272" lon="1.37301">
        <ele>131</ele>
        <time>2023-12-20T16:08:44Z</time>
      </trkpt>
      <trkpt lat="43.6627" lon="1.37302">
        <ele>131</ele>
        <time>2023-12-20T16:08:45Z</time>
      </trkpt>
      <trkpt lat="43.66267" lon="1.37303">
        <ele>131</ele>
        <time>2023-12-20T16:08:46Z</time>
      </trkpt>
      <trkpt lat="43.66265" lon="1.37305">
        <ele>131</ele>
        <time>2023-12-20T16:08:47Z</time>
      </trkpt>
      <trkpt lat="43.66263" lon="1.37306">
        <ele>131</ele>
        <time>2023-12-20T16:08:48Z</time>
      </trkpt>
      <trkpt lat="43.6626" lon="1.37307">
        <ele>131</ele>
        <time>2023-12-20T16:08:49Z</time>
      </trkpt>
      <trkpt lat="43.66258" lon="1.37309">
        <ele>131</ele>
        <time>2023-12-20T16:08:50Z</time>
      </trkpt>
      <trkpt lat="43.66256" lon="1.3731">
        <ele>131</ele>
        <time>2023-12-20T16:08:51Z</time>
      </trkpt>
      <trkpt lat="43.66254" lon="1.37312">
        <ele>131</ele>
        <time>2023-12-20T16:08:52Z</time>
      </trkpt>
      <trkpt lat="43.66251" lon="1.37313">
        <ele>131</ele>
        <time>2023-12-20T16:08:53Z</time>
      </trkpt>
      <trkpt lat="43.66249" lon="1.37314">
        <ele>131</ele>
        <time>2023-12-20T16:08:54Z</time>
      </trkpt>
      <trkpt lat="43.66246" lon="1.37315">
        <ele>131</ele>
        <time>2023-12-20T16:08:55Z</time>
      </trkpt>
      <trkpt lat="43.66245" lon="1.37316">
        <ele>131</ele>
        <time>2023-12-20T16:08:56Z</time>
      </trkpt>
      <trkpt lat="43.66242" lon="1.37317">
        <ele>130</ele>
        <time>2023-12-20T16:08:57Z</time>
      </trkpt>
      <trkpt lat="43.6624" lon="1.37319">
        <ele>131</ele>
        <time>2023-12-20T16:08:58Z</time>
      </trkpt>
      <trkpt lat="43.66238" lon="1.3732">
        <ele>131</ele>
        <time>2023-12-20T16:08:59Z</time>
      </trkpt>
      <trkpt lat="43.66236" lon="1.37322">
        <ele>131</ele>
        <time>2023-12-20T16:09:00Z</time>
      </trkpt>
      <trkpt lat="43.66234" lon="1.37323">
        <ele>131</ele>
        <time>2023-12-20T16:09:01Z</time>
      </trkpt>
      <trkpt lat="43.66231" lon="1.37325">
        <ele>131</ele>
        <time>2023-12-20T16:09:02Z</time>
      </trkpt>
      <trkpt lat="43.66229" lon="1.37326">
        <ele>131</ele>
        <time>2023-12-20T16:09:03Z</time>
      </trkpt>
      <trkpt lat="43.66227" lon="1.37328">
        <ele>131</ele>
        <time>2023-12-20T16:09:04Z</time>
      </trkpt>
      <trkpt lat="43.66225" lon="1.3733">
        <ele>131</ele>
        <time>2023-12-20T16:09:05Z</time>
      </trkpt>
      <trkpt lat="43.66222" lon="1.37331">
        <ele>131</ele>
        <time>2023-12-20T16:09:06Z</time>
      </trkpt>
      <trkpt lat="43.6622" lon="1.37332">
        <ele>131</ele>
        <time>2023-12-20T16:09:07Z</time>
      </trkpt>
      <trkpt lat="43.66218" lon="1.37334">
        <ele>131</ele>
        <time>2023-12-20T16:09:08Z</time>
      </trkpt>
      <trkpt lat="43.66215" lon="1.37336">
        <ele>131</ele>
        <time>2023-12-20T16:09:09Z</time>
      </trkpt>
      <trkpt lat="43.66213" lon="1.37337">
        <ele>131</ele>
        <time>2023-12-20T16:09:10Z</time>
      </trkpt>
      <trkpt lat="43.66211" lon="1.37339">
        <ele>131</ele>
        <time>2023-12-20T16:09:11Z</time>
      </trkpt>
      <trkpt lat="43.66208" lon="1.37341">
        <ele>131</ele>
        <time>2023-12-20T16:09:12Z</time>
      </trkpt>
      <trkpt lat="43.66206" lon="1.37342">
        <ele>131</ele>
        <time>2023-12-20T16:09:13Z</time>
      </trkpt>
      <trkpt lat="43.66203" lon="1.37344">
        <ele>131</ele>
        <time>2023-12-20T16:09:14Z</time>
      </trkpt>
      <trkpt lat="43.66201" lon="1.37346">
        <ele>131</ele>
        <time>2023-12-20T16:09:15Z</time>
      </trkpt>
      <trkpt lat="43.66199" lon="1.37347">
        <ele>131</ele>
        <time>2023-12-20T16:09:16Z</time>
      </trkpt>
      <trkpt lat="43.66196" lon="1.37349">
        <ele>131</ele>
        <time>2023-12-20T16:09:17Z</time>
      </trkpt>
      <trkpt lat="43.66194" lon="1.3735">
        <ele>131</ele>
        <time>2023-12-20T16:09:18Z</time>
      </trkpt>
      <trkpt lat="43.66192" lon="1.37352">
        <ele>131</ele>
        <time>2023-12-20T16:09:19Z</time>
      </trkpt>
      <trkpt lat="43.6619" lon="1.37354">
        <ele>131</ele>
        <time>2023-12-20T16:09:20Z</time>
      </trkpt>
      <trkpt lat="43.66187" lon="1.37355">
        <ele>131</ele>
        <time>2023-12-20T16:09:21Z</time>
      </trkpt>
      <trkpt lat="43.66185" lon="1.37357">
        <ele>131</ele>
        <time>2023-12-20T16:09:22Z</time>
      </trkpt>
      <trkpt lat="43.66183" lon="1.37359">
        <ele>131</ele>
        <time>2023-12-20T16:09:23Z</time>
      </trkpt>
      <trkpt lat="43.66181" lon="1.3736">
        <ele>131</ele>
        <time>2023-12-20T16:09:24Z</time>
      </trkpt>
      <trkpt lat="43.66178" lon="1.37362">
        <ele>131</ele>
        <time>2023-12-20T16:09:25Z</time>
      </trkpt>
      <trkpt lat="43.66176" lon="1.37363">
        <ele>131</ele>
        <time>2023-12-20T16:09:26Z</time>
      </trkpt>
      <trkpt lat="43.66174" lon="1.37365">
        <ele>131</ele>
        <time>2023-12-20T16:09:27Z</time>
      </trkpt>
      <trkpt lat="43.66172" lon="1.37366">
        <ele>131</ele>
        <time>2023-12-20T16:09:28Z</time>
      </trkpt>
      <trkpt lat="43.6617" lon="1.37368">
        <ele>131</ele>
        <time>2023-12-20T16:09:29Z</time>
      </trkpt>
      <trkpt lat="43.66168" lon="1.37369">
        <ele>131</ele>
        <time>2023-12-20T16:09:30Z</time>
      </trkpt>
      <trkpt lat="43.66165" lon="1.37371">
        <ele>131</ele>
        <time>2023-12-20T16:09:31Z</time>
      </trkpt>
      <trkpt lat="43.66163" lon="1.37372">
        <ele>131</ele>
        <time>2023-12-20T16:09:32Z</time>
      </trkpt>
      <trkpt lat="43.66161" lon="1.37374">
        <ele>131</ele>
        <time>2023-12-20T16:09:33Z</time>
      </trkpt>
      <trkpt lat="43.66159" lon="1.37375">
        <ele>131</ele>
        <time>2023-12-20T16:09:34Z</time>
      </trkpt>
      <trkpt lat="43.66157" lon="1.37377">
        <ele>131</ele>
        <time>2023-12-20T16:09:35Z</time>
      </trkpt>
      <trkpt lat="43.66154" lon="1.37378">
        <ele>131</ele>
        <time>2023-12-20T16:09:36Z</time>
      </trkpt>
      <trkpt lat="43.66152" lon="1.3738">
        <ele>131</ele>
        <time>2023-12-20T16:09:37Z</time>
      </trkpt>
      <trkpt lat="43.6615" lon="1.37381">
        <ele>131</ele>
        <time>2023-12-20T16:09:38Z</time>
      </trkpt>
      <trkpt lat="43.66147" lon="1.37381">
        <ele>131</ele>
        <time>2023-12-20T16:09:39Z</time>
      </trkpt>
      <trkpt lat="43.66145" lon="1.37382">
        <ele>131</ele>
        <time>2023-12-20T16:09:40Z</time>
      </trkpt>
      <trkpt lat="43.66143" lon="1.37383">
        <ele>132</ele>
        <time>2023-12-20T16:09:41Z</time>
      </trkpt>
      <trkpt lat="43.6614" lon="1.37384">
        <ele>132</ele>
        <time>2023-12-20T16:09:42Z</time>
      </trkpt>
      <trkpt lat="43.66138" lon="1.37385">
        <ele>131</ele>
        <time>2023-12-20T16:09:43Z</time>
      </trkpt>
      <trkpt lat="43.66136" lon="1.37387">
        <ele>132</ele>
        <time>2023-12-20T16:09:44Z</time>
      </trkpt>
      <trkpt lat="43.66133" lon="1.37388">
        <ele>132</ele>
        <time>2023-12-20T16:09:45Z</time>
      </trkpt>
      <trkpt lat="43.66131" lon="1.3739">
        <ele>132</ele>
        <time>2023-12-20T16:09:46Z</time>
      </trkpt>
      <trkpt lat="43.66128" lon="1.37391">
        <ele>132</ele>
        <time>2023-12-20T16:09:47Z</time>
      </trkpt>
      <trkpt lat="43.66126" lon="1.37392">
        <ele>132</ele>
        <time>2023-12-20T16:09:48Z</time>
      </trkpt>
      <trkpt lat="43.66124" lon="1.37394">
        <ele>132</ele>
        <time>2023-12-20T16:09:49Z</time>
      </trkpt>
      <trkpt lat="43.66121" lon="1.37395">
        <ele>132</ele>
        <time>2023-12-20T16:09:50Z</time>
      </trkpt>
      <trkpt lat="43.66119" lon="1.37397">
        <ele>132</ele>
        <time>2023-12-20T16:09:51Z</time>
      </trkpt>
      <trkpt lat="43.66117" lon="1.37398">
        <ele>132</ele>
        <time>2023-12-20T16:09:52Z</time>
      </trkpt>
      <trkpt lat="43.66115" lon="1.374">
        <ele>132</ele>
        <time>2023-12-20T16:09:53Z</time>
      </trkpt>
      <trkpt lat="43.66113" lon="1.37401">
        <ele>132</ele>
        <time>2023-12-20T16:09:54Z</time>
      </trkpt>
      <trkpt lat="43.66111" lon="1.37403">
        <ele>132</ele>
        <time>2023-12-20T16:09:55Z</time>
      </trkpt>
      <trkpt lat="43.66108" lon="1.37404">
        <ele>132</ele>
        <time>2023-12-20T16:09:56Z</time>
      </trkpt>
      <trkpt lat="43.66106" lon="1.37406">
        <ele>132</ele>
        <time>2023-12-20T16:09:57Z</time>
      </trkpt>
      <trkpt lat="43.66104" lon="1.37407">
        <ele>132</ele>
        <time>2023-12-20T16:09:58Z</time>
      </trkpt>
      <trkpt lat="43.66101" lon="1.37408">
        <ele>132</ele>
        <time>2023-12-20T16:09:59Z</time>
      </trkpt>
      <trkpt lat="43.66098" lon="1.37409">
        <ele>132</ele>
        <time>2023-12-20T16:10:00Z</time>
      </trkpt>
      <trkpt lat="43.66095" lon="1.3741">
        <ele>132</ele>
        <time>2023-12-20T16:10:01Z</time>
      </trkpt>
      <trkpt lat="43.66093" lon="1.37411">
        <ele>132</ele>
        <time>2023-12-20T16:10:02Z</time>
      </trkpt>
      <trkpt lat="43.66091" lon="1.37412">
        <ele>132</ele>
        <time>2023-12-20T16:10:03Z</time>
      </trkpt>
      <trkpt lat="43.66088" lon="1.37414">
        <ele>132</ele>
        <time>2023-12-20T16:10:04Z</time>
      </trkpt>
      <trkpt lat="43.66086" lon="1.37415">
        <ele>132</ele>
        <time>2023-12-20T16:10:05Z</time>
      </trkpt>
      <trkpt lat="43.66084" lon="1.37417">
        <ele>132</ele>
        <time>2023-12-20T16:10:06Z</time>
      </trkpt>
      <trkpt lat="43.66081" lon="1.37418">
        <ele>132</ele>
        <time>2023-12-20T16:10:07Z</time>
      </trkpt>
      <trkpt lat="43.66079" lon="1.37419">
        <ele>132</ele>
        <time>2023-12-20T16:10:08Z</time>
      </trkpt>
      <trkpt lat="43.66076" lon="1.3742">
        <ele>132</ele>
        <time>2023-12-20T16:10:09Z</time>
      </trkpt>
      <trkpt lat="43.66073" lon="1.37421">
        <ele>132</ele>
        <time>2023-12-20T16:10:10Z</time>
      </trkpt>
      <trkpt lat="43.66071" lon="1.37422">
        <ele>132</ele>
        <time>2023-12-20T16:10:11Z</time>
      </trkpt>
      <trkpt lat="43.66068" lon="1.37423">
        <ele>132</ele>
        <time>2023-12-20T16:10:12Z</time>
      </trkpt>
      <trkpt lat="43.66066" lon="1.37424">
        <ele>132</ele>
        <time>2023-12-20T16:10:13Z</time>
      </trkpt>
      <trkpt lat="43.66063" lon="1.37424">
        <ele>132</ele>
        <time>2023-12-20T16:10:14Z</time>
      </trkpt>
      <trkpt lat="43.6606" lon="1.37424">
        <ele>132</ele>
        <time>2023-12-20T16:10:15Z</time>
      </trkpt>
      <trkpt lat="43.66058" lon="1.37424">
        <ele>132</ele>
        <time>2023-12-20T16:10:16Z</time>
      </trkpt>
      <trkpt lat="43.66055" lon="1.37424">
        <ele>132</ele>
        <time>2023-12-20T16:10:17Z</time>
      </trkpt>
      <trkpt lat="43.66052" lon="1.37425">
        <ele>132</ele>
        <time>2023-12-20T16:10:18Z</time>
      </trkpt>
      <trkpt lat="43.6605" lon="1.37426">
        <ele>132</ele>
        <time>2023-12-20T16:10:19Z</time>
      </trkpt>
      <trkpt lat="43.66047" lon="1.37428">
        <ele>132</ele>
        <time>2023-12-20T16:10:20Z</time>
      </trkpt>
      <trkpt lat="43.66045" lon="1.3743">
        <ele>133</ele>
        <time>2023-12-20T16:10:21Z</time>
      </trkpt>
      <trkpt lat="43.66043" lon="1.37432">
        <ele>133</ele>
        <time>2023-12-20T16:10:22Z</time>
      </trkpt>
      <trkpt lat="43.66041" lon="1.37435">
        <ele>132</ele>
        <time>2023-12-20T16:10:23Z</time>
      </trkpt>
      <trkpt lat="43.66039" lon="1.37437">
        <ele>132</ele>
        <time>2023-12-20T16:10:24Z</time>
      </trkpt>
      <trkpt lat="43.66037" lon="1.3744">
        <ele>131</ele>
        <time>2023-12-20T16:10:25Z</time>
      </trkpt>
      <trkpt lat="43.66035" lon="1.37442">
        <ele>132</ele>
        <time>2023-12-20T16:10:26Z</time>
      </trkpt>
      <trkpt lat="43.66033" lon="1.37443">
        <ele>132</ele>
        <time>2023-12-20T16:10:27Z</time>
      </trkpt>
      <trkpt lat="43.66031" lon="1.37445">
        <ele>132</ele>
        <time>2023-12-20T16:10:28Z</time>
      </trkpt>
      <trkpt lat="43.66029" lon="1.37446">
        <ele>132</ele>
        <time>2023-12-20T16:10:29Z</time>
      </trkpt>
      <trkpt lat="43.66027" lon="1.37448">
        <ele>132</ele>
        <time>2023-12-20T16:10:30Z</time>
      </trkpt>
      <trkpt lat="43.66025" lon="1.37449">
        <ele>132</ele>
        <time>2023-12-20T16:10:31Z</time>
      </trkpt>
      <trkpt lat="43.66022" lon="1.37451">
        <ele>132</ele>
        <time>2023-12-20T16:10:32Z</time>
      </trkpt>
      <trkpt lat="43.6602" lon="1.37452">
        <ele>132</ele>
        <time>2023-12-20T16:10:33Z</time>
      </trkpt>
      <trkpt lat="43.66018" lon="1.37454">
        <ele>132</ele>
        <time>2023-12-20T16:10:34Z</time>
      </trkpt>
      <trkpt lat="43.66016" lon="1.37455">
        <ele>132</ele>
        <time>2023-12-20T16:10:35Z</time>
      </trkpt>
      <trkpt lat="43.66014" lon="1.37457">
        <ele>132</ele>
        <time>2023-12-20T16:10:36Z</time>
      </trkpt>
      <trkpt lat="43.66011" lon="1.37458">
        <ele>132</ele>
        <time>2023-12-20T16:10:37Z</time>
      </trkpt>
      <trkpt lat="43.66009" lon="1.3746">
        <ele>132</ele>
        <time>2023-12-20T16:10:38Z</time>
      </trkpt>
      <trkpt lat="43.66007" lon="1.37461">
        <ele>132</ele>
        <time>2023-12-20T16:10:39Z</time>
      </trkpt>
      <trkpt lat="43.66005" lon="1.37463">
        <ele>132</ele>
        <time>2023-12-20T16:10:40Z</time>
      </trkpt>
      <trkpt lat="43.66003" lon="1.37464">
        <ele>132</ele>
        <time>2023-12-20T16:10:41Z</time>
      </trkpt>
      <trkpt lat="43.66001" lon="1.37466">
        <ele>132</ele>
        <time>2023-12-20T16:10:42Z</time>
      </trkpt>
      <trkpt lat="43.65998" lon="1.37467">
        <ele>132</ele>
        <time>2023-12-20T16:10:43Z</time>
      </trkpt>
      <trkpt lat="43.65997" lon="1.37468">
        <ele>132</ele>
        <time>2023-12-20T16:10:44Z</time>
      </trkpt>
      <trkpt lat="43.65994" lon="1.3747">
        <ele>132</ele>
        <time>2023-12-20T16:10:45Z</time>
      </trkpt>
      <trkpt lat="43.65992" lon="1.37471">
        <ele>132</ele>
        <time>2023-12-20T16:10:46Z</time>
      </trkpt>
      <trkpt lat="43.6599" lon="1.37472">
        <ele>132</ele>
        <time>2023-12-20T16:10:47Z</time>
      </trkpt>
      <trkpt lat="43.65988" lon="1.37473">
        <ele>132</ele>
        <time>2023-12-20T16:10:48Z</time>
      </trkpt>
      <trkpt lat="43.65985" lon="1.37475">
        <ele>132</ele>
        <time>2023-12-20T16:10:49Z</time>
      </trkpt>
      <trkpt lat="43.65983" lon="1.37476">
        <ele>132</ele>
        <time>2023-12-20T16:10:50Z</time>
      </trkpt>
      <trkpt lat="43.65981" lon="1.37478">
        <ele>132</ele>
        <time>2023-12-20T16:10:51Z</time>
      </trkpt>
      <trkpt lat="43.6598" lon="1.3748">
        <ele>132</ele>
        <time>2023-12-20T16:10:52Z</time>
      </trkpt>
      <trkpt lat="43.65977" lon="1.37482">
        <ele>132</ele>
        <time>2023-12-20T16:10:53Z</time>
      </trkpt>
      <trkpt lat="43.65975" lon="1.37483">
        <ele>132</ele>
        <time>2023-12-20T16:10:54Z</time>
      </trkpt>
      <trkpt lat="43.65973" lon="1.37485">
        <ele>132</ele>
        <time>2023-12-20T16:10:55Z</time>
      </trkpt>
      <trkpt lat="43.6597" lon="1.37486">
        <ele>132</ele>
        <time>2023-12-20T16:10:56Z</time>
      </trkpt>
      <trkpt lat="43.65968" lon="1.37487">
        <ele>132</ele>
        <time>2023-12-20T16:10:57Z</time>
      </trkpt>
      <trkpt lat="43.65966" lon="1.37489">
        <ele>132</ele>
        <time>2023-12-20T16:10:58Z</time>
      </trkpt>
      <trkpt lat="43.65964" lon="1.37491">
        <ele>132</ele>
        <time>2023-12-20T16:10:59Z</time>
      </trkpt>
      <trkpt lat="43.65961" lon="1.37492">
        <ele>132</ele>
        <time>2023-12-20T16:11:00Z</time>
      </trkpt>
      <trkpt lat="43.65959" lon="1.37494">
        <ele>132</ele>
        <time>2023-12-20T16:11:01Z</time>
      </trkpt>
      <trkpt lat="43.65957" lon="1.37495">
        <ele>132</ele>
        <time>2023-12-20T16:11:02Z</time>
      </trkpt>
      <trkpt lat="43.65955" lon="1.37496">
        <ele>132</ele>
        <time>2023-12-20T16:11:03Z</time>
      </trkpt>
      <trkpt lat="43.65953" lon="1.37498">
        <ele>132</ele>
        <time>2023-12-20T16:11:04Z</time>
      </trkpt>
      <trkpt lat="43.6595" lon="1.37499">
        <ele>132</ele>
        <time>2023-12-20T16:11:05Z</time>
      </trkpt>
      <trkpt lat="43.65948" lon="1.37501">
        <ele>132</ele>
        <time>2023-12-20T16:11:06Z</time>
      </trkpt>
      <trkpt lat="43.65945" lon="1.37503">
        <ele>132</ele>
        <time>2023-12-20T16:11:07Z</time>
      </trkpt>
      <trkpt lat="43.65943" lon="1.37505">
        <ele>132</ele>
        <time>2023-12-20T16:11:08Z</time>
      </trkpt>
      <trkpt lat="43.65941" lon="1.37507">
        <ele>132</ele>
        <time>2023-12-20T16:11:09Z</time>
      </trkpt>
      <trkpt lat="43.65939" lon="1.37508">
        <ele>132</ele>
        <time>2023-12-20T16:11:10Z</time>
      </trkpt>
      <trkpt lat="43.65936" lon="1.3751">
        <ele>132</ele>
        <time>2023-12-20T16:11:11Z</time>
      </trkpt>
      <trkpt lat="43.65934" lon="1.37511">
        <ele>132</ele>
        <time>2023-12-20T16:11:12Z</time>
      </trkpt>
      <trkpt lat="43.65932" lon="1.37512">
        <ele>132</ele>
        <time>2023-12-20T16:11:13Z</time>
      </trkpt>
      <trkpt lat="43.65929" lon="1.37514">
        <ele>132</ele>
        <time>2023-12-20T16:11:14Z</time>
      </trkpt>
      <trkpt lat="43.65927" lon="1.37515">
        <ele>132</ele>
        <time>2023-12-20T16:11:15Z</time>
      </trkpt>
      <trkpt lat="43.65924" lon="1.37517">
        <ele>132</ele>
        <time>2023-12-20T16:11:16Z</time>
      </trkpt>
      <trkpt lat="43.65921" lon="1.37519">
        <ele>132</ele>
        <time>2023-12-20T16:11:17Z</time>
      </trkpt>
      <trkpt lat="43.65919" lon="1.37522">
        <ele>132</ele>
        <time>2023-12-20T16:11:18Z</time>
      </trkpt>
      <trkpt lat="43.65917" lon="1.37524">
        <ele>132</ele>
        <time>2023-12-20T16:11:19Z</time>
      </trkpt>
      <trkpt lat="43.65915" lon="1.37526">
        <ele>132</ele>
        <time>2023-12-20T16:11:20Z</time>
      </trkpt>
      <trkpt lat="43.65913" lon="1.37528">
        <ele>132</ele>
        <time>2023-12-20T16:11:21Z</time>
      </trkpt>
      <trkpt lat="43.65911" lon="1.3753">
        <ele>132</ele>
        <time>2023-12-20T16:11:22Z</time>
      </trkpt>
      <trkpt lat="43.65909" lon="1.37531">
        <ele>132</ele>
        <time>2023-12-20T16:11:23Z</time>
      </trkpt>
      <trkpt lat="43.65907" lon="1.37532">
        <ele>132</ele>
        <time>2023-12-20T16:11:24Z</time>
      </trkpt>
      <trkpt lat="43.65904" lon="1.37534">
        <ele>132</ele>
        <time>2023-12-20T16:11:25Z</time>
      </trkpt>
      <trkpt lat="43.65902" lon="1.37535">
        <ele>132</ele>
        <time>2023-12-20T16:11:26Z</time>
      </trkpt>
      <trkpt lat="43.659" lon="1.37536">
        <ele>132</ele>
        <time>2023-12-20T16:11:27Z</time>
      </trkpt>
      <trkpt lat="43.65898" lon="1.37537">
        <ele>132</ele>
        <time>2023-12-20T16:11:28Z</time>
      </trkpt>
      <trkpt lat="43.65896" lon="1.37538">
        <ele>132</ele>
        <time>2023-12-20T16:11:29Z</time>
      </trkpt>
      <trkpt lat="43.65895" lon="1.3754">
        <ele>132</ele>
        <time>2023-12-20T16:11:30Z</time>
      </trkpt>
      <trkpt lat="43.65893" lon="1.37541">
        <ele>132</ele>
        <time>2023-12-20T16:11:31Z</time>
      </trkpt>
      <trkpt lat="43.65891" lon="1.37542">
        <ele>132</ele>
        <time>2023-12-20T16:11:32Z</time>
      </trkpt>
      <trkpt lat="43.65888" lon="1.37543">
        <ele>132</ele>
        <time>2023-12-20T16:11:33Z</time>
      </trkpt>
      <trkpt lat="43.65886" lon="1.37545">
        <ele>132</ele>
        <time>2023-12-20T16:11:34Z</time>
      </trkpt>
      <trkpt lat="43.65883" lon="1.37547">
        <ele>132</ele>
        <time>2023-12-20T16:11:35Z</time>
      </trkpt>
      <trkpt lat="43.65881" lon="1.37548">
        <ele>132</ele>
        <time>2023-12-20T16:11:36Z</time>
      </trkpt>
      <trkpt lat="43.65878" lon="1.3755">
        <ele>132</ele>
        <time>2023-12-20T16:11:37Z</time>
      </trkpt>
      <trkpt lat="43.65876" lon="1.37552">
        <ele>132</ele>
        <time>2023-12-20T16:11:38Z</time>
      </trkpt>
      <trkpt lat="43.65873" lon="1.37554">
        <ele>132</ele>
        <time>2023-12-20T16:11:39Z</time>
      </trkpt>
      <trkpt lat="43.65871" lon="1.37555">
        <ele>132</ele>
        <time>2023-12-20T16:11:40Z</time>
      </trkpt>
      <trkpt lat="43.65868" lon="1.37557">
        <ele>132</ele>
        <time>2023-12-20T16:11:41Z</time>
      </trkpt>
      <trkpt lat="43.65866" lon="1.37559">
        <ele>132</ele>
        <time>2023-12-20T16:11:42Z</time>
      </trkpt>
      <trkpt lat="43.65863" lon="1.3756">
        <ele>132</ele>
        <time>2023-12-20T16:11:43Z</time>
      </trkpt>
      <trkpt lat="43.65861" lon="1.37562">
        <ele>132</ele>
        <time>2023-12-20T16:11:44Z</time>
      </trkpt>
      <trkpt lat="43.65858" lon="1.37564">
        <ele>132</ele>
        <time>2023-12-20T16:11:45Z</time>
      </trkpt>
      <trkpt lat="43.65855" lon="1.37566">
        <ele>132</ele>
        <time>2023-12-20T16:11:46Z</time>
      </trkpt>
      <trkpt lat="43.65853" lon="1.37566">
        <ele>132</ele>
        <time>2023-12-20T16:11:47Z</time>
      </trkpt>
      <trkpt lat="43.65851" lon="1.37568">
        <ele>132</ele>
        <time>2023-12-20T16:11:48Z</time>
      </trkpt>
      <trkpt lat="43.65848" lon="1.37569">
        <ele>132</ele>
        <time>2023-12-20T16:11:49Z</time>
      </trkpt>
      <trkpt lat="43.65846" lon="1.37571">
        <ele>132</ele>
        <time>2023-12-20T16:11:50Z</time>
      </trkpt>
      <trkpt lat="43.65843" lon="1.37572">
        <ele>132</ele>
        <time>2023-12-20T16:11:51Z</time>
      </trkpt>
      <trkpt lat="43.65841" lon="1.37574">
        <ele>132</ele>
        <time>2023-12-20T16:11:52Z</time>
      </trkpt>
      <trkpt lat="43.65839" lon="1.37575">
        <ele>132</ele>
        <time>2023-12-20T16:11:53Z</time>
      </trkpt>
      <trkpt lat="43.65836" lon="1.37577">
        <ele>132</ele>
        <time>2023-12-20T16:11:54Z</time>
      </trkpt>
      <trkpt lat="43.65834" lon="1.37579">
        <ele>132</ele>
        <time>2023-12-20T16:11:55Z</time>
      </trkpt>
      <trkpt lat="43.65832" lon="1.37581">
        <ele>132</ele>
        <time>2023-12-20T16:11:56Z</time>
      </trkpt>
      <trkpt lat="43.65829" lon="1.37582">
        <ele>132</ele>
        <time>2023-12-20T16:11:57Z</time>
      </trkpt>
      <trkpt lat="43.65827" lon="1.37584">
        <ele>132</ele>
        <time>2023-12-20T16:11:58Z</time>
      </trkpt>
      <trkpt lat="43.65824" lon="1.37586">
        <ele>132</ele>
        <time>2023-12-20T16:11:59Z</time>
      </trkpt>
      <trkpt lat="43.65821" lon="1.37587">
        <ele>132</ele>
        <time>2023-12-20T16:12:00Z</time>
      </trkpt>
      <trkpt lat="43.65819" lon="1.3759">
        <ele>132</ele>
        <time>2023-12-20T16:12:01Z</time>
      </trkpt>
      <trkpt lat="43.65817" lon="1.37592">
        <ele>132</ele>
        <time>2023-12-20T16:12:02Z</time>
      </trkpt>
      <trkpt lat="43.65815" lon="1.37595">
        <ele>132</ele>
        <time>2023-12-20T16:12:03Z</time>
      </trkpt>
      <trkpt lat="43.65813" lon="1.37598">
        <ele>132</ele>
        <time>2023-12-20T16:12:04Z</time>
      </trkpt>
      <trkpt lat="43.65811" lon="1.37602">
        <ele>132</ele>
        <time>2023-12-20T16:12:05Z</time>
      </trkpt>
      <trkpt lat="43.6581" lon="1.37605">
        <ele>132</ele>
        <time>2023-12-20T16:12:06Z</time>
      </trkpt>
      <trkpt lat="43.65808" lon="1.37608">
        <ele>132</ele>
        <time>2023-12-20T16:12:07Z</time>
      </trkpt>
      <trkpt lat="43.65806" lon="1.37612">
        <ele>132</ele>
        <time>2023-12-20T16:12:08Z</time>
      </trkpt>
      <trkpt lat="43.65804" lon="1.37614">
        <ele>132</ele>
        <time>2023-12-20T16:12:09Z</time>
      </trkpt>
      <trkpt lat="43.65801" lon="1.37616">
        <ele>132</ele>
        <time>2023-12-20T16:12:10Z</time>
      </trkpt>
      <trkpt lat="43.65799" lon="1.37618">
        <ele>132</ele>
        <time>2023-12-20T16:12:11Z</time>
      </trkpt>
      <trkpt lat="43.65797" lon="1.37619">
        <ele>133</ele>
        <time>2023-12-20T16:12:12Z</time>
      </trkpt>
      <trkpt lat="43.65795" lon="1.37621">
        <ele>133</ele>
        <time>2023-12-20T16:12:13Z</time>
      </trkpt>
      <trkpt lat="43.65792" lon="1.37623">
        <ele>133</ele>
        <time>2023-12-20T16:12:14Z</time>
      </trkpt>
      <trkpt lat="43.6579" lon="1.37624">
        <ele>133</ele>
        <time>2023-12-20T16:12:15Z</time>
      </trkpt>
      <trkpt lat="43.65788" lon="1.37626">
        <ele>132</ele>
        <time>2023-12-20T16:12:16Z</time>
      </trkpt>
      <trkpt lat="43.65785" lon="1.37627">
        <ele>132</ele>
        <time>2023-12-20T16:12:17Z</time>
      </trkpt>
      <trkpt lat="43.65783" lon="1.37629">
        <ele>132</ele>
        <time>2023-12-20T16:12:18Z</time>
      </trkpt>
      <trkpt lat="43.65781" lon="1.3763">
        <ele>132</ele>
        <time>2023-12-20T16:12:19Z</time>
      </trkpt>
      <trkpt lat="43.65778" lon="1.37631">
        <ele>132</ele>
        <time>2023-12-20T16:12:20Z</time>
      </trkpt>
      <trkpt lat="43.65776" lon="1.37633">
        <ele>133</ele>
        <time>2023-12-20T16:12:21Z</time>
      </trkpt>
      <trkpt lat="43.65774" lon="1.37634">
        <ele>133</ele>
        <time>2023-12-20T16:12:22Z</time>
      </trkpt>
      <trkpt lat="43.65771" lon="1.37636">
        <ele>133</ele>
        <time>2023-12-20T16:12:23Z</time>
      </trkpt>
      <trkpt lat="43.65769" lon="1.37638">
        <ele>133</ele>
        <time>2023-12-20T16:12:24Z</time>
      </trkpt>
      <trkpt lat="43.65767" lon="1.37639">
        <ele>133</ele>
        <time>2023-12-20T16:12:25Z</time>
      </trkpt>
      <trkpt lat="43.65765" lon="1.37641">
        <ele>133</ele>
        <time>2023-12-20T16:12:26Z</time>
      </trkpt>
      <trkpt lat="43.65762" lon="1.37643">
        <ele>133</ele>
        <time>2023-12-20T16:12:27Z</time>
      </trkpt>
      <trkpt lat="43.6576" lon="1.37645">
        <ele>133</ele>
        <time>2023-12-20T16:12:28Z</time>
      </trkpt>
      <trkpt lat="43.65758" lon="1.37646">
        <ele>133</ele>
        <time>2023-12-20T16:12:29Z</time>
      </trkpt>
      <trkpt lat="43.65755" lon="1.37648">
        <ele>133</ele>
        <time>2023-12-20T16:12:30Z</time>
      </trkpt>
      <trkpt lat="43.65753" lon="1.37649">
        <ele>133</ele>
        <time>2023-12-20T16:12:31Z</time>
      </trkpt>
      <trkpt lat="43.6575" lon="1.37651">
        <ele>133</ele>
        <time>2023-12-20T16:12:32Z</time>
      </trkpt>
      <trkpt lat="43.65748" lon="1.37652">
        <ele>133</ele>
        <time>2023-12-20T16:12:33Z</time>
      </trkpt>
      <trkpt lat="43.65746" lon="1.37654">
        <ele>133</ele>
        <time>2023-12-20T16:12:34Z</time>
      </trkpt>
      <trkpt lat="43.65743" lon="1.37656">
        <ele>133</ele>
        <time>2023-12-20T16:12:35Z</time>
      </trkpt>
      <trkpt lat="43.65741" lon="1.37657">
        <ele>133</ele>
        <time>2023-12-20T16:12:36Z</time>
      </trkpt>
      <trkpt lat="43.65739" lon="1.37659">
        <ele>133</ele>
        <time>2023-12-20T16:12:37Z</time>
      </trkpt>
      <trkpt lat="43.65736" lon="1.3766">
        <ele>133</ele>
        <time>2023-12-20T16:12:38Z</time>
      </trkpt>
      <trkpt lat="43.65734" lon="1.37662">
        <ele>133</ele>
        <time>2023-12-20T16:12:39Z</time>
      </trkpt>
      <trkpt lat="43.65732" lon="1.37663">
        <ele>133</ele>
        <time>2023-12-20T16:12:40Z</time>
      </trkpt>
      <trkpt lat="43.6573" lon="1.37665">
        <ele>133</ele>
        <time>2023-12-20T16:12:41Z</time>
      </trkpt>
      <trkpt lat="43.65728" lon="1.37666">
        <ele>133</ele>
        <time>2023-12-20T16:12:42Z</time>
      </trkpt>
      <trkpt lat="43.65725" lon="1.37668">
        <ele>133</ele>
        <time>2023-12-20T16:12:43Z</time>
      </trkpt>
      <trkpt lat="43.65723" lon="1.3767">
        <ele>133</ele>
        <time>2023-12-20T16:12:44Z</time>
      </trkpt>
      <trkpt lat="43.65721" lon="1.37671">
        <ele>133</ele>
        <time>2023-12-20T16:12:45Z</time>
      </trkpt>
      <trkpt lat="43.65718" lon="1.37673">
        <ele>133</ele>
        <time>2023-12-20T16:12:46Z</time>
      </trkpt>
      <trkpt lat="43.65716" lon="1.37674">
        <ele>133</ele>
        <time>2023-12-20T16:12:47Z</time>
      </trkpt>
      <trkpt lat="43.65714" lon="1.37676">
        <ele>133</ele>
        <time>2023-12-20T16:12:48Z</time>
      </trkpt>
      <trkpt lat="43.65711" lon="1.37678">
        <ele>133</ele>
        <time>2023-12-20T16:12:49Z</time>
      </trkpt>
      <trkpt lat="43.65709" lon="1.37679">
        <ele>133</ele>
        <time>2023-12-20T16:12:50Z</time>
      </trkpt>
      <trkpt lat="43.65707" lon="1.37681">
        <ele>133</ele>
        <time>2023-12-20T16:12:51Z</time>
      </trkpt>
      <trkpt lat="43.65705" lon="1.37682">
        <ele>133</ele>
        <time>2023-12-20T16:12:52Z</time>
      </trkpt>
      <trkpt lat="43.65703" lon="1.37684">
        <ele>133</ele>
        <time>2023-12-20T16:12:53Z</time>
      </trkpt>
      <trkpt lat="43.657" lon="1.37685">
        <ele>133</ele>
        <time>2023-12-20T16:12:54Z</time>
      </trkpt>
      <trkpt lat="43.65698" lon="1.37687">
        <ele>133</ele>
        <time>2023-12-20T16:12:55Z</time>
      </trkpt>
      <trkpt lat="43.65696" lon="1.37689">
        <ele>133</ele>
        <time>2023-12-20T16:12:56Z</time>
      </trkpt>
      <trkpt lat="43.65694" lon="1.37691">
        <ele>133</ele>
        <time>2023-12-20T16:12:57Z</time>
      </trkpt>
      <trkpt lat="43.65692" lon="1.37692">
        <ele>133</ele>
        <time>2023-12-20T16:12:58Z</time>
      </trkpt>
      <trkpt lat="43.65689" lon="1.37694">
        <ele>133</ele>
        <time>2023-12-20T16:12:59Z</time>
      </trkpt>
      <trkpt lat="43.65687" lon="1.37695">
        <ele>133</ele>
        <time>2023-12-20T16:13:00Z</time>
      </trkpt>
      <trkpt lat="43.65685" lon="1.37697">
        <ele>133</ele>
        <time>2023-12-20T16:13:01Z</time>
      </trkpt>
      <trkpt lat="43.65682" lon="1.37698">
        <ele>133</ele>
        <time>2023-12-20T16:13:02Z</time>
      </trkpt>
      <trkpt lat="43.6568" lon="1.37699">
        <ele>133</ele>
        <time>2023-12-20T16:13:03Z</time>
      </trkpt>
      <trkpt lat="43.65678" lon="1.37701">
        <ele>133</ele>
        <time>2023-12-20T16:13:04Z</time>
      </trkpt>
      <trkpt lat="43.65676" lon="1.37702">
        <ele>133</ele>
        <time>2023-12-20T16:13:05Z</time>
      </trkpt>
      <trkpt lat="43.65673" lon="1.37704">
        <ele>133</ele>
        <time>2023-12-20T16:13:06Z</time>
      </trkpt>
      <trkpt lat="43.65671" lon="1.37706">
        <ele>133</ele>
        <time>2023-12-20T16:13:07Z</time>
      </trkpt>
      <trkpt lat="43.65668" lon="1.37707">
        <ele>133</ele>
        <time>2023-12-20T16:13:08Z</time>
      </trkpt>
      <trkpt lat="43.65666" lon="1.37709">
        <ele>133</ele>
        <time>2023-12-20T16:13:09Z</time>
      </trkpt>
      <trkpt lat="43.65664" lon="1.3771">
        <ele>133</ele>
        <time>2023-12-20T16:13:10Z</time>
      </trkpt>
      <trkpt lat="43.65662" lon="1.37712">
        <ele>133</ele>
        <time>2023-12-20T16:13:11Z</time>
      </trkpt>
      <trkpt lat="43.6566" lon="1.37713">
        <ele>133</ele>
        <time>2023-12-20T16:13:12Z</time>
      </trkpt>
      <trkpt lat="43.65657" lon="1.37715">
        <ele>133</ele>
        <time>2023-12-20T16:13:13Z</time>
      </trkpt>
      <trkpt lat="43.65655" lon="1.37717">
        <ele>133</ele>
        <time>2023-12-20T16:13:14Z</time>
      </trkpt>
      <trkpt lat="43.65653" lon="1.37719">
        <ele>133</ele>
        <time>2023-12-20T16:13:15Z</time>
      </trkpt>
      <trkpt lat="43.6565" lon="1.3772">
        <ele>133</ele>
        <time>2023-12-20T16:13:16Z</time>
      </trkpt>
      <trkpt lat="43.65648" lon="1.37722">
        <ele>133</ele>
        <time>2023-12-20T16:13:17Z</time>
      </trkpt>
      <trkpt lat="43.65646" lon="1.37723">
        <ele>133</ele>
        <time>2023-12-20T16:13:18Z</time>
      </trkpt>
      <trkpt lat="43.65643" lon="1.37725">
        <ele>133</ele>
        <time>2023-12-20T16:13:19Z</time>
      </trkpt>
      <trkpt lat="43.65641" lon="1.37727">
        <ele>133</ele>
        <time>2023-12-20T16:13:20Z</time>
      </trkpt>
      <trkpt lat="43.65639" lon="1.37728">
        <ele>133</ele>
        <time>2023-12-20T16:13:21Z</time>
      </trkpt>
      <trkpt lat="43.65636" lon="1.3773">
        <ele>133</ele>
        <time>2023-12-20T16:13:22Z</time>
      </trkpt>
      <trkpt lat="43.65634" lon="1.37732">
        <ele>133</ele>
        <time>2023-12-20T16:13:23Z</time>
      </trkpt>
      <trkpt lat="43.65632" lon="1.37733">
        <ele>133</ele>
        <time>2023-12-20T16:13:24Z</time>
      </trkpt>
      <trkpt lat="43.65629" lon="1.37735">
        <ele>133</ele>
        <time>2023-12-20T16:13:25Z</time>
      </trkpt>
      <trkpt lat="43.65627" lon="1.37737">
        <ele>133</ele>
        <time>2023-12-20T16:13:26Z</time>
      </trkpt>
      <trkpt lat="43.65625" lon="1.37739">
        <ele>133</ele>
        <time>2023-12-20T16:13:27Z</time>
      </trkpt>
      <trkpt lat="43.65623" lon="1.37742">
        <ele>133</ele>
        <time>2023-12-20T16:13:28Z</time>
      </trkpt>
      <trkpt lat="43.65621" lon="1.37744">
        <ele>133</ele>
        <time>2023-12-20T16:13:29Z</time>
      </trkpt>
      <trkpt lat="43.65619" lon="1.37746">
        <ele>133</ele>
        <time>2023-12-20T16:13:30Z</time>
      </trkpt>
      <trkpt lat="43.65616" lon="1.37748">
        <ele>133</ele>
        <time>2023-12-20T16:13:31Z</time>
      </trkpt>
      <trkpt lat="43.65614" lon="1.3775">
        <ele>133</ele>
        <time>2023-12-20T16:13:32Z</time>
      </trkpt>
      <trkpt lat="43.65612" lon="1.37751">
        <ele>133</ele>
        <time>2023-12-20T16:13:33Z</time>
      </trkpt>
      <trkpt lat="43.6561" lon="1.37753">
        <ele>133</ele>
        <time>2023-12-20T16:13:34Z</time>
      </trkpt>
      <trkpt lat="43.65609" lon="1.37755">
        <ele>133</ele>
        <time>2023-12-20T16:13:35Z</time>
      </trkpt>
      <trkpt lat="43.65609" lon="1.37755">
        <ele>133</ele>
        <time>2023-12-20T16:13:36Z</time>
      </trkpt>
      <trkpt lat="43.65609" lon="1.37759">
        <ele>133</ele>
        <time>2023-12-20T16:13:37Z</time>
      </trkpt>
      <trkpt lat="43.65609" lon="1.37763">
        <ele>133</ele>
        <time>2023-12-20T16:13:38Z</time>
      </trkpt>
      <trkpt lat="43.65609" lon="1.37767">
        <ele>133</ele>
        <time>2023-12-20T16:13:39Z</time>
      </trkpt>
      <trkpt lat="43.65609" lon="1.37771">
        <ele>133</ele>
        <time>2023-12-20T16:13:40Z</time>
      </trkpt>
      <trkpt lat="43.65608" lon="1.37775">
        <ele>133</ele>
        <time>2023-12-20T16:13:41Z</time>
      </trkpt>
      <trkpt lat="43.65607" lon="1.37777">
        <ele>133</ele>
        <time>2023-12-20T16:13:42Z</time>
      </trkpt>
      <trkpt lat="43.65606" lon="1.3778">
        <ele>133</ele>
        <time>2023-12-20T16:13:43Z</time>
      </trkpt>
      <trkpt lat="43.65604" lon="1.37783">
        <ele>133</ele>
        <time>2023-12-20T16:13:44Z</time>
      </trkpt>
      <trkpt lat="43.65602" lon="1.37785">
        <ele>133</ele>
        <time>2023-12-20T16:13:45Z</time>
      </trkpt>
      <trkpt lat="43.65601" lon="1.37788">
        <ele>133</ele>
        <time>2023-12-20T16:13:46Z</time>
      </trkpt>
      <trkpt lat="43.65599" lon="1.37791">
        <ele>133</ele>
        <time>2023-12-20T16:13:47Z</time>
      </trkpt>
      <trkpt lat="43.65598" lon="1.37794">
        <ele>133</ele>
        <time>2023-12-20T16:13:48Z</time>
      </trkpt>
      <trkpt lat="43.65597" lon="1.37796">
        <ele>133</ele>
        <time>2023-12-20T16:13:49Z</time>
      </trkpt>
      <trkpt lat="43.65596" lon="1.37799">
        <ele>133</ele>
        <time>2023-12-20T16:13:50Z</time>
      </trkpt>
      <trkpt lat="43.65595" lon="1.37803">
        <ele>133</ele>
        <time>2023-12-20T16:13:51Z</time>
      </trkpt>
      <trkpt lat="43.65594" lon="1.37806">
        <ele>133</ele>
        <time>2023-12-20T16:13:52Z</time>
      </trkpt>
      <trkpt lat="43.65592" lon="1.37809">
        <ele>133</ele>
        <time>2023-12-20T16:13:53Z</time>
      </trkpt>
      <trkpt lat="43.65591" lon="1.37812">
        <ele>133</ele>
        <time>2023-12-20T16:13:54Z</time>
      </trkpt>
      <trkpt lat="43.6559" lon="1.37815">
        <ele>133</ele>
        <time>2023-12-20T16:13:55Z</time>
      </trkpt>
      <trkpt lat="43.65591" lon="1.37819">
        <ele>133</ele>
        <time>2023-12-20T16:13:56Z</time>
      </trkpt>
      <trkpt lat="43.65592" lon="1.37823">
        <ele>133</ele>
        <time>2023-12-20T16:13:57Z</time>
      </trkpt>
      <trkpt lat="43.65593" lon="1.37827">
        <ele>133</ele>
        <time>2023-12-20T16:13:58Z</time>
      </trkpt>
      <trkpt lat="43.65595" lon="1.3783">
        <ele>133</ele>
        <time>2023-12-20T16:13:59Z</time>
      </trkpt>
      <trkpt lat="43.65597" lon="1.37833">
        <ele>133</ele>
        <time>2023-12-20T16:14:00Z</time>
      </trkpt>
      <trkpt lat="43.65599" lon="1.37836">
        <ele>133</ele>
        <time>2023-12-20T16:14:01Z</time>
      </trkpt>
      <trkpt lat="43.65601" lon="1.37839">
        <ele>133</ele>
        <time>2023-12-20T16:14:02Z</time>
      </trkpt>
      <trkpt lat="43.65603" lon="1.37842">
        <ele>133</ele>
        <time>2023-12-20T16:14:03Z</time>
      </trkpt>
      <trkpt lat="43.65605" lon="1.37845">
        <ele>133</ele>
        <time>2023-12-20T16:14:04Z</time>
      </trkpt>
      <trkpt lat="43.65607" lon="1.37848">
        <ele>133</ele>
        <time>2023-12-20T16:14:05Z</time>
      </trkpt>
      <trkpt lat="43.65608" lon="1.37851">
        <ele>133</ele>
        <time>2023-12-20T16:14:06Z</time>
      </trkpt>
      <trkpt lat="43.6561" lon="1.37854">
        <ele>133</ele>
        <time>2023-12-20T16:14:07Z</time>
      </trkpt>
      <trkpt lat="43.65612" lon="1.37856">
        <ele>133</ele>
        <time>2023-12-20T16:14:08Z</time>
      </trkpt>
      <trkpt lat="43.65613" lon="1.37859">
        <ele>134</ele>
        <time>2023-12-20T16:14:09Z</time>
      </trkpt>
      <trkpt lat="43.65615" lon="1.37862">
        <ele>134</ele>
        <time>2023-12-20T16:14:10Z</time>
      </trkpt>
      <trkpt lat="43.65617" lon="1.37865">
        <ele>134</ele>
        <time>2023-12-20T16:14:11Z</time>
      </trkpt>
      <trkpt lat="43.65618" lon="1.37868">
        <ele>133</ele>
        <time>2023-12-20T16:14:12Z</time>
      </trkpt>
      <trkpt lat="43.65619" lon="1.37872">
        <ele>133</ele>
        <time>2023-12-20T16:14:13Z</time>
      </trkpt>
      <trkpt lat="43.65619" lon="1.37875">
        <ele>133</ele>
        <time>2023-12-20T16:14:14Z</time>
      </trkpt>
      <trkpt lat="43.6562" lon="1.37878">
        <ele>133</ele>
        <time>2023-12-20T16:14:15Z</time>
      </trkpt>
      <trkpt lat="43.65621" lon="1.37882">
        <ele>133</ele>
        <time>2023-12-20T16:14:16Z</time>
      </trkpt>
      <trkpt lat="43.65623" lon="1.37885">
        <ele>133</ele>
        <time>2023-12-20T16:14:17Z</time>
      </trkpt>
      <trkpt lat="43.65625" lon="1.37888">
        <ele>133</ele>
        <time>2023-12-20T16:14:18Z</time>
      </trkpt>
      <trkpt lat="43.65626" lon="1.37891">
        <ele>133</ele>
        <time>2023-12-20T16:14:19Z</time>
      </trkpt>
      <trkpt lat="43.65627" lon="1.37894">
        <ele>133</ele>
        <time>2023-12-20T16:14:20Z</time>
      </trkpt>
      <trkpt lat="43.65628" lon="1.37897">
        <ele>133</ele>
        <time>2023-12-20T16:14:21Z</time>
      </trkpt>
      <trkpt lat="43.65629" lon="1.379">
        <ele>133</ele>
        <time>2023-12-20T16:14:22Z</time>
      </trkpt>
      <trkpt lat="43.6563" lon="1.37903">
        <ele>133</ele>
        <time>2023-12-20T16:14:23Z</time>
      </trkpt>
      <trkpt lat="43.65632" lon="1.37905">
        <ele>133</ele>
        <time>2023-12-20T16:14:24Z</time>
      </trkpt>
      <trkpt lat="43.65634" lon="1.37909">
        <ele>133</ele>
        <time>2023-12-20T16:14:25Z</time>
      </trkpt>
      <trkpt lat="43.65635" lon="1.37912">
        <ele>133</ele>
        <time>2023-12-20T16:14:26Z</time>
      </trkpt>
      <trkpt lat="43.65636" lon="1.37915">
        <ele>133</ele>
        <time>2023-12-20T16:14:27Z</time>
      </trkpt>
      <trkpt lat="43.65637" lon="1.37918">
        <ele>133</ele>
        <time>2023-12-20T16:14:28Z</time>
      </trkpt>
      <trkpt lat="43.65638" lon="1.37922">
        <ele>133</ele>
        <time>2023-12-20T16:14:29Z</time>
      </trkpt>
      <trkpt lat="43.65638" lon="1.37925">
        <ele>133</ele>
        <time>2023-12-20T16:14:30Z</time>
      </trkpt>
      <trkpt lat="43.65639" lon="1.37929">
        <ele>133</ele>
        <time>2023-12-20T16:14:31Z</time>
      </trkpt>
      <trkpt lat="43.65641" lon="1.37932">
        <ele>133</ele>
        <time>2023-12-20T16:14:32Z</time>
      </trkpt>
      <trkpt lat="43.65642" lon="1.37935">
        <ele>133</ele>
        <time>2023-12-20T16:14:33Z</time>
      </trkpt>
      <trkpt lat="43.65643" lon="1.37938">
        <ele>133</ele>
        <time>2023-12-20T16:14:34Z</time>
      </trkpt>
      <trkpt lat="43.65644" lon="1.37941">
        <ele>133</ele>
        <time>2023-12-20T16:14:35Z</time>
      </trkpt>
      <trkpt lat="43.65646" lon="1.37944">
        <ele>133</ele>
        <time>2023-12-20T16:14:36Z</time>
      </trkpt>
      <trkpt lat="43.65647" lon="1.37947">
        <ele>133</ele>
        <time>2023-12-20T16:14:37Z</time>
      </trkpt>
      <trkpt lat="43.65648" lon="1.3795">
        <ele>133</ele>
        <time>2023-12-20T16:14:38Z</time>
      </trkpt>
      <trkpt lat="43.65649" lon="1.37954">
        <ele>133</ele>
        <time>2023-12-20T16:14:39Z</time>
      </trkpt>
      <trkpt lat="43.65649" lon="1.37957">
        <ele>133</ele>
        <time>2023-12-20T16:14:40Z</time>
      </trkpt>
      <trkpt lat="43.6565" lon="1.3796">
        <ele>133</ele>
        <time>2023-12-20T16:14:41Z</time>
      </trkpt>
      <trkpt lat="43.65651" lon="1.37964">
        <ele>133</ele>
        <time>2023-12-20T16:14:42Z</time>
      </trkpt>
      <trkpt lat="43.65652" lon="1.37967">
        <ele>133</ele>
        <time>2023-12-20T16:14:43Z</time>
      </trkpt>
      <trkpt lat="43.65653" lon="1.37971">
        <ele>133</ele>
        <time>2023-12-20T16:14:44Z</time>
      </trkpt>
      <trkpt lat="43.65654" lon="1.37974">
        <ele>133</ele>
        <time>2023-12-20T16:14:45Z</time>
      </trkpt>
      <trkpt lat="43.65655" lon="1.37978">
        <ele>133</ele>
        <time>2023-12-20T16:14:46Z</time>
      </trkpt>
      <trkpt lat="43.65656" lon="1.37981">
        <ele>133</ele>
        <time>2023-12-20T16:14:47Z</time>
      </trkpt>
      <trkpt lat="43.65657" lon="1.37984">
        <ele>133</ele>
        <time>2023-12-20T16:14:48Z</time>
      </trkpt>
      <trkpt lat="43.65658" lon="1.37987">
        <ele>133</ele>
        <time>2023-12-20T16:14:49Z</time>
      </trkpt>
      <trkpt lat="43.65659" lon="1.3799">
        <ele>133</ele>
        <time>2023-12-20T16:14:50Z</time>
      </trkpt>
      <trkpt lat="43.6566" lon="1.37994">
        <ele>133</ele>
        <time>2023-12-20T16:14:51Z</time>
      </trkpt>
      <trkpt lat="43.65661" lon="1.37997">
        <ele>133</ele>
        <time>2023-12-20T16:14:52Z</time>
      </trkpt>
      <trkpt lat="43.65662" lon="1.38">
        <ele>133</ele>
        <time>2023-12-20T16:14:53Z</time>
      </trkpt>
      <trkpt lat="43.65663" lon="1.38003">
        <ele>133</ele>
        <time>2023-12-20T16:14:54Z</time>
      </trkpt>
      <trkpt lat="43.65664" lon="1.38006">
        <ele>133</ele>
        <time>2023-12-20T16:14:55Z</time>
      </trkpt>
      <trkpt lat="43.65665" lon="1.3801">
        <ele>133</ele>
        <time>2023-12-20T16:14:56Z</time>
      </trkpt>
      <trkpt lat="43.65666" lon="1.38013">
        <ele>134</ele>
        <time>2023-12-20T16:14:57Z</time>
      </trkpt>
      <trkpt lat="43.65667" lon="1.38016">
        <ele>134</ele>
        <time>2023-12-20T16:14:58Z</time>
      </trkpt>
      <trkpt lat="43.65668" lon="1.3802">
        <ele>134</ele>
        <time>2023-12-20T16:14:59Z</time>
      </trkpt>
      <trkpt lat="43.65668" lon="1.38023">
        <ele>134</ele>
        <time>2023-12-20T16:15:00Z</time>
      </trkpt>
      <trkpt lat="43.65669" lon="1.38026">
        <ele>134</ele>
        <time>2023-12-20T16:15:01Z</time>
      </trkpt>
      <trkpt lat="43.6567" lon="1.3803">
        <ele>134</ele>
        <time>2023-12-20T16:15:02Z</time>
      </trkpt>
      <trkpt lat="43.65671" lon="1.38033">
        <ele>134</ele>
        <time>2023-12-20T16:15:03Z</time>
      </trkpt>
      <trkpt lat="43.65673" lon="1.38036">
        <ele>134</ele>
        <time>2023-12-20T16:15:04Z</time>
      </trkpt>
      <trkpt lat="43.65674" lon="1.38039">
        <ele>134</ele>
        <time>2023-12-20T16:15:05Z</time>
      </trkpt>
      <trkpt lat="43.65675" lon="1.38042">
        <ele>134</ele>
        <time>2023-12-20T16:15:06Z</time>
      </trkpt>
      <trkpt lat="43.65676" lon="1.38046">
        <ele>134</ele>
        <time>2023-12-20T16:15:07Z</time>
      </trkpt>
      <trkpt lat="43.65677" lon="1.38049">
        <ele>134</ele>
        <time>2023-12-20T16:15:08Z</time>
      </trkpt>
      <trkpt lat="43.65678" lon="1.38052">
        <ele>134</ele>
        <time>2023-12-20T16:15:09Z</time>
      </trkpt>
      <trkpt lat="43.6568" lon="1.38055">
        <ele>134</ele>
        <time>2023-12-20T16:15:10Z</time>
      </trkpt>
      <trkpt lat="43.65682" lon="1.38058">
        <ele>134</ele>
        <time>2023-12-20T16:15:11Z</time>
      </trkpt>
      <trkpt lat="43.65684" lon="1.38061">
        <ele>134</ele>
        <time>2023-12-20T16:15:12Z</time>
      </trkpt>
      <trkpt lat="43.65686" lon="1.38064">
        <ele>134</ele>
        <time>2023-12-20T16:15:13Z</time>
      </trkpt>
      <trkpt lat="43.65687" lon="1.38067">
        <ele>134</ele>
        <time>2023-12-20T16:15:14Z</time>
      </trkpt>
      <trkpt lat="43.65688" lon="1.3807">
        <ele>134</ele>
        <time>2023-12-20T16:15:15Z</time>
      </trkpt>
      <trkpt lat="43.65689" lon="1.38073">
        <ele>134</ele>
        <time>2023-12-20T16:15:16Z</time>
      </trkpt>
      <trkpt lat="43.6569" lon="1.38077">
        <ele>134</ele>
        <time>2023-12-20T16:15:17Z</time>
      </trkpt>
      <trkpt lat="43.65691" lon="1.38079">
        <ele>134</ele>
        <time>2023-12-20T16:15:18Z</time>
      </trkpt>
      <trkpt lat="43.65692" lon="1.38082">
        <ele>134</ele>
        <time>2023-12-20T16:15:19Z</time>
      </trkpt>
      <trkpt lat="43.65693" lon="1.38086">
        <ele>134</ele>
        <time>2023-12-20T16:15:20Z</time>
      </trkpt>
      <trkpt lat="43.65694" lon="1.38089">
        <ele>134</ele>
        <time>2023-12-20T16:15:21Z</time>
      </trkpt>
      <trkpt lat="43.65695" lon="1.38092">
        <ele>135</ele>
        <time>2023-12-20T16:15:22Z</time>
      </trkpt>
      <trkpt lat="43.65696" lon="1.38096">
        <ele>135</ele>
        <time>2023-12-20T16:15:23Z</time>
      </trkpt>
      <trkpt lat="43.65697" lon="1.38099">
        <ele>135</ele>
        <time>2023-12-20T16:15:24Z</time>
      </trkpt>
      <trkpt lat="43.65698" lon="1.38102">
        <ele>135</ele>
        <time>2023-12-20T16:15:25Z</time>
      </trkpt>
      <trkpt lat="43.65699" lon="1.38106">
        <ele>135</ele>
        <time>2023-12-20T16:15:26Z</time>
      </trkpt>
      <trkpt lat="43.65699" lon="1.38109">
        <ele>135</ele>
        <time>2023-12-20T16:15:27Z</time>
      </trkpt>
      <trkpt lat="43.657" lon="1.38112">
        <ele>135</ele>
        <time>2023-12-20T16:15:28Z</time>
      </trkpt>
      <trkpt lat="43.65701" lon="1.38116">
        <ele>135</ele>
        <time>2023-12-20T16:15:29Z</time>
      </trkpt>
      <trkpt lat="43.65701" lon="1.38119">
        <ele>135</ele>
        <time>2023-12-20T16:15:30Z</time>
      </trkpt>
      <trkpt lat="43.65702" lon="1.38123">
        <ele>134</ele>
        <time>2023-12-20T16:15:31Z</time>
      </trkpt>
      <trkpt lat="43.65703" lon="1.38126">
        <ele>134</ele>
        <time>2023-12-20T16:15:32Z</time>
      </trkpt>
      <trkpt lat="43.65704" lon="1.38129">
        <ele>134</ele>
        <time>2023-12-20T16:15:33Z</time>
      </trkpt>
      <trkpt lat="43.65705" lon="1.38133">
        <ele>134</ele>
        <time>2023-12-20T16:15:34Z</time>
      </trkpt>
      <trkpt lat="43.65705" lon="1.38136">
        <ele>134</ele>
        <time>2023-12-20T16:15:35Z</time>
      </trkpt>
      <trkpt lat="43.65706" lon="1.38139">
        <ele>134</ele>
        <time>2023-12-20T16:15:36Z</time>
      </trkpt>
      <trkpt lat="43.65707" lon="1.38142">
        <ele>134</ele>
        <time>2023-12-20T16:15:37Z</time>
      </trkpt>
      <trkpt lat="43.65707" lon="1.38146">
        <ele>134</ele>
        <time>2023-12-20T16:15:38Z</time>
      </trkpt>
      <trkpt lat="43.65708" lon="1.38149">
        <ele>134</ele>
        <time>2023-12-20T16:15:39Z</time>
      </trkpt>
      <trkpt lat="43.65709" lon="1.38152">
        <ele>134</ele>
        <time>2023-12-20T16:15:40Z</time>
      </trkpt>
      <trkpt lat="43.6571" lon="1.38156">
        <ele>134</ele>
        <time>2023-12-20T16:15:41Z</time>
      </trkpt>
      <trkpt lat="43.65711" lon="1.38159">
        <ele>134</ele>
        <time>2023-12-20T16:15:42Z</time>
      </trkpt>
      <trkpt lat="43.65711" lon="1.38162">
        <ele>134</ele>
        <time>2023-12-20T16:15:43Z</time>
      </trkpt>
      <trkpt lat="43.65713" lon="1.38165">
        <ele>134</ele>
        <time>2023-12-20T16:15:44Z</time>
      </trkpt>
      <trkpt lat="43.65713" lon="1.38169">
        <ele>134</ele>
        <time>2023-12-20T16:15:45Z</time>
      </trkpt>
      <trkpt lat="43.65714" lon="1.38172">
        <ele>134</ele>
        <time>2023-12-20T16:15:46Z</time>
      </trkpt>
      <trkpt lat="43.65716" lon="1.38175">
        <ele>134</ele>
        <time>2023-12-20T16:15:47Z</time>
      </trkpt>
      <trkpt lat="43.65717" lon="1.38179">
        <ele>134</ele>
        <time>2023-12-20T16:15:48Z</time>
      </trkpt>
      <trkpt lat="43.65718" lon="1.38182">
        <ele>134</ele>
        <time>2023-12-20T16:15:49Z</time>
      </trkpt>
      <trkpt lat="43.65719" lon="1.38186">
        <ele>134</ele>
        <time>2023-12-20T16:15:50Z</time>
      </trkpt>
      <trkpt lat="43.6572" lon="1.38189">
        <ele>134</ele>
        <time>2023-12-20T16:15:51Z</time>
      </trkpt>
      <trkpt lat="43.65721" lon="1.38192">
        <ele>134</ele>
        <time>2023-12-20T16:15:52Z</time>
      </trkpt>
      <trkpt lat="43.65721" lon="1.38196">
        <ele>134</ele>
        <time>2023-12-20T16:15:53Z</time>
      </trkpt>
      <trkpt lat="43.65722" lon="1.38199">
        <ele>134</ele>
        <time>2023-12-20T16:15:54Z</time>
      </trkpt>
      <trkpt lat="43.65723" lon="1.38203">
        <ele>134</ele>
        <time>2023-12-20T16:15:55Z</time>
      </trkpt>
      <trkpt lat="43.65724" lon="1.38206">
        <ele>134</ele>
        <time>2023-12-20T16:15:56Z</time>
      </trkpt>
      <trkpt lat="43.65725" lon="1.3821">
        <ele>134</ele>
        <time>2023-12-20T16:15:57Z</time>
      </trkpt>
      <trkpt lat="43.65725" lon="1.38214">
        <ele>134</ele>
        <time>2023-12-20T16:15:58Z</time>
      </trkpt>
      <trkpt lat="43.65724" lon="1.38218">
        <ele>134</ele>
        <time>2023-12-20T16:15:59Z</time>
      </trkpt>
      <trkpt lat="43.65723" lon="1.38221">
        <ele>134</ele>
        <time>2023-12-20T16:16:00Z</time>
      </trkpt>
      <trkpt lat="43.65721" lon="1.38224">
        <ele>134</ele>
        <time>2023-12-20T16:16:01Z</time>
      </trkpt>
      <trkpt lat="43.6572" lon="1.38228">
        <ele>134</ele>
        <time>2023-12-20T16:16:02Z</time>
      </trkpt>
      <trkpt lat="43.65718" lon="1.38231">
        <ele>134</ele>
        <time>2023-12-20T16:16:03Z</time>
      </trkpt>
      <trkpt lat="43.65716" lon="1.38233">
        <ele>134</ele>
        <time>2023-12-20T16:16:04Z</time>
      </trkpt>
      <trkpt lat="43.65714" lon="1.38236">
        <ele>134</ele>
        <time>2023-12-20T16:16:05Z</time>
      </trkpt>
      <trkpt lat="43.65711" lon="1.38239">
        <ele>134</ele>
        <time>2023-12-20T16:16:06Z</time>
      </trkpt>
      <trkpt lat="43.65709" lon="1.38241">
        <ele>134</ele>
        <time>2023-12-20T16:16:07Z</time>
      </trkpt>
      <trkpt lat="43.65707" lon="1.38244">
        <ele>134</ele>
        <time>2023-12-20T16:16:08Z</time>
      </trkpt>
      <trkpt lat="43.65705" lon="1.38246">
        <ele>134</ele>
        <time>2023-12-20T16:16:09Z</time>
      </trkpt>
      <trkpt lat="43.65702" lon="1.38248">
        <ele>134</ele>
        <time>2023-12-20T16:16:10Z</time>
      </trkpt>
      <trkpt lat="43.65699" lon="1.38249">
        <ele>134</ele>
        <time>2023-12-20T16:16:11Z</time>
      </trkpt>
      <trkpt lat="43.65697" lon="1.38251">
        <ele>135</ele>
        <time>2023-12-20T16:16:12Z</time>
      </trkpt>
      <trkpt lat="43.65695" lon="1.38253">
        <ele>135</ele>
        <time>2023-12-20T16:16:13Z</time>
      </trkpt>
      <trkpt lat="43.65692" lon="1.38255">
        <ele>135</ele>
        <time>2023-12-20T16:16:14Z</time>
      </trkpt>
      <trkpt lat="43.6569" lon="1.38257">
        <ele>135</ele>
        <time>2023-12-20T16:16:15Z</time>
      </trkpt>
      <trkpt lat="43.65688" lon="1.3826">
        <ele>135</ele>
        <time>2023-12-20T16:16:16Z</time>
      </trkpt>
      <trkpt lat="43.65685" lon="1.38261">
        <ele>135</ele>
        <time>2023-12-20T16:16:17Z</time>
      </trkpt>
      <trkpt lat="43.65683" lon="1.38263">
        <ele>135</ele>
        <time>2023-12-20T16:16:18Z</time>
      </trkpt>
      <trkpt lat="43.65681" lon="1.38265">
        <ele>135</ele>
        <time>2023-12-20T16:16:19Z</time>
      </trkpt>
      <trkpt lat="43.65679" lon="1.38267">
        <ele>135</ele>
        <time>2023-12-20T16:16:20Z</time>
      </trkpt>
      <trkpt lat="43.65676" lon="1.38269">
        <ele>135</ele>
        <time>2023-12-20T16:16:21Z</time>
      </trkpt>
      <trkpt lat="43.65674" lon="1.38271">
        <ele>134</ele>
        <time>2023-12-20T16:16:22Z</time>
      </trkpt>
      <trkpt lat="43.65672" lon="1.38273">
        <ele>134</ele>
        <time>2023-12-20T16:16:23Z</time>
      </trkpt>
      <trkpt lat="43.6567" lon="1.38274">
        <ele>134</ele>
        <time>2023-12-20T16:16:24Z</time>
      </trkpt>
      <trkpt lat="43.65667" lon="1.38275">
        <ele>134</ele>
        <time>2023-12-20T16:16:25Z</time>
      </trkpt>
      <trkpt lat="43.65665" lon="1.38277">
        <ele>135</ele>
        <time>2023-12-20T16:16:26Z</time>
      </trkpt>
      <trkpt lat="43.65663" lon="1.38278">
        <ele>135</ele>
        <time>2023-12-20T16:16:27Z</time>
      </trkpt>
      <trkpt lat="43.6566" lon="1.38279">
        <ele>135</ele>
        <time>2023-12-20T16:16:28Z</time>
      </trkpt>
      <trkpt lat="43.65658" lon="1.38281">
        <ele>134</ele>
        <time>2023-12-20T16:16:29Z</time>
      </trkpt>
      <trkpt lat="43.65656" lon="1.38282">
        <ele>135</ele>
        <time>2023-12-20T16:16:30Z</time>
      </trkpt>
      <trkpt lat="43.65653" lon="1.38283">
        <ele>135</ele>
        <time>2023-12-20T16:16:31Z</time>
      </trkpt>
      <trkpt lat="43.65651" lon="1.38285">
        <ele>135</ele>
        <time>2023-12-20T16:16:32Z</time>
      </trkpt>
      <trkpt lat="43.65648" lon="1.38286">
        <ele>135</ele>
        <time>2023-12-20T16:16:33Z</time>
      </trkpt>
      <trkpt lat="43.65646" lon="1.38287">
        <ele>135</ele>
        <time>2023-12-20T16:16:34Z</time>
      </trkpt>
      <trkpt lat="43.65643" lon="1.38288">
        <ele>135</ele>
        <time>2023-12-20T16:16:35Z</time>
      </trkpt>
      <trkpt lat="43.65641" lon="1.3829">
        <ele>135</ele>
        <time>2023-12-20T16:16:36Z</time>
      </trkpt>
      <trkpt lat="43.65638" lon="1.38291">
        <ele>135</ele>
        <time>2023-12-20T16:16:37Z</time>
      </trkpt>
      <trkpt lat="43.65636" lon="1.38292">
        <ele>135</ele>
        <time>2023-12-20T16:16:38Z</time>
      </trkpt>
      <trkpt lat="43.65633" lon="1.38293">
        <ele>135</ele>
        <time>2023-12-20T16:16:39Z</time>
      </trkpt>
      <trkpt lat="43.65631" lon="1.38295">
        <ele>135</ele>
        <time>2023-12-20T16:16:40Z</time>
      </trkpt>
      <trkpt lat="43.65629" lon="1.38296">
        <ele>135</ele>
        <time>2023-12-20T16:16:41Z</time>
      </trkpt>
      <trkpt lat="43.65626" lon="1.38297">
        <ele>135</ele>
        <time>2023-12-20T16:16:42Z</time>
      </trkpt>
      <trkpt lat="43.65624" lon="1.38299">
        <ele>135</ele>
        <time>2023-12-20T16:16:43Z</time>
      </trkpt>
      <trkpt lat="43.65622" lon="1.383">
        <ele>135</ele>
        <time>2023-12-20T16:16:44Z</time>
      </trkpt>
      <trkpt lat="43.65619" lon="1.38301">
        <ele>135</ele>
        <time>2023-12-20T16:16:45Z</time>
      </trkpt>
      <trkpt lat="43.65617" lon="1.38302">
        <ele>135</ele>
        <time>2023-12-20T16:16:46Z</time>
      </trkpt>
      <trkpt lat="43.65614" lon="1.38303">
        <ele>135</ele>
        <time>2023-12-20T16:16:47Z</time>
      </trkpt>
      <trkpt lat="43.65612" lon="1.38304">
        <ele>135</ele>
        <time>2023-12-20T16:16:48Z</time>
      </trkpt>
      <trkpt lat="43.65609" lon="1.38305">
        <ele>134</ele>
        <time>2023-12-20T16:16:49Z</time>
      </trkpt>
      <trkpt lat="43.65607" lon="1.38306">
        <ele>134</ele>
        <time>2023-12-20T16:16:50Z</time>
      </trkpt>
      <trkpt lat="43.65604" lon="1.38308">
        <ele>134</ele>
        <time>2023-12-20T16:16:51Z</time>
      </trkpt>
      <trkpt lat="43.65602" lon="1.38309">
        <ele>134</ele>
        <time>2023-12-20T16:16:52Z</time>
      </trkpt>
      <trkpt lat="43.65599" lon="1.38311">
        <ele>134</ele>
        <time>2023-12-20T16:16:53Z</time>
      </trkpt>
      <trkpt lat="43.65597" lon="1.38312">
        <ele>134</ele>
        <time>2023-12-20T16:16:54Z</time>
      </trkpt>
      <trkpt lat="43.65594" lon="1.38313">
        <ele>134</ele>
        <time>2023-12-20T16:16:55Z</time>
      </trkpt>
      <trkpt lat="43.65592" lon="1.38314">
        <ele>134</ele>
        <time>2023-12-20T16:16:56Z</time>
      </trkpt>
      <trkpt lat="43.65589" lon="1.38314">
        <ele>134</ele>
        <time>2023-12-20T16:16:57Z</time>
      </trkpt>
      <trkpt lat="43.65587" lon="1.38315">
        <ele>135</ele>
        <time>2023-12-20T16:16:58Z</time>
      </trkpt>
      <trkpt lat="43.65584" lon="1.38316">
        <ele>135</ele>
        <time>2023-12-20T16:16:59Z</time>
      </trkpt>
      <trkpt lat="43.65581" lon="1.38315">
        <ele>135</ele>
        <time>2023-12-20T16:17:00Z</time>
      </trkpt>
      <trkpt lat="43.65578" lon="1.38315">
        <ele>135</ele>
        <time>2023-12-20T16:17:01Z</time>
      </trkpt>
      <trkpt lat="43.65576" lon="1.38314">
        <ele>135</ele>
        <time>2023-12-20T16:17:02Z</time>
      </trkpt>
      <trkpt lat="43.65573" lon="1.38315">
        <ele>136</ele>
        <time>2023-12-20T16:17:03Z</time>
      </trkpt>
      <trkpt lat="43.6557" lon="1.38315">
        <ele>136</ele>
        <time>2023-12-20T16:17:04Z</time>
      </trkpt>
      <trkpt lat="43.65568" lon="1.38315">
        <ele>136</ele>
        <time>2023-12-20T16:17:05Z</time>
      </trkpt>
      <trkpt lat="43.65565" lon="1.38316">
        <ele>136</ele>
        <time>2023-12-20T16:17:06Z</time>
      </trkpt>
      <trkpt lat="43.65562" lon="1.38316">
        <ele>136</ele>
        <time>2023-12-20T16:17:07Z</time>
      </trkpt>
      <trkpt lat="43.65559" lon="1.38316">
        <ele>136</ele>
        <time>2023-12-20T16:17:08Z</time>
      </trkpt>
      <trkpt lat="43.65557" lon="1.38316">
        <ele>136</ele>
        <time>2023-12-20T16:17:09Z</time>
      </trkpt>
      <trkpt lat="43.65554" lon="1.38316">
        <ele>136</ele>
        <time>2023-12-20T16:17:10Z</time>
      </trkpt>
      <trkpt lat="43.65551" lon="1.38317">
        <ele>136</ele>
        <time>2023-12-20T16:17:11Z</time>
      </trkpt>
      <trkpt lat="43.65549" lon="1.38318">
        <ele>136</ele>
        <time>2023-12-20T16:17:12Z</time>
      </trkpt>
      <trkpt lat="43.65547" lon="1.38318">
        <ele>136</ele>
        <time>2023-12-20T16:17:13Z</time>
      </trkpt>
      <trkpt lat="43.65544" lon="1.38319">
        <ele>135</ele>
        <time>2023-12-20T16:17:14Z</time>
      </trkpt>
      <trkpt lat="43.65542" lon="1.3832">
        <ele>135</ele>
        <time>2023-12-20T16:17:15Z</time>
      </trkpt>
      <trkpt lat="43.6554" lon="1.38322">
        <ele>135</ele>
        <time>2023-12-20T16:17:16Z</time>
      </trkpt>
      <trkpt lat="43.65537" lon="1.38322">
        <ele>135</ele>
        <time>2023-12-20T16:17:17Z</time>
      </trkpt>
      <trkpt lat="43.65535" lon="1.38323">
        <ele>135</ele>
        <time>2023-12-20T16:17:18Z</time>
      </trkpt>
      <trkpt lat="43.65533" lon="1.38324">
        <ele>135</ele>
        <time>2023-12-20T16:17:19Z</time>
      </trkpt>
      <trkpt lat="43.6553" lon="1.38325">
        <ele>135</ele>
        <time>2023-12-20T16:17:20Z</time>
      </trkpt>
      <trkpt lat="43.65528" lon="1.38326">
        <ele>135</ele>
        <time>2023-12-20T16:17:21Z</time>
      </trkpt>
      <trkpt lat="43.65525" lon="1.38327">
        <ele>135</ele>
        <time>2023-12-20T16:17:22Z</time>
      </trkpt>
      <trkpt lat="43.65523" lon="1.38328">
        <ele>135</ele>
        <time>2023-12-20T16:17:23Z</time>
      </trkpt>
      <trkpt lat="43.65521" lon="1.38329">
        <ele>135</ele>
        <time>2023-12-20T16:17:24Z</time>
      </trkpt>
      <trkpt lat="43.65518" lon="1.3833">
        <ele>135</ele>
        <time>2023-12-20T16:17:25Z</time>
      </trkpt>
      <trkpt lat="43.65516" lon="1.38331">
        <ele>135</ele>
        <time>2023-12-20T16:17:26Z</time>
      </trkpt>
      <trkpt lat="43.65513" lon="1.38332">
        <ele>135</ele>
        <time>2023-12-20T16:17:27Z</time>
      </trkpt>
      <trkpt lat="43.65511" lon="1.38333">
        <ele>135</ele>
        <time>2023-12-20T16:17:28Z</time>
      </trkpt>
      <trkpt lat="43.65508" lon="1.38334">
        <ele>135</ele>
        <time>2023-12-20T16:17:29Z</time>
      </trkpt>
      <trkpt lat="43.65506" lon="1.38335">
        <ele>135</ele>
        <time>2023-12-20T16:17:30Z</time>
      </trkpt>
      <trkpt lat="43.65504" lon="1.38336">
        <ele>135</ele>
        <time>2023-12-20T16:17:31Z</time>
      </trkpt>
      <trkpt lat="43.65501" lon="1.38337">
        <ele>135</ele>
        <time>2023-12-20T16:17:32Z</time>
      </trkpt>
      <trkpt lat="43.65499" lon="1.38338">
        <ele>135</ele>
        <time>2023-12-20T16:17:33Z</time>
      </trkpt>
      <trkpt lat="43.65497" lon="1.38339">
        <ele>135</ele>
        <time>2023-12-20T16:17:34Z</time>
      </trkpt>
      <trkpt lat="43.65494" lon="1.3834">
        <ele>135</ele>
        <time>2023-12-20T16:17:35Z</time>
      </trkpt>
      <trkpt lat="43.65492" lon="1.38341">
        <ele>135</ele>
        <time>2023-12-20T16:17:36Z</time>
      </trkpt>
      <trkpt lat="43.6549" lon="1.38342">
        <ele>135</ele>
        <time>2023-12-20T16:17:37Z</time>
      </trkpt>
      <trkpt lat="43.65487" lon="1.38343">
        <ele>135</ele>
        <time>2023-12-20T16:17:38Z</time>
      </trkpt>
      <trkpt lat="43.65484" lon="1.38344">
        <ele>135</ele>
        <time>2023-12-20T16:17:39Z</time>
      </trkpt>
      <trkpt lat="43.65482" lon="1.38345">
        <ele>135</ele>
        <time>2023-12-20T16:17:40Z</time>
      </trkpt>
      <trkpt lat="43.6548" lon="1.38346">
        <ele>135</ele>
        <time>2023-12-20T16:17:41Z</time>
      </trkpt>
      <trkpt lat="43.65477" lon="1.38347">
        <ele>135</ele>
        <time>2023-12-20T16:17:42Z</time>
      </trkpt>
      <trkpt lat="43.65475" lon="1.38348">
        <ele>136</ele>
        <time>2023-12-20T16:17:43Z</time>
      </trkpt>
      <trkpt lat="43.65473" lon="1.38349">
        <ele>136</ele>
        <time>2023-12-20T16:17:44Z</time>
      </trkpt>
      <trkpt lat="43.6547" lon="1.3835">
        <ele>136</ele>
        <time>2023-12-20T16:17:45Z</time>
      </trkpt>
      <trkpt lat="43.65468" lon="1.38351">
        <ele>136</ele>
        <time>2023-12-20T16:17:46Z</time>
      </trkpt>
      <trkpt lat="43.65466" lon="1.38352">
        <ele>136</ele>
        <time>2023-12-20T16:17:47Z</time>
      </trkpt>
      <trkpt lat="43.65464" lon="1.38353">
        <ele>135</ele>
        <time>2023-12-20T16:17:48Z</time>
      </trkpt>
      <trkpt lat="43.65461" lon="1.38354">
        <ele>135</ele>
        <time>2023-12-20T16:17:49Z</time>
      </trkpt>
      <trkpt lat="43.65459" lon="1.38355">
        <ele>135</ele>
        <time>2023-12-20T16:17:50Z</time>
      </trkpt>
      <trkpt lat="43.65456" lon="1.38356">
        <ele>135</ele>
        <time>2023-12-20T16:17:51Z</time>
      </trkpt>
      <trkpt lat="43.65454" lon="1.38357">
        <ele>135</ele>
        <time>2023-12-20T16:17:52Z</time>
      </trkpt>
      <trkpt lat="43.65451" lon="1.38357">
        <ele>135</ele>
        <time>2023-12-20T16:17:53Z</time>
      </trkpt>
      <trkpt lat="43.65449" lon="1.38357">
        <ele>135</ele>
        <time>2023-12-20T16:17:54Z</time>
      </trkpt>
      <trkpt lat="43.65446" lon="1.38357">
        <ele>135</ele>
        <time>2023-12-20T16:17:55Z</time>
      </trkpt>
      <trkpt lat="43.65444" lon="1.38358">
        <ele>135</ele>
        <time>2023-12-20T16:17:56Z</time>
      </trkpt>
      <trkpt lat="43.65441" lon="1.38358">
        <ele>135</ele>
        <time>2023-12-20T16:17:57Z</time>
      </trkpt>
      <trkpt lat="43.65439" lon="1.38358">
        <ele>135</ele>
        <time>2023-12-20T16:17:58Z</time>
      </trkpt>
      <trkpt lat="43.65436" lon="1.38358">
        <ele>135</ele>
        <time>2023-12-20T16:17:59Z</time>
      </trkpt>
      <trkpt lat="43.65434" lon="1.38358">
        <ele>135</ele>
        <time>2023-12-20T16:18:00Z</time>
      </trkpt>
      <trkpt lat="43.65432" lon="1.38358">
        <ele>135</ele>
        <time>2023-12-20T16:18:01Z</time>
      </trkpt>
      <trkpt lat="43.65429" lon="1.38358">
        <ele>135</ele>
        <time>2023-12-20T16:18:02Z</time>
      </trkpt>
      <trkpt lat="43.65426" lon="1.38358">
        <ele>135</ele>
        <time>2023-12-20T16:18:03Z</time>
      </trkpt>
      <trkpt lat="43.65424" lon="1.38359">
        <ele>135</ele>
        <time>2023-12-20T16:18:04Z</time>
      </trkpt>
      <trkpt lat="43.65421" lon="1.38359">
        <ele>135</ele>
        <time>2023-12-20T16:18:05Z</time>
      </trkpt>
      <trkpt lat="43.65419" lon="1.3836">
        <ele>135</ele>
        <time>2023-12-20T16:18:06Z</time>
      </trkpt>
      <trkpt lat="43.65417" lon="1.3836">
        <ele>135</ele>
        <time>2023-12-20T16:18:07Z</time>
      </trkpt>
      <trkpt lat="43.65414" lon="1.3836">
        <ele>135</ele>
        <time>2023-12-20T16:18:08Z</time>
      </trkpt>
      <trkpt lat="43.65412" lon="1.3836">
        <ele>135</ele>
        <time>2023-12-20T16:18:09Z</time>
      </trkpt>
      <trkpt lat="43.65409" lon="1.3836">
        <ele>135</ele>
        <time>2023-12-20T16:18:10Z</time>
      </trkpt>
      <trkpt lat="43.65406" lon="1.38361">
        <ele>135</ele>
        <time>2023-12-20T16:18:11Z</time>
      </trkpt>
      <trkpt lat="43.65403" lon="1.38361">
        <ele>135</ele>
        <time>2023-12-20T16:18:12Z</time>
      </trkpt>
      <trkpt lat="43.65401" lon="1.38361">
        <ele>135</ele>
        <time>2023-12-20T16:18:13Z</time>
      </trkpt>
      <trkpt lat="43.65398" lon="1.38361">
        <ele>135</ele>
        <time>2023-12-20T16:18:14Z</time>
      </trkpt>
      <trkpt lat="43.65396" lon="1.38361">
        <ele>135</ele>
        <time>2023-12-20T16:18:15Z</time>
      </trkpt>
      <trkpt lat="43.65393" lon="1.38362">
        <ele>135</ele>
        <time>2023-12-20T16:18:16Z</time>
      </trkpt>
      <trkpt lat="43.65391" lon="1.38362">
        <ele>135</ele>
        <time>2023-12-20T16:18:17Z</time>
      </trkpt>
      <trkpt lat="43.65388" lon="1.38362">
        <ele>135</ele>
        <time>2023-12-20T16:18:18Z</time>
      </trkpt>
      <trkpt lat="43.65385" lon="1.38363">
        <ele>135</ele>
        <time>2023-12-20T16:18:19Z</time>
      </trkpt>
      <trkpt lat="43.65382" lon="1.38364">
        <ele>135</ele>
        <time>2023-12-20T16:18:20Z</time>
      </trkpt>
      <trkpt lat="43.65379" lon="1.38364">
        <ele>135</ele>
        <time>2023-12-20T16:18:21Z</time>
      </trkpt>
      <trkpt lat="43.65376" lon="1.38365">
        <ele>135</ele>
        <time>2023-12-20T16:18:22Z</time>
      </trkpt>
      <trkpt lat="43.65374" lon="1.38365">
        <ele>135</ele>
        <time>2023-12-20T16:18:23Z</time>
      </trkpt>
      <trkpt lat="43.65371" lon="1.38366">
        <ele>136</ele>
        <time>2023-12-20T16:18:24Z</time>
      </trkpt>
      <trkpt lat="43.65369" lon="1.38367">
        <ele>136</ele>
        <time>2023-12-20T16:18:25Z</time>
      </trkpt>
      <trkpt lat="43.65366" lon="1.38367">
        <ele>137</ele>
        <time>2023-12-20T16:18:26Z</time>
      </trkpt>
      <trkpt lat="43.65363" lon="1.38368">
        <ele>137</ele>
        <time>2023-12-20T16:18:27Z</time>
      </trkpt>
      <trkpt lat="43.65361" lon="1.38368">
        <ele>137</ele>
        <time>2023-12-20T16:18:28Z</time>
      </trkpt>
      <trkpt lat="43.65358" lon="1.38369">
        <ele>136</ele>
        <time>2023-12-20T16:18:29Z</time>
      </trkpt>
      <trkpt lat="43.65356" lon="1.38369">
        <ele>136</ele>
        <time>2023-12-20T16:18:30Z</time>
      </trkpt>
      <trkpt lat="43.65353" lon="1.3837">
        <ele>136</ele>
        <time>2023-12-20T16:18:31Z</time>
      </trkpt>
      <trkpt lat="43.65351" lon="1.38371">
        <ele>136</ele>
        <time>2023-12-20T16:18:32Z</time>
      </trkpt>
      <trkpt lat="43.65348" lon="1.38371">
        <ele>136</ele>
        <time>2023-12-20T16:18:33Z</time>
      </trkpt>
      <trkpt lat="43.65346" lon="1.38372">
        <ele>136</ele>
        <time>2023-12-20T16:18:34Z</time>
      </trkpt>
      <trkpt lat="43.65343" lon="1.38373">
        <ele>136</ele>
        <time>2023-12-20T16:18:35Z</time>
      </trkpt>
      <trkpt lat="43.6534" lon="1.38374">
        <ele>136</ele>
        <time>2023-12-20T16:18:36Z</time>
      </trkpt>
      <trkpt lat="43.65338" lon="1.38375">
        <ele>136</ele>
        <time>2023-12-20T16:18:37Z</time>
      </trkpt>
      <trkpt lat="43.65335" lon="1.38375">
        <ele>136</ele>
        <time>2023-12-20T16:18:38Z</time>
      </trkpt>
      <trkpt lat="43.65332" lon="1.38376">
        <ele>136</ele>
        <time>2023-12-20T16:18:39Z</time>
      </trkpt>
      <trkpt lat="43.6533" lon="1.38377">
        <ele>136</ele>
        <time>2023-12-20T16:18:40Z</time>
      </trkpt>
      <trkpt lat="43.65327" lon="1.38377">
        <ele>136</ele>
        <time>2023-12-20T16:18:41Z</time>
      </trkpt>
      <trkpt lat="43.65325" lon="1.38378">
        <ele>136</ele>
        <time>2023-12-20T16:18:42Z</time>
      </trkpt>
      <trkpt lat="43.65323" lon="1.38378">
        <ele>136</ele>
        <time>2023-12-20T16:18:43Z</time>
      </trkpt>
      <trkpt lat="43.6532" lon="1.38379">
        <ele>136</ele>
        <time>2023-12-20T16:18:44Z</time>
      </trkpt>
      <trkpt lat="43.65317" lon="1.3838">
        <ele>136</ele>
        <time>2023-12-20T16:18:45Z</time>
      </trkpt>
      <trkpt lat="43.65315" lon="1.38381">
        <ele>136</ele>
        <time>2023-12-20T16:18:46Z</time>
      </trkpt>
      <trkpt lat="43.65312" lon="1.38382">
        <ele>136</ele>
        <time>2023-12-20T16:18:47Z</time>
      </trkpt>
      <trkpt lat="43.6531" lon="1.38383">
        <ele>136</ele>
        <time>2023-12-20T16:18:48Z</time>
      </trkpt>
      <trkpt lat="43.65307" lon="1.38384">
        <ele>135</ele>
        <time>2023-12-20T16:18:49Z</time>
      </trkpt>
      <trkpt lat="43.65305" lon="1.38385">
        <ele>135</ele>
        <time>2023-12-20T16:18:50Z</time>
      </trkpt>
      <trkpt lat="43.65303" lon="1.38386">
        <ele>135</ele>
        <time>2023-12-20T16:18:51Z</time>
      </trkpt>
      <trkpt lat="43.653" lon="1.38387">
        <ele>135</ele>
        <time>2023-12-20T16:18:52Z</time>
      </trkpt>
      <trkpt lat="43.65298" lon="1.38388">
        <ele>135</ele>
        <time>2023-12-20T16:18:53Z</time>
      </trkpt>
      <trkpt lat="43.65295" lon="1.3839">
        <ele>134</ele>
        <time>2023-12-20T16:18:54Z</time>
      </trkpt>
      <trkpt lat="43.65293" lon="1.38391">
        <ele>134</ele>
        <time>2023-12-20T16:18:55Z</time>
      </trkpt>
      <trkpt lat="43.6529" lon="1.38393">
        <ele>134</ele>
        <time>2023-12-20T16:18:56Z</time>
      </trkpt>
      <trkpt lat="43.65288" lon="1.38394">
        <ele>134</ele>
        <time>2023-12-20T16:18:57Z</time>
      </trkpt>
      <trkpt lat="43.65285" lon="1.38396">
        <ele>134</ele>
        <time>2023-12-20T16:18:58Z</time>
      </trkpt>
      <trkpt lat="43.65283" lon="1.38397">
        <ele>134</ele>
        <time>2023-12-20T16:18:59Z</time>
      </trkpt>
      <trkpt lat="43.6528" lon="1.38399">
        <ele>134</ele>
        <time>2023-12-20T16:19:00Z</time>
      </trkpt>
      <trkpt lat="43.65278" lon="1.384">
        <ele>134</ele>
        <time>2023-12-20T16:19:01Z</time>
      </trkpt>
      <trkpt lat="43.65275" lon="1.384">
        <ele>134</ele>
        <time>2023-12-20T16:19:02Z</time>
      </trkpt>
      <trkpt lat="43.65273" lon="1.38401">
        <ele>134</ele>
        <time>2023-12-20T16:19:03Z</time>
      </trkpt>
      <trkpt lat="43.6527" lon="1.38402">
        <ele>134</ele>
        <time>2023-12-20T16:19:04Z</time>
      </trkpt>
      <trkpt lat="43.65268" lon="1.38404">
        <ele>134</ele>
        <time>2023-12-20T16:19:05Z</time>
      </trkpt>
      <trkpt lat="43.65265" lon="1.38405">
        <ele>134</ele>
        <time>2023-12-20T16:19:06Z</time>
      </trkpt>
      <trkpt lat="43.65262" lon="1.38406">
        <ele>133</ele>
        <time>2023-12-20T16:19:07Z</time>
      </trkpt>
      <trkpt lat="43.6526" lon="1.38407">
        <ele>133</ele>
        <time>2023-12-20T16:19:08Z</time>
      </trkpt>
      <trkpt lat="43.65257" lon="1.38409">
        <ele>133</ele>
        <time>2023-12-20T16:19:09Z</time>
      </trkpt>
      <trkpt lat="43.65255" lon="1.3841">
        <ele>133</ele>
        <time>2023-12-20T16:19:10Z</time>
      </trkpt>
      <trkpt lat="43.65252" lon="1.38411">
        <ele>133</ele>
        <time>2023-12-20T16:19:11Z</time>
      </trkpt>
      <trkpt lat="43.6525" lon="1.38412">
        <ele>133</ele>
        <time>2023-12-20T16:19:12Z</time>
      </trkpt>
      <trkpt lat="43.65247" lon="1.38413">
        <ele>133</ele>
        <time>2023-12-20T16:19:13Z</time>
      </trkpt>
      <trkpt lat="43.65245" lon="1.38415">
        <ele>133</ele>
        <time>2023-12-20T16:19:14Z</time>
      </trkpt>
      <trkpt lat="43.65243" lon="1.38416">
        <ele>133</ele>
        <time>2023-12-20T16:19:15Z</time>
      </trkpt>
      <trkpt lat="43.6524" lon="1.38418">
        <ele>133</ele>
        <time>2023-12-20T16:19:16Z</time>
      </trkpt>
      <trkpt lat="43.65238" lon="1.38419">
        <ele>133</ele>
        <time>2023-12-20T16:19:17Z</time>
      </trkpt>
      <trkpt lat="43.65235" lon="1.3842">
        <ele>133</ele>
        <time>2023-12-20T16:19:18Z</time>
      </trkpt>
      <trkpt lat="43.65233" lon="1.38421">
        <ele>133</ele>
        <time>2023-12-20T16:19:19Z</time>
      </trkpt>
      <trkpt lat="43.65231" lon="1.38422">
        <ele>133</ele>
        <time>2023-12-20T16:19:20Z</time>
      </trkpt>
      <trkpt lat="43.65229" lon="1.38424">
        <ele>133</ele>
        <time>2023-12-20T16:19:21Z</time>
      </trkpt>
      <trkpt lat="43.65227" lon="1.38425">
        <ele>132</ele>
        <time>2023-12-20T16:19:22Z</time>
      </trkpt>
      <trkpt lat="43.65224" lon="1.38427">
        <ele>132</ele>
        <time>2023-12-20T16:19:23Z</time>
      </trkpt>
      <trkpt lat="43.65222" lon="1.38428">
        <ele>132</ele>
        <time>2023-12-20T16:19:24Z</time>
      </trkpt>
      <trkpt lat="43.6522" lon="1.3843">
        <ele>132</ele>
        <time>2023-12-20T16:19:25Z</time>
      </trkpt>
      <trkpt lat="43.65218" lon="1.38431">
        <ele>132</ele>
        <time>2023-12-20T16:19:26Z</time>
      </trkpt>
      <trkpt lat="43.65216" lon="1.38433">
        <ele>132</ele>
        <time>2023-12-20T16:19:27Z</time>
      </trkpt>
      <trkpt lat="43.65214" lon="1.38435">
        <ele>132</ele>
        <time>2023-12-20T16:19:28Z</time>
      </trkpt>
      <trkpt lat="43.65211" lon="1.38437">
        <ele>132</ele>
        <time>2023-12-20T16:19:29Z</time>
      </trkpt>
      <trkpt lat="43.65209" lon="1.38439">
        <ele>132</ele>
        <time>2023-12-20T16:19:30Z</time>
      </trkpt>
      <trkpt lat="43.65206" lon="1.38441">
        <ele>132</ele>
        <time>2023-12-20T16:19:31Z</time>
      </trkpt>
      <trkpt lat="43.65204" lon="1.38443">
        <ele>132</ele>
        <time>2023-12-20T16:19:32Z</time>
      </trkpt>
      <trkpt lat="43.65201" lon="1.38445">
        <ele>132</ele>
        <time>2023-12-20T16:19:33Z</time>
      </trkpt>
      <trkpt lat="43.65199" lon="1.38447">
        <ele>132</ele>
        <time>2023-12-20T16:19:34Z</time>
      </trkpt>
      <trkpt lat="43.65197" lon="1.38449">
        <ele>132</ele>
        <time>2023-12-20T16:19:35Z</time>
      </trkpt>
      <trkpt lat="43.65195" lon="1.38451">
        <ele>131</ele>
        <time>2023-12-20T16:19:36Z</time>
      </trkpt>
      <trkpt lat="43.65193" lon="1.38452">
        <ele>131</ele>
        <time>2023-12-20T16:19:37Z</time>
      </trkpt>
      <trkpt lat="43.6519" lon="1.38454">
        <ele>131</ele>
        <time>2023-12-20T16:19:38Z</time>
      </trkpt>
      <trkpt lat="43.65188" lon="1.38457">
        <ele>131</ele>
        <time>2023-12-20T16:19:39Z</time>
      </trkpt>
      <trkpt lat="43.65186" lon="1.38459">
        <ele>131</ele>
        <time>2023-12-20T16:19:40Z</time>
      </trkpt>
      <trkpt lat="43.65184" lon="1.38461">
        <ele>131</ele>
        <time>2023-12-20T16:19:41Z</time>
      </trkpt>
      <trkpt lat="43.65182" lon="1.38463">
        <ele>131</ele>
        <time>2023-12-20T16:19:42Z</time>
      </trkpt>
      <trkpt lat="43.6518" lon="1.38464">
        <ele>131</ele>
        <time>2023-12-20T16:19:43Z</time>
      </trkpt>
      <trkpt lat="43.65177" lon="1.38467">
        <ele>131</ele>
        <time>2023-12-20T16:19:44Z</time>
      </trkpt>
      <trkpt lat="43.65175" lon="1.38469">
        <ele>131</ele>
        <time>2023-12-20T16:19:45Z</time>
      </trkpt>
      <trkpt lat="43.65173" lon="1.3847">
        <ele>131</ele>
        <time>2023-12-20T16:19:46Z</time>
      </trkpt>
      <trkpt lat="43.65171" lon="1.38472">
        <ele>132</ele>
        <time>2023-12-20T16:19:47Z</time>
      </trkpt>
      <trkpt lat="43.65169" lon="1.38473">
        <ele>132</ele>
        <time>2023-12-20T16:19:48Z</time>
      </trkpt>
      <trkpt lat="43.65167" lon="1.38475">
        <ele>132</ele>
        <time>2023-12-20T16:19:49Z</time>
      </trkpt>
      <trkpt lat="43.65165" lon="1.38477">
        <ele>132</ele>
        <time>2023-12-20T16:19:50Z</time>
      </trkpt>
      <trkpt lat="43.65163" lon="1.3848">
        <ele>132</ele>
        <time>2023-12-20T16:19:51Z</time>
      </trkpt>
      <trkpt lat="43.65161" lon="1.38482">
        <ele>132</ele>
        <time>2023-12-20T16:19:52Z</time>
      </trkpt>
      <trkpt lat="43.6516" lon="1.38483">
        <ele>132</ele>
        <time>2023-12-20T16:19:53Z</time>
      </trkpt>
      <trkpt lat="43.65158" lon="1.38485">
        <ele>133</ele>
        <time>2023-12-20T16:19:54Z</time>
      </trkpt>
      <trkpt lat="43.65156" lon="1.38487">
        <ele>133</ele>
        <time>2023-12-20T16:19:55Z</time>
      </trkpt>
      <trkpt lat="43.65154" lon="1.38488">
        <ele>133</ele>
        <time>2023-12-20T16:19:56Z</time>
      </trkpt>
      <trkpt lat="43.65152" lon="1.3849">
        <ele>133</ele>
        <time>2023-12-20T16:19:57Z</time>
      </trkpt>
      <trkpt lat="43.6515" lon="1.38492">
        <ele>133</ele>
        <time>2023-12-20T16:19:58Z</time>
      </trkpt>
      <trkpt lat="43.65148" lon="1.38494">
        <ele>133</ele>
        <time>2023-12-20T16:19:59Z</time>
      </trkpt>
      <trkpt lat="43.65145" lon="1.38496">
        <ele>133</ele>
        <time>2023-12-20T16:20:00Z</time>
      </trkpt>
      <trkpt lat="43.65143" lon="1.38499">
        <ele>134</ele>
        <time>2023-12-20T16:20:01Z</time>
      </trkpt>
      <trkpt lat="43.65141" lon="1.38501">
        <ele>134</ele>
        <time>2023-12-20T16:20:02Z</time>
      </trkpt>
      <trkpt lat="43.65138" lon="1.38503">
        <ele>134</ele>
        <time>2023-12-20T16:20:03Z</time>
      </trkpt>
      <trkpt lat="43.65136" lon="1.38506">
        <ele>134</ele>
        <time>2023-12-20T16:20:04Z</time>
      </trkpt>
      <trkpt lat="43.65134" lon="1.38508">
        <ele>134</ele>
        <time>2023-12-20T16:20:05Z</time>
      </trkpt>
      <trkpt lat="43.65131" lon="1.3851">
        <ele>134</ele>
        <time>2023-12-20T16:20:06Z</time>
      </trkpt>
      <trkpt lat="43.65129" lon="1.38511">
        <ele>135</ele>
        <time>2023-12-20T16:20:07Z</time>
      </trkpt>
      <trkpt lat="43.65126" lon="1.38512">
        <ele>135</ele>
        <time>2023-12-20T16:20:08Z</time>
      </trkpt>
      <trkpt lat="43.65123" lon="1.38511">
        <ele>135</ele>
        <time>2023-12-20T16:20:09Z</time>
      </trkpt>
      <trkpt lat="43.6512" lon="1.3851">
        <ele>135</ele>
        <time>2023-12-20T16:20:10Z</time>
      </trkpt>
      <trkpt lat="43.65117" lon="1.3851">
        <ele>135</ele>
        <time>2023-12-20T16:20:11Z</time>
      </trkpt>
      <trkpt lat="43.65114" lon="1.3851">
        <ele>135</ele>
        <time>2023-12-20T16:20:12Z</time>
      </trkpt>
      <trkpt lat="43.65112" lon="1.38511">
        <ele>135</ele>
        <time>2023-12-20T16:20:13Z</time>
      </trkpt>
      <trkpt lat="43.65109" lon="1.38511">
        <ele>134</ele>
        <time>2023-12-20T16:20:14Z</time>
      </trkpt>
      <trkpt lat="43.65107" lon="1.38511">
        <ele>135</ele>
        <time>2023-12-20T16:20:15Z</time>
      </trkpt>
      <trkpt lat="43.65105" lon="1.38512">
        <ele>135</ele>
        <time>2023-12-20T16:20:16Z</time>
      </trkpt>
      <trkpt lat="43.65103" lon="1.38515">
        <ele>135</ele>
        <time>2023-12-20T16:20:17Z</time>
      </trkpt>
      <trkpt lat="43.65102" lon="1.38519">
        <ele>135</ele>
        <time>2023-12-20T16:20:18Z</time>
      </trkpt>
      <trkpt lat="43.65101" lon="1.38522">
        <ele>135</ele>
        <time>2023-12-20T16:20:19Z</time>
      </trkpt>
      <trkpt lat="43.651" lon="1.38526">
        <ele>135</ele>
        <time>2023-12-20T16:20:20Z</time>
      </trkpt>
      <trkpt lat="43.65099" lon="1.38529">
        <ele>135</ele>
        <time>2023-12-20T16:20:21Z</time>
      </trkpt>
      <trkpt lat="43.65098" lon="1.38533">
        <ele>135</ele>
        <time>2023-12-20T16:20:22Z</time>
      </trkpt>
      <trkpt lat="43.65097" lon="1.38536">
        <ele>135</ele>
        <time>2023-12-20T16:20:23Z</time>
      </trkpt>
      <trkpt lat="43.65095" lon="1.38539">
        <ele>135</ele>
        <time>2023-12-20T16:20:24Z</time>
      </trkpt>
      <trkpt lat="43.65093" lon="1.38542">
        <ele>135</ele>
        <time>2023-12-20T16:20:25Z</time>
      </trkpt>
      <trkpt lat="43.65091" lon="1.38544">
        <ele>135</ele>
        <time>2023-12-20T16:20:26Z</time>
      </trkpt>
      <trkpt lat="43.65089" lon="1.38545">
        <ele>135</ele>
        <time>2023-12-20T16:20:27Z</time>
      </trkpt>
      <trkpt lat="43.65087" lon="1.38547">
        <ele>135</ele>
        <time>2023-12-20T16:20:28Z</time>
      </trkpt>
      <trkpt lat="43.65084" lon="1.38548">
        <ele>135</ele>
        <time>2023-12-20T16:20:29Z</time>
      </trkpt>
      <trkpt lat="43.65082" lon="1.3855">
        <ele>135</ele>
        <time>2023-12-20T16:20:30Z</time>
      </trkpt>
      <trkpt lat="43.65079" lon="1.38552">
        <ele>134</ele>
        <time>2023-12-20T16:20:31Z</time>
      </trkpt>
      <trkpt lat="43.65077" lon="1.38553">
        <ele>134</ele>
        <time>2023-12-20T16:20:32Z</time>
      </trkpt>
      <trkpt lat="43.65074" lon="1.38555">
        <ele>134</ele>
        <time>2023-12-20T16:20:33Z</time>
      </trkpt>
      <trkpt lat="43.65072" lon="1.38557">
        <ele>134</ele>
        <time>2023-12-20T16:20:34Z</time>
      </trkpt>
      <trkpt lat="43.65069" lon="1.38558">
        <ele>134</ele>
        <time>2023-12-20T16:20:35Z</time>
      </trkpt>
      <trkpt lat="43.65069" lon="1.38558">
        <ele>135</ele>
        <time>2023-12-20T16:20:36Z</time>
      </trkpt>
      <trkpt lat="43.65063" lon="1.38562">
        <ele>135</ele>
        <time>2023-12-20T16:20:37Z</time>
      </trkpt>
      <trkpt lat="43.65062" lon="1.38562">
        <ele>135</ele>
        <time>2023-12-20T16:20:38Z</time>
      </trkpt>
      <trkpt lat="43.65059" lon="1.38564">
        <ele>134</ele>
        <time>2023-12-20T16:20:39Z</time>
      </trkpt>
      <trkpt lat="43.65057" lon="1.38565">
        <ele>134</ele>
        <time>2023-12-20T16:20:40Z</time>
      </trkpt>
      <trkpt lat="43.65054" lon="1.38565">
        <ele>134</ele>
        <time>2023-12-20T16:20:41Z</time>
      </trkpt>
      <trkpt lat="43.65052" lon="1.38564">
        <ele>134</ele>
        <time>2023-12-20T16:20:42Z</time>
      </trkpt>
      <trkpt lat="43.6505" lon="1.38565">
        <ele>134</ele>
        <time>2023-12-20T16:20:43Z</time>
      </trkpt>
      <trkpt lat="43.65048" lon="1.38568">
        <ele>134</ele>
        <time>2023-12-20T16:20:44Z</time>
      </trkpt>
      <trkpt lat="43.65046" lon="1.38571">
        <ele>134</ele>
        <time>2023-12-20T16:20:45Z</time>
      </trkpt>
      <trkpt lat="43.65044" lon="1.38573">
        <ele>134</ele>
        <time>2023-12-20T16:20:46Z</time>
      </trkpt>
      <trkpt lat="43.65042" lon="1.38576">
        <ele>134</ele>
        <time>2023-12-20T16:20:47Z</time>
      </trkpt>
      <trkpt lat="43.65039" lon="1.38578">
        <ele>134</ele>
        <time>2023-12-20T16:20:48Z</time>
      </trkpt>
      <trkpt lat="43.65037" lon="1.38579">
        <ele>134</ele>
        <time>2023-12-20T16:20:49Z</time>
      </trkpt>
      <trkpt lat="43.65034" lon="1.38581">
        <ele>135</ele>
        <time>2023-12-20T16:20:50Z</time>
      </trkpt>
      <trkpt lat="43.65032" lon="1.38582">
        <ele>135</ele>
        <time>2023-12-20T16:20:51Z</time>
      </trkpt>
      <trkpt lat="43.65029" lon="1.38584">
        <ele>135</ele>
        <time>2023-12-20T16:20:52Z</time>
      </trkpt>
      <trkpt lat="43.65026" lon="1.38585">
        <ele>135</ele>
        <time>2023-12-20T16:20:53Z</time>
      </trkpt>
      <trkpt lat="43.65024" lon="1.38586">
        <ele>135</ele>
        <time>2023-12-20T16:20:54Z</time>
      </trkpt>
      <trkpt lat="43.65022" lon="1.38588">
        <ele>135</ele>
        <time>2023-12-20T16:20:55Z</time>
      </trkpt>
      <trkpt lat="43.65019" lon="1.38589">
        <ele>135</ele>
        <time>2023-12-20T16:20:56Z</time>
      </trkpt>
      <trkpt lat="43.65017" lon="1.3859">
        <ele>135</ele>
        <time>2023-12-20T16:20:57Z</time>
      </trkpt>
      <trkpt lat="43.65015" lon="1.38592">
        <ele>135</ele>
        <time>2023-12-20T16:20:58Z</time>
      </trkpt>
      <trkpt lat="43.65012" lon="1.38593">
        <ele>135</ele>
        <time>2023-12-20T16:20:59Z</time>
      </trkpt>
      <trkpt lat="43.6501" lon="1.38594">
        <ele>135</ele>
        <time>2023-12-20T16:21:00Z</time>
      </trkpt>
      <trkpt lat="43.65008" lon="1.38595">
        <ele>135</ele>
        <time>2023-12-20T16:21:01Z</time>
      </trkpt>
      <trkpt lat="43.65006" lon="1.38597">
        <ele>135</ele>
        <time>2023-12-20T16:21:02Z</time>
      </trkpt>
      <trkpt lat="43.65003" lon="1.38598">
        <ele>135</ele>
        <time>2023-12-20T16:21:03Z</time>
      </trkpt>
      <trkpt lat="43.65" lon="1.38599">
        <ele>135</ele>
        <time>2023-12-20T16:21:04Z</time>
      </trkpt>
      <trkpt lat="43.64998" lon="1.38601">
        <ele>135</ele>
        <time>2023-12-20T16:21:05Z</time>
      </trkpt>
      <trkpt lat="43.64996" lon="1.38602">
        <ele>135</ele>
        <time>2023-12-20T16:21:06Z</time>
      </trkpt>
      <trkpt lat="43.64993" lon="1.38604">
        <ele>135</ele>
        <time>2023-12-20T16:21:07Z</time>
      </trkpt>
      <trkpt lat="43.64991" lon="1.38605">
        <ele>135</ele>
        <time>2023-12-20T16:21:08Z</time>
      </trkpt>
      <trkpt lat="43.64989" lon="1.38607">
        <ele>135</ele>
        <time>2023-12-20T16:21:09Z</time>
      </trkpt>
      <trkpt lat="43.64987" lon="1.38608">
        <ele>135</ele>
        <time>2023-12-20T16:21:10Z</time>
      </trkpt>
      <trkpt lat="43.64984" lon="1.38609">
        <ele>135</ele>
        <time>2023-12-20T16:21:11Z</time>
      </trkpt>
      <trkpt lat="43.64982" lon="1.38611">
        <ele>135</ele>
        <time>2023-12-20T16:21:12Z</time>
      </trkpt>
      <trkpt lat="43.6498" lon="1.38612">
        <ele>135</ele>
        <time>2023-12-20T16:21:13Z</time>
      </trkpt>
      <trkpt lat="43.64978" lon="1.38614">
        <ele>135</ele>
        <time>2023-12-20T16:21:14Z</time>
      </trkpt>
      <trkpt lat="43.64976" lon="1.38615">
        <ele>135</ele>
        <time>2023-12-20T16:21:15Z</time>
      </trkpt>
      <trkpt lat="43.64973" lon="1.38616">
        <ele>135</ele>
        <time>2023-12-20T16:21:16Z</time>
      </trkpt>
      <trkpt lat="43.64971" lon="1.38617">
        <ele>135</ele>
        <time>2023-12-20T16:21:17Z</time>
      </trkpt>
      <trkpt lat="43.64969" lon="1.38619">
        <ele>135</ele>
        <time>2023-12-20T16:21:18Z</time>
      </trkpt>
      <trkpt lat="43.64967" lon="1.3862">
        <ele>135</ele>
        <time>2023-12-20T16:21:19Z</time>
      </trkpt>
      <trkpt lat="43.64964" lon="1.38621">
        <ele>135</ele>
        <time>2023-12-20T16:21:20Z</time>
      </trkpt>
      <trkpt lat="43.64962" lon="1.38622">
        <ele>134</ele>
        <time>2023-12-20T16:21:21Z</time>
      </trkpt>
      <trkpt lat="43.64959" lon="1.38623">
        <ele>134</ele>
        <time>2023-12-20T16:21:22Z</time>
      </trkpt>
      <trkpt lat="43.64956" lon="1.38624">
        <ele>134</ele>
        <time>2023-12-20T16:21:23Z</time>
      </trkpt>
      <trkpt lat="43.64953" lon="1.38625">
        <ele>134</ele>
        <time>2023-12-20T16:21:24Z</time>
      </trkpt>
      <trkpt lat="43.64951" lon="1.38626">
        <ele>135</ele>
        <time>2023-12-20T16:21:25Z</time>
      </trkpt>
      <trkpt lat="43.64949" lon="1.38627">
        <ele>135</ele>
        <time>2023-12-20T16:21:26Z</time>
      </trkpt>
      <trkpt lat="43.64947" lon="1.3863">
        <ele>135</ele>
        <time>2023-12-20T16:21:27Z</time>
      </trkpt>
      <trkpt lat="43.64944" lon="1.38632">
        <ele>135</ele>
        <time>2023-12-20T16:21:28Z</time>
      </trkpt>
      <trkpt lat="43.64942" lon="1.38633">
        <ele>135</ele>
        <time>2023-12-20T16:21:29Z</time>
      </trkpt>
      <trkpt lat="43.6494" lon="1.38635">
        <ele>135</ele>
        <time>2023-12-20T16:21:30Z</time>
      </trkpt>
      <trkpt lat="43.64938" lon="1.38637">
        <ele>135</ele>
        <time>2023-12-20T16:21:31Z</time>
      </trkpt>
      <trkpt lat="43.64935" lon="1.38638">
        <ele>135</ele>
        <time>2023-12-20T16:21:32Z</time>
      </trkpt>
      <trkpt lat="43.64933" lon="1.38639">
        <ele>135</ele>
        <time>2023-12-20T16:21:33Z</time>
      </trkpt>
      <trkpt lat="43.64931" lon="1.38641">
        <ele>135</ele>
        <time>2023-12-20T16:21:34Z</time>
      </trkpt>
      <trkpt lat="43.64928" lon="1.38642">
        <ele>135</ele>
        <time>2023-12-20T16:21:35Z</time>
      </trkpt>
      <trkpt lat="43.64926" lon="1.38643">
        <ele>136</ele>
        <time>2023-12-20T16:21:36Z</time>
      </trkpt>
      <trkpt lat="43.64924" lon="1.38645">
        <ele>136</ele>
        <time>2023-12-20T16:21:37Z</time>
      </trkpt>
      <trkpt lat="43.64922" lon="1.38646">
        <ele>136</ele>
        <time>2023-12-20T16:21:38Z</time>
      </trkpt>
      <trkpt lat="43.64919" lon="1.38648">
        <ele>136</ele>
        <time>2023-12-20T16:21:39Z</time>
      </trkpt>
      <trkpt lat="43.64917" lon="1.38649">
        <ele>136</ele>
        <time>2023-12-20T16:21:40Z</time>
      </trkpt>
      <trkpt lat="43.64915" lon="1.38651">
        <ele>136</ele>
        <time>2023-12-20T16:21:41Z</time>
      </trkpt>
      <trkpt lat="43.64913" lon="1.38652">
        <ele>136</ele>
        <time>2023-12-20T16:21:42Z</time>
      </trkpt>
      <trkpt lat="43.6491" lon="1.38654">
        <ele>136</ele>
        <time>2023-12-20T16:21:43Z</time>
      </trkpt>
      <trkpt lat="43.64908" lon="1.38656">
        <ele>136</ele>
        <time>2023-12-20T16:21:44Z</time>
      </trkpt>
      <trkpt lat="43.64906" lon="1.38658">
        <ele>136</ele>
        <time>2023-12-20T16:21:45Z</time>
      </trkpt>
      <trkpt lat="43.64903" lon="1.38659">
        <ele>135</ele>
        <time>2023-12-20T16:21:46Z</time>
      </trkpt>
      <trkpt lat="43.649" lon="1.3866">
        <ele>135</ele>
        <time>2023-12-20T16:21:47Z</time>
      </trkpt>
      <trkpt lat="43.64898" lon="1.38661">
        <ele>135</ele>
        <time>2023-12-20T16:21:48Z</time>
      </trkpt>
      <trkpt lat="43.64896" lon="1.38663">
        <ele>135</ele>
        <time>2023-12-20T16:21:49Z</time>
      </trkpt>
      <trkpt lat="43.64893" lon="1.38664">
        <ele>135</ele>
        <time>2023-12-20T16:21:50Z</time>
      </trkpt>
      <trkpt lat="43.64891" lon="1.38666">
        <ele>135</ele>
        <time>2023-12-20T16:21:51Z</time>
      </trkpt>
      <trkpt lat="43.64889" lon="1.38668">
        <ele>135</ele>
        <time>2023-12-20T16:21:52Z</time>
      </trkpt>
      <trkpt lat="43.64887" lon="1.38669">
        <ele>135</ele>
        <time>2023-12-20T16:21:53Z</time>
      </trkpt>
      <trkpt lat="43.64884" lon="1.3867">
        <ele>135</ele>
        <time>2023-12-20T16:21:54Z</time>
      </trkpt>
      <trkpt lat="43.64882" lon="1.38672">
        <ele>135</ele>
        <time>2023-12-20T16:21:55Z</time>
      </trkpt>
      <trkpt lat="43.6488" lon="1.38673">
        <ele>135</ele>
        <time>2023-12-20T16:21:56Z</time>
      </trkpt>
      <trkpt lat="43.64878" lon="1.38674">
        <ele>135</ele>
        <time>2023-12-20T16:21:57Z</time>
      </trkpt>
      <trkpt lat="43.64876" lon="1.38675">
        <ele>136</ele>
        <time>2023-12-20T16:21:58Z</time>
      </trkpt>
      <trkpt lat="43.64874" lon="1.38677">
        <ele>136</ele>
        <time>2023-12-20T16:21:59Z</time>
      </trkpt>
      <trkpt lat="43.64871" lon="1.38678">
        <ele>135</ele>
        <time>2023-12-20T16:22:00Z</time>
      </trkpt>
      <trkpt lat="43.64869" lon="1.3868">
        <ele>136</ele>
        <time>2023-12-20T16:22:01Z</time>
      </trkpt>
      <trkpt lat="43.64867" lon="1.38682">
        <ele>136</ele>
        <time>2023-12-20T16:22:02Z</time>
      </trkpt>
      <trkpt lat="43.64864" lon="1.38684">
        <ele>136</ele>
        <time>2023-12-20T16:22:03Z</time>
      </trkpt>
      <trkpt lat="43.64862" lon="1.38686">
        <ele>136</ele>
        <time>2023-12-20T16:22:04Z</time>
      </trkpt>
      <trkpt lat="43.64859" lon="1.38688">
        <ele>136</ele>
        <time>2023-12-20T16:22:05Z</time>
      </trkpt>
      <trkpt lat="43.64857" lon="1.38689">
        <ele>136</ele>
        <time>2023-12-20T16:22:06Z</time>
      </trkpt>
      <trkpt lat="43.64854" lon="1.38691">
        <ele>136</ele>
        <time>2023-12-20T16:22:07Z</time>
      </trkpt>
      <trkpt lat="43.64852" lon="1.38692">
        <ele>136</ele>
        <time>2023-12-20T16:22:08Z</time>
      </trkpt>
      <trkpt lat="43.64849" lon="1.38694">
        <ele>136</ele>
        <time>2023-12-20T16:22:09Z</time>
      </trkpt>
      <trkpt lat="43.64847" lon="1.38696">
        <ele>136</ele>
        <time>2023-12-20T16:22:10Z</time>
      </trkpt>
      <trkpt lat="43.64845" lon="1.38698">
        <ele>136</ele>
        <time>2023-12-20T16:22:11Z</time>
      </trkpt>
      <trkpt lat="43.64843" lon="1.387">
        <ele>136</ele>
        <time>2023-12-20T16:22:12Z</time>
      </trkpt>
      <trkpt lat="43.64841" lon="1.38702">
        <ele>135</ele>
        <time>2023-12-20T16:22:13Z</time>
      </trkpt>
      <trkpt lat="43.64838" lon="1.38704">
        <ele>135</ele>
        <time>2023-12-20T16:22:14Z</time>
      </trkpt>
      <trkpt lat="43.64836" lon="1.38706">
        <ele>135</ele>
        <time>2023-12-20T16:22:15Z</time>
      </trkpt>
      <trkpt lat="43.64834" lon="1.38708">
        <ele>135</ele>
        <time>2023-12-20T16:22:16Z</time>
      </trkpt>
      <trkpt lat="43.64832" lon="1.3871">
        <ele>135</ele>
        <time>2023-12-20T16:22:17Z</time>
      </trkpt>
      <trkpt lat="43.64829" lon="1.38712">
        <ele>135</ele>
        <time>2023-12-20T16:22:18Z</time>
      </trkpt>
      <trkpt lat="43.64827" lon="1.38713">
        <ele>135</ele>
        <time>2023-12-20T16:22:19Z</time>
      </trkpt>
      <trkpt lat="43.64824" lon="1.38715">
        <ele>135</ele>
        <time>2023-12-20T16:22:20Z</time>
      </trkpt>
      <trkpt lat="43.64822" lon="1.38716">
        <ele>135</ele>
        <time>2023-12-20T16:22:21Z</time>
      </trkpt>
      <trkpt lat="43.64819" lon="1.38718">
        <ele>135</ele>
        <time>2023-12-20T16:22:22Z</time>
      </trkpt>
      <trkpt lat="43.64817" lon="1.3872">
        <ele>135</ele>
        <time>2023-12-20T16:22:23Z</time>
      </trkpt>
      <trkpt lat="43.64815" lon="1.38722">
        <ele>135</ele>
        <time>2023-12-20T16:22:24Z</time>
      </trkpt>
      <trkpt lat="43.64812" lon="1.38723">
        <ele>135</ele>
        <time>2023-12-20T16:22:25Z</time>
      </trkpt>
      <trkpt lat="43.6481" lon="1.38725">
        <ele>135</ele>
        <time>2023-12-20T16:22:26Z</time>
      </trkpt>
      <trkpt lat="43.64808" lon="1.38727">
        <ele>135</ele>
        <time>2023-12-20T16:22:27Z</time>
      </trkpt>
      <trkpt lat="43.64806" lon="1.38728">
        <ele>135</ele>
        <time>2023-12-20T16:22:28Z</time>
      </trkpt>
      <trkpt lat="43.64804" lon="1.3873">
        <ele>135</ele>
        <time>2023-12-20T16:22:29Z</time>
      </trkpt>
      <trkpt lat="43.64801" lon="1.38731">
        <ele>135</ele>
        <time>2023-12-20T16:22:30Z</time>
      </trkpt>
      <trkpt lat="43.64799" lon="1.38733">
        <ele>135</ele>
        <time>2023-12-20T16:22:31Z</time>
      </trkpt>
      <trkpt lat="43.64796" lon="1.38735">
        <ele>135</ele>
        <time>2023-12-20T16:22:32Z</time>
      </trkpt>
      <trkpt lat="43.64794" lon="1.38736">
        <ele>135</ele>
        <time>2023-12-20T16:22:33Z</time>
      </trkpt>
      <trkpt lat="43.64792" lon="1.38738">
        <ele>135</ele>
        <time>2023-12-20T16:22:34Z</time>
      </trkpt>
      <trkpt lat="43.6479" lon="1.3874">
        <ele>135</ele>
        <time>2023-12-20T16:22:35Z</time>
      </trkpt>
      <trkpt lat="43.64787" lon="1.38741">
        <ele>135</ele>
        <time>2023-12-20T16:22:36Z</time>
      </trkpt>
      <trkpt lat="43.64785" lon="1.38743">
        <ele>135</ele>
        <time>2023-12-20T16:22:37Z</time>
      </trkpt>
      <trkpt lat="43.64783" lon="1.38744">
        <ele>135</ele>
        <time>2023-12-20T16:22:38Z</time>
      </trkpt>
      <trkpt lat="43.64781" lon="1.38746">
        <ele>135</ele>
        <time>2023-12-20T16:22:39Z</time>
      </trkpt>
      <trkpt lat="43.64779" lon="1.38748">
        <ele>135</ele>
        <time>2023-12-20T16:22:40Z</time>
      </trkpt>
      <trkpt lat="43.64776" lon="1.38749">
        <ele>135</ele>
        <time>2023-12-20T16:22:41Z</time>
      </trkpt>
      <trkpt lat="43.64774" lon="1.38751">
        <ele>135</ele>
        <time>2023-12-20T16:22:42Z</time>
      </trkpt>
      <trkpt lat="43.64772" lon="1.38752">
        <ele>135</ele>
        <time>2023-12-20T16:22:43Z</time>
      </trkpt>
      <trkpt lat="43.6477" lon="1.38754">
        <ele>135</ele>
        <time>2023-12-20T16:22:44Z</time>
      </trkpt>
      <trkpt lat="43.64767" lon="1.38755">
        <ele>135</ele>
        <time>2023-12-20T16:22:45Z</time>
      </trkpt>
      <trkpt lat="43.64765" lon="1.38757">
        <ele>135</ele>
        <time>2023-12-20T16:22:46Z</time>
      </trkpt>
      <trkpt lat="43.64763" lon="1.38759">
        <ele>135</ele>
        <time>2023-12-20T16:22:47Z</time>
      </trkpt>
      <trkpt lat="43.6476" lon="1.3876">
        <ele>135</ele>
        <time>2023-12-20T16:22:48Z</time>
      </trkpt>
      <trkpt lat="43.64757" lon="1.38761">
        <ele>135</ele>
        <time>2023-12-20T16:22:49Z</time>
      </trkpt>
      <trkpt lat="43.64755" lon="1.38763">
        <ele>135</ele>
        <time>2023-12-20T16:22:50Z</time>
      </trkpt>
      <trkpt lat="43.64752" lon="1.38765">
        <ele>135</ele>
        <time>2023-12-20T16:22:51Z</time>
      </trkpt>
      <trkpt lat="43.6475" lon="1.38767">
        <ele>135</ele>
        <time>2023-12-20T16:22:52Z</time>
      </trkpt>
      <trkpt lat="43.64748" lon="1.38768">
        <ele>136</ele>
        <time>2023-12-20T16:22:53Z</time>
      </trkpt>
      <trkpt lat="43.64745" lon="1.3877">
        <ele>136</ele>
        <time>2023-12-20T16:22:54Z</time>
      </trkpt>
      <trkpt lat="43.64743" lon="1.38772">
        <ele>136</ele>
        <time>2023-12-20T16:22:55Z</time>
      </trkpt>
      <trkpt lat="43.64741" lon="1.38774">
        <ele>136</ele>
        <time>2023-12-20T16:22:56Z</time>
      </trkpt>
      <trkpt lat="43.64739" lon="1.38776">
        <ele>136</ele>
        <time>2023-12-20T16:22:57Z</time>
      </trkpt>
      <trkpt lat="43.64736" lon="1.38777">
        <ele>136</ele>
        <time>2023-12-20T16:22:58Z</time>
      </trkpt>
      <trkpt lat="43.64734" lon="1.38779">
        <ele>136</ele>
        <time>2023-12-20T16:22:59Z</time>
      </trkpt>
      <trkpt lat="43.64732" lon="1.3878">
        <ele>136</ele>
        <time>2023-12-20T16:23:00Z</time>
      </trkpt>
      <trkpt lat="43.64729" lon="1.38782">
        <ele>136</ele>
        <time>2023-12-20T16:23:01Z</time>
      </trkpt>
      <trkpt lat="43.64727" lon="1.38783">
        <ele>136</ele>
        <time>2023-12-20T16:23:02Z</time>
      </trkpt>
      <trkpt lat="43.64725" lon="1.38785">
        <ele>136</ele>
        <time>2023-12-20T16:23:03Z</time>
      </trkpt>
      <trkpt lat="43.64722" lon="1.38786">
        <ele>136</ele>
        <time>2023-12-20T16:23:04Z</time>
      </trkpt>
      <trkpt lat="43.6472" lon="1.38788">
        <ele>136</ele>
        <time>2023-12-20T16:23:05Z</time>
      </trkpt>
      <trkpt lat="43.64717" lon="1.38789">
        <ele>136</ele>
        <time>2023-12-20T16:23:06Z</time>
      </trkpt>
      <trkpt lat="43.64715" lon="1.3879">
        <ele>136</ele>
        <time>2023-12-20T16:23:07Z</time>
      </trkpt>
      <trkpt lat="43.64713" lon="1.38791">
        <ele>136</ele>
        <time>2023-12-20T16:23:08Z</time>
      </trkpt>
      <trkpt lat="43.6471" lon="1.38793">
        <ele>136</ele>
        <time>2023-12-20T16:23:09Z</time>
      </trkpt>
      <trkpt lat="43.64708" lon="1.38794">
        <ele>136</ele>
        <time>2023-12-20T16:23:10Z</time>
      </trkpt>
      <trkpt lat="43.64705" lon="1.38794">
        <ele>136</ele>
        <time>2023-12-20T16:23:11Z</time>
      </trkpt>
      <trkpt lat="43.64703" lon="1.38795">
        <ele>136</ele>
        <time>2023-12-20T16:23:12Z</time>
      </trkpt>
      <trkpt lat="43.647" lon="1.38796">
        <ele>136</ele>
        <time>2023-12-20T16:23:13Z</time>
      </trkpt>
      <trkpt lat="43.64697" lon="1.38798">
        <ele>136</ele>
        <time>2023-12-20T16:23:14Z</time>
      </trkpt>
      <trkpt lat="43.64695" lon="1.38799">
        <ele>136</ele>
        <time>2023-12-20T16:23:15Z</time>
      </trkpt>
      <trkpt lat="43.64692" lon="1.38801">
        <ele>136</ele>
        <time>2023-12-20T16:23:16Z</time>
      </trkpt>
      <trkpt lat="43.6469" lon="1.38802">
        <ele>135</ele>
        <time>2023-12-20T16:23:17Z</time>
      </trkpt>
      <trkpt lat="43.64687" lon="1.38803">
        <ele>135</ele>
        <time>2023-12-20T16:23:18Z</time>
      </trkpt>
      <trkpt lat="43.64685" lon="1.38805">
        <ele>135</ele>
        <time>2023-12-20T16:23:19Z</time>
      </trkpt>
      <trkpt lat="43.64682" lon="1.38806">
        <ele>135</ele>
        <time>2023-12-20T16:23:20Z</time>
      </trkpt>
      <trkpt lat="43.6468" lon="1.38807">
        <ele>135</ele>
        <time>2023-12-20T16:23:21Z</time>
      </trkpt>
      <trkpt lat="43.64677" lon="1.38808">
        <ele>135</ele>
        <time>2023-12-20T16:23:22Z</time>
      </trkpt>
      <trkpt lat="43.64675" lon="1.38809">
        <ele>135</ele>
        <time>2023-12-20T16:23:23Z</time>
      </trkpt>
      <trkpt lat="43.64673" lon="1.3881">
        <ele>135</ele>
        <time>2023-12-20T16:23:24Z</time>
      </trkpt>
      <trkpt lat="43.6467" lon="1.38811">
        <ele>135</ele>
        <time>2023-12-20T16:23:25Z</time>
      </trkpt>
      <trkpt lat="43.64668" lon="1.38812">
        <ele>136</ele>
        <time>2023-12-20T16:23:26Z</time>
      </trkpt>
      <trkpt lat="43.64665" lon="1.38813">
        <ele>136</ele>
        <time>2023-12-20T16:23:27Z</time>
      </trkpt>
      <trkpt lat="43.64663" lon="1.38814">
        <ele>136</ele>
        <time>2023-12-20T16:23:28Z</time>
      </trkpt>
      <trkpt lat="43.6466" lon="1.38814">
        <ele>136</ele>
        <time>2023-12-20T16:23:29Z</time>
      </trkpt>
      <trkpt lat="43.6466" lon="1.38814">
        <ele>136</ele>
        <time>2023-12-20T16:23:30Z</time>
      </trkpt>
      <trkpt lat="43.64657" lon="1.38815">
        <ele>136</ele>
        <time>2023-12-20T16:23:31Z</time>
      </trkpt>
      <trkpt lat="43.64654" lon="1.38816">
        <ele>136</ele>
        <time>2023-12-20T16:23:32Z</time>
      </trkpt>
      <trkpt lat="43.64652" lon="1.38817">
        <ele>135</ele>
        <time>2023-12-20T16:23:33Z</time>
      </trkpt>
      <trkpt lat="43.64649" lon="1.38818">
        <ele>135</ele>
        <time>2023-12-20T16:23:34Z</time>
      </trkpt>
      <trkpt lat="43.64646" lon="1.38819">
        <ele>136</ele>
        <time>2023-12-20T16:23:35Z</time>
      </trkpt>
      <trkpt lat="43.64644" lon="1.3882">
        <ele>136</ele>
        <time>2023-12-20T16:23:36Z</time>
      </trkpt>
      <trkpt lat="43.64641" lon="1.38822">
        <ele>136</ele>
        <time>2023-12-20T16:23:37Z</time>
      </trkpt>
      <trkpt lat="43.64639" lon="1.38823">
        <ele>136</ele>
        <time>2023-12-20T16:23:38Z</time>
      </trkpt>
      <trkpt lat="43.64636" lon="1.38824">
        <ele>136</ele>
        <time>2023-12-20T16:23:39Z</time>
      </trkpt>
      <trkpt lat="43.64634" lon="1.38825">
        <ele>136</ele>
        <time>2023-12-20T16:23:40Z</time>
      </trkpt>
      <trkpt lat="43.64631" lon="1.38827">
        <ele>136</ele>
        <time>2023-12-20T16:23:41Z</time>
      </trkpt>
      <trkpt lat="43.64629" lon="1.38828">
        <ele>136</ele>
        <time>2023-12-20T16:23:42Z</time>
      </trkpt>
      <trkpt lat="43.64626" lon="1.3883">
        <ele>136</ele>
        <time>2023-12-20T16:23:43Z</time>
      </trkpt>
      <trkpt lat="43.64624" lon="1.38831">
        <ele>136</ele>
        <time>2023-12-20T16:23:44Z</time>
      </trkpt>
      <trkpt lat="43.64621" lon="1.38832">
        <ele>136</ele>
        <time>2023-12-20T16:23:45Z</time>
      </trkpt>
      <trkpt lat="43.64618" lon="1.38833">
        <ele>136</ele>
        <time>2023-12-20T16:23:46Z</time>
      </trkpt>
      <trkpt lat="43.64615" lon="1.38833">
        <ele>136</ele>
        <time>2023-12-20T16:23:47Z</time>
      </trkpt>
      <trkpt lat="43.64613" lon="1.38834">
        <ele>136</ele>
        <time>2023-12-20T16:23:48Z</time>
      </trkpt>
      <trkpt lat="43.64611" lon="1.38835">
        <ele>136</ele>
        <time>2023-12-20T16:23:49Z</time>
      </trkpt>
      <trkpt lat="43.64608" lon="1.38835">
        <ele>136</ele>
        <time>2023-12-20T16:23:50Z</time>
      </trkpt>
      <trkpt lat="43.64606" lon="1.38836">
        <ele>136</ele>
        <time>2023-12-20T16:23:51Z</time>
      </trkpt>
      <trkpt lat="43.64603" lon="1.38836">
        <ele>136</ele>
        <time>2023-12-20T16:23:52Z</time>
      </trkpt>
      <trkpt lat="43.64601" lon="1.38837">
        <ele>136</ele>
        <time>2023-12-20T16:23:53Z</time>
      </trkpt>
      <trkpt lat="43.64598" lon="1.38838">
        <ele>136</ele>
        <time>2023-12-20T16:23:54Z</time>
      </trkpt>
      <trkpt lat="43.64596" lon="1.38838">
        <ele>136</ele>
        <time>2023-12-20T16:23:55Z</time>
      </trkpt>
      <trkpt lat="43.64593" lon="1.38839">
        <ele>136</ele>
        <time>2023-12-20T16:23:56Z</time>
      </trkpt>
      <trkpt lat="43.6459" lon="1.38839">
        <ele>136</ele>
        <time>2023-12-20T16:23:57Z</time>
      </trkpt>
      <trkpt lat="43.64588" lon="1.3884">
        <ele>136</ele>
        <time>2023-12-20T16:23:58Z</time>
      </trkpt>
      <trkpt lat="43.64585" lon="1.3884">
        <ele>136</ele>
        <time>2023-12-20T16:23:59Z</time>
      </trkpt>
      <trkpt lat="43.64582" lon="1.38841">
        <ele>135</ele>
        <time>2023-12-20T16:24:00Z</time>
      </trkpt>
      <trkpt lat="43.6458" lon="1.38841">
        <ele>135</ele>
        <time>2023-12-20T16:24:01Z</time>
      </trkpt>
      <trkpt lat="43.64577" lon="1.38841">
        <ele>135</ele>
        <time>2023-12-20T16:24:02Z</time>
      </trkpt>
      <trkpt lat="43.64575" lon="1.38841">
        <ele>135</ele>
        <time>2023-12-20T16:24:03Z</time>
      </trkpt>
      <trkpt lat="43.64572" lon="1.38842">
        <ele>136</ele>
        <time>2023-12-20T16:24:04Z</time>
      </trkpt>
      <trkpt lat="43.6457" lon="1.38842">
        <ele>136</ele>
        <time>2023-12-20T16:24:05Z</time>
      </trkpt>
      <trkpt lat="43.64567" lon="1.38842">
        <ele>136</ele>
        <time>2023-12-20T16:24:06Z</time>
      </trkpt>
      <trkpt lat="43.64565" lon="1.38842">
        <ele>136</ele>
        <time>2023-12-20T16:24:07Z</time>
      </trkpt>
      <trkpt lat="43.64562" lon="1.38843">
        <ele>136</ele>
        <time>2023-12-20T16:24:08Z</time>
      </trkpt>
      <trkpt lat="43.6456" lon="1.38843">
        <ele>136</ele>
        <time>2023-12-20T16:24:09Z</time>
      </trkpt>
      <trkpt lat="43.64557" lon="1.38843">
        <ele>136</ele>
        <time>2023-12-20T16:24:10Z</time>
      </trkpt>
      <trkpt lat="43.64555" lon="1.38844">
        <ele>136</ele>
        <time>2023-12-20T16:24:11Z</time>
      </trkpt>
      <trkpt lat="43.64552" lon="1.38844">
        <ele>136</ele>
        <time>2023-12-20T16:24:12Z</time>
      </trkpt>
      <trkpt lat="43.64549" lon="1.38844">
        <ele>135</ele>
        <time>2023-12-20T16:24:13Z</time>
      </trkpt>
      <trkpt lat="43.64547" lon="1.38844">
        <ele>135</ele>
        <time>2023-12-20T16:24:14Z</time>
      </trkpt>
      <trkpt lat="43.64544" lon="1.38845">
        <ele>135</ele>
        <time>2023-12-20T16:24:15Z</time>
      </trkpt>
      <trkpt lat="43.64541" lon="1.38846">
        <ele>135</ele>
        <time>2023-12-20T16:24:16Z</time>
      </trkpt>
      <trkpt lat="43.64539" lon="1.38846">
        <ele>135</ele>
        <time>2023-12-20T16:24:17Z</time>
      </trkpt>
      <trkpt lat="43.64536" lon="1.38847">
        <ele>135</ele>
        <time>2023-12-20T16:24:18Z</time>
      </trkpt>
      <trkpt lat="43.64534" lon="1.38847">
        <ele>135</ele>
        <time>2023-12-20T16:24:19Z</time>
      </trkpt>
      <trkpt lat="43.64531" lon="1.38848">
        <ele>135</ele>
        <time>2023-12-20T16:24:20Z</time>
      </trkpt>
      <trkpt lat="43.64528" lon="1.38849">
        <ele>135</ele>
        <time>2023-12-20T16:24:21Z</time>
      </trkpt>
      <trkpt lat="43.64525" lon="1.3885">
        <ele>135</ele>
        <time>2023-12-20T16:24:22Z</time>
      </trkpt>
      <trkpt lat="43.64523" lon="1.3885">
        <ele>135</ele>
        <time>2023-12-20T16:24:23Z</time>
      </trkpt>
      <trkpt lat="43.6452" lon="1.38851">
        <ele>135</ele>
        <time>2023-12-20T16:24:24Z</time>
      </trkpt>
      <trkpt lat="43.64518" lon="1.38852">
        <ele>135</ele>
        <time>2023-12-20T16:24:25Z</time>
      </trkpt>
      <trkpt lat="43.64515" lon="1.38852">
        <ele>135</ele>
        <time>2023-12-20T16:24:26Z</time>
      </trkpt>
      <trkpt lat="43.64515" lon="1.38852">
        <ele>135</ele>
        <time>2023-12-20T16:24:27Z</time>
      </trkpt>
      <trkpt lat="43.6451" lon="1.38853">
        <ele>135</ele>
        <time>2023-12-20T16:24:28Z</time>
      </trkpt>
      <trkpt lat="43.64507" lon="1.38854">
        <ele>135</ele>
        <time>2023-12-20T16:24:29Z</time>
      </trkpt>
      <trkpt lat="43.64505" lon="1.38854">
        <ele>135</ele>
        <time>2023-12-20T16:24:30Z</time>
      </trkpt>
      <trkpt lat="43.64501" lon="1.38855">
        <ele>135</ele>
        <time>2023-12-20T16:24:31Z</time>
      </trkpt>
      <trkpt lat="43.64499" lon="1.38855">
        <ele>135</ele>
        <time>2023-12-20T16:24:32Z</time>
      </trkpt>
      <trkpt lat="43.64496" lon="1.38856">
        <ele>135</ele>
        <time>2023-12-20T16:24:33Z</time>
      </trkpt>
      <trkpt lat="43.64494" lon="1.38856">
        <ele>135</ele>
        <time>2023-12-20T16:24:34Z</time>
      </trkpt>
      <trkpt lat="43.64492" lon="1.38857">
        <ele>135</ele>
        <time>2023-12-20T16:24:35Z</time>
      </trkpt>
      <trkpt lat="43.64489" lon="1.38857">
        <ele>135</ele>
        <time>2023-12-20T16:24:36Z</time>
      </trkpt>
      <trkpt lat="43.64487" lon="1.38857">
        <ele>135</ele>
        <time>2023-12-20T16:24:37Z</time>
      </trkpt>
      <trkpt lat="43.64484" lon="1.38858">
        <ele>135</ele>
        <time>2023-12-20T16:24:38Z</time>
      </trkpt>
      <trkpt lat="43.64482" lon="1.38858">
        <ele>135</ele>
        <time>2023-12-20T16:24:39Z</time>
      </trkpt>
      <trkpt lat="43.64479" lon="1.38858">
        <ele>135</ele>
        <time>2023-12-20T16:24:40Z</time>
      </trkpt>
      <trkpt lat="43.64477" lon="1.38859">
        <ele>135</ele>
        <time>2023-12-20T16:24:41Z</time>
      </trkpt>
      <trkpt lat="43.64474" lon="1.3886">
        <ele>135</ele>
        <time>2023-12-20T16:24:42Z</time>
      </trkpt>
      <trkpt lat="43.64471" lon="1.3886">
        <ele>135</ele>
        <time>2023-12-20T16:24:43Z</time>
      </trkpt>
      <trkpt lat="43.64469" lon="1.38861">
        <ele>135</ele>
        <time>2023-12-20T16:24:44Z</time>
      </trkpt>
      <trkpt lat="43.64466" lon="1.38861">
        <ele>135</ele>
        <time>2023-12-20T16:24:45Z</time>
      </trkpt>
      <trkpt lat="43.64463" lon="1.38862">
        <ele>135</ele>
        <time>2023-12-20T16:24:46Z</time>
      </trkpt>
      <trkpt lat="43.6446" lon="1.38863">
        <ele>135</ele>
        <time>2023-12-20T16:24:47Z</time>
      </trkpt>
      <trkpt lat="43.64458" lon="1.38863">
        <ele>135</ele>
        <time>2023-12-20T16:24:48Z</time>
      </trkpt>
      <trkpt lat="43.64455" lon="1.38864">
        <ele>135</ele>
        <time>2023-12-20T16:24:49Z</time>
      </trkpt>
      <trkpt lat="43.64452" lon="1.38865">
        <ele>134</ele>
        <time>2023-12-20T16:24:50Z</time>
      </trkpt>
      <trkpt lat="43.64449" lon="1.38865">
        <ele>134</ele>
        <time>2023-12-20T16:24:51Z</time>
      </trkpt>
      <trkpt lat="43.64447" lon="1.38866">
        <ele>134</ele>
        <time>2023-12-20T16:24:52Z</time>
      </trkpt>
      <trkpt lat="43.64444" lon="1.38867">
        <ele>135</ele>
        <time>2023-12-20T16:24:53Z</time>
      </trkpt>
      <trkpt lat="43.64441" lon="1.38868">
        <ele>135</ele>
        <time>2023-12-20T16:24:54Z</time>
      </trkpt>
      <trkpt lat="43.64438" lon="1.38868">
        <ele>135</ele>
        <time>2023-12-20T16:24:55Z</time>
      </trkpt>
      <trkpt lat="43.64436" lon="1.38869">
        <ele>135</ele>
        <time>2023-12-20T16:24:56Z</time>
      </trkpt>
      <trkpt lat="43.64433" lon="1.3887">
        <ele>135</ele>
        <time>2023-12-20T16:24:57Z</time>
      </trkpt>
      <trkpt lat="43.64431" lon="1.3887">
        <ele>135</ele>
        <time>2023-12-20T16:24:58Z</time>
      </trkpt>
      <trkpt lat="43.64428" lon="1.38871">
        <ele>135</ele>
        <time>2023-12-20T16:24:59Z</time>
      </trkpt>
      <trkpt lat="43.64425" lon="1.38872">
        <ele>135</ele>
        <time>2023-12-20T16:25:00Z</time>
      </trkpt>
      <trkpt lat="43.64423" lon="1.38873">
        <ele>135</ele>
        <time>2023-12-20T16:25:01Z</time>
      </trkpt>
      <trkpt lat="43.64421" lon="1.38874">
        <ele>135</ele>
        <time>2023-12-20T16:25:02Z</time>
      </trkpt>
      <trkpt lat="43.64418" lon="1.38875">
        <ele>135</ele>
        <time>2023-12-20T16:25:03Z</time>
      </trkpt>
      <trkpt lat="43.64416" lon="1.38876">
        <ele>135</ele>
        <time>2023-12-20T16:25:04Z</time>
      </trkpt>
      <trkpt lat="43.64413" lon="1.38877">
        <ele>135</ele>
        <time>2023-12-20T16:25:05Z</time>
      </trkpt>
      <trkpt lat="43.64411" lon="1.38879">
        <ele>135</ele>
        <time>2023-12-20T16:25:06Z</time>
      </trkpt>
      <trkpt lat="43.64408" lon="1.3888">
        <ele>135</ele>
        <time>2023-12-20T16:25:07Z</time>
      </trkpt>
      <trkpt lat="43.64406" lon="1.38882">
        <ele>135</ele>
        <time>2023-12-20T16:25:08Z</time>
      </trkpt>
      <trkpt lat="43.64403" lon="1.38883">
        <ele>135</ele>
        <time>2023-12-20T16:25:09Z</time>
      </trkpt>
      <trkpt lat="43.64401" lon="1.38884">
        <ele>135</ele>
        <time>2023-12-20T16:25:10Z</time>
      </trkpt>
      <trkpt lat="43.64399" lon="1.38885">
        <ele>135</ele>
        <time>2023-12-20T16:25:11Z</time>
      </trkpt>
      <trkpt lat="43.64396" lon="1.38886">
        <ele>135</ele>
        <time>2023-12-20T16:25:12Z</time>
      </trkpt>
      <trkpt lat="43.64394" lon="1.38887">
        <ele>135</ele>
        <time>2023-12-20T16:25:13Z</time>
      </trkpt>
      <trkpt lat="43.64392" lon="1.38889">
        <ele>135</ele>
        <time>2023-12-20T16:25:14Z</time>
      </trkpt>
      <trkpt lat="43.6439" lon="1.3889">
        <ele>135</ele>
        <time>2023-12-20T16:25:15Z</time>
      </trkpt>
      <trkpt lat="43.64388" lon="1.38892">
        <ele>135</ele>
        <time>2023-12-20T16:25:16Z</time>
      </trkpt>
      <trkpt lat="43.64385" lon="1.38894">
        <ele>135</ele>
        <time>2023-12-20T16:25:17Z</time>
      </trkpt>
      <trkpt lat="43.64383" lon="1.38895">
        <ele>135</ele>
        <time>2023-12-20T16:25:18Z</time>
      </trkpt>
      <trkpt lat="43.64381" lon="1.38897">
        <ele>135</ele>
        <time>2023-12-20T16:25:19Z</time>
      </trkpt>
      <trkpt lat="43.64379" lon="1.38899">
        <ele>135</ele>
        <time>2023-12-20T16:25:20Z</time>
      </trkpt>
      <trkpt lat="43.64377" lon="1.389">
        <ele>135</ele>
        <time>2023-12-20T16:25:21Z</time>
      </trkpt>
      <trkpt lat="43.64374" lon="1.38902">
        <ele>135</ele>
        <time>2023-12-20T16:25:22Z</time>
      </trkpt>
      <trkpt lat="43.64372" lon="1.38904">
        <ele>135</ele>
        <time>2023-12-20T16:25:23Z</time>
      </trkpt>
      <trkpt lat="43.6437" lon="1.38906">
        <ele>135</ele>
        <time>2023-12-20T16:25:24Z</time>
      </trkpt>
      <trkpt lat="43.64368" lon="1.38908">
        <ele>135</ele>
        <time>2023-12-20T16:25:25Z</time>
      </trkpt>
      <trkpt lat="43.64365" lon="1.3891">
        <ele>135</ele>
        <time>2023-12-20T16:25:26Z</time>
      </trkpt>
      <trkpt lat="43.64363" lon="1.38911">
        <ele>135</ele>
        <time>2023-12-20T16:25:27Z</time>
      </trkpt>
      <trkpt lat="43.6436" lon="1.38912">
        <ele>135</ele>
        <time>2023-12-20T16:25:28Z</time>
      </trkpt>
      <trkpt lat="43.64357" lon="1.38912">
        <ele>135</ele>
        <time>2023-12-20T16:25:29Z</time>
      </trkpt>
      <trkpt lat="43.64354" lon="1.3891">
        <ele>135</ele>
        <time>2023-12-20T16:25:30Z</time>
      </trkpt>
      <trkpt lat="43.64352" lon="1.38909">
        <ele>135</ele>
        <time>2023-12-20T16:25:31Z</time>
      </trkpt>
      <trkpt lat="43.6435" lon="1.38908">
        <ele>135</ele>
        <time>2023-12-20T16:25:32Z</time>
      </trkpt>
      <trkpt lat="43.64347" lon="1.38906">
        <ele>135</ele>
        <time>2023-12-20T16:25:33Z</time>
      </trkpt>
      <trkpt lat="43.64345" lon="1.38905">
        <ele>135</ele>
        <time>2023-12-20T16:25:34Z</time>
      </trkpt>
      <trkpt lat="43.64342" lon="1.38903">
        <ele>136</ele>
        <time>2023-12-20T16:25:35Z</time>
      </trkpt>
      <trkpt lat="43.6434" lon="1.389">
        <ele>136</ele>
        <time>2023-12-20T16:25:36Z</time>
      </trkpt>
      <trkpt lat="43.64338" lon="1.38896">
        <ele>136</ele>
        <time>2023-12-20T16:25:37Z</time>
      </trkpt>
      <trkpt lat="43.64337" lon="1.38893">
        <ele>135</ele>
        <time>2023-12-20T16:25:38Z</time>
      </trkpt>
      <trkpt lat="43.64335" lon="1.38889">
        <ele>135</ele>
        <time>2023-12-20T16:25:39Z</time>
      </trkpt>
      <trkpt lat="43.64334" lon="1.38886">
        <ele>136</ele>
        <time>2023-12-20T16:25:40Z</time>
      </trkpt>
      <trkpt lat="43.64333" lon="1.38882">
        <ele>136</ele>
        <time>2023-12-20T16:25:41Z</time>
      </trkpt>
      <trkpt lat="43.64331" lon="1.38879">
        <ele>136</ele>
        <time>2023-12-20T16:25:42Z</time>
      </trkpt>
      <trkpt lat="43.6433" lon="1.38876">
        <ele>136</ele>
        <time>2023-12-20T16:25:43Z</time>
      </trkpt>
      <trkpt lat="43.64328" lon="1.38873">
        <ele>136</ele>
        <time>2023-12-20T16:25:44Z</time>
      </trkpt>
      <trkpt lat="43.64327" lon="1.3887">
        <ele>136</ele>
        <time>2023-12-20T16:25:45Z</time>
      </trkpt>
      <trkpt lat="43.64325" lon="1.38867">
        <ele>136</ele>
        <time>2023-12-20T16:25:46Z</time>
      </trkpt>
      <trkpt lat="43.64324" lon="1.38863">
        <ele>136</ele>
        <time>2023-12-20T16:25:47Z</time>
      </trkpt>
      <trkpt lat="43.64322" lon="1.3886">
        <ele>136</ele>
        <time>2023-12-20T16:25:48Z</time>
      </trkpt>
      <trkpt lat="43.64321" lon="1.38857">
        <ele>136</ele>
        <time>2023-12-20T16:25:49Z</time>
      </trkpt>
      <trkpt lat="43.64319" lon="1.38854">
        <ele>136</ele>
        <time>2023-12-20T16:25:50Z</time>
      </trkpt>
      <trkpt lat="43.64318" lon="1.38851">
        <ele>136</ele>
        <time>2023-12-20T16:25:51Z</time>
      </trkpt>
      <trkpt lat="43.64317" lon="1.38848">
        <ele>136</ele>
        <time>2023-12-20T16:25:52Z</time>
      </trkpt>
      <trkpt lat="43.64316" lon="1.38845">
        <ele>136</ele>
        <time>2023-12-20T16:25:53Z</time>
      </trkpt>
      <trkpt lat="43.64314" lon="1.38842">
        <ele>136</ele>
        <time>2023-12-20T16:25:54Z</time>
      </trkpt>
      <trkpt lat="43.64313" lon="1.38839">
        <ele>136</ele>
        <time>2023-12-20T16:25:55Z</time>
      </trkpt>
      <trkpt lat="43.64312" lon="1.38836">
        <ele>136</ele>
        <time>2023-12-20T16:25:56Z</time>
      </trkpt>
      <trkpt lat="43.64311" lon="1.38833">
        <ele>136</ele>
        <time>2023-12-20T16:25:57Z</time>
      </trkpt>
      <trkpt lat="43.64309" lon="1.3883">
        <ele>136</ele>
        <time>2023-12-20T16:25:58Z</time>
      </trkpt>
      <trkpt lat="43.64308" lon="1.38827">
        <ele>136</ele>
        <time>2023-12-20T16:25:59Z</time>
      </trkpt>
      <trkpt lat="43.64307" lon="1.38823">
        <ele>136</ele>
        <time>2023-12-20T16:26:00Z</time>
      </trkpt>
      <trkpt lat="43.64305" lon="1.38821">
        <ele>136</ele>
        <time>2023-12-20T16:26:01Z</time>
      </trkpt>
      <trkpt lat="43.64303" lon="1.38818">
        <ele>136</ele>
        <time>2023-12-20T16:26:02Z</time>
      </trkpt>
      <trkpt lat="43.64302" lon="1.38815">
        <ele>136</ele>
        <time>2023-12-20T16:26:03Z</time>
      </trkpt>
      <trkpt lat="43.64301" lon="1.38812">
        <ele>136</ele>
        <time>2023-12-20T16:26:04Z</time>
      </trkpt>
      <trkpt lat="43.643" lon="1.38809">
        <ele>136</ele>
        <time>2023-12-20T16:26:05Z</time>
      </trkpt>
      <trkpt lat="43.643" lon="1.38805">
        <ele>136</ele>
        <time>2023-12-20T16:26:06Z</time>
      </trkpt>
      <trkpt lat="43.64301" lon="1.38802">
        <ele>136</ele>
        <time>2023-12-20T16:26:07Z</time>
      </trkpt>
      <trkpt lat="43.64301" lon="1.38798">
        <ele>136</ele>
        <time>2023-12-20T16:26:08Z</time>
      </trkpt>
      <trkpt lat="43.64301" lon="1.38794">
        <ele>136</ele>
        <time>2023-12-20T16:26:09Z</time>
      </trkpt>
      <trkpt lat="43.643" lon="1.38791">
        <ele>136</ele>
        <time>2023-12-20T16:26:10Z</time>
      </trkpt>
      <trkpt lat="43.64299" lon="1.38787">
        <ele>136</ele>
        <time>2023-12-20T16:26:11Z</time>
      </trkpt>
      <trkpt lat="43.64297" lon="1.38785">
        <ele>136</ele>
        <time>2023-12-20T16:26:12Z</time>
      </trkpt>
      <trkpt lat="43.64294" lon="1.38783">
        <ele>136</ele>
        <time>2023-12-20T16:26:13Z</time>
      </trkpt>
      <trkpt lat="43.64292" lon="1.38781">
        <ele>136</ele>
        <time>2023-12-20T16:26:14Z</time>
      </trkpt>
      <trkpt lat="43.6429" lon="1.38779">
        <ele>136</ele>
        <time>2023-12-20T16:26:15Z</time>
      </trkpt>
      <trkpt lat="43.64289" lon="1.38776">
        <ele>136</ele>
        <time>2023-12-20T16:26:16Z</time>
      </trkpt>
      <trkpt lat="43.64287" lon="1.38773">
        <ele>136</ele>
        <time>2023-12-20T16:26:17Z</time>
      </trkpt>
      <trkpt lat="43.64286" lon="1.3877">
        <ele>136</ele>
        <time>2023-12-20T16:26:18Z</time>
      </trkpt>
      <trkpt lat="43.64285" lon="1.38767">
        <ele>136</ele>
        <time>2023-12-20T16:26:19Z</time>
      </trkpt>
      <trkpt lat="43.64284" lon="1.38764">
        <ele>136</ele>
        <time>2023-12-20T16:26:20Z</time>
      </trkpt>
      <trkpt lat="43.64283" lon="1.3876">
        <ele>136</ele>
        <time>2023-12-20T16:26:21Z</time>
      </trkpt>
      <trkpt lat="43.64281" lon="1.38757">
        <ele>136</ele>
        <time>2023-12-20T16:26:22Z</time>
      </trkpt>
      <trkpt lat="43.6428" lon="1.38754">
        <ele>136</ele>
        <time>2023-12-20T16:26:23Z</time>
      </trkpt>
      <trkpt lat="43.64279" lon="1.38751">
        <ele>136</ele>
        <time>2023-12-20T16:26:24Z</time>
      </trkpt>
      <trkpt lat="43.64278" lon="1.38748">
        <ele>136</ele>
        <time>2023-12-20T16:26:25Z</time>
      </trkpt>
      <trkpt lat="43.64277" lon="1.38745">
        <ele>136</ele>
        <time>2023-12-20T16:26:26Z</time>
      </trkpt>
      <trkpt lat="43.64276" lon="1.38742">
        <ele>136</ele>
        <time>2023-12-20T16:26:27Z</time>
      </trkpt>
      <trkpt lat="43.64275" lon="1.38739">
        <ele>136</ele>
        <time>2023-12-20T16:26:28Z</time>
      </trkpt>
      <trkpt lat="43.64274" lon="1.38736">
        <ele>136</ele>
        <time>2023-12-20T16:26:29Z</time>
      </trkpt>
      <trkpt lat="43.64273" lon="1.38732">
        <ele>136</ele>
        <time>2023-12-20T16:26:30Z</time>
      </trkpt>
      <trkpt lat="43.64272" lon="1.38729">
        <ele>136</ele>
        <time>2023-12-20T16:26:31Z</time>
      </trkpt>
      <trkpt lat="43.64271" lon="1.38726">
        <ele>137</ele>
        <time>2023-12-20T16:26:32Z</time>
      </trkpt>
      <trkpt lat="43.6427" lon="1.38722">
        <ele>137</ele>
        <time>2023-12-20T16:26:33Z</time>
      </trkpt>
      <trkpt lat="43.64269" lon="1.38719">
        <ele>137</ele>
        <time>2023-12-20T16:26:34Z</time>
      </trkpt>
      <trkpt lat="43.6427" lon="1.38716">
        <ele>137</ele>
        <time>2023-12-20T16:26:35Z</time>
      </trkpt>
      <trkpt lat="43.6427" lon="1.38713">
        <ele>137</ele>
        <time>2023-12-20T16:26:36Z</time>
      </trkpt>
      <trkpt lat="43.64271" lon="1.38709">
        <ele>138</ele>
        <time>2023-12-20T16:26:37Z</time>
      </trkpt>
      <trkpt lat="43.64272" lon="1.38706">
        <ele>138</ele>
        <time>2023-12-20T16:26:38Z</time>
      </trkpt>
      <trkpt lat="43.64273" lon="1.38703">
        <ele>138</ele>
        <time>2023-12-20T16:26:39Z</time>
      </trkpt>
      <trkpt lat="43.64273" lon="1.38703">
        <ele>138</ele>
        <time>2023-12-20T16:26:40Z</time>
      </trkpt>
      <trkpt lat="43.64276" lon="1.38696">
        <ele>138</ele>
        <time>2023-12-20T16:26:41Z</time>
      </trkpt>
      <trkpt lat="43.64277" lon="1.38694">
        <ele>138</ele>
        <time>2023-12-20T16:26:42Z</time>
      </trkpt>
      <trkpt lat="43.64277" lon="1.38694">
        <ele>138</ele>
        <time>2023-12-20T16:26:43Z</time>
      </trkpt>
      <trkpt lat="43.64279" lon="1.3869">
        <ele>138</ele>
        <time>2023-12-20T16:26:44Z</time>
      </trkpt>
      <trkpt lat="43.64278" lon="1.38686">
        <ele>138</ele>
        <time>2023-12-20T16:26:45Z</time>
      </trkpt>
      <trkpt lat="43.64277" lon="1.38683">
        <ele>138</ele>
        <time>2023-12-20T16:26:46Z</time>
      </trkpt>
      <trkpt lat="43.64274" lon="1.3868">
        <ele>137</ele>
        <time>2023-12-20T16:26:47Z</time>
      </trkpt>
      <trkpt lat="43.64272" lon="1.38678">
        <ele>137</ele>
        <time>2023-12-20T16:26:48Z</time>
      </trkpt>
      <trkpt lat="43.6427" lon="1.38677">
        <ele>137</ele>
        <time>2023-12-20T16:26:49Z</time>
      </trkpt>
      <trkpt lat="43.64267" lon="1.38677">
        <ele>137</ele>
        <time>2023-12-20T16:26:50Z</time>
      </trkpt>
      <trkpt lat="43.64265" lon="1.38677">
        <ele>137</ele>
        <time>2023-12-20T16:26:51Z</time>
      </trkpt>
      <trkpt lat="43.64262" lon="1.38677">
        <ele>137</ele>
        <time>2023-12-20T16:26:52Z</time>
      </trkpt>
      <trkpt lat="43.6426" lon="1.38676">
        <ele>137</ele>
        <time>2023-12-20T16:26:53Z</time>
      </trkpt>
      <trkpt lat="43.64257" lon="1.38675">
        <ele>137</ele>
        <time>2023-12-20T16:26:54Z</time>
      </trkpt>
      <trkpt lat="43.64255" lon="1.38673">
        <ele>137</ele>
        <time>2023-12-20T16:26:55Z</time>
      </trkpt>
      <trkpt lat="43.64253" lon="1.38671">
        <ele>137</ele>
        <time>2023-12-20T16:26:56Z</time>
      </trkpt>
      <trkpt lat="43.64251" lon="1.38668">
        <ele>138</ele>
        <time>2023-12-20T16:26:57Z</time>
      </trkpt>
      <trkpt lat="43.6425" lon="1.38664">
        <ele>138</ele>
        <time>2023-12-20T16:26:58Z</time>
      </trkpt>
      <trkpt lat="43.64248" lon="1.38661">
        <ele>138</ele>
        <time>2023-12-20T16:26:59Z</time>
      </trkpt>
      <trkpt lat="43.64247" lon="1.38658">
        <ele>138</ele>
        <time>2023-12-20T16:27:00Z</time>
      </trkpt>
      <trkpt lat="43.64246" lon="1.38654">
        <ele>138</ele>
        <time>2023-12-20T16:27:01Z</time>
      </trkpt>
      <trkpt lat="43.64244" lon="1.38651">
        <ele>138</ele>
        <time>2023-12-20T16:27:02Z</time>
      </trkpt>
      <trkpt lat="43.64242" lon="1.38648">
        <ele>137</ele>
        <time>2023-12-20T16:27:03Z</time>
      </trkpt>
      <trkpt lat="43.64241" lon="1.38645">
        <ele>137</ele>
        <time>2023-12-20T16:27:04Z</time>
      </trkpt>
      <trkpt lat="43.6424" lon="1.38642">
        <ele>137</ele>
        <time>2023-12-20T16:27:05Z</time>
      </trkpt>
      <trkpt lat="43.64239" lon="1.38639">
        <ele>137</ele>
        <time>2023-12-20T16:27:06Z</time>
      </trkpt>
      <trkpt lat="43.64237" lon="1.38636">
        <ele>137</ele>
        <time>2023-12-20T16:27:07Z</time>
      </trkpt>
      <trkpt lat="43.64236" lon="1.38632">
        <ele>137</ele>
        <time>2023-12-20T16:27:08Z</time>
      </trkpt>
      <trkpt lat="43.64235" lon="1.38629">
        <ele>138</ele>
        <time>2023-12-20T16:27:09Z</time>
      </trkpt>
      <trkpt lat="43.64233" lon="1.38626">
        <ele>138</ele>
        <time>2023-12-20T16:27:10Z</time>
      </trkpt>
      <trkpt lat="43.64232" lon="1.38622">
        <ele>138</ele>
        <time>2023-12-20T16:27:11Z</time>
      </trkpt>
      <trkpt lat="43.64231" lon="1.38619">
        <ele>138</ele>
        <time>2023-12-20T16:27:12Z</time>
      </trkpt>
      <trkpt lat="43.6423" lon="1.38615">
        <ele>138</ele>
        <time>2023-12-20T16:27:13Z</time>
      </trkpt>
      <trkpt lat="43.64229" lon="1.38612">
        <ele>138</ele>
        <time>2023-12-20T16:27:14Z</time>
      </trkpt>
      <trkpt lat="43.64228" lon="1.38608">
        <ele>138</ele>
        <time>2023-12-20T16:27:15Z</time>
      </trkpt>
      <trkpt lat="43.64227" lon="1.38605">
        <ele>137</ele>
        <time>2023-12-20T16:27:16Z</time>
      </trkpt>
      <trkpt lat="43.64225" lon="1.38602">
        <ele>137</ele>
        <time>2023-12-20T16:27:17Z</time>
      </trkpt>
      <trkpt lat="43.64224" lon="1.38598">
        <ele>138</ele>
        <time>2023-12-20T16:27:18Z</time>
      </trkpt>
      <trkpt lat="43.64223" lon="1.38595">
        <ele>138</ele>
        <time>2023-12-20T16:27:19Z</time>
      </trkpt>
      <trkpt lat="43.64222" lon="1.38592">
        <ele>138</ele>
        <time>2023-12-20T16:27:20Z</time>
      </trkpt>
      <trkpt lat="43.64221" lon="1.38588">
        <ele>138</ele>
        <time>2023-12-20T16:27:21Z</time>
      </trkpt>
      <trkpt lat="43.64219" lon="1.38585">
        <ele>138</ele>
        <time>2023-12-20T16:27:22Z</time>
      </trkpt>
      <trkpt lat="43.64218" lon="1.38582">
        <ele>137</ele>
        <time>2023-12-20T16:27:23Z</time>
      </trkpt>
      <trkpt lat="43.64216" lon="1.38579">
        <ele>137</ele>
        <time>2023-12-20T16:27:24Z</time>
      </trkpt>
      <trkpt lat="43.64215" lon="1.38576">
        <ele>137</ele>
        <time>2023-12-20T16:27:25Z</time>
      </trkpt>
      <trkpt lat="43.64213" lon="1.38573">
        <ele>137</ele>
        <time>2023-12-20T16:27:26Z</time>
      </trkpt>
      <trkpt lat="43.64212" lon="1.3857">
        <ele>137</ele>
        <time>2023-12-20T16:27:27Z</time>
      </trkpt>
      <trkpt lat="43.64211" lon="1.38567">
        <ele>137</ele>
        <time>2023-12-20T16:27:28Z</time>
      </trkpt>
      <trkpt lat="43.64209" lon="1.38564">
        <ele>137</ele>
        <time>2023-12-20T16:27:29Z</time>
      </trkpt>
      <trkpt lat="43.64208" lon="1.38561">
        <ele>137</ele>
        <time>2023-12-20T16:27:30Z</time>
      </trkpt>
      <trkpt lat="43.64206" lon="1.38558">
        <ele>137</ele>
        <time>2023-12-20T16:27:31Z</time>
      </trkpt>
      <trkpt lat="43.64205" lon="1.38555">
        <ele>137</ele>
        <time>2023-12-20T16:27:32Z</time>
      </trkpt>
      <trkpt lat="43.64204" lon="1.38552">
        <ele>137</ele>
        <time>2023-12-20T16:27:33Z</time>
      </trkpt>
      <trkpt lat="43.64202" lon="1.38549">
        <ele>137</ele>
        <time>2023-12-20T16:27:34Z</time>
      </trkpt>
      <trkpt lat="43.642" lon="1.38546">
        <ele>137</ele>
        <time>2023-12-20T16:27:35Z</time>
      </trkpt>
      <trkpt lat="43.64199" lon="1.38543">
        <ele>137</ele>
        <time>2023-12-20T16:27:36Z</time>
      </trkpt>
      <trkpt lat="43.64199" lon="1.38543">
        <ele>137</ele>
        <time>2023-12-20T16:27:37Z</time>
      </trkpt>
      <trkpt lat="43.64198" lon="1.38536">
        <ele>137</ele>
        <time>2023-12-20T16:27:38Z</time>
      </trkpt>
      <trkpt lat="43.64196" lon="1.38532">
        <ele>137</ele>
        <time>2023-12-20T16:27:39Z</time>
      </trkpt>
      <trkpt lat="43.64196" lon="1.38529">
        <ele>137</ele>
        <time>2023-12-20T16:27:40Z</time>
      </trkpt>
      <trkpt lat="43.64195" lon="1.38525">
        <ele>137</ele>
        <time>2023-12-20T16:27:41Z</time>
      </trkpt>
      <trkpt lat="43.64194" lon="1.38522">
        <ele>137</ele>
        <time>2023-12-20T16:27:42Z</time>
      </trkpt>
      <trkpt lat="43.64193" lon="1.38518">
        <ele>137</ele>
        <time>2023-12-20T16:27:43Z</time>
      </trkpt>
      <trkpt lat="43.64191" lon="1.38515">
        <ele>137</ele>
        <time>2023-12-20T16:27:44Z</time>
      </trkpt>
      <trkpt lat="43.6419" lon="1.38512">
        <ele>137</ele>
        <time>2023-12-20T16:27:45Z</time>
      </trkpt>
      <trkpt lat="43.64189" lon="1.38509">
        <ele>138</ele>
        <time>2023-12-20T16:27:46Z</time>
      </trkpt>
      <trkpt lat="43.64188" lon="1.38506">
        <ele>138</ele>
        <time>2023-12-20T16:27:47Z</time>
      </trkpt>
      <trkpt lat="43.64186" lon="1.38503">
        <ele>138</ele>
        <time>2023-12-20T16:27:48Z</time>
      </trkpt>
      <trkpt lat="43.64186" lon="1.38499">
        <ele>138</ele>
        <time>2023-12-20T16:27:49Z</time>
      </trkpt>
      <trkpt lat="43.64185" lon="1.38496">
        <ele>138</ele>
        <time>2023-12-20T16:27:50Z</time>
      </trkpt>
      <trkpt lat="43.64185" lon="1.38493">
        <ele>138</ele>
        <time>2023-12-20T16:27:51Z</time>
      </trkpt>
      <trkpt lat="43.64184" lon="1.3849">
        <ele>138</ele>
        <time>2023-12-20T16:27:52Z</time>
      </trkpt>
      <trkpt lat="43.64183" lon="1.38486">
        <ele>138</ele>
        <time>2023-12-20T16:27:53Z</time>
      </trkpt>
      <trkpt lat="43.64182" lon="1.38482">
        <ele>138</ele>
        <time>2023-12-20T16:27:54Z</time>
      </trkpt>
      <trkpt lat="43.64182" lon="1.38479">
        <ele>138</ele>
        <time>2023-12-20T16:27:55Z</time>
      </trkpt>
      <trkpt lat="43.64182" lon="1.38475">
        <ele>138</ele>
        <time>2023-12-20T16:27:56Z</time>
      </trkpt>
      <trkpt lat="43.64182" lon="1.38471">
        <ele>138</ele>
        <time>2023-12-20T16:27:57Z</time>
      </trkpt>
      <trkpt lat="43.64182" lon="1.38468">
        <ele>138</ele>
        <time>2023-12-20T16:27:58Z</time>
      </trkpt>
      <trkpt lat="43.64182" lon="1.38464">
        <ele>138</ele>
        <time>2023-12-20T16:27:59Z</time>
      </trkpt>
      <trkpt lat="43.64183" lon="1.38461">
        <ele>138</ele>
        <time>2023-12-20T16:28:00Z</time>
      </trkpt>
      <trkpt lat="43.64183" lon="1.38458">
        <ele>138</ele>
        <time>2023-12-20T16:28:01Z</time>
      </trkpt>
      <trkpt lat="43.64184" lon="1.38454">
        <ele>138</ele>
        <time>2023-12-20T16:28:02Z</time>
      </trkpt>
      <trkpt lat="43.64185" lon="1.38451">
        <ele>138</ele>
        <time>2023-12-20T16:28:03Z</time>
      </trkpt>
      <trkpt lat="43.64185" lon="1.38448">
        <ele>138</ele>
        <time>2023-12-20T16:28:04Z</time>
      </trkpt>
      <trkpt lat="43.64185" lon="1.38444">
        <ele>138</ele>
        <time>2023-12-20T16:28:05Z</time>
      </trkpt>
      <trkpt lat="43.64185" lon="1.38442">
        <ele>138</ele>
        <time>2023-12-20T16:28:06Z</time>
      </trkpt>
      <trkpt lat="43.64185" lon="1.38442">
        <ele>137</ele>
        <time>2023-12-20T16:28:07Z</time>
      </trkpt>
      <trkpt lat="43.64185" lon="1.38438">
        <ele>137</ele>
        <time>2023-12-20T16:28:08Z</time>
      </trkpt>
      <trkpt lat="43.64184" lon="1.38436">
        <ele>137</ele>
        <time>2023-12-20T16:28:09Z</time>
      </trkpt>
      <trkpt lat="43.64183" lon="1.38433">
        <ele>137</ele>
        <time>2023-12-20T16:28:10Z</time>
      </trkpt>
      <trkpt lat="43.64182" lon="1.3843">
        <ele>137</ele>
        <time>2023-12-20T16:28:11Z</time>
      </trkpt>
      <trkpt lat="43.6418" lon="1.38429">
        <ele>137</ele>
        <time>2023-12-20T16:28:12Z</time>
      </trkpt>
      <trkpt lat="43.64178" lon="1.38429">
        <ele>137</ele>
        <time>2023-12-20T16:28:13Z</time>
      </trkpt>
      <trkpt lat="43.64176" lon="1.3843">
        <ele>137</ele>
        <time>2023-12-20T16:28:14Z</time>
      </trkpt>
      <trkpt lat="43.64173" lon="1.38429">
        <ele>137</ele>
        <time>2023-12-20T16:28:15Z</time>
      </trkpt>
      <trkpt lat="43.64172" lon="1.38428">
        <ele>137</ele>
        <time>2023-12-20T16:28:16Z</time>
      </trkpt>
      <trkpt lat="43.6417" lon="1.38425">
        <ele>137</ele>
        <time>2023-12-20T16:28:17Z</time>
      </trkpt>
      <trkpt lat="43.64168" lon="1.38423">
        <ele>137</ele>
        <time>2023-12-20T16:28:18Z</time>
      </trkpt>
      <trkpt lat="43.64166" lon="1.3842">
        <ele>138</ele>
        <time>2023-12-20T16:28:19Z</time>
      </trkpt>
      <trkpt lat="43.64164" lon="1.38417">
        <ele>138</ele>
        <time>2023-12-20T16:28:20Z</time>
      </trkpt>
      <trkpt lat="43.64162" lon="1.38415">
        <ele>137</ele>
        <time>2023-12-20T16:28:21Z</time>
      </trkpt>
      <trkpt lat="43.6416" lon="1.38412">
        <ele>137</ele>
        <time>2023-12-20T16:28:22Z</time>
      </trkpt>
      <trkpt lat="43.64158" lon="1.38409">
        <ele>137</ele>
        <time>2023-12-20T16:28:23Z</time>
      </trkpt>
      <trkpt lat="43.64156" lon="1.38406">
        <ele>137</ele>
        <time>2023-12-20T16:28:24Z</time>
      </trkpt>
      <trkpt lat="43.64154" lon="1.38403">
        <ele>137</ele>
        <time>2023-12-20T16:28:25Z</time>
      </trkpt>
      <trkpt lat="43.64152" lon="1.38401">
        <ele>137</ele>
        <time>2023-12-20T16:28:26Z</time>
      </trkpt>
      <trkpt lat="43.6415" lon="1.38399">
        <ele>137</ele>
        <time>2023-12-20T16:28:27Z</time>
      </trkpt>
      <trkpt lat="43.64148" lon="1.38397">
        <ele>137</ele>
        <time>2023-12-20T16:28:28Z</time>
      </trkpt>
      <trkpt lat="43.64146" lon="1.38395">
        <ele>137</ele>
        <time>2023-12-20T16:28:29Z</time>
      </trkpt>
      <trkpt lat="43.64144" lon="1.38393">
        <ele>137</ele>
        <time>2023-12-20T16:28:30Z</time>
      </trkpt>
      <trkpt lat="43.64142" lon="1.3839">
        <ele>137</ele>
        <time>2023-12-20T16:28:31Z</time>
      </trkpt>
      <trkpt lat="43.6414" lon="1.38387">
        <ele>138</ele>
        <time>2023-12-20T16:28:32Z</time>
      </trkpt>
      <trkpt lat="43.64139" lon="1.38384">
        <ele>138</ele>
        <time>2023-12-20T16:28:33Z</time>
      </trkpt>
      <trkpt lat="43.64137" lon="1.38381">
        <ele>138</ele>
        <time>2023-12-20T16:28:34Z</time>
      </trkpt>
      <trkpt lat="43.64136" lon="1.38378">
        <ele>137</ele>
        <time>2023-12-20T16:28:35Z</time>
      </trkpt>
      <trkpt lat="43.64134" lon="1.38374">
        <ele>137</ele>
        <time>2023-12-20T16:28:36Z</time>
      </trkpt>
      <trkpt lat="43.64132" lon="1.38372">
        <ele>137</ele>
        <time>2023-12-20T16:28:37Z</time>
      </trkpt>
      <trkpt lat="43.64129" lon="1.3837">
        <ele>137</ele>
        <time>2023-12-20T16:28:38Z</time>
      </trkpt>
      <trkpt lat="43.64127" lon="1.38368">
        <ele>137</ele>
        <time>2023-12-20T16:28:39Z</time>
      </trkpt>
      <trkpt lat="43.64125" lon="1.38365">
        <ele>138</ele>
        <time>2023-12-20T16:28:40Z</time>
      </trkpt>
      <trkpt lat="43.64123" lon="1.38362">
        <ele>138</ele>
        <time>2023-12-20T16:28:41Z</time>
      </trkpt>
      <trkpt lat="43.64121" lon="1.38359">
        <ele>138</ele>
        <time>2023-12-20T16:28:42Z</time>
      </trkpt>
      <trkpt lat="43.6412" lon="1.38357">
        <ele>138</ele>
        <time>2023-12-20T16:28:43Z</time>
      </trkpt>
      <trkpt lat="43.64118" lon="1.38354">
        <ele>138</ele>
        <time>2023-12-20T16:28:44Z</time>
      </trkpt>
      <trkpt lat="43.64116" lon="1.38351">
        <ele>138</ele>
        <time>2023-12-20T16:28:45Z</time>
      </trkpt>
      <trkpt lat="43.64114" lon="1.38349">
        <ele>137</ele>
        <time>2023-12-20T16:28:46Z</time>
      </trkpt>
      <trkpt lat="43.64112" lon="1.38347">
        <ele>137</ele>
        <time>2023-12-20T16:28:47Z</time>
      </trkpt>
      <trkpt lat="43.64111" lon="1.38344">
        <ele>137</ele>
        <time>2023-12-20T16:28:48Z</time>
      </trkpt>
      <trkpt lat="43.64109" lon="1.38341">
        <ele>137</ele>
        <time>2023-12-20T16:28:49Z</time>
      </trkpt>
      <trkpt lat="43.64107" lon="1.38339">
        <ele>137</ele>
        <time>2023-12-20T16:28:50Z</time>
      </trkpt>
      <trkpt lat="43.64106" lon="1.38336">
        <ele>137</ele>
        <time>2023-12-20T16:28:51Z</time>
      </trkpt>
      <trkpt lat="43.64104" lon="1.38333">
        <ele>137</ele>
        <time>2023-12-20T16:28:52Z</time>
      </trkpt>
      <trkpt lat="43.64103" lon="1.38331">
        <ele>137</ele>
        <time>2023-12-20T16:28:53Z</time>
      </trkpt>
      <trkpt lat="43.64101" lon="1.38329">
        <ele>137</ele>
        <time>2023-12-20T16:28:54Z</time>
      </trkpt>
      <trkpt lat="43.64099" lon="1.38326">
        <ele>137</ele>
        <time>2023-12-20T16:28:55Z</time>
      </trkpt>
      <trkpt lat="43.64098" lon="1.38323">
        <ele>137</ele>
        <time>2023-12-20T16:28:56Z</time>
      </trkpt>
      <trkpt lat="43.64096" lon="1.38321">
        <ele>137</ele>
        <time>2023-12-20T16:28:57Z</time>
      </trkpt>
      <trkpt lat="43.64095" lon="1.38318">
        <ele>137</ele>
        <time>2023-12-20T16:28:58Z</time>
      </trkpt>
      <trkpt lat="43.64093" lon="1.38316">
        <ele>137</ele>
        <time>2023-12-20T16:28:59Z</time>
      </trkpt>
      <trkpt lat="43.64092" lon="1.38313">
        <ele>137</ele>
        <time>2023-12-20T16:29:00Z</time>
      </trkpt>
      <trkpt lat="43.6409" lon="1.3831">
        <ele>137</ele>
        <time>2023-12-20T16:29:01Z</time>
      </trkpt>
      <trkpt lat="43.64089" lon="1.38307">
        <ele>137</ele>
        <time>2023-12-20T16:29:02Z</time>
      </trkpt>
      <trkpt lat="43.64087" lon="1.38304">
        <ele>137</ele>
        <time>2023-12-20T16:29:03Z</time>
      </trkpt>
      <trkpt lat="43.64085" lon="1.38301">
        <ele>137</ele>
        <time>2023-12-20T16:29:04Z</time>
      </trkpt>
      <trkpt lat="43.64083" lon="1.38298">
        <ele>137</ele>
        <time>2023-12-20T16:29:05Z</time>
      </trkpt>
      <trkpt lat="43.64081" lon="1.38296">
        <ele>137</ele>
        <time>2023-12-20T16:29:06Z</time>
      </trkpt>
      <trkpt lat="43.64078" lon="1.38294">
        <ele>137</ele>
        <time>2023-12-20T16:29:07Z</time>
      </trkpt>
      <trkpt lat="43.64075" lon="1.38291">
        <ele>137</ele>
        <time>2023-12-20T16:29:08Z</time>
      </trkpt>
      <trkpt lat="43.64073" lon="1.38287">
        <ele>137</ele>
        <time>2023-12-20T16:29:09Z</time>
      </trkpt>
      <trkpt lat="43.64071" lon="1.38283">
        <ele>137</ele>
        <time>2023-12-20T16:29:10Z</time>
      </trkpt>
      <trkpt lat="43.6407" lon="1.38279">
        <ele>137</ele>
        <time>2023-12-20T16:29:11Z</time>
      </trkpt>
      <trkpt lat="43.64069" lon="1.38275">
        <ele>137</ele>
        <time>2023-12-20T16:29:12Z</time>
      </trkpt>
      <trkpt lat="43.64069" lon="1.38271">
        <ele>137</ele>
        <time>2023-12-20T16:29:13Z</time>
      </trkpt>
      <trkpt lat="43.64069" lon="1.38268">
        <ele>137</ele>
        <time>2023-12-20T16:29:14Z</time>
      </trkpt>
      <trkpt lat="43.64068" lon="1.38264">
        <ele>137</ele>
        <time>2023-12-20T16:29:15Z</time>
      </trkpt>
      <trkpt lat="43.64068" lon="1.38259">
        <ele>137</ele>
        <time>2023-12-20T16:29:16Z</time>
      </trkpt>
      <trkpt lat="43.64068" lon="1.38255">
        <ele>137</ele>
        <time>2023-12-20T16:29:17Z</time>
      </trkpt>
      <trkpt lat="43.64069" lon="1.3825">
        <ele>137</ele>
        <time>2023-12-20T16:29:18Z</time>
      </trkpt>
      <trkpt lat="43.64069" lon="1.38246">
        <ele>137</ele>
        <time>2023-12-20T16:29:19Z</time>
      </trkpt>
      <trkpt lat="43.6407" lon="1.38242">
        <ele>138</ele>
        <time>2023-12-20T16:29:20Z</time>
      </trkpt>
      <trkpt lat="43.64071" lon="1.38237">
        <ele>138</ele>
        <time>2023-12-20T16:29:21Z</time>
      </trkpt>
      <trkpt lat="43.64072" lon="1.38233">
        <ele>137</ele>
        <time>2023-12-20T16:29:22Z</time>
      </trkpt>
      <trkpt lat="43.64074" lon="1.38229">
        <ele>137</ele>
        <time>2023-12-20T16:29:23Z</time>
      </trkpt>
      <trkpt lat="43.64076" lon="1.38227">
        <ele>137</ele>
        <time>2023-12-20T16:29:24Z</time>
      </trkpt>
      <trkpt lat="43.64078" lon="1.38223">
        <ele>137</ele>
        <time>2023-12-20T16:29:25Z</time>
      </trkpt>
      <trkpt lat="43.64079" lon="1.3822">
        <ele>137</ele>
        <time>2023-12-20T16:29:26Z</time>
      </trkpt>
      <trkpt lat="43.6408" lon="1.38216">
        <ele>137</ele>
        <time>2023-12-20T16:29:27Z</time>
      </trkpt>
      <trkpt lat="43.64081" lon="1.38212">
        <ele>137</ele>
        <time>2023-12-20T16:29:28Z</time>
      </trkpt>
      <trkpt lat="43.64083" lon="1.38208">
        <ele>137</ele>
        <time>2023-12-20T16:29:29Z</time>
      </trkpt>
      <trkpt lat="43.64084" lon="1.38205">
        <ele>137</ele>
        <time>2023-12-20T16:29:30Z</time>
      </trkpt>
      <trkpt lat="43.64085" lon="1.38201">
        <ele>137</ele>
        <time>2023-12-20T16:29:31Z</time>
      </trkpt>
      <trkpt lat="43.64086" lon="1.38197">
        <ele>137</ele>
        <time>2023-12-20T16:29:32Z</time>
      </trkpt>
      <trkpt lat="43.64087" lon="1.38194">
        <ele>137</ele>
        <time>2023-12-20T16:29:33Z</time>
      </trkpt>
      <trkpt lat="43.64088" lon="1.3819">
        <ele>137</ele>
        <time>2023-12-20T16:29:34Z</time>
      </trkpt>
      <trkpt lat="43.64088" lon="1.38186">
        <ele>137</ele>
        <time>2023-12-20T16:29:35Z</time>
      </trkpt>
      <trkpt lat="43.64089" lon="1.38183">
        <ele>137</ele>
        <time>2023-12-20T16:29:36Z</time>
      </trkpt>
      <trkpt lat="43.64089" lon="1.38179">
        <ele>137</ele>
        <time>2023-12-20T16:29:37Z</time>
      </trkpt>
      <trkpt lat="43.6409" lon="1.38175">
        <ele>137</ele>
        <time>2023-12-20T16:29:38Z</time>
      </trkpt>
      <trkpt lat="43.64091" lon="1.38171">
        <ele>137</ele>
        <time>2023-12-20T16:29:39Z</time>
      </trkpt>
      <trkpt lat="43.64092" lon="1.38167">
        <ele>137</ele>
        <time>2023-12-20T16:29:40Z</time>
      </trkpt>
      <trkpt lat="43.64094" lon="1.38163">
        <ele>137</ele>
        <time>2023-12-20T16:29:41Z</time>
      </trkpt>
      <trkpt lat="43.64094" lon="1.38159">
        <ele>136</ele>
        <time>2023-12-20T16:29:42Z</time>
      </trkpt>
      <trkpt lat="43.64095" lon="1.38156">
        <ele>136</ele>
        <time>2023-12-20T16:29:43Z</time>
      </trkpt>
      <trkpt lat="43.64096" lon="1.38153">
        <ele>136</ele>
        <time>2023-12-20T16:29:44Z</time>
      </trkpt>
      <trkpt lat="43.64097" lon="1.3815">
        <ele>136</ele>
        <time>2023-12-20T16:29:45Z</time>
      </trkpt>
      <trkpt lat="43.64098" lon="1.38146">
        <ele>136</ele>
        <time>2023-12-20T16:29:46Z</time>
      </trkpt>
      <trkpt lat="43.64098" lon="1.38143">
        <ele>137</ele>
        <time>2023-12-20T16:29:47Z</time>
      </trkpt>
      <trkpt lat="43.64099" lon="1.38139">
        <ele>137</ele>
        <time>2023-12-20T16:29:48Z</time>
      </trkpt>
      <trkpt lat="43.641" lon="1.38135">
        <ele>137</ele>
        <time>2023-12-20T16:29:49Z</time>
      </trkpt>
      <trkpt lat="43.64101" lon="1.38131">
        <ele>137</ele>
        <time>2023-12-20T16:29:50Z</time>
      </trkpt>
      <trkpt lat="43.64103" lon="1.38127">
        <ele>137</ele>
        <time>2023-12-20T16:29:51Z</time>
      </trkpt>
      <trkpt lat="43.64104" lon="1.38123">
        <ele>137</ele>
        <time>2023-12-20T16:29:52Z</time>
      </trkpt>
      <trkpt lat="43.64105" lon="1.38119">
        <ele>137</ele>
        <time>2023-12-20T16:29:53Z</time>
      </trkpt>
      <trkpt lat="43.64106" lon="1.38116">
        <ele>137</ele>
        <time>2023-12-20T16:29:54Z</time>
      </trkpt>
      <trkpt lat="43.64107" lon="1.38112">
        <ele>137</ele>
        <time>2023-12-20T16:29:55Z</time>
      </trkpt>
      <trkpt lat="43.64108" lon="1.38109">
        <ele>137</ele>
        <time>2023-12-20T16:29:56Z</time>
      </trkpt>
      <trkpt lat="43.64109" lon="1.38106">
        <ele>137</ele>
        <time>2023-12-20T16:29:57Z</time>
      </trkpt>
      <trkpt lat="43.6411" lon="1.38103">
        <ele>137</ele>
        <time>2023-12-20T16:29:58Z</time>
      </trkpt>
      <trkpt lat="43.64111" lon="1.381">
        <ele>137</ele>
        <time>2023-12-20T16:29:59Z</time>
      </trkpt>
      <trkpt lat="43.64112" lon="1.38097">
        <ele>137</ele>
        <time>2023-12-20T16:30:00Z</time>
      </trkpt>
      <trkpt lat="43.64114" lon="1.38094">
        <ele>137</ele>
        <time>2023-12-20T16:30:01Z</time>
      </trkpt>
      <trkpt lat="43.64115" lon="1.3809">
        <ele>137</ele>
        <time>2023-12-20T16:30:02Z</time>
      </trkpt>
      <trkpt lat="43.64116" lon="1.38087">
        <ele>137</ele>
        <time>2023-12-20T16:30:03Z</time>
      </trkpt>
      <trkpt lat="43.64117" lon="1.38083">
        <ele>137</ele>
        <time>2023-12-20T16:30:04Z</time>
      </trkpt>
      <trkpt lat="43.64118" lon="1.3808">
        <ele>137</ele>
        <time>2023-12-20T16:30:05Z</time>
      </trkpt>
      <trkpt lat="43.64119" lon="1.38076">
        <ele>137</ele>
        <time>2023-12-20T16:30:06Z</time>
      </trkpt>
      <trkpt lat="43.6412" lon="1.38073">
        <ele>137</ele>
        <time>2023-12-20T16:30:07Z</time>
      </trkpt>
      <trkpt lat="43.64121" lon="1.3807">
        <ele>137</ele>
        <time>2023-12-20T16:30:08Z</time>
      </trkpt>
      <trkpt lat="43.64122" lon="1.38067">
        <ele>138</ele>
        <time>2023-12-20T16:30:09Z</time>
      </trkpt>
      <trkpt lat="43.64123" lon="1.38064">
        <ele>138</ele>
        <time>2023-12-20T16:30:10Z</time>
      </trkpt>
      <trkpt lat="43.64124" lon="1.38061">
        <ele>138</ele>
        <time>2023-12-20T16:30:11Z</time>
      </trkpt>
      <trkpt lat="43.64125" lon="1.38057">
        <ele>137</ele>
        <time>2023-12-20T16:30:12Z</time>
      </trkpt>
      <trkpt lat="43.64126" lon="1.38055">
        <ele>136</ele>
        <time>2023-12-20T16:30:13Z</time>
      </trkpt>
      <trkpt lat="43.64126" lon="1.38055">
        <ele>136</ele>
        <time>2023-12-20T16:30:14Z</time>
      </trkpt>
      <trkpt lat="43.64128" lon="1.38051">
        <ele>136</ele>
        <time>2023-12-20T16:30:15Z</time>
      </trkpt>
      <trkpt lat="43.64132" lon="1.38048">
        <ele>136</ele>
        <time>2023-12-20T16:30:16Z</time>
      </trkpt>
      <trkpt lat="43.64135" lon="1.38045">
        <ele>136</ele>
        <time>2023-12-20T16:30:17Z</time>
      </trkpt>
      <trkpt lat="43.64139" lon="1.38043">
        <ele>137</ele>
        <time>2023-12-20T16:30:18Z</time>
      </trkpt>
      <trkpt lat="43.64142" lon="1.38041">
        <ele>137</ele>
        <time>2023-12-20T16:30:19Z</time>
      </trkpt>
      <trkpt lat="43.64145" lon="1.38039">
        <ele>137</ele>
        <time>2023-12-20T16:30:20Z</time>
      </trkpt>
      <trkpt lat="43.64148" lon="1.38037">
        <ele>137</ele>
        <time>2023-12-20T16:30:21Z</time>
      </trkpt>
      <trkpt lat="43.64151" lon="1.38036">
        <ele>137</ele>
        <time>2023-12-20T16:30:22Z</time>
      </trkpt>
      <trkpt lat="43.64155" lon="1.38034">
        <ele>137</ele>
        <time>2023-12-20T16:30:23Z</time>
      </trkpt>
      <trkpt lat="43.64158" lon="1.38032">
        <ele>137</ele>
        <time>2023-12-20T16:30:24Z</time>
      </trkpt>
      <trkpt lat="43.6416" lon="1.3803">
        <ele>137</ele>
        <time>2023-12-20T16:30:25Z</time>
      </trkpt>
      <trkpt lat="43.64162" lon="1.38029">
        <ele>137</ele>
        <time>2023-12-20T16:30:26Z</time>
      </trkpt>
      <trkpt lat="43.64164" lon="1.38027">
        <ele>137</ele>
        <time>2023-12-20T16:30:27Z</time>
      </trkpt>
      <trkpt lat="43.64164" lon="1.38027">
        <ele>137</ele>
        <time>2023-12-20T16:30:28Z</time>
      </trkpt>
      <trkpt lat="43.64165" lon="1.38023">
        <ele>137</ele>
        <time>2023-12-20T16:30:29Z</time>
      </trkpt>
      <trkpt lat="43.64165" lon="1.38023">
        <ele>137</ele>
        <time>2023-12-20T16:30:30Z</time>
      </trkpt>
      <trkpt lat="43.64164" lon="1.3802">
        <ele>137</ele>
        <time>2023-12-20T16:30:31Z</time>
      </trkpt>
      <trkpt lat="43.64164" lon="1.38017">
        <ele>137</ele>
        <time>2023-12-20T16:30:32Z</time>
      </trkpt>
      <trkpt lat="43.64163" lon="1.38014">
        <ele>137</ele>
        <time>2023-12-20T16:30:33Z</time>
      </trkpt>
      <trkpt lat="43.64163" lon="1.38011">
        <ele>137</ele>
        <time>2023-12-20T16:30:34Z</time>
      </trkpt>
      <trkpt lat="43.64163" lon="1.38006">
        <ele>137</ele>
        <time>2023-12-20T16:30:35Z</time>
      </trkpt>
      <trkpt lat="43.64163" lon="1.38001">
        <ele>137</ele>
        <time>2023-12-20T16:30:36Z</time>
      </trkpt>
      <trkpt lat="43.64162" lon="1.37996">
        <ele>137</ele>
        <time>2023-12-20T16:30:37Z</time>
      </trkpt>
      <trkpt lat="43.64166" lon="1.3799">
        <ele>138</ele>
        <time>2023-12-20T16:30:38Z</time>
      </trkpt>
      <trkpt lat="43.64169" lon="1.37983">
        <ele>138</ele>
        <time>2023-12-20T16:30:39Z</time>
      </trkpt>
      <trkpt lat="43.64172" lon="1.37977">
        <ele>138</ele>
        <time>2023-12-20T16:30:40Z</time>
      </trkpt>
      <trkpt lat="43.64178" lon="1.3797">
        <ele>138</ele>
        <time>2023-12-20T16:30:41Z</time>
      </trkpt>
      <trkpt lat="43.6418" lon="1.37968">
        <ele>138</ele>
        <time>2023-12-20T16:30:42Z</time>
      </trkpt>
      <trkpt lat="43.64185" lon="1.37962">
        <ele>138</ele>
        <time>2023-12-20T16:30:43Z</time>
      </trkpt>
      <trkpt lat="43.64187" lon="1.3796">
        <ele>138</ele>
        <time>2023-12-20T16:30:44Z</time>
      </trkpt>
      <trkpt lat="43.6419" lon="1.37958">
        <ele>138</ele>
        <time>2023-12-20T16:30:45Z</time>
      </trkpt>
      <trkpt lat="43.64193" lon="1.37956">
        <ele>138</ele>
        <time>2023-12-20T16:30:46Z</time>
      </trkpt>
      <trkpt lat="43.64196" lon="1.37954">
        <ele>138</ele>
        <time>2023-12-20T16:30:47Z</time>
      </trkpt>
      <trkpt lat="43.64199" lon="1.37953">
        <ele>138</ele>
        <time>2023-12-20T16:30:48Z</time>
      </trkpt>
      <trkpt lat="43.64202" lon="1.37951">
        <ele>138</ele>
        <time>2023-12-20T16:30:49Z</time>
      </trkpt>
      <trkpt lat="43.64205" lon="1.3795">
        <ele>138</ele>
        <time>2023-12-20T16:30:50Z</time>
      </trkpt>
      <trkpt lat="43.64207" lon="1.37949">
        <ele>138</ele>
        <time>2023-12-20T16:30:51Z</time>
      </trkpt>
      <trkpt lat="43.6421" lon="1.37948">
        <ele>138</ele>
        <time>2023-12-20T16:30:52Z</time>
      </trkpt>
      <trkpt lat="43.64213" lon="1.37946">
        <ele>138</ele>
        <time>2023-12-20T16:30:53Z</time>
      </trkpt>
      <trkpt lat="43.64216" lon="1.37945">
        <ele>138</ele>
        <time>2023-12-20T16:30:54Z</time>
      </trkpt>
      <trkpt lat="43.64219" lon="1.37944">
        <ele>138</ele>
        <time>2023-12-20T16:30:55Z</time>
      </trkpt>
      <trkpt lat="43.64222" lon="1.37942">
        <ele>138</ele>
        <time>2023-12-20T16:30:56Z</time>
      </trkpt>
      <trkpt lat="43.64225" lon="1.37941">
        <ele>138</ele>
        <time>2023-12-20T16:30:57Z</time>
      </trkpt>
      <trkpt lat="43.64228" lon="1.3794">
        <ele>138</ele>
        <time>2023-12-20T16:30:58Z</time>
      </trkpt>
      <trkpt lat="43.64231" lon="1.3794">
        <ele>138</ele>
        <time>2023-12-20T16:30:59Z</time>
      </trkpt>
      <trkpt lat="43.64231" lon="1.3794">
        <ele>137</ele>
        <time>2023-12-20T16:31:00Z</time>
      </trkpt>
      <trkpt lat="43.64238" lon="1.37941">
        <ele>137</ele>
        <time>2023-12-20T16:31:01Z</time>
      </trkpt>
      <trkpt lat="43.64238" lon="1.37941">
        <ele>137</ele>
        <time>2023-12-20T16:31:02Z</time>
      </trkpt>
      <trkpt lat="43.64244" lon="1.37941">
        <ele>137</ele>
        <time>2023-12-20T16:31:03Z</time>
      </trkpt>
      <trkpt lat="43.64244" lon="1.37941">
        <ele>137</ele>
        <time>2023-12-20T16:31:04Z</time>
      </trkpt>
      <trkpt lat="43.6425" lon="1.37937">
        <ele>137</ele>
        <time>2023-12-20T16:31:05Z</time>
      </trkpt>
      <trkpt lat="43.64252" lon="1.37936">
        <ele>137</ele>
        <time>2023-12-20T16:31:06Z</time>
      </trkpt>
      <trkpt lat="43.64254" lon="1.37935">
        <ele>137</ele>
        <time>2023-12-20T16:31:07Z</time>
      </trkpt>
      <trkpt lat="43.64257" lon="1.37933">
        <ele>137</ele>
        <time>2023-12-20T16:31:08Z</time>
      </trkpt>
      <trkpt lat="43.6426" lon="1.37931">
        <ele>137</ele>
        <time>2023-12-20T16:31:09Z</time>
      </trkpt>
      <trkpt lat="43.64262" lon="1.37929">
        <ele>137</ele>
        <time>2023-12-20T16:31:10Z</time>
      </trkpt>
      <trkpt lat="43.64265" lon="1.37928">
        <ele>137</ele>
        <time>2023-12-20T16:31:11Z</time>
      </trkpt>
      <trkpt lat="43.64268" lon="1.37926">
        <ele>137</ele>
        <time>2023-12-20T16:31:12Z</time>
      </trkpt>
      <trkpt lat="43.64271" lon="1.37924">
        <ele>137</ele>
        <time>2023-12-20T16:31:13Z</time>
      </trkpt>
      <trkpt lat="43.64273" lon="1.37923">
        <ele>137</ele>
        <time>2023-12-20T16:31:14Z</time>
      </trkpt>
      <trkpt lat="43.64275" lon="1.37921">
        <ele>137</ele>
        <time>2023-12-20T16:31:15Z</time>
      </trkpt>
      <trkpt lat="43.64277" lon="1.37919">
        <ele>137</ele>
        <time>2023-12-20T16:31:16Z</time>
      </trkpt>
      <trkpt lat="43.6428" lon="1.37918">
        <ele>137</ele>
        <time>2023-12-20T16:31:17Z</time>
      </trkpt>
      <trkpt lat="43.64283" lon="1.37916">
        <ele>138</ele>
        <time>2023-12-20T16:31:18Z</time>
      </trkpt>
      <trkpt lat="43.64286" lon="1.37915">
        <ele>138</ele>
        <time>2023-12-20T16:31:19Z</time>
      </trkpt>
      <trkpt lat="43.64289" lon="1.37913">
        <ele>138</ele>
        <time>2023-12-20T16:31:20Z</time>
      </trkpt>
      <trkpt lat="43.64292" lon="1.37911">
        <ele>138</ele>
        <time>2023-12-20T16:31:21Z</time>
      </trkpt>
      <trkpt lat="43.64294" lon="1.3791">
        <ele>137</ele>
        <time>2023-12-20T16:31:22Z</time>
      </trkpt>
      <trkpt lat="43.64297" lon="1.37909">
        <ele>137</ele>
        <time>2023-12-20T16:31:23Z</time>
      </trkpt>
      <trkpt lat="43.643" lon="1.37909">
        <ele>137</ele>
        <time>2023-12-20T16:31:24Z</time>
      </trkpt>
      <trkpt lat="43.64303" lon="1.37909">
        <ele>137</ele>
        <time>2023-12-20T16:31:25Z</time>
      </trkpt>
      <trkpt lat="43.64306" lon="1.37908">
        <ele>137</ele>
        <time>2023-12-20T16:31:26Z</time>
      </trkpt>
      <trkpt lat="43.64309" lon="1.37907">
        <ele>137</ele>
        <time>2023-12-20T16:31:27Z</time>
      </trkpt>
      <trkpt lat="43.64312" lon="1.37906">
        <ele>137</ele>
        <time>2023-12-20T16:31:28Z</time>
      </trkpt>
      <trkpt lat="43.64315" lon="1.37905">
        <ele>137</ele>
        <time>2023-12-20T16:31:29Z</time>
      </trkpt>
      <trkpt lat="43.64318" lon="1.37904">
        <ele>137</ele>
        <time>2023-12-20T16:31:30Z</time>
      </trkpt>
      <trkpt lat="43.6432" lon="1.37902">
        <ele>137</ele>
        <time>2023-12-20T16:31:31Z</time>
      </trkpt>
      <trkpt lat="43.64323" lon="1.37901">
        <ele>137</ele>
        <time>2023-12-20T16:31:32Z</time>
      </trkpt>
      <trkpt lat="43.64326" lon="1.379">
        <ele>137</ele>
        <time>2023-12-20T16:31:33Z</time>
      </trkpt>
      <trkpt lat="43.64328" lon="1.37899">
        <ele>137</ele>
        <time>2023-12-20T16:31:34Z</time>
      </trkpt>
      <trkpt lat="43.6433" lon="1.37898">
        <ele>137</ele>
        <time>2023-12-20T16:31:35Z</time>
      </trkpt>
      <trkpt lat="43.64333" lon="1.37897">
        <ele>137</ele>
        <time>2023-12-20T16:31:36Z</time>
      </trkpt>
      <trkpt lat="43.64336" lon="1.37896">
        <ele>137</ele>
        <time>2023-12-20T16:31:37Z</time>
      </trkpt>
      <trkpt lat="43.64339" lon="1.37895">
        <ele>136</ele>
        <time>2023-12-20T16:31:38Z</time>
      </trkpt>
      <trkpt lat="43.64342" lon="1.37895">
        <ele>136</ele>
        <time>2023-12-20T16:31:39Z</time>
      </trkpt>
      <trkpt lat="43.64345" lon="1.37894">
        <ele>136</ele>
        <time>2023-12-20T16:31:40Z</time>
      </trkpt>
      <trkpt lat="43.64348" lon="1.37893">
        <ele>136</ele>
        <time>2023-12-20T16:31:41Z</time>
      </trkpt>
      <trkpt lat="43.6435" lon="1.37892">
        <ele>136</ele>
        <time>2023-12-20T16:31:42Z</time>
      </trkpt>
      <trkpt lat="43.64353" lon="1.37891">
        <ele>136</ele>
        <time>2023-12-20T16:31:43Z</time>
      </trkpt>
      <trkpt lat="43.64356" lon="1.3789">
        <ele>136</ele>
        <time>2023-12-20T16:31:44Z</time>
      </trkpt>
      <trkpt lat="43.64359" lon="1.37888">
        <ele>136</ele>
        <time>2023-12-20T16:31:45Z</time>
      </trkpt>
      <trkpt lat="43.64362" lon="1.37888">
        <ele>136</ele>
        <time>2023-12-20T16:31:46Z</time>
      </trkpt>
      <trkpt lat="43.64365" lon="1.37889">
        <ele>136</ele>
        <time>2023-12-20T16:31:47Z</time>
      </trkpt>
      <trkpt lat="43.64368" lon="1.37891">
        <ele>136</ele>
        <time>2023-12-20T16:31:48Z</time>
      </trkpt>
      <trkpt lat="43.64372" lon="1.37893">
        <ele>136</ele>
        <time>2023-12-20T16:31:49Z</time>
      </trkpt>
      <trkpt lat="43.64375" lon="1.37896">
        <ele>136</ele>
        <time>2023-12-20T16:31:50Z</time>
      </trkpt>
      <trkpt lat="43.64378" lon="1.37898">
        <ele>136</ele>
        <time>2023-12-20T16:31:51Z</time>
      </trkpt>
      <trkpt lat="43.64381" lon="1.379">
        <ele>136</ele>
        <time>2023-12-20T16:31:52Z</time>
      </trkpt>
      <trkpt lat="43.64384" lon="1.37902">
        <ele>136</ele>
        <time>2023-12-20T16:31:53Z</time>
      </trkpt>
      <trkpt lat="43.64387" lon="1.37904">
        <ele>136</ele>
        <time>2023-12-20T16:31:54Z</time>
      </trkpt>
      <trkpt lat="43.6439" lon="1.37905">
        <ele>136</ele>
        <time>2023-12-20T16:31:55Z</time>
      </trkpt>
      <trkpt lat="43.64393" lon="1.37907">
        <ele>136</ele>
        <time>2023-12-20T16:31:56Z</time>
      </trkpt>
      <trkpt lat="43.64395" lon="1.3791">
        <ele>136</ele>
        <time>2023-12-20T16:31:57Z</time>
      </trkpt>
      <trkpt lat="43.64398" lon="1.37912">
        <ele>136</ele>
        <time>2023-12-20T16:31:58Z</time>
      </trkpt>
      <trkpt lat="43.64401" lon="1.37915">
        <ele>136</ele>
        <time>2023-12-20T16:31:59Z</time>
      </trkpt>
      <trkpt lat="43.64403" lon="1.37917">
        <ele>136</ele>
        <time>2023-12-20T16:32:00Z</time>
      </trkpt>
      <trkpt lat="43.64406" lon="1.37919">
        <ele>136</ele>
        <time>2023-12-20T16:32:01Z</time>
      </trkpt>
      <trkpt lat="43.64409" lon="1.37921">
        <ele>136</ele>
        <time>2023-12-20T16:32:02Z</time>
      </trkpt>
      <trkpt lat="43.64412" lon="1.37923">
        <ele>136</ele>
        <time>2023-12-20T16:32:03Z</time>
      </trkpt>
      <trkpt lat="43.64414" lon="1.37926">
        <ele>136</ele>
        <time>2023-12-20T16:32:04Z</time>
      </trkpt>
      <trkpt lat="43.64417" lon="1.37928">
        <ele>136</ele>
        <time>2023-12-20T16:32:05Z</time>
      </trkpt>
      <trkpt lat="43.6442" lon="1.3793">
        <ele>136</ele>
        <time>2023-12-20T16:32:06Z</time>
      </trkpt>
      <trkpt lat="43.64422" lon="1.37931">
        <ele>136</ele>
        <time>2023-12-20T16:32:07Z</time>
      </trkpt>
      <trkpt lat="43.64425" lon="1.37931">
        <ele>136</ele>
        <time>2023-12-20T16:32:08Z</time>
      </trkpt>
      <trkpt lat="43.64428" lon="1.37931">
        <ele>136</ele>
        <time>2023-12-20T16:32:09Z</time>
      </trkpt>
      <trkpt lat="43.64431" lon="1.3793">
        <ele>136</ele>
        <time>2023-12-20T16:32:10Z</time>
      </trkpt>
      <trkpt lat="43.64434" lon="1.3793">
        <ele>136</ele>
        <time>2023-12-20T16:32:11Z</time>
      </trkpt>
      <trkpt lat="43.64437" lon="1.37932">
        <ele>136</ele>
        <time>2023-12-20T16:32:12Z</time>
      </trkpt>
      <trkpt lat="43.64439" lon="1.37932">
        <ele>136</ele>
        <time>2023-12-20T16:32:13Z</time>
      </trkpt>
      <trkpt lat="43.64439" lon="1.37932">
        <ele>136</ele>
        <time>2023-12-20T16:32:14Z</time>
      </trkpt>
      <trkpt lat="43.64443" lon="1.3793">
        <ele>136</ele>
        <time>2023-12-20T16:32:15Z</time>
      </trkpt>
      <trkpt lat="43.64445" lon="1.37928">
        <ele>136</ele>
        <time>2023-12-20T16:32:16Z</time>
      </trkpt>
      <trkpt lat="43.64448" lon="1.37929">
        <ele>136</ele>
        <time>2023-12-20T16:32:17Z</time>
      </trkpt>
      <trkpt lat="43.64451" lon="1.3793">
        <ele>136</ele>
        <time>2023-12-20T16:32:18Z</time>
      </trkpt>
      <trkpt lat="43.64455" lon="1.37933">
        <ele>136</ele>
        <time>2023-12-20T16:32:19Z</time>
      </trkpt>
      <trkpt lat="43.64458" lon="1.37935">
        <ele>136</ele>
        <time>2023-12-20T16:32:20Z</time>
      </trkpt>
      <trkpt lat="43.64461" lon="1.37938">
        <ele>136</ele>
        <time>2023-12-20T16:32:21Z</time>
      </trkpt>
      <trkpt lat="43.64464" lon="1.3794">
        <ele>136</ele>
        <time>2023-12-20T16:32:22Z</time>
      </trkpt>
      <trkpt lat="43.64467" lon="1.37941">
        <ele>136</ele>
        <time>2023-12-20T16:32:23Z</time>
      </trkpt>
      <trkpt lat="43.64469" lon="1.37943">
        <ele>136</ele>
        <time>2023-12-20T16:32:24Z</time>
      </trkpt>
      <trkpt lat="43.64472" lon="1.37945">
        <ele>136</ele>
        <time>2023-12-20T16:32:25Z</time>
      </trkpt>
      <trkpt lat="43.64475" lon="1.37947">
        <ele>136</ele>
        <time>2023-12-20T16:32:26Z</time>
      </trkpt>
      <trkpt lat="43.64478" lon="1.37948">
        <ele>136</ele>
        <time>2023-12-20T16:32:27Z</time>
      </trkpt>
      <trkpt lat="43.64481" lon="1.3795">
        <ele>136</ele>
        <time>2023-12-20T16:32:28Z</time>
      </trkpt>
      <trkpt lat="43.64483" lon="1.37952">
        <ele>136</ele>
        <time>2023-12-20T16:32:29Z</time>
      </trkpt>
      <trkpt lat="43.64486" lon="1.37954">
        <ele>136</ele>
        <time>2023-12-20T16:32:30Z</time>
      </trkpt>
      <trkpt lat="43.64489" lon="1.37955">
        <ele>136</ele>
        <time>2023-12-20T16:32:31Z</time>
      </trkpt>
      <trkpt lat="43.64491" lon="1.37957">
        <ele>136</ele>
        <time>2023-12-20T16:32:32Z</time>
      </trkpt>
      <trkpt lat="43.64494" lon="1.37959">
        <ele>136</ele>
        <time>2023-12-20T16:32:33Z</time>
      </trkpt>
      <trkpt lat="43.64497" lon="1.37961">
        <ele>136</ele>
        <time>2023-12-20T16:32:34Z</time>
      </trkpt>
      <trkpt lat="43.645" lon="1.37963">
        <ele>136</ele>
        <time>2023-12-20T16:32:35Z</time>
      </trkpt>
      <trkpt lat="43.64503" lon="1.37964">
        <ele>136</ele>
        <time>2023-12-20T16:32:36Z</time>
      </trkpt>
      <trkpt lat="43.64506" lon="1.37967">
        <ele>136</ele>
        <time>2023-12-20T16:32:37Z</time>
      </trkpt>
      <trkpt lat="43.64509" lon="1.37968">
        <ele>136</ele>
        <time>2023-12-20T16:32:38Z</time>
      </trkpt>
      <trkpt lat="43.64512" lon="1.3797">
        <ele>136</ele>
        <time>2023-12-20T16:32:39Z</time>
      </trkpt>
      <trkpt lat="43.64515" lon="1.37972">
        <ele>136</ele>
        <time>2023-12-20T16:32:40Z</time>
      </trkpt>
      <trkpt lat="43.64517" lon="1.37974">
        <ele>136</ele>
        <time>2023-12-20T16:32:41Z</time>
      </trkpt>
      <trkpt lat="43.6452" lon="1.37976">
        <ele>136</ele>
        <time>2023-12-20T16:32:42Z</time>
      </trkpt>
      <trkpt lat="43.64523" lon="1.37978">
        <ele>136</ele>
        <time>2023-12-20T16:32:43Z</time>
      </trkpt>
      <trkpt lat="43.64526" lon="1.37979">
        <ele>135</ele>
        <time>2023-12-20T16:32:44Z</time>
      </trkpt>
      <trkpt lat="43.64529" lon="1.37981">
        <ele>136</ele>
        <time>2023-12-20T16:32:45Z</time>
      </trkpt>
      <trkpt lat="43.64532" lon="1.37982">
        <ele>136</ele>
        <time>2023-12-20T16:32:46Z</time>
      </trkpt>
      <trkpt lat="43.64535" lon="1.37983">
        <ele>136</ele>
        <time>2023-12-20T16:32:47Z</time>
      </trkpt>
      <trkpt lat="43.64538" lon="1.37983">
        <ele>136</ele>
        <time>2023-12-20T16:32:48Z</time>
      </trkpt>
      <trkpt lat="43.64541" lon="1.37983">
        <ele>136</ele>
        <time>2023-12-20T16:32:49Z</time>
      </trkpt>
      <trkpt lat="43.64544" lon="1.37982">
        <ele>136</ele>
        <time>2023-12-20T16:32:50Z</time>
      </trkpt>
      <trkpt lat="43.64547" lon="1.37981">
        <ele>136</ele>
        <time>2023-12-20T16:32:51Z</time>
      </trkpt>
      <trkpt lat="43.6455" lon="1.3798">
        <ele>136</ele>
        <time>2023-12-20T16:32:52Z</time>
      </trkpt>
      <trkpt lat="43.64552" lon="1.37978">
        <ele>136</ele>
        <time>2023-12-20T16:32:53Z</time>
      </trkpt>
      <trkpt lat="43.64555" lon="1.37975">
        <ele>136</ele>
        <time>2023-12-20T16:32:54Z</time>
      </trkpt>
      <trkpt lat="43.64557" lon="1.37973">
        <ele>136</ele>
        <time>2023-12-20T16:32:55Z</time>
      </trkpt>
      <trkpt lat="43.6456" lon="1.3797">
        <ele>136</ele>
        <time>2023-12-20T16:32:56Z</time>
      </trkpt>
      <trkpt lat="43.64562" lon="1.37967">
        <ele>136</ele>
        <time>2023-12-20T16:32:57Z</time>
      </trkpt>
      <trkpt lat="43.64564" lon="1.37963">
        <ele>136</ele>
        <time>2023-12-20T16:32:58Z</time>
      </trkpt>
      <trkpt lat="43.64566" lon="1.37959">
        <ele>136</ele>
        <time>2023-12-20T16:32:59Z</time>
      </trkpt>
      <trkpt lat="43.64567" lon="1.37955">
        <ele>136</ele>
        <time>2023-12-20T16:33:00Z</time>
      </trkpt>
      <trkpt lat="43.64568" lon="1.37952">
        <ele>136</ele>
        <time>2023-12-20T16:33:01Z</time>
      </trkpt>
      <trkpt lat="43.64569" lon="1.37948">
        <ele>136</ele>
        <time>2023-12-20T16:33:02Z</time>
      </trkpt>
      <trkpt lat="43.64569" lon="1.37943">
        <ele>136</ele>
        <time>2023-12-20T16:33:03Z</time>
      </trkpt>
      <trkpt lat="43.64569" lon="1.37939">
        <ele>136</ele>
        <time>2023-12-20T16:33:04Z</time>
      </trkpt>
      <trkpt lat="43.64569" lon="1.37935">
        <ele>137</ele>
        <time>2023-12-20T16:33:05Z</time>
      </trkpt>
      <trkpt lat="43.64568" lon="1.37931">
        <ele>137</ele>
        <time>2023-12-20T16:33:06Z</time>
      </trkpt>
      <trkpt lat="43.64567" lon="1.37926">
        <ele>137</ele>
        <time>2023-12-20T16:33:07Z</time>
      </trkpt>
      <trkpt lat="43.64565" lon="1.37922">
        <ele>137</ele>
        <time>2023-12-20T16:33:08Z</time>
      </trkpt>
      <trkpt lat="43.64564" lon="1.37918">
        <ele>137</ele>
        <time>2023-12-20T16:33:09Z</time>
      </trkpt>
      <trkpt lat="43.64561" lon="1.37915">
        <ele>137</ele>
        <time>2023-12-20T16:33:10Z</time>
      </trkpt>
      <trkpt lat="43.64559" lon="1.37912">
        <ele>137</ele>
        <time>2023-12-20T16:33:11Z</time>
      </trkpt>
      <trkpt lat="43.64557" lon="1.37909">
        <ele>137</ele>
        <time>2023-12-20T16:33:12Z</time>
      </trkpt>
      <trkpt lat="43.64555" lon="1.37906">
        <ele>137</ele>
        <time>2023-12-20T16:33:13Z</time>
      </trkpt>
      <trkpt lat="43.64553" lon="1.37904">
        <ele>137</ele>
        <time>2023-12-20T16:33:14Z</time>
      </trkpt>
      <trkpt lat="43.6455" lon="1.37902">
        <ele>137</ele>
        <time>2023-12-20T16:33:15Z</time>
      </trkpt>
      <trkpt lat="43.64548" lon="1.379">
        <ele>137</ele>
        <time>2023-12-20T16:33:16Z</time>
      </trkpt>
      <trkpt lat="43.64545" lon="1.37898">
        <ele>137</ele>
        <time>2023-12-20T16:33:17Z</time>
      </trkpt>
      <trkpt lat="43.64542" lon="1.37896">
        <ele>137</ele>
        <time>2023-12-20T16:33:18Z</time>
      </trkpt>
      <trkpt lat="43.6454" lon="1.37894">
        <ele>137</ele>
        <time>2023-12-20T16:33:19Z</time>
      </trkpt>
      <trkpt lat="43.64537" lon="1.37892">
        <ele>137</ele>
        <time>2023-12-20T16:33:20Z</time>
      </trkpt>
      <trkpt lat="43.64534" lon="1.3789">
        <ele>137</ele>
        <time>2023-12-20T16:33:21Z</time>
      </trkpt>
      <trkpt lat="43.64532" lon="1.37888">
        <ele>137</ele>
        <time>2023-12-20T16:33:22Z</time>
      </trkpt>
      <trkpt lat="43.64529" lon="1.37886">
        <ele>136</ele>
        <time>2023-12-20T16:33:23Z</time>
      </trkpt>
      <trkpt lat="43.64527" lon="1.37885">
        <ele>136</ele>
        <time>2023-12-20T16:33:24Z</time>
      </trkpt>
      <trkpt lat="43.64524" lon="1.37883">
        <ele>136</ele>
        <time>2023-12-20T16:33:25Z</time>
      </trkpt>
      <trkpt lat="43.64521" lon="1.37881">
        <ele>136</ele>
        <time>2023-12-20T16:33:26Z</time>
      </trkpt>
      <trkpt lat="43.64518" lon="1.3788">
        <ele>136</ele>
        <time>2023-12-20T16:33:27Z</time>
      </trkpt>
      <trkpt lat="43.64516" lon="1.37878">
        <ele>136</ele>
        <time>2023-12-20T16:33:28Z</time>
      </trkpt>
      <trkpt lat="43.64513" lon="1.37877">
        <ele>136</ele>
        <time>2023-12-20T16:33:29Z</time>
      </trkpt>
      <trkpt lat="43.64511" lon="1.37875">
        <ele>136</ele>
        <time>2023-12-20T16:33:30Z</time>
      </trkpt>
      <trkpt lat="43.64508" lon="1.37874">
        <ele>136</ele>
        <time>2023-12-20T16:33:31Z</time>
      </trkpt>
      <trkpt lat="43.64505" lon="1.37872">
        <ele>136</ele>
        <time>2023-12-20T16:33:32Z</time>
      </trkpt>
      <trkpt lat="43.64502" lon="1.3787">
        <ele>136</ele>
        <time>2023-12-20T16:33:33Z</time>
      </trkpt>
      <trkpt lat="43.64498" lon="1.37869">
        <ele>136</ele>
        <time>2023-12-20T16:33:34Z</time>
      </trkpt>
      <trkpt lat="43.64496" lon="1.37869">
        <ele>136</ele>
        <time>2023-12-20T16:33:35Z</time>
      </trkpt>
      <trkpt lat="43.64493" lon="1.37869">
        <ele>137</ele>
        <time>2023-12-20T16:33:36Z</time>
      </trkpt>
      <trkpt lat="43.6449" lon="1.37869">
        <ele>137</ele>
        <time>2023-12-20T16:33:37Z</time>
      </trkpt>
      <trkpt lat="43.64486" lon="1.37868">
        <ele>137</ele>
        <time>2023-12-20T16:33:38Z</time>
      </trkpt>
      <trkpt lat="43.64483" lon="1.37867">
        <ele>137</ele>
        <time>2023-12-20T16:33:39Z</time>
      </trkpt>
      <trkpt lat="43.6448" lon="1.37865">
        <ele>137</ele>
        <time>2023-12-20T16:33:40Z</time>
      </trkpt>
      <trkpt lat="43.64478" lon="1.37863">
        <ele>137</ele>
        <time>2023-12-20T16:33:41Z</time>
      </trkpt>
      <trkpt lat="43.64476" lon="1.37861">
        <ele>137</ele>
        <time>2023-12-20T16:33:42Z</time>
      </trkpt>
      <trkpt lat="43.64473" lon="1.37861">
        <ele>136</ele>
        <time>2023-12-20T16:33:43Z</time>
      </trkpt>
      <trkpt lat="43.6447" lon="1.3786">
        <ele>136</ele>
        <time>2023-12-20T16:33:44Z</time>
      </trkpt>
      <trkpt lat="43.64467" lon="1.3786">
        <ele>136</ele>
        <time>2023-12-20T16:33:45Z</time>
      </trkpt>
      <trkpt lat="43.64464" lon="1.37859">
        <ele>136</ele>
        <time>2023-12-20T16:33:46Z</time>
      </trkpt>
      <trkpt lat="43.64462" lon="1.37857">
        <ele>137</ele>
        <time>2023-12-20T16:33:47Z</time>
      </trkpt>
      <trkpt lat="43.64459" lon="1.37855">
        <ele>137</ele>
        <time>2023-12-20T16:33:48Z</time>
      </trkpt>
      <trkpt lat="43.64457" lon="1.37852">
        <ele>138</ele>
        <time>2023-12-20T16:33:49Z</time>
      </trkpt>
      <trkpt lat="43.64457" lon="1.37848">
        <ele>138</ele>
        <time>2023-12-20T16:33:50Z</time>
      </trkpt>
      <trkpt lat="43.64457" lon="1.37844">
        <ele>138</ele>
        <time>2023-12-20T16:33:51Z</time>
      </trkpt>
      <trkpt lat="43.64459" lon="1.3784">
        <ele>138</ele>
        <time>2023-12-20T16:33:52Z</time>
      </trkpt>
      <trkpt lat="43.6446" lon="1.37836">
        <ele>138</ele>
        <time>2023-12-20T16:33:53Z</time>
      </trkpt>
      <trkpt lat="43.64461" lon="1.37832">
        <ele>138</ele>
        <time>2023-12-20T16:33:54Z</time>
      </trkpt>
      <trkpt lat="43.64462" lon="1.37829">
        <ele>138</ele>
        <time>2023-12-20T16:33:55Z</time>
      </trkpt>
      <trkpt lat="43.64463" lon="1.37825">
        <ele>138</ele>
        <time>2023-12-20T16:33:56Z</time>
      </trkpt>
      <trkpt lat="43.64465" lon="1.37821">
        <ele>138</ele>
        <time>2023-12-20T16:33:57Z</time>
      </trkpt>
      <trkpt lat="43.64465" lon="1.37817">
        <ele>138</ele>
        <time>2023-12-20T16:33:58Z</time>
      </trkpt>
      <trkpt lat="43.64466" lon="1.37814">
        <ele>138</ele>
        <time>2023-12-20T16:33:59Z</time>
      </trkpt>
      <trkpt lat="43.64467" lon="1.3781">
        <ele>137</ele>
        <time>2023-12-20T16:34:00Z</time>
      </trkpt>
      <trkpt lat="43.64468" lon="1.37806">
        <ele>137</ele>
        <time>2023-12-20T16:34:01Z</time>
      </trkpt>
      <trkpt lat="43.6447" lon="1.37802">
        <ele>137</ele>
        <time>2023-12-20T16:34:02Z</time>
      </trkpt>
      <trkpt lat="43.64472" lon="1.37799">
        <ele>137</ele>
        <time>2023-12-20T16:34:03Z</time>
      </trkpt>
      <trkpt lat="43.64474" lon="1.37796">
        <ele>137</ele>
        <time>2023-12-20T16:34:04Z</time>
      </trkpt>
      <trkpt lat="43.64478" lon="1.37795">
        <ele>137</ele>
        <time>2023-12-20T16:34:05Z</time>
      </trkpt>
      <trkpt lat="43.64481" lon="1.37795">
        <ele>137</ele>
        <time>2023-12-20T16:34:06Z</time>
      </trkpt>
      <trkpt lat="43.64484" lon="1.37796">
        <ele>137</ele>
        <time>2023-12-20T16:34:07Z</time>
      </trkpt>
      <trkpt lat="43.64488" lon="1.37798">
        <ele>137</ele>
        <time>2023-12-20T16:34:08Z</time>
      </trkpt>
      <trkpt lat="43.64491" lon="1.37799">
        <ele>137</ele>
        <time>2023-12-20T16:34:09Z</time>
      </trkpt>
      <trkpt lat="43.64494" lon="1.37801">
        <ele>137</ele>
        <time>2023-12-20T16:34:10Z</time>
      </trkpt>
      <trkpt lat="43.64497" lon="1.37803">
        <ele>137</ele>
        <time>2023-12-20T16:34:11Z</time>
      </trkpt>
      <trkpt lat="43.64501" lon="1.37805">
        <ele>136</ele>
        <time>2023-12-20T16:34:12Z</time>
      </trkpt>
      <trkpt lat="43.64504" lon="1.37807">
        <ele>136</ele>
        <time>2023-12-20T16:34:13Z</time>
      </trkpt>
      <trkpt lat="43.64507" lon="1.37809">
        <ele>136</ele>
        <time>2023-12-20T16:34:14Z</time>
      </trkpt>
      <trkpt lat="43.6451" lon="1.3781">
        <ele>136</ele>
        <time>2023-12-20T16:34:15Z</time>
      </trkpt>
      <trkpt lat="43.64513" lon="1.37812">
        <ele>136</ele>
        <time>2023-12-20T16:34:16Z</time>
      </trkpt>
      <trkpt lat="43.64516" lon="1.37814">
        <ele>136</ele>
        <time>2023-12-20T16:34:17Z</time>
      </trkpt>
      <trkpt lat="43.64519" lon="1.37816">
        <ele>136</ele>
        <time>2023-12-20T16:34:18Z</time>
      </trkpt>
      <trkpt lat="43.64522" lon="1.37818">
        <ele>136</ele>
        <time>2023-12-20T16:34:19Z</time>
      </trkpt>
      <trkpt lat="43.64525" lon="1.37818">
        <ele>136</ele>
        <time>2023-12-20T16:34:20Z</time>
      </trkpt>
      <trkpt lat="43.64528" lon="1.37818">
        <ele>136</ele>
        <time>2023-12-20T16:34:21Z</time>
      </trkpt>
      <trkpt lat="43.64531" lon="1.37819">
        <ele>136</ele>
        <time>2023-12-20T16:34:22Z</time>
      </trkpt>
      <trkpt lat="43.64534" lon="1.37821">
        <ele>136</ele>
        <time>2023-12-20T16:34:23Z</time>
      </trkpt>
      <trkpt lat="43.64537" lon="1.37823">
        <ele>136</ele>
        <time>2023-12-20T16:34:24Z</time>
      </trkpt>
      <trkpt lat="43.6454" lon="1.37824">
        <ele>136</ele>
        <time>2023-12-20T16:34:25Z</time>
      </trkpt>
      <trkpt lat="43.64543" lon="1.37826">
        <ele>136</ele>
        <time>2023-12-20T16:34:26Z</time>
      </trkpt>
      <trkpt lat="43.64545" lon="1.37828">
        <ele>136</ele>
        <time>2023-12-20T16:34:27Z</time>
      </trkpt>
      <trkpt lat="43.64548" lon="1.3783">
        <ele>136</ele>
        <time>2023-12-20T16:34:28Z</time>
      </trkpt>
      <trkpt lat="43.6455" lon="1.37832">
        <ele>136</ele>
        <time>2023-12-20T16:34:29Z</time>
      </trkpt>
      <trkpt lat="43.64553" lon="1.37833">
        <ele>136</ele>
        <time>2023-12-20T16:34:30Z</time>
      </trkpt>
      <trkpt lat="43.64556" lon="1.37834">
        <ele>136</ele>
        <time>2023-12-20T16:34:31Z</time>
      </trkpt>
      <trkpt lat="43.64558" lon="1.37835">
        <ele>136</ele>
        <time>2023-12-20T16:34:32Z</time>
      </trkpt>
      <trkpt lat="43.64561" lon="1.37836">
        <ele>136</ele>
        <time>2023-12-20T16:34:33Z</time>
      </trkpt>
      <trkpt lat="43.64564" lon="1.37837">
        <ele>136</ele>
        <time>2023-12-20T16:34:34Z</time>
      </trkpt>
      <trkpt lat="43.64567" lon="1.37838">
        <ele>136</ele>
        <time>2023-12-20T16:34:35Z</time>
      </trkpt>
      <trkpt lat="43.64571" lon="1.37839">
        <ele>136</ele>
        <time>2023-12-20T16:34:36Z</time>
      </trkpt>
      <trkpt lat="43.64574" lon="1.3784">
        <ele>136</ele>
        <time>2023-12-20T16:34:37Z</time>
      </trkpt>
      <trkpt lat="43.64577" lon="1.37841">
        <ele>136</ele>
        <time>2023-12-20T16:34:38Z</time>
      </trkpt>
      <trkpt lat="43.6458" lon="1.37842">
        <ele>137</ele>
        <time>2023-12-20T16:34:39Z</time>
      </trkpt>
      <trkpt lat="43.64583" lon="1.37843">
        <ele>137</ele>
        <time>2023-12-20T16:34:40Z</time>
      </trkpt>
      <trkpt lat="43.64586" lon="1.37843">
        <ele>136</ele>
        <time>2023-12-20T16:34:41Z</time>
      </trkpt>
      <trkpt lat="43.64589" lon="1.37842">
        <ele>136</ele>
        <time>2023-12-20T16:34:42Z</time>
      </trkpt>
      <trkpt lat="43.64592" lon="1.37842">
        <ele>136</ele>
        <time>2023-12-20T16:34:43Z</time>
      </trkpt>
      <trkpt lat="43.64596" lon="1.37842">
        <ele>136</ele>
        <time>2023-12-20T16:34:44Z</time>
      </trkpt>
      <trkpt lat="43.64599" lon="1.37841">
        <ele>136</ele>
        <time>2023-12-20T16:34:45Z</time>
      </trkpt>
      <trkpt lat="43.64601" lon="1.37841">
        <ele>136</ele>
        <time>2023-12-20T16:34:46Z</time>
      </trkpt>
      <trkpt lat="43.64604" lon="1.37841">
        <ele>135</ele>
        <time>2023-12-20T16:34:47Z</time>
      </trkpt>
      <trkpt lat="43.64607" lon="1.37841">
        <ele>136</ele>
        <time>2023-12-20T16:34:48Z</time>
      </trkpt>
      <trkpt lat="43.64611" lon="1.37842">
        <ele>136</ele>
        <time>2023-12-20T16:34:49Z</time>
      </trkpt>
      <trkpt lat="43.64614" lon="1.37842">
        <ele>136</ele>
        <time>2023-12-20T16:34:50Z</time>
      </trkpt>
      <trkpt lat="43.64617" lon="1.37842">
        <ele>136</ele>
        <time>2023-12-20T16:34:51Z</time>
      </trkpt>
      <trkpt lat="43.6462" lon="1.37843">
        <ele>135</ele>
        <time>2023-12-20T16:34:52Z</time>
      </trkpt>
      <trkpt lat="43.64623" lon="1.37843">
        <ele>135</ele>
        <time>2023-12-20T16:34:53Z</time>
      </trkpt>
      <trkpt lat="43.64627" lon="1.37844">
        <ele>135</ele>
        <time>2023-12-20T16:34:54Z</time>
      </trkpt>
      <trkpt lat="43.6463" lon="1.37845">
        <ele>135</ele>
        <time>2023-12-20T16:34:55Z</time>
      </trkpt>
      <trkpt lat="43.64633" lon="1.37846">
        <ele>135</ele>
        <time>2023-12-20T16:34:56Z</time>
      </trkpt>
      <trkpt lat="43.64636" lon="1.37846">
        <ele>135</ele>
        <time>2023-12-20T16:34:57Z</time>
      </trkpt>
      <trkpt lat="43.6464" lon="1.37847">
        <ele>135</ele>
        <time>2023-12-20T16:34:58Z</time>
      </trkpt>
      <trkpt lat="43.64643" lon="1.37848">
        <ele>136</ele>
        <time>2023-12-20T16:34:59Z</time>
      </trkpt>
      <trkpt lat="43.64645" lon="1.37848">
        <ele>135</ele>
        <time>2023-12-20T16:35:00Z</time>
      </trkpt>
      <trkpt lat="43.64648" lon="1.37849">
        <ele>135</ele>
        <time>2023-12-20T16:35:01Z</time>
      </trkpt>
      <trkpt lat="43.64652" lon="1.3785">
        <ele>135</ele>
        <time>2023-12-20T16:35:02Z</time>
      </trkpt>
      <trkpt lat="43.64655" lon="1.37851">
        <ele>135</ele>
        <time>2023-12-20T16:35:03Z</time>
      </trkpt>
      <trkpt lat="43.64658" lon="1.37851">
        <ele>135</ele>
        <time>2023-12-20T16:35:04Z</time>
      </trkpt>
      <trkpt lat="43.64661" lon="1.37852">
        <ele>135</ele>
        <time>2023-12-20T16:35:05Z</time>
      </trkpt>
      <trkpt lat="43.64664" lon="1.37853">
        <ele>135</ele>
        <time>2023-12-20T16:35:06Z</time>
      </trkpt>
      <trkpt lat="43.64667" lon="1.37854">
        <ele>136</ele>
        <time>2023-12-20T16:35:07Z</time>
      </trkpt>
      <trkpt lat="43.6467" lon="1.37854">
        <ele>136</ele>
        <time>2023-12-20T16:35:08Z</time>
      </trkpt>
      <trkpt lat="43.64673" lon="1.37855">
        <ele>136</ele>
        <time>2023-12-20T16:35:09Z</time>
      </trkpt>
      <trkpt lat="43.64676" lon="1.37856">
        <ele>136</ele>
        <time>2023-12-20T16:35:10Z</time>
      </trkpt>
      <trkpt lat="43.64679" lon="1.37857">
        <ele>135</ele>
        <time>2023-12-20T16:35:11Z</time>
      </trkpt>
      <trkpt lat="43.64683" lon="1.37857">
        <ele>136</ele>
        <time>2023-12-20T16:35:12Z</time>
      </trkpt>
      <trkpt lat="43.64683" lon="1.37857">
        <ele>136</ele>
        <time>2023-12-20T16:35:13Z</time>
      </trkpt>
      <trkpt lat="43.64688" lon="1.37857">
        <ele>136</ele>
        <time>2023-12-20T16:35:14Z</time>
      </trkpt>
      <trkpt lat="43.64691" lon="1.37857">
        <ele>136</ele>
        <time>2023-12-20T16:35:15Z</time>
      </trkpt>
      <trkpt lat="43.64694" lon="1.37856">
        <ele>135</ele>
        <time>2023-12-20T16:35:16Z</time>
      </trkpt>
      <trkpt lat="43.64697" lon="1.37856">
        <ele>135</ele>
        <time>2023-12-20T16:35:17Z</time>
      </trkpt>
      <trkpt lat="43.647" lon="1.37856">
        <ele>136</ele>
        <time>2023-12-20T16:35:18Z</time>
      </trkpt>
      <trkpt lat="43.64702" lon="1.37855">
        <ele>136</ele>
        <time>2023-12-20T16:35:19Z</time>
      </trkpt>
      <trkpt lat="43.64705" lon="1.37853">
        <ele>136</ele>
        <time>2023-12-20T16:35:20Z</time>
      </trkpt>
      <trkpt lat="43.64708" lon="1.37852">
        <ele>136</ele>
        <time>2023-12-20T16:35:21Z</time>
      </trkpt>
      <trkpt lat="43.64711" lon="1.37852">
        <ele>136</ele>
        <time>2023-12-20T16:35:22Z</time>
      </trkpt>
      <trkpt lat="43.64714" lon="1.37851">
        <ele>135</ele>
        <time>2023-12-20T16:35:23Z</time>
      </trkpt>
      <trkpt lat="43.64717" lon="1.37851">
        <ele>135</ele>
        <time>2023-12-20T16:35:24Z</time>
      </trkpt>
      <trkpt lat="43.6472" lon="1.3785">
        <ele>135</ele>
        <time>2023-12-20T16:35:25Z</time>
      </trkpt>
      <trkpt lat="43.64723" lon="1.37849">
        <ele>135</ele>
        <time>2023-12-20T16:35:26Z</time>
      </trkpt>
      <trkpt lat="43.64726" lon="1.37847">
        <ele>135</ele>
        <time>2023-12-20T16:35:27Z</time>
      </trkpt>
      <trkpt lat="43.64729" lon="1.37846">
        <ele>135</ele>
        <time>2023-12-20T16:35:28Z</time>
      </trkpt>
      <trkpt lat="43.64732" lon="1.37844">
        <ele>135</ele>
        <time>2023-12-20T16:35:29Z</time>
      </trkpt>
      <trkpt lat="43.64734" lon="1.37843">
        <ele>136</ele>
        <time>2023-12-20T16:35:30Z</time>
      </trkpt>
      <trkpt lat="43.64737" lon="1.37841">
        <ele>136</ele>
        <time>2023-12-20T16:35:31Z</time>
      </trkpt>
      <trkpt lat="43.64741" lon="1.3784">
        <ele>136</ele>
        <time>2023-12-20T16:35:32Z</time>
      </trkpt>
      <trkpt lat="43.64743" lon="1.37838">
        <ele>136</ele>
        <time>2023-12-20T16:35:33Z</time>
      </trkpt>
      <trkpt lat="43.64746" lon="1.37836">
        <ele>136</ele>
        <time>2023-12-20T16:35:34Z</time>
      </trkpt>
      <trkpt lat="43.64749" lon="1.37834">
        <ele>136</ele>
        <time>2023-12-20T16:35:35Z</time>
      </trkpt>
      <trkpt lat="43.64752" lon="1.37833">
        <ele>137</ele>
        <time>2023-12-20T16:35:36Z</time>
      </trkpt>
      <trkpt lat="43.64754" lon="1.3783">
        <ele>137</ele>
        <time>2023-12-20T16:35:37Z</time>
      </trkpt>
      <trkpt lat="43.64757" lon="1.37829">
        <ele>137</ele>
        <time>2023-12-20T16:35:38Z</time>
      </trkpt>
      <trkpt lat="43.6476" lon="1.37828">
        <ele>137</ele>
        <time>2023-12-20T16:35:39Z</time>
      </trkpt>
      <trkpt lat="43.64764" lon="1.37827">
        <ele>137</ele>
        <time>2023-12-20T16:35:40Z</time>
      </trkpt>
      <trkpt lat="43.64767" lon="1.37827">
        <ele>137</ele>
        <time>2023-12-20T16:35:41Z</time>
      </trkpt>
      <trkpt lat="43.64771" lon="1.37827">
        <ele>136</ele>
        <time>2023-12-20T16:35:42Z</time>
      </trkpt>
      <trkpt lat="43.64774" lon="1.37827">
        <ele>136</ele>
        <time>2023-12-20T16:35:43Z</time>
      </trkpt>
      <trkpt lat="43.64778" lon="1.37827">
        <ele>136</ele>
        <time>2023-12-20T16:35:44Z</time>
      </trkpt>
      <trkpt lat="43.64781" lon="1.37828">
        <ele>136</ele>
        <time>2023-12-20T16:35:45Z</time>
      </trkpt>
      <trkpt lat="43.64785" lon="1.37828">
        <ele>136</ele>
        <time>2023-12-20T16:35:46Z</time>
      </trkpt>
      <trkpt lat="43.64788" lon="1.37828">
        <ele>136</ele>
        <time>2023-12-20T16:35:47Z</time>
      </trkpt>
      <trkpt lat="43.64791" lon="1.37828">
        <ele>136</ele>
        <time>2023-12-20T16:35:48Z</time>
      </trkpt>
      <trkpt lat="43.64795" lon="1.37828">
        <ele>135</ele>
        <time>2023-12-20T16:35:49Z</time>
      </trkpt>
      <trkpt lat="43.64798" lon="1.37828">
        <ele>135</ele>
        <time>2023-12-20T16:35:50Z</time>
      </trkpt>
      <trkpt lat="43.64801" lon="1.37828">
        <ele>135</ele>
        <time>2023-12-20T16:35:51Z</time>
      </trkpt>
      <trkpt lat="43.64804" lon="1.37828">
        <ele>135</ele>
        <time>2023-12-20T16:35:52Z</time>
      </trkpt>
      <trkpt lat="43.64807" lon="1.37828">
        <ele>135</ele>
        <time>2023-12-20T16:35:53Z</time>
      </trkpt>
      <trkpt lat="43.6481" lon="1.37828">
        <ele>135</ele>
        <time>2023-12-20T16:35:54Z</time>
      </trkpt>
      <trkpt lat="43.64812" lon="1.37828">
        <ele>135</ele>
        <time>2023-12-20T16:35:55Z</time>
      </trkpt>
      <trkpt lat="43.64815" lon="1.37829">
        <ele>135</ele>
        <time>2023-12-20T16:35:56Z</time>
      </trkpt>
      <trkpt lat="43.64817" lon="1.3783">
        <ele>135</ele>
        <time>2023-12-20T16:35:57Z</time>
      </trkpt>
      <trkpt lat="43.6482" lon="1.3783">
        <ele>135</ele>
        <time>2023-12-20T16:35:58Z</time>
      </trkpt>
      <trkpt lat="43.64823" lon="1.37831">
        <ele>135</ele>
        <time>2023-12-20T16:35:59Z</time>
      </trkpt>
      <trkpt lat="43.64826" lon="1.37832">
        <ele>135</ele>
        <time>2023-12-20T16:36:00Z</time>
      </trkpt>
      <trkpt lat="43.64829" lon="1.37832">
        <ele>135</ele>
        <time>2023-12-20T16:36:01Z</time>
      </trkpt>
      <trkpt lat="43.64832" lon="1.37833">
        <ele>135</ele>
        <time>2023-12-20T16:36:02Z</time>
      </trkpt>
      <trkpt lat="43.64834" lon="1.37834">
        <ele>135</ele>
        <time>2023-12-20T16:36:03Z</time>
      </trkpt>
      <trkpt lat="43.64837" lon="1.37835">
        <ele>135</ele>
        <time>2023-12-20T16:36:04Z</time>
      </trkpt>
      <trkpt lat="43.6484" lon="1.37836">
        <ele>135</ele>
        <time>2023-12-20T16:36:05Z</time>
      </trkpt>
      <trkpt lat="43.64843" lon="1.37837">
        <ele>135</ele>
        <time>2023-12-20T16:36:06Z</time>
      </trkpt>
      <trkpt lat="43.64845" lon="1.37838">
        <ele>135</ele>
        <time>2023-12-20T16:36:07Z</time>
      </trkpt>
      <trkpt lat="43.64848" lon="1.37839">
        <ele>135</ele>
        <time>2023-12-20T16:36:08Z</time>
      </trkpt>
      <trkpt lat="43.64851" lon="1.3784">
        <ele>135</ele>
        <time>2023-12-20T16:36:09Z</time>
      </trkpt>
      <trkpt lat="43.64854" lon="1.37841">
        <ele>134</ele>
        <time>2023-12-20T16:36:10Z</time>
      </trkpt>
      <trkpt lat="43.64857" lon="1.37841">
        <ele>134</ele>
        <time>2023-12-20T16:36:11Z</time>
      </trkpt>
      <trkpt lat="43.6486" lon="1.37842">
        <ele>134</ele>
        <time>2023-12-20T16:36:12Z</time>
      </trkpt>
      <trkpt lat="43.64863" lon="1.37843">
        <ele>134</ele>
        <time>2023-12-20T16:36:13Z</time>
      </trkpt>
      <trkpt lat="43.64866" lon="1.37844">
        <ele>134</ele>
        <time>2023-12-20T16:36:14Z</time>
      </trkpt>
      <trkpt lat="43.64869" lon="1.37846">
        <ele>134</ele>
        <time>2023-12-20T16:36:15Z</time>
      </trkpt>
      <trkpt lat="43.64873" lon="1.37847">
        <ele>134</ele>
        <time>2023-12-20T16:36:16Z</time>
      </trkpt>
      <trkpt lat="43.64876" lon="1.37849">
        <ele>135</ele>
        <time>2023-12-20T16:36:17Z</time>
      </trkpt>
      <trkpt lat="43.64879" lon="1.3785">
        <ele>135</ele>
        <time>2023-12-20T16:36:18Z</time>
      </trkpt>
      <trkpt lat="43.64883" lon="1.37852">
        <ele>135</ele>
        <time>2023-12-20T16:36:19Z</time>
      </trkpt>
      <trkpt lat="43.64886" lon="1.37853">
        <ele>135</ele>
        <time>2023-12-20T16:36:20Z</time>
      </trkpt>
      <trkpt lat="43.64889" lon="1.37855">
        <ele>135</ele>
        <time>2023-12-20T16:36:21Z</time>
      </trkpt>
      <trkpt lat="43.64892" lon="1.37856">
        <ele>135</ele>
        <time>2023-12-20T16:36:22Z</time>
      </trkpt>
      <trkpt lat="43.64895" lon="1.37857">
        <ele>135</ele>
        <time>2023-12-20T16:36:23Z</time>
      </trkpt>
      <trkpt lat="43.64898" lon="1.37857">
        <ele>135</ele>
        <time>2023-12-20T16:36:24Z</time>
      </trkpt>
      <trkpt lat="43.64901" lon="1.37858">
        <ele>135</ele>
        <time>2023-12-20T16:36:25Z</time>
      </trkpt>
      <trkpt lat="43.64904" lon="1.37859">
        <ele>135</ele>
        <time>2023-12-20T16:36:26Z</time>
      </trkpt>
      <trkpt lat="43.64907" lon="1.3786">
        <ele>135</ele>
        <time>2023-12-20T16:36:27Z</time>
      </trkpt>
      <trkpt lat="43.6491" lon="1.37861">
        <ele>135</ele>
        <time>2023-12-20T16:36:28Z</time>
      </trkpt>
      <trkpt lat="43.64913" lon="1.37861">
        <ele>136</ele>
        <time>2023-12-20T16:36:29Z</time>
      </trkpt>
      <trkpt lat="43.64916" lon="1.37861">
        <ele>136</ele>
        <time>2023-12-20T16:36:30Z</time>
      </trkpt>
      <trkpt lat="43.64919" lon="1.37861">
        <ele>136</ele>
        <time>2023-12-20T16:36:31Z</time>
      </trkpt>
      <trkpt lat="43.64921" lon="1.37861">
        <ele>135</ele>
        <time>2023-12-20T16:36:32Z</time>
      </trkpt>
      <trkpt lat="43.64921" lon="1.37861">
        <ele>135</ele>
        <time>2023-12-20T16:36:33Z</time>
      </trkpt>
      <trkpt lat="43.64921" lon="1.37857">
        <ele>135</ele>
        <time>2023-12-20T16:36:34Z</time>
      </trkpt>
      <trkpt lat="43.6492" lon="1.37853">
        <ele>135</ele>
        <time>2023-12-20T16:36:35Z</time>
      </trkpt>
      <trkpt lat="43.64919" lon="1.37849">
        <ele>136</ele>
        <time>2023-12-20T16:36:36Z</time>
      </trkpt>
      <trkpt lat="43.64918" lon="1.37845">
        <ele>136</ele>
        <time>2023-12-20T16:36:37Z</time>
      </trkpt>
      <trkpt lat="43.64917" lon="1.37841">
        <ele>136</ele>
        <time>2023-12-20T16:36:38Z</time>
      </trkpt>
      <trkpt lat="43.64916" lon="1.37837">
        <ele>136</ele>
        <time>2023-12-20T16:36:39Z</time>
      </trkpt>
      <trkpt lat="43.64915" lon="1.37833">
        <ele>136</ele>
        <time>2023-12-20T16:36:40Z</time>
      </trkpt>
      <trkpt lat="43.64914" lon="1.37829">
        <ele>136</ele>
        <time>2023-12-20T16:36:41Z</time>
      </trkpt>
      <trkpt lat="43.64913" lon="1.37825">
        <ele>137</ele>
        <time>2023-12-20T16:36:42Z</time>
      </trkpt>
      <trkpt lat="43.64912" lon="1.37821">
        <ele>137</ele>
        <time>2023-12-20T16:36:43Z</time>
      </trkpt>
      <trkpt lat="43.64911" lon="1.37818">
        <ele>137</ele>
        <time>2023-12-20T16:36:44Z</time>
      </trkpt>
      <trkpt lat="43.64911" lon="1.37815">
        <ele>136</ele>
        <time>2023-12-20T16:36:45Z</time>
      </trkpt>
      <trkpt lat="43.64911" lon="1.37815">
        <ele>136</ele>
        <time>2023-12-20T16:36:46Z</time>
      </trkpt>
    </trkseg>
  </trk>
</gpx>